# Wetter Temperatur Luftdruck Luftfeuchtigkeit Sichtweite Windgeschwindigkeit Windrichtung Zeit
1 Clear 18 1019 20 10000 7.72 10 12:20 22.04.2021
2 Clear 20 1019 19 10000 6.69 20 11:45 22.04.2021
3 Clear 20 1019 19 10000 6.69 20 11:23 22.04.2021
4 Clear 19 1019 22 10000 5.66 40 10:45 22.04.2021
5 Clear 19 1019 22 10000 5.66 40 10:24 22.04.2021
6 Clear 19 1019 19 10000 6.17 10 09:45 22.04.2021
7 Clear 19 1019 19 10000 6.17 10 09:20 22.04.2021
8 Clear 18 1019 20 10000 5.66 10 08:39 22.04.2021
9 Clear 18 1019 20 10000 5.66 10 08:19 22.04.2021
10 Clouds 17 1019 22 10000 6.69 30 07:45 22.04.2021
11 Clouds 17 1019 22 10000 6.69 30 07:24 22.04.2021
12 Clouds 17 1019 22 10000 6.17 20 06:27 22.04.2021
13 Clouds 15 1019 26 10000 6.69 20 05:26 22.04.2021
14 Clouds 13 1019 35 10000 2.57 0 04:30 22.04.2021
15 Clear 12 1019 40 10000 5.14 350 00:57 22.04.2021
16 Clear 13 1019 38 10000 7.72 360 23:48 21.04.2021
17 Clear 13 1019 38 10000 7.72 360 23:28 21.04.2021
18 Clear 12 1019 40 10000 4.12 330 22:44 21.04.2021
19 Clear 12 1019 40 10000 4.12 330 22:24 21.04.2021
20 Clear 12 1018 43 10000 3.09 330 21:49 21.04.2021
21 Clear 12 1018 43 10000 3.09 330 21:24 21.04.2021
22 Clear 12 1018 43 10000 3.09 330 20:58 21.04.2021
23 Clear 13 1019 41 10000 4.12 290 20:21 21.04.2021
24 Clear 14 1019 35 10000 3.6 300 19:43 21.04.2021
25 Clear 14 1019 35 10000 3.6 300 19:24 21.04.2021
26 Clear 15 1018 33 10000 2.57 0 18:46 21.04.2021
27 Clear 15 1018 33 10000 2.57 0 18:27 21.04.2021
28 Clouds 16 1018 29 10000 4.12 360 17:48 21.04.2021
29 Clouds 16 1018 29 10000 4.12 360 17:24 21.04.2021
30 Clouds 16 1018 29 10000 4.12 360 16:55 21.04.2021
31 Clear 18 1017 25 10000 5.66 30 15:59 21.04.2021
32 Clear 18 1017 25 10000 5.66 30 15:41 21.04.2021
33 Clear 21 1016 21 10000 7.2 360 14:55 21.04.2021
34 Clear 21 1016 21 10000 7.2 360 14:36 21.04.2021
35 Clear 21 1016 21 10000 7.2 360 14:18 21.04.2021
36 Clear 21 1016 18 10000 5.66 10 13:40 21.04.2021
37 Clear 21 1016 18 10000 5.66 10 13:20 21.04.2021
38 Clear 22 1017 20 10000 3.6 350 12:30 21.04.2021
39 Clear 21 1018 21 10000 2.57 330 11:50 21.04.2021
40 Clear 21 1018 21 10000 2.57 330 11:29 21.04.2021
41 Clear 21 1018 21 10000 2.57 0 10:51 21.04.2021
42 Clear 21 1018 21 10000 2.57 0 10:33 21.04.2021
43 Clear 19 1019 20 10000 2.06 0 09:44 21.04.2021
44 Clear 19 1019 20 10000 2.06 0 09:19 21.04.2021
45 Clear 18 1019 24 10000 2.57 0 08:40 21.04.2021
46 Clear 18 1019 24 10000 2.57 0 08:20 21.04.2021
47 Clear 18 1020 24 10000 1.54 0 07:31 21.04.2021
48 Clear 16 1020 29 10000 1.54 330 06:56 21.04.2021
49 Clear 13 1020 35 10000 1.54 0 05:20 21.04.2021
50 Clear 11 1019 43 10000 1.03 280 00:58 21.04.2021
51 Clear 11 1019 43 10000 1.03 280 23:51 20.04.2021
52 Clear 11 1018 43 10000 4.12 350 23:25 20.04.2021
53 Clear 12 1019 40 10000 5.66 10 22:41 20.04.2021
54 Clear 12 1019 40 10000 5.66 10 22:21 20.04.2021
55 Clear 13 1019 35 10000 7.72 30 21:47 20.04.2021
56 Clear 13 1019 35 10000 7.72 30 21:47 20.04.2021
57 Clear 13 1019 35 10000 7.72 30 21:25 20.04.2021
58 Clear 14 1018 33 10000 7.2 10 20:43 20.04.2021
59 Clear 14 1018 33 10000 7.2 10 20:24 20.04.2021
60 Clear 12 1018 35 10000 2.57 350 19:55 20.04.2021
61 Clear 12 1018 35 10000 2.57 350 19:37 20.04.2021
62 Clear 12 1018 35 10000 2.57 350 19:18 20.04.2021
63 Clear 13 1018 41 10000 2.57 350 18:35 20.04.2021
64 Clear 13 1018 41 10000 2.57 350 18:35 20.04.2021
65 Clouds 14 1018 35 10000 6.17 360 17:46 20.04.2021
66 Clouds 14 1018 35 10000 6.17 360 17:27 20.04.2021
67 Clouds 15 1017 33 10000 6.17 360 16:48 20.04.2021
68 Clouds 15 1017 33 10000 6.17 360 15:53 20.04.2021
69 Clouds 16 1016 29 10000 5.14 20 15:29 20.04.2021
70 Clouds 18 1016 27 10000 5.14 320 14:57 20.04.2021
71 Clouds 18 1016 27 10000 5.14 320 14:33 20.04.2021
72 Clouds 17 1015 29 10000 1.54 90 13:44 20.04.2021
73 Clouds 17 1015 29 10000 1.54 90 13:18 20.04.2021
74 Clouds 16 1016 29 10000 2.06 160 12:41 20.04.2021
75 Clouds 16 1016 29 10000 2.06 160 12:20 20.04.2021
76 Clouds 16 1016 29 10000 2.06 160 12:20 20.04.2021
77 Clouds 16 1016 33 10000 7.72 360 11:42 20.04.2021
78 Clouds 16 1016 33 10000 7.72 360 11:21 20.04.2021
79 Clouds 17 1017 36 10000 12.86 340 10:43 20.04.2021
80 Clouds 17 1017 36 10000 12.86 340 10:23 20.04.2021
81 Clouds 20 1016 26 10000 8.23 360 09:23 20.04.2021
82 Clouds 19 1017 27 10000 4.12 20 08:55 20.04.2021
83 Clouds 19 1017 27 10000 4.12 20 08:20 20.04.2021
84 Clouds 18 1017 29 10000 1.54 0 07:40 20.04.2021
85 Clear 17 1017 34 10000 1.03 0 06:37 20.04.2021
86 Clouds 14 1017 44 10000 1.03 110 05:38 20.04.2021
87 Clouds 11 1017 58 10000 1.54 130 04:41 20.04.2021
88 Clear 11 1016 54 10000 1.54 0 00:53 20.04.2021
89 Clouds 12 1017 47 10000 1.54 0 00:28 20.04.2021
90 Clouds 14 1017 38 10000 1.54 0 23:36 19.04.2021
91 Clouds 14 1017 38 10000 1.54 0 22:56 19.04.2021
92 Clouds 14 1018 41 10000 5.14 360 22:32 19.04.2021
93 Clear 15 1018 36 10000 5.14 20 21:48 19.04.2021
94 Clear 15 1018 36 10000 5.14 20 21:27 19.04.2021
95 Clear 15 1018 36 10000 5.14 20 20:46 19.04.2021
96 Clouds 15 1018 31 10000 4.12 80 20:24 19.04.2021
97 Clouds 15 1018 31 10000 4.12 80 19:58 19.04.2021
98 Clear 15 1018 36 10000 5.14 80 19:39 19.04.2021
99 Clear 15 1018 36 10000 5.14 80 19:18 19.04.2021
100 Clouds 16 1017 33 10000 5.14 90 18:44 19.04.2021
101 Clouds 16 1017 33 10000 5.14 90 18:21 19.04.2021
102 Clear 16 1016 36 10000 3.6 100 17:47 19.04.2021
103 Clear 16 1016 36 10000 3.6 100 17:26 19.04.2021
104 Clear 18 1015 32 10000 5.66 120 16:45 19.04.2021
105 Clear 18 1015 32 10000 5.66 120 16:26 19.04.2021
106 Clear 20 1015 24 10000 3.6 120 15:44 19.04.2021
107 Clear 20 1015 24 10000 3.6 120 15:24 19.04.2021
108 Clear 21 1015 14 10000 4.12 10 14:52 19.04.2021
109 Clear 21 1015 14 10000 4.12 10 14:32 19.04.2021
110 Clear 21 1015 14 10000 4.12 10 13:53 19.04.2021
111 Clear 23 1015 13 10000 2.57 0 13:28 19.04.2021
112 Clear 22 1016 12 10000 3.6 20 12:48 19.04.2021
113 Clear 22 1016 12 10000 3.6 20 12:28 19.04.2021
114 Clear 22 1016 12 10000 3.6 20 11:59 19.04.2021
115 Clear 22 1018 12 10000 1.54 0 11:39 19.04.2021
116 Clear 22 1018 12 10000 1.54 0 11:18 19.04.2021
117 Clear 22 1018 12 10000 1.54 0 11:18 19.04.2021
118 Clear 22 1018 12 10000 1.54 0 11:18 19.04.2021
119 Clear 22 1019 12 10000 1.03 0 10:41 19.04.2021
120 Clear 22 1019 12 10000 1.03 0 10:18 19.04.2021
121 Clear 20 1020 14 10000 1.54 0 09:40 19.04.2021
122 Clear 20 1020 14 10000 1.54 0 09:21 19.04.2021
123 Clear 20 1020 14 10000 1.54 0 09:21 19.04.2021
124 Clear 18 1020 19 10000 1.03 0 08:32 19.04.2021
125 Clear 18 1020 22 10000 1.54 0 07:49 19.04.2021
126 Clear 18 1020 22 10000 1.54 0 07:21 19.04.2021
127 Clear 15 1020 29 10000 0.51 0 06:45 19.04.2021
128 Clear 9 1020 46 10000 2.57 330 04:21 19.04.2021
129 Clouds 7 1020 49 9000 1.54 130 01:49 19.04.2021
130 Clouds 8 1021 46 9000 1.54 90 00:33 19.04.2021
131 Clear 9 1021 43 10000 1.54 140 23:20 18.04.2021
132 Clear 9 1021 43 10000 1.54 140 22:56 18.04.2021
133 Clear 8 1022 42 10000 1.03 120 22:31 18.04.2021
134 Clear 9 1022 37 10000 4.12 290 21:49 18.04.2021
135 Clear 9 1022 37 10000 4.12 290 21:27 18.04.2021
136 Clear 12 1023 28 10000 3.09 260 20:43 18.04.2021
137 Clear 12 1023 28 10000 3.09 260 20:24 18.04.2021
138 Clear 12 1023 28 10000 3.09 260 20:24 18.04.2021
139 Clear 12 1023 28 10000 3.09 260 19:56 18.04.2021
140 Clear 13 1023 24 10000 7.2 350 19:36 18.04.2021
141 Clear 13 1022 24 10000 5.14 350 18:59 18.04.2021
142 Clear 13 1022 24 10000 5.14 350 18:38 18.04.2021
143 Clear 13 1022 24 10000 5.14 350 18:20 18.04.2021
144 Clear 14 1022 19 10000 5.14 10 17:42 18.04.2021
145 Clear 14 1022 19 10000 5.14 10 17:24 18.04.2021
146 Clear 15 1021 20 10000 7.72 20 16:45 18.04.2021
147 Clear 15 1021 20 10000 7.72 20 16:19 18.04.2021
148 Clouds 17 1021 20 10000 5.66 10 15:41 18.04.2021
149 Clouds 17 1021 20 10000 5.66 10 15:23 18.04.2021
150 Clouds 18 1021 20 10000 7.2 40 14:42 18.04.2021
151 Clouds 18 1021 20 10000 7.2 40 14:20 18.04.2021
152 Clouds 19 1021 22 10000 5.66 20 13:54 18.04.2021
153 Clouds 19 1021 22 10000 5.66 20 13:31 18.04.2021
154 Clouds 19 1021 22 10000 5.66 20 12:44 18.04.2021
155 Clouds 19 1021 22 10000 5.66 20 12:44 18.04.2021
156 Clouds 19 1021 22 10000 5.66 20 12:23 18.04.2021
157 Clouds 19 1021 22 10000 5.14 40 11:41 18.04.2021
158 Clouds 19 1021 22 10000 5.14 40 11:20 18.04.2021
159 Clouds 19 1022 20 10000 3.6 40 10:46 18.04.2021
160 Clouds 19 1022 20 10000 3.6 40 10:21 18.04.2021
161 Clouds 18 1022 24 10000 2.06 110 09:44 18.04.2021
162 Clouds 18 1022 24 10000 2.06 110 09:26 18.04.2021
163 Clouds 17 1022 25 10000 2.06 0 08:48 18.04.2021
164 Clouds 17 1022 25 10000 2.06 0 08:29 18.04.2021
165 Clouds 17 1023 29 10000 2.57 100 07:53 18.04.2021
166 Clouds 17 1023 29 10000 2.57 100 07:35 18.04.2021
167 Clear 15 1022 41 10000 1.03 290 05:39 18.04.2021
168 Clear 15 1022 41 10000 1.03 290 05:21 18.04.2021
169 Clouds 9 1020 53 10000 3.09 310 02:24 18.04.2021
170 Clouds 9 1020 61 10000 3.09 310 01:31 18.04.2021
171 Clouds 10 1020 53 10000 5.14 330 00:28 18.04.2021
172 Clouds 9 1020 61 10000 3.09 320 23:27 17.04.2021
173 Clouds 11 1020 58 10000 3.09 340 22:49 17.04.2021
174 Clouds 11 1020 58 10000 3.09 340 22:29 17.04.2021
175 Clouds 12 1020 58 10000 5.14 20 21:45 17.04.2021
176 Clouds 12 1020 58 10000 5.14 20 21:24 17.04.2021
177 Clouds 14 1020 44 9000 10.29 330 20:41 17.04.2021
178 Clouds 14 1019 41 10000 1.54 160 20:23 17.04.2021
179 Clouds 16 1018 31 10000 6.17 50 19:42 17.04.2021
180 Clouds 16 1018 31 10000 6.17 50 19:20 17.04.2021
181 Clouds 16 1018 33 10000 3.09 70 18:49 17.04.2021
182 Clouds 16 1018 33 10000 3.09 70 18:23 17.04.2021
183 Clouds 17 1017 25 10000 3.6 160 17:42 17.04.2021
184 Clouds 18 1016 22 10000 7.72 360 16:58 17.04.2021
185 Clouds 18 1016 22 10000 7.72 360 16:39 17.04.2021
186 Clouds 18 1016 22 10000 7.72 360 16:19 17.04.2021
187 Clouds 19 1016 22 10000 6.17 360 15:22 17.04.2021
188 Clouds 20 1016 22 10000 5.14 360 14:43 17.04.2021
189 Clouds 20 1016 22 10000 5.14 360 14:19 17.04.2021
190 Clouds 21 1016 23 10000 5.14 340 13:42 17.04.2021
191 Clouds 21 1016 23 10000 3.09 40 12:48 17.04.2021
192 Clouds 21 1016 23 10000 3.09 40 12:23 17.04.2021
193 Clear 20 1017 28 10000 4.63 80 11:51 17.04.2021
194 Clear 20 1017 28 10000 4.63 80 11:32 17.04.2021
195 Clear 20 1018 30 10000 2.57 0 10:48 17.04.2021
196 Clear 20 1018 30 10000 2.57 0 10:29 17.04.2021
197 Clear 19 1018 30 10000 2.57 0 09:46 17.04.2021
198 Clear 18 1018 36 10000 2.06 0 08:54 17.04.2021
199 Clear 18 1018 36 10000 2.06 0 08:28 17.04.2021
200 Clear 16 1019 44 10000 1.54 0 07:45 17.04.2021
201 Clear 11 1018 76 10000 1.54 0 04:51 17.04.2021
202 Clouds 8 1017 93 8000 1.54 0 03:40 17.04.2021
203 Clouds 8 1017 87 8000 1.54 0 00:55 17.04.2021
204 Clear 9 1017 87 10000 1.54 0 00:30 17.04.2021
205 Clear 9 1017 87 10000 1.54 0 23:55 16.04.2021
206 Clear 10 1017 81 10000 1.54 320 23:33 16.04.2021
207 Clear 10 1017 81 10000 1.54 320 22:51 16.04.2021
208 Clear 10 1018 81 10000 1.54 0 22:22 16.04.2021
209 Clear 10 1018 81 10000 1.54 0 21:56 16.04.2021
210 Clear 11 1014 63 10000 1.46 347 21:38 16.04.2021
211 Clear 11 1018 76 10000 1.54 0 20:55 16.04.2021
212 Clear 11 1014 62 10000 1.62 3 20:35 16.04.2021
213 Clear 12 1018 76 10000 1.54 160 19:56 16.04.2021
214 Clouds 12 1014 58 10000 1.45 18 19:37 16.04.2021
215 Clear 12 1018 71 10000 1.54 100 18:47 16.04.2021
216 Clear 12 1018 71 10000 1.54 100 18:21 16.04.2021
217 Clouds 13 1017 62 10000 3.09 120 17:46 16.04.2021
218 Clouds 13 1017 62 10000 3.09 120 17:19 16.04.2021
219 Clouds 17 1016 34 10000 5.14 10 16:44 16.04.2021
220 Clouds 17 1016 34 10000 5.14 10 16:44 16.04.2021
221 Clouds 17 1016 34 10000 5.14 10 16:25 16.04.2021
222 Clouds 17 1016 34 10000 5.14 10 15:51 16.04.2021
223 Clouds 18 1017 36 10000 3.6 360 15:23 16.04.2021
224 Clouds 18 1017 39 10000 2.57 50 14:43 16.04.2021
225 Clouds 18 1017 39 10000 2.57 50 14:20 16.04.2021
226 Clouds 18 1017 39 10000 2.57 50 13:50 16.04.2021
227 Clouds 18 1017 36 10000 3.6 60 13:21 16.04.2021
228 Clouds 18 1018 42 10000 3.6 70 12:49 16.04.2021
229 Clouds 18 1018 42 10000 3.6 70 12:29 16.04.2021
230 Clouds 18 1018 42 10000 3.6 70 11:55 16.04.2021
231 Clouds 17 1019 45 10000 3.09 80 11:27 16.04.2021
232 Clouds 17 1019 45 10000 3.09 80 10:56 16.04.2021
233 Clouds 16 1019 48 10000 1.54 0 10:37 16.04.2021
234 Clouds 16 1019 48 10000 1.54 0 10:19 16.04.2021
235 Clouds 15 1020 51 10000 2.06 80 09:42 16.04.2021
236 Clouds 15 1020 51 10000 2.06 80 09:20 16.04.2021
237 Clouds 14 1020 62 10000 1.54 0 08:41 16.04.2021
238 Clouds 14 1020 62 10000 1.54 0 08:18 16.04.2021
239 Clouds 13 1021 67 9000 1.03 0 07:36 16.04.2021
240 Clouds 13 1021 67 9000 1.03 0 06:58 16.04.2021
241 Mist 8 1020 93 4000 1.54 100 05:34 16.04.2021
242 Mist 6 1020 100 6000 2.57 150 04:21 16.04.2021
243 Clear 7 1020 87 10000 1.54 0 00:58 16.04.2021
244 Clear 7 1020 87 10000 1.54 0 00:40 16.04.2021
245 Clear 8 1020 87 10000 3.6 330 00:19 16.04.2021
246 Clear 8 1020 87 10000 3.6 330 23:41 15.04.2021
247 Clear 8 1020 87 10000 3.6 330 23:23 15.04.2021
248 Clear 8 1020 87 10000 3.6 330 23:23 15.04.2021
249 Clear 8 1020 87 10000 1.54 50 22:40 15.04.2021
250 Clear 8 1020 87 10000 1.54 50 22:21 15.04.2021
251 Clear 8 1020 87 10000 2.06 100 21:42 15.04.2021
252 Clear 8 1020 87 10000 2.06 100 21:20 15.04.2021
253 Clear 9 1020 87 10000 1.54 0 20:44 15.04.2021
254 Clear 9 1020 87 10000 1.54 0 20:44 15.04.2021
255 Clear 9 1020 87 10000 1.54 0 20:23 15.04.2021
256 Clear 9 1020 81 10000 1.54 100 19:44 15.04.2021
257 Clear 9 1020 81 10000 1.54 100 19:25 15.04.2021
258 Clouds 9 1020 81 10000 2.57 100 18:42 15.04.2021
259 Clouds 9 1020 81 10000 2.57 100 18:21 15.04.2021
260 Clouds 9 1020 81 10000 2.57 100 17:55 15.04.2021
261 Clouds 9 1020 81 10000 2.57 100 17:55 15.04.2021
262 Clouds 10 1020 81 10000 3.09 70 17:36 15.04.2021
263 Clouds 10 1020 81 10000 3.09 70 16:57 15.04.2021
264 Clouds 10 1020 81 10000 3.09 70 16:57 15.04.2021
265 Clouds 10 1020 81 10000 1.54 0 16:39 15.04.2021
266 Clouds 10 1020 81 10000 1.54 0 16:20 15.04.2021
267 Clouds 12 1020 66 10000 2.06 90 15:44 15.04.2021
268 Clouds 12 1020 66 10000 2.06 90 15:25 15.04.2021
269 Clouds 12 1020 66 10000 2.06 90 15:25 15.04.2021
270 Clouds 12 1020 66 10000 3.09 60 14:40 15.04.2021
271 Clouds 12 1020 66 10000 3.09 60 14:22 15.04.2021
272 Clouds 13 1020 67 10000 1.54 0 13:42 15.04.2021
273 Clouds 13 1020 67 10000 1.54 0 13:18 15.04.2021
274 Rain 9 1021 87 10000 3.09 150 12:40 15.04.2021
275 Clouds 9 1021 87 10000 3.09 150 12:21 15.04.2021
276 Clouds 9 1021 87 10000 1.54 0 11:45 15.04.2021
277 Clouds 8 1021 93 8000 1.03 0 11:23 15.04.2021
278 Clouds 8 1021 93 8000 1.03 0 11:23 15.04.2021
279 Clouds 8 1021 93 10000 4.63 310 10:49 15.04.2021
280 Rain 8 1021 93 10000 4.63 310 10:27 15.04.2021
281 Rain 8 1021 87 10000 5.66 360 09:46 15.04.2021
282 Rain 8 1021 87 10000 5.66 360 09:18 15.04.2021
283 Clouds 9 1021 81 10000 8.23 360 08:42 15.04.2021
284 Rain 9 1021 81 10000 8.23 360 07:53 15.04.2021
285 Rain 9 1020 87 10000 6.17 360 07:24 15.04.2021
286 Clouds 9 1020 93 8000 5.66 330 06:39 15.04.2021
287 Clouds 9 1020 93 8000 5.66 330 06:20 15.04.2021
288 Clouds 10 1019 87 10000 1.54 0 04:51 15.04.2021
289 Drizzle 10 1019 87 10000 2.57 340 00:54 15.04.2021
290 Rain 11 1019 82 10000 3.09 350 23:41 14.04.2021
291 Clouds 11 1019 82 10000 3.09 350 23:22 14.04.2021
292 Drizzle 11 1020 87 10000 1.54 0 22:46 14.04.2021
293 Drizzle 11 1020 87 10000 1.54 0 22:25 14.04.2021
294 Drizzle 11 1020 87 10000 1.54 0 22:25 14.04.2021
295 Drizzle 11 1020 87 10000 1.54 0 21:47 14.04.2021
296 Clouds 11 1021 76 10000 2.57 0 21:28 14.04.2021
297 Clouds 12 1021 71 10000 5.14 360 20:56 14.04.2021
298 Clouds 12 1021 71 10000 5.14 360 20:34 14.04.2021
299 Clouds 12 1021 66 10000 2.06 0 19:53 14.04.2021
300 Clouds 12 1021 66 10000 2.06 0 19:20 14.04.2021
301 Clouds 15 1014 54 10000 1.88 27 18:57 14.04.2021
302 Clouds 12 1020 71 10000 6.17 350 18:22 14.04.2021
303 Clouds 12 1020 71 10000 6.17 350 17:58 14.04.2021
304 Clouds 12 1020 71 10000 6.17 350 17:28 14.04.2021
305 Clouds 12 1021 76 10000 7.72 310 16:54 14.04.2021
306 Clouds 12 1021 76 10000 7.72 310 16:27 14.04.2021
307 Rain 15 1020 51 8000 5.14 350 15:44 14.04.2021
308 Rain 16 1019 48 10000 6.17 350 15:26 14.04.2021
309 Rain 17 1019 45 10000 5.66 10 14:51 14.04.2021
310 Clouds 17 1019 45 10000 5.66 10 14:27 14.04.2021
311 Rain 17 1019 45 10000 5.66 10 13:59 14.04.2021
312 Clouds 17 1019 48 10000 4.63 10 13:37 14.04.2021
313 Clouds 17 1020 42 10000 5.14 10 12:39 14.04.2021
314 Clouds 17 1021 45 10000 6.17 350 11:44 14.04.2021
315 Clouds 17 1021 45 10000 6.17 350 11:25 14.04.2021
316 Clouds 17 1021 45 10000 6.17 350 10:56 14.04.2021
317 Clouds 18 1021 45 10000 4.63 10 10:33 14.04.2021
318 Clouds 19 1022 42 10000 4.63 350 09:43 14.04.2021
319 Clouds 19 1022 42 10000 4.63 350 09:21 14.04.2021
320 Clouds 17 1024 51 10000 2.06 0 08:47 14.04.2021
321 Clouds 17 1024 51 10000 2.06 0 08:22 14.04.2021
322 Clouds 14 1024 54 10000 1.03 0 07:26 14.04.2021
323 Clouds 11 1023 66 10000 1.03 100 06:26 14.04.2021
324 Clouds 11 1022 66 10000 4.12 80 05:20 14.04.2021
325 Clouds 11 1021 54 10000 1.54 0 01:54 14.04.2021
326 Clouds 13 1021 47 10000 1.54 0 00:47 14.04.2021
327 Clouds 13 1021 47 10000 1.54 0 23:59 13.04.2021
328 Clouds 13 1021 47 10000 1.54 10 23:30 13.04.2021
329 Clouds 12 1021 50 10000 1.54 310 22:44 13.04.2021
330 Clouds 12 1021 50 10000 1.54 310 22:19 13.04.2021
331 Clouds 14 1022 44 10000 1.54 130 21:47 13.04.2021
332 Clouds 14 1022 44 10000 1.54 130 21:29 13.04.2021
333 Clouds 14 1022 41 10000 1.54 0 20:43 13.04.2021
334 Clouds 14 1022 41 10000 1.54 0 20:24 13.04.2021
335 Clouds 17 1021 29 10000 5.66 360 19:50 13.04.2021
336 Clouds 17 1021 29 10000 5.66 360 19:25 13.04.2021
337 Clouds 17 1021 29 10000 5.66 360 19:25 13.04.2021
338 Clear 18 1021 27 10000 7.2 360 18:44 13.04.2021
339 Clear 18 1021 27 10000 7.2 360 18:25 13.04.2021
340 Clouds 18 1020 32 10000 7.2 360 17:40 13.04.2021
341 Clouds 18 1020 32 10000 7.2 360 17:18 13.04.2021
342 Clouds 18 1020 36 10000 3.6 310 16:45 13.04.2021
343 Clouds 18 1020 36 10000 3.6 310 16:23 13.04.2021
344 Clouds 20 1020 32 10000 5.14 10 15:53 13.04.2021
345 Clouds 20 1020 32 10000 5.14 10 15:34 13.04.2021
346 Clouds 21 1020 35 10000 6.69 10 14:47 13.04.2021
347 Clouds 21 1020 35 10000 6.69 10 14:22 13.04.2021
348 Clouds 22 1020 33 10000 5.14 360 13:45 13.04.2021
349 Clouds 22 1020 33 10000 5.14 360 13:25 13.04.2021
350 Clouds 22 1020 33 10000 5.14 360 12:58 13.04.2021
351 Clouds 21 1021 40 10000 2.57 40 12:31 13.04.2021
352 Clouds 21 1021 40 10000 2.57 40 11:58 13.04.2021
353 Clouds 20 1022 42 10000 3.09 10 11:31 13.04.2021
354 Clouds 19 1023 48 10000 3.09 50 10:55 13.04.2021
355 Clouds 19 1023 48 10000 3.09 50 10:24 13.04.2021
356 Clouds 18 1024 48 10000 1.54 0 09:59 13.04.2021
357 Clouds 18 1024 48 10000 1.54 0 09:39 13.04.2021
358 Clouds 18 1024 48 10000 1.54 0 09:18 13.04.2021
359 Clouds 17 1025 51 10000 2.57 340 08:41 13.04.2021
360 Clouds 17 1025 51 10000 2.57 340 08:20 13.04.2021
361 Clouds 16 1025 59 10000 1.03 0 07:36 13.04.2021
362 Clouds 13 1025 71 10000 1.54 0 06:31 13.04.2021
363 Clouds 9 1025 87 10000 1.03 100 04:50 13.04.2021
364 Clouds 10 1024 81 10000 3.09 300 02:37 13.04.2021
365 Clouds 12 1024 76 10000 1.54 0 00:33 13.04.2021
366 Rain 13 1025 71 10000 1.54 180 23:49 12.04.2021
367 Rain 13 1025 71 10000 1.54 180 23:26 12.04.2021
368 Rain 12 1025 82 7000 1.03 130 22:39 12.04.2021
369 Clouds 12 1025 82 7000 1.03 130 22:18 12.04.2021
370 Clouds 12 1025 82 10000 2.57 80 21:45 12.04.2021
371 Clouds 12 1025 82 10000 2.57 80 21:19 12.04.2021
372 Rain 13 1025 76 10000 1.54 100 20:41 12.04.2021
373 Rain 13 1025 76 10000 1.54 100 20:22 12.04.2021
374 Clouds 13 1025 76 10000 1.54 100 19:55 12.04.2021
375 Clouds 16 1025 51 10000 7.72 270 19:36 12.04.2021
376 Clouds 16 1025 51 10000 7.72 270 19:18 12.04.2021
377 Clouds 16 1025 48 10000 9.77 260 18:42 12.04.2021
378 Clouds 16 1025 48 10000 9.77 260 18:42 12.04.2021
379 Clouds 18 1023 34 10000 5.14 250 18:24 12.04.2021
380 Clouds 18 1022 34 10000 1.54 0 17:43 12.04.2021
381 Clouds 18 1022 34 10000 1.54 0 17:23 12.04.2021
382 Clouds 19 1021 30 10000 1.54 0 16:47 12.04.2021
383 Clouds 19 1021 30 10000 1.54 0 16:27 12.04.2021
384 Clouds 21 1021 26 10000 1.54 30 15:48 12.04.2021
385 Clouds 21 1021 26 10000 1.54 30 15:27 12.04.2021
386 Clouds 21 1021 26 10000 1.54 30 14:50 12.04.2021
387 Clouds 22 1021 24 10000 3.09 350 14:30 12.04.2021
388 Clouds 22 1021 24 10000 3.09 350 14:30 12.04.2021
389 Clouds 21 1022 24 10000 5.14 70 13:46 12.04.2021
390 Clouds 21 1022 24 10000 5.14 70 13:27 12.04.2021
391 Clouds 21 1022 26 10000 2.06 30 12:48 12.04.2021
392 Clouds 21 1022 26 10000 2.06 30 12:26 12.04.2021
393 Clouds 21 1023 30 10000 3.6 110 11:59 12.04.2021
394 Clouds 21 1023 30 10000 3.6 110 11:20 12.04.2021
395 Clear 20 1024 30 10000 2.57 0 10:43 12.04.2021
396 Clear 20 1024 30 10000 2.57 0 10:23 12.04.2021
397 Clear 20 1024 34 10000 3.6 10 09:46 12.04.2021
398 Clear 20 1024 34 10000 3.6 10 09:18 12.04.2021
399 Clear 18 1025 39 9000 2.57 220 08:36 12.04.2021
400 Clouds 17 1026 42 9000 2.06 310 07:40 12.04.2021
401 Clouds 17 1026 42 9000 2.06 310 07:20 12.04.2021
402 Clouds 15 1025 47 9000 1.54 60 05:53 12.04.2021
403 Clouds 10 1024 66 10000 1.03 0 04:48 12.04.2021
404 Clouds 10 1023 62 10000 1.54 340 01:31 12.04.2021
405 Clouds 10 1023 62 10000 1.54 350 00:25 12.04.2021
406 Clouds 12 1024 54 10000 2.57 140 23:48 11.04.2021
407 Clouds 12 1024 54 10000 2.57 140 23:29 11.04.2021
408 Clouds 11 1024 58 10000 1.54 0 22:46 11.04.2021
409 Clouds 11 1024 58 10000 1.54 0 22:25 11.04.2021
410 Clouds 12 1024 54 10000 1.54 350 21:49 11.04.2021
411 Clouds 12 1024 54 10000 1.54 350 21:30 11.04.2021
412 Clouds 12 1024 54 10000 1.54 350 20:58 11.04.2021
413 Clear 11 1024 58 10000 2.06 330 20:31 11.04.2021
414 Clear 11 1024 58 10000 2.06 330 19:58 11.04.2021
415 Clouds 12 1024 54 10000 1.54 330 19:38 11.04.2021
416 Clouds 12 1024 54 10000 1.54 330 19:19 11.04.2021
417 Clouds 12 1024 54 10000 1.54 330 19:19 11.04.2021
418 Clouds 12 1024 54 10000 1.54 330 19:19 11.04.2021
419 Clouds 12 1024 54 10000 1.54 330 19:19 11.04.2021
420 Clouds 15 1023 44 10000 3.6 200 18:45 11.04.2021
421 Clouds 15 1023 44 10000 3.6 200 18:25 11.04.2021
422 Clouds 15 1023 47 10000 4.63 260 17:48 11.04.2021
423 Clouds 15 1023 47 10000 4.63 260 17:28 11.04.2021
424 Clouds 14 1023 54 10000 7.2 240 16:52 11.04.2021
425 Clouds 14 1023 54 10000 7.2 240 16:52 11.04.2021
426 Clouds 14 1023 54 10000 7.2 240 16:25 11.04.2021
427 Clouds 14 1023 54 10000 7.2 240 15:57 11.04.2021
428 Rain 14 1023 54 10000 7.2 240 15:38 11.04.2021
429 Rain 14 1023 54 10000 7.2 240 15:19 11.04.2021
430 Rain 17 1022 39 10000 5.14 350 14:46 11.04.2021
431 Rain 17 1022 39 10000 5.14 350 14:18 11.04.2021
432 Clouds 19 1021 32 10000 5.14 340 13:36 11.04.2021
433 Clouds 19 1021 32 10000 5.14 340 13:18 11.04.2021
434 Clouds 18 1021 32 10000 3.6 50 12:23 11.04.2021
435 Clouds 18 1021 32 10000 3.6 50 11:53 11.04.2021
436 Clouds 18 1021 32 10000 7.2 300 11:31 11.04.2021
437 Clouds 18 1022 45 10000 7.2 20 10:56 11.04.2021
438 Clouds 18 1022 45 10000 7.2 20 10:38 11.04.2021
439 Clouds 19 1022 32 10000 3.6 100 10:19 11.04.2021
440 Clouds 19 1022 39 9000 2.57 340 09:37 11.04.2021
441 Clouds 19 1022 39 9000 2.57 340 09:19 11.04.2021
442 Clouds 17 1023 45 9000 2.06 40 08:31 11.04.2021
443 Clouds 17 1023 45 9000 1.54 130 07:25 11.04.2021
444 Clouds 15 1023 47 8000 1.54 190 06:57 11.04.2021
445 Clouds 12 1023 71 7000 1.03 0 05:44 11.04.2021
446 Clouds 12 1023 71 7000 1.03 0 05:21 11.04.2021
447 Clouds 9 1023 81 8000 1.03 170 04:35 11.04.2021
448 Clouds 8 1022 81 8000 1.03 30 02:56 11.04.2021
449 Clouds 9 1023 76 10000 1.54 90 00:40 11.04.2021
450 Clouds 9 1023 76 10000 1.54 90 00:40 11.04.2021
451 Clouds 9 1023 76 10000 1.54 90 23:52 10.04.2021
452 Rain 9 1023 76 10000 1.54 310 23:27 10.04.2021
453 Clouds 9 1023 76 10000 2.57 330 22:45 10.04.2021
454 Clouds 9 1023 76 10000 2.57 330 22:24 10.04.2021
455 Clouds 9 1023 76 10000 2.57 330 21:51 10.04.2021
456 Clear 10 1024 76 10000 1.54 0 21:23 10.04.2021
457 Clouds 11 1024 66 10000 3.6 90 20:48 10.04.2021
458 Clouds 11 1024 66 10000 3.6 90 20:29 10.04.2021
459 Clouds 15 1024 47 9000 7.72 290 19:45 10.04.2021
460 Clouds 15 1024 47 9000 7.72 290 19:27 10.04.2021
461 Clouds 15 1024 47 9000 7.72 290 18:54 10.04.2021
462 Clouds 16 1022 39 10000 2.06 140 18:34 10.04.2021
463 Clouds 16 1021 36 10000 1.54 0 17:44 10.04.2021
464 Clouds 16 1021 36 10000 1.54 0 17:23 10.04.2021
465 Clouds 17 1021 36 10000 5.14 360 16:31 10.04.2021
466 Clouds 17 1021 36 10000 5.14 360 15:56 10.04.2021
467 Clouds 18 1020 32 10000 4.12 360 15:35 10.04.2021
468 Clouds 19 1020 32 10000 5.14 360 14:50 10.04.2021
469 Clouds 19 1020 32 10000 5.14 360 14:25 10.04.2021
470 Clouds 20 1021 30 10000 5.66 360 13:47 10.04.2021
471 Clouds 20 1021 30 10000 5.66 360 13:28 10.04.2021
472 Clouds 20 1021 30 10000 3.09 0 12:37 10.04.2021
473 Clouds 20 1022 30 10000 4.12 320 11:52 10.04.2021
474 Clouds 20 1022 30 10000 4.12 320 11:28 10.04.2021
475 Clouds 20 1022 30 10000 4.12 320 10:57 10.04.2021
476 Clouds 19 1022 30 10000 2.57 0 10:39 10.04.2021
477 Clouds 19 1022 30 10000 2.57 0 10:21 10.04.2021
478 Clouds 18 1023 36 10000 2.57 100 09:29 10.04.2021
479 Clouds 18 1024 34 10000 3.09 40 08:58 10.04.2021
480 Clouds 18 1024 34 10000 3.09 40 08:30 10.04.2021
481 Clouds 18 1024 32 10000 1.03 0 07:52 10.04.2021
482 Clouds 18 1024 32 10000 1.03 0 07:25 10.04.2021
483 Clear 15 1024 38 10000 1.03 0 06:27 10.04.2021
484 Clear 15 1024 38 10000 1.03 0 06:27 10.04.2021
485 Clear 11 1023 46 10000 2.06 0 04:49 10.04.2021
486 Clouds 11 1022 46 10000 4.12 10 02:58 10.04.2021
487 Clear 11 1022 43 10000 5.14 340 02:37 10.04.2021
488 Clear 12 1021 40 10000 5.14 350 00:55 10.04.2021
489 Clear 11 1021 40 10000 1.54 0 00:30 10.04.2021
490 Clear 12 1021 43 10000 4.12 50 23:45 09.04.2021
491 Clear 12 1021 43 10000 4.12 50 23:20 09.04.2021
492 Clear 12 1021 43 10000 4.12 50 22:44 09.04.2021
493 Clouds 12 1022 37 10000 1.54 60 22:25 09.04.2021
494 Clouds 15 1022 31 10000 4.12 30 21:39 09.04.2021
495 Clouds 13 1022 35 10000 4.12 70 21:19 09.04.2021
496 Clouds 13 1022 35 10000 4.12 70 20:45 09.04.2021
497 Clouds 13 1022 35 10000 4.12 70 20:23 09.04.2021
498 Clouds 13 1022 35 10000 4.12 70 19:57 09.04.2021
499 Clouds 15 1021 26 10000 6.17 70 19:39 09.04.2021
500 Clouds 15 1021 26 10000 6.17 70 19:20 09.04.2021
501 Clouds 14 1021 24 10000 4.63 110 18:41 09.04.2021
502 Clouds 14 1021 24 10000 4.63 110 18:21 09.04.2021
503 Clear 15 1020 23 10000 8.23 120 17:43 09.04.2021
504 Clear 15 1020 23 10000 8.23 120 17:21 09.04.2021
505 Clear 15 1019 29 10000 4.63 90 16:39 09.04.2021
506 Clear 15 1019 29 10000 4.63 90 15:59 09.04.2021
507 Clear 17 1018 25 10000 6.69 110 15:40 09.04.2021
508 Clear 17 1018 25 10000 6.69 110 15:19 09.04.2021
509 Clear 18 1018 22 10000 5.14 90 14:42 09.04.2021
510 Clear 20 1018 18 10000 4.63 20 13:57 09.04.2021
511 Clear 20 1018 18 10000 4.63 20 13:38 09.04.2021
512 Clear 20 1018 18 10000 4.63 20 13:19 09.04.2021
513 Clear 20 1019 18 10000 2.06 0 12:39 09.04.2021
514 Clear 19 1020 18 10000 2.57 140 11:48 09.04.2021
515 Clear 19 1020 18 10000 2.57 140 11:23 09.04.2021
516 Clear 18 1020 19 10000 2.57 210 10:49 09.04.2021
517 Clear 18 1020 19 10000 2.57 210 10:30 09.04.2021
518 Clear 17 1021 27 10000 3.09 40 09:51 09.04.2021
519 Clear 17 1021 27 10000 3.09 40 09:25 09.04.2021
520 Clear 17 1021 27 10000 3.09 40 08:53 09.04.2021
521 Clear 16 1021 23 10000 1.03 0 08:18 09.04.2021
522 Clear 15 1021 23 10000 1.54 0 07:18 09.04.2021
523 Clear 15 1021 26 10000 1.03 0 06:21 09.04.2021
524 Clear 6 1020 61 10000 0.71 321 03:54 09.04.2021
525 Clear 6 1019 56 8000 1.03 0 02:18 09.04.2021
526 Clear 7 1019 53 10000 2.06 120 00:38 09.04.2021
527 Clear 7 1019 53 10000 2.06 120 00:19 09.04.2021
528 Clear 8 1020 42 10000 1.03 0 23:29 08.04.2021
529 Clear 10 1020 37 10000 1.03 0 22:45 08.04.2021
530 Clear 10 1020 37 10000 1.03 0 22:25 08.04.2021
531 Clear 11 1020 32 10000 1.54 0 21:57 08.04.2021
532 Clear 11 1020 32 10000 1.54 0 21:37 08.04.2021
533 Clear 11 1020 32 10000 1.54 0 21:19 08.04.2021
534 Clear 11 1020 32 10000 1.54 0 20:52 08.04.2021
535 Clear 11 1020 30 10000 1.54 280 20:31 08.04.2021
536 Clear 12 1020 28 10000 3.09 350 19:49 08.04.2021
537 Clear 12 1020 28 10000 3.09 350 19:20 08.04.2021
538 Clear 14 1020 23 10000 6.17 20 18:51 08.04.2021
539 Clear 14 1020 23 10000 6.17 20 18:21 08.04.2021
540 Clouds 14 1019 21 10000 4.63 20 17:50 08.04.2021
541 Clouds 14 1019 21 10000 4.63 20 17:26 08.04.2021
542 Clouds 14 1019 21 10000 4.63 20 16:54 08.04.2021
543 Clouds 15 1019 18 10000 6.69 20 16:34 08.04.2021
544 Clouds 17 1018 19 10000 5.66 360 15:49 08.04.2021
545 Clouds 17 1018 19 10000 5.66 360 15:29 08.04.2021
546 Clouds 17 1018 19 10000 5.66 360 14:58 08.04.2021
547 Clouds 17 1018 20 10000 1.54 350 14:36 08.04.2021
548 Clouds 17 1018 20 10000 1.54 350 14:18 08.04.2021
549 Clouds 19 1018 19 10000 2.06 360 13:43 08.04.2021
550 Clouds 19 1018 19 10000 2.06 360 13:23 08.04.2021
551 Clouds 18 1018 22 10000 4.63 20 12:44 08.04.2021
552 Clouds 18 1018 22 10000 4.63 20 12:25 08.04.2021
553 Clouds 19 1019 19 10000 3.09 80 11:43 08.04.2021
554 Clouds 19 1019 19 10000 3.09 80 11:18 08.04.2021
555 Clouds 18 1019 22 10000 2.06 150 10:42 08.04.2021
556 Clouds 18 1019 22 10000 2.06 150 10:19 08.04.2021
557 Clear 17 1020 23 10000 3.09 110 09:43 08.04.2021
558 Clear 16 1021 27 10000 2.06 0 08:47 08.04.2021
559 Clear 16 1021 27 10000 2.06 0 08:28 08.04.2021
560 Clear 14 1021 28 10000 2.57 130 07:59 08.04.2021
561 Clear 14 1021 28 10000 2.57 130 07:39 08.04.2021
562 Clear 6 1021 52 10000 1.54 310 04:44 08.04.2021
563 Clear 9 1020 37 10000 1.54 0 01:21 08.04.2021
564 Clear 9 1020 37 10000 1.54 0 01:21 08.04.2021
565 Clear 7 1021 45 10000 1.54 0 00:29 08.04.2021
566 Clear 7 1021 45 10000 1.54 0 23:45 07.04.2021
567 Clear 8 1021 39 10000 2.57 0 23:22 07.04.2021
568 Clear 10 1022 32 10000 4.12 330 22:54 07.04.2021
569 Clear 10 1022 32 10000 4.12 330 22:35 07.04.2021
570 Clear 10 1022 29 10000 3.09 260 21:48 07.04.2021
571 Clear 10 1022 29 10000 3.09 260 21:26 07.04.2021
572 Clear 11 1023 25 10000 3.09 10 20:47 07.04.2021
573 Clear 11 1023 25 10000 3.09 10 20:26 07.04.2021
574 Clear 11 1023 25 10000 3.09 10 19:46 07.04.2021
575 Clear 12 1023 24 10000 7.72 360 19:28 07.04.2021
576 Clear 13 1023 21 10000 6.17 20 18:53 07.04.2021
577 Clear 13 1023 21 10000 6.17 20 18:21 07.04.2021
578 Clear 13 1023 21 10000 6.17 20 17:57 07.04.2021
579 Clouds 13 1022 21 10000 7.2 10 17:39 07.04.2021
580 Clouds 13 1022 21 10000 7.2 10 16:58 07.04.2021
581 Clouds 14 1022 19 10000 7.72 10 16:39 07.04.2021
582 Clouds 14 1022 19 10000 7.72 10 16:20 07.04.2021
583 Clear 16 1021 17 10000 4.63 360 15:40 07.04.2021
584 Clear 16 1021 17 10000 5.14 30 14:58 07.04.2021
585 Clear 16 1021 17 10000 5.14 30 14:32 07.04.2021
586 Clear 17 1022 16 10000 3.09 0 13:53 07.04.2021
587 Clear 17 1022 16 10000 3.09 0 13:27 07.04.2021
588 Clear 17 1022 16 10000 3.09 0 12:57 07.04.2021
589 Clear 17 1022 20 10000 3.6 50 12:25 07.04.2021
590 Clear 17 1022 20 10000 3.6 50 12:25 07.04.2021
591 Clear 17 1022 20 10000 3.6 50 11:57 07.04.2021
592 Clear 16 1022 16 10000 2.57 0 11:28 07.04.2021
593 Clear 16 1022 16 10000 2.57 0 10:59 07.04.2021
594 Clear 15 1023 15 10000 2.06 190 10:27 07.04.2021
595 Clear 15 1023 18 10000 2.57 310 09:44 07.04.2021
596 Clear 15 1023 18 10000 2.57 310 09:25 07.04.2021
597 Clear 14 1023 21 10000 1.54 0 08:47 07.04.2021
598 Clear 14 1023 21 10000 1.54 0 08:22 07.04.2021
599 Clear 13 1023 26 10000 2.57 340 07:44 07.04.2021
600 Clear 13 1023 26 10000 2.57 340 07:25 07.04.2021
601 Clear 11 1022 32 10000 3.09 340 06:33 07.04.2021
602 Clear 6 1021 52 10000 1.54 280 04:23 07.04.2021
603 Clear 8 1018 36 10000 4.12 350 00:31 07.04.2021
604 Clear 8 1018 46 10000 2.06 250 23:47 06.04.2021
605 Clear 8 1018 46 10000 2.06 250 23:22 06.04.2021
606 Clear 7 1018 45 10000 3.09 310 22:48 06.04.2021
607 Clear 7 1018 45 10000 3.09 310 22:19 06.04.2021
608 Clear 9 1018 37 10000 4.63 350 21:43 06.04.2021
609 Clear 9 1018 37 10000 4.63 350 21:23 06.04.2021
610 Clear 9 1018 37 10000 4.63 350 20:54 06.04.2021
611 Clear 10 1018 34 10000 5.14 360 20:25 06.04.2021
612 Clear 10 1018 34 10000 5.14 360 19:58 06.04.2021
613 Clear 10 1017 34 10000 5.66 360 19:35 06.04.2021
614 Clear 10 1017 34 10000 5.66 360 18:58 06.04.2021
615 Clear 11 1017 37 10000 9.26 10 18:40 06.04.2021
616 Clear 11 1017 37 10000 9.26 10 18:19 06.04.2021
617 Clouds 11 1016 40 10000 7.2 360 17:43 06.04.2021
618 Clouds 11 1016 40 10000 7.2 360 17:19 06.04.2021
619 Clouds 12 1016 40 10000 5.14 350 16:46 06.04.2021
620 Clouds 12 1016 40 10000 5.14 350 16:26 06.04.2021
621 Clouds 13 1015 38 10000 5.14 350 15:26 06.04.2021
622 Clouds 13 1015 38 10000 10.29 360 14:45 06.04.2021
623 Clouds 13 1015 38 10000 10.29 360 14:45 06.04.2021
624 Clouds 13 1015 38 10000 10.29 360 14:24 06.04.2021
625 Clouds 13 1015 38 10000 10.29 360 13:47 06.04.2021
626 Clouds 14 1015 35 10000 10.29 360 13:26 06.04.2021
627 Clouds 15 1015 36 10000 10.29 360 12:47 06.04.2021
628 Clouds 17 1015 23 10000 3.6 150 12:27 06.04.2021
629 Clouds 17 1015 23 10000 3.6 150 11:59 06.04.2021
630 Clouds 15 1016 21 10000 5.14 200 11:40 06.04.2021
631 Clouds 15 1016 21 10000 5.14 200 11:19 06.04.2021
632 Clouds 16 1016 29 10000 4.63 210 10:42 06.04.2021
633 Clouds 16 1016 29 10000 4.63 210 10:21 06.04.2021
634 Clouds 15 1017 44 10000 4.63 170 09:44 06.04.2021
635 Clouds 15 1017 44 10000 4.63 170 09:20 06.04.2021
636 Clouds 14 1018 58 10000 4.63 130 08:26 06.04.2021
637 Clouds 12 1018 66 9000 3.09 130 07:22 06.04.2021
638 Clouds 12 1018 66 9000 3.09 130 06:51 06.04.2021
639 Clouds 6 1017 93 7000 1.03 90 03:54 06.04.2021
640 Clouds 8 1017 87 10000 0.83 322 00:49 06.04.2021
641 Clouds 8 1017 87 10000 1.28 8 00:22 06.04.2021
642 Clouds 8 1017 87 10000 1.28 8 23:52 05.04.2021
643 Clouds 8 1017 87 10000 1.03 0 23:30 05.04.2021
644 Clouds 8 1018 87 8000 1.03 80 22:58 05.04.2021
645 Clouds 8 1018 87 8000 1.03 80 22:38 05.04.2021
646 Clouds 8 1018 87 8000 1.03 80 21:50 05.04.2021
647 Clouds 10 1018 76 10000 1.03 190 21:27 05.04.2021
648 Clouds 11 1018 66 10000 1.54 0 20:49 05.04.2021
649 Clouds 11 1018 66 10000 1.54 0 20:31 05.04.2021
650 Clouds 11 1018 71 10000 1.54 0 19:55 05.04.2021
651 Clouds 11 1018 71 10000 1.54 0 19:36 05.04.2021
652 Clouds 11 1018 71 10000 1.54 0 19:18 05.04.2021
653 Clouds 11 1018 66 10000 3.09 350 18:40 05.04.2021
654 Clouds 11 1017 66 10000 4.12 360 18:19 05.04.2021
655 Clouds 11 1017 66 10000 4.12 360 18:19 05.04.2021
656 Clouds 11 1017 66 10000 4.12 360 17:47 05.04.2021
657 Clouds 11 1017 66 10000 4.12 360 17:23 05.04.2021
658 Clouds 11 1017 66 10000 4.12 360 16:45 05.04.2021
659 Clouds 11 1017 66 10000 4.12 360 16:45 05.04.2021
660 Clouds 11 1017 66 10000 4.12 360 16:45 05.04.2021
661 Clouds 12 1017 66 10000 5.14 350 16:22 05.04.2021
662 Clouds 12 1017 66 10000 5.14 350 15:56 05.04.2021
663 Clouds 12 1017 66 10000 4.12 350 15:32 05.04.2021
664 Clouds 12 1017 66 10000 4.12 350 14:58 05.04.2021
665 Clouds 12 1017 66 10000 1.54 30 14:35 05.04.2021
666 Clouds 12 1017 66 10000 1.54 70 13:42 05.04.2021
667 Clouds 10 1018 81 9000 2.57 90 13:22 05.04.2021
668 Clouds 10 1018 81 9000 2.57 90 12:45 05.04.2021
669 Clouds 13 1019 62 10000 3.6 60 12:23 05.04.2021
670 Clouds 13 1019 62 10000 3.6 60 11:46 05.04.2021
671 Clouds 13 1019 62 10000 3.6 60 11:27 05.04.2021
672 Clouds 12 1020 66 10000 4.12 70 10:48 05.04.2021
673 Clouds 12 1020 66 10000 4.12 70 10:29 05.04.2021
674 Clouds 12 1021 66 10000 4.63 340 09:48 05.04.2021
675 Clouds 12 1021 66 10000 4.63 340 09:25 05.04.2021
676 Clouds 10 1022 71 10000 3.09 330 08:45 05.04.2021
677 Clouds 10 1022 71 10000 3.09 330 08:26 05.04.2021
678 Clouds 10 1022 71 9000 2.06 0 07:38 05.04.2021
679 Clouds 10 1022 71 9000 2.06 0 06:51 05.04.2021
680 Clouds 6 1020 93 10000 2.57 110 02:36 05.04.2021
681 Clouds 6 1020 93 10000 2.06 330 00:53 05.04.2021
682 Clouds 6 1021 87 10000 1.03 340 23:52 04.04.2021
683 Clouds 6 1022 93 10000 1.54 80 23:30 04.04.2021
684 Clouds 7 1022 81 10000 1.03 0 22:54 04.04.2021
685 Clouds 7 1022 81 10000 1.03 0 22:31 04.04.2021
686 Clouds 7 1022 87 10000 2.06 160 21:48 04.04.2021
687 Clouds 7 1022 87 10000 2.06 160 21:21 04.04.2021
688 Clouds 7 1023 87 10000 1.54 200 20:37 04.04.2021
689 Clouds 7 1023 87 10000 1.54 200 20:19 04.04.2021
690 Clouds 7 1022 81 10000 1.54 320 19:38 04.04.2021
691 Clouds 7 1022 81 10000 1.54 320 19:38 04.04.2021
692 Clouds 7 1022 81 10000 1.54 320 19:19 04.04.2021
693 Clouds 7 1022 81 10000 2.06 0 18:47 04.04.2021
694 Clouds 7 1022 81 10000 2.06 0 18:24 04.04.2021
695 Clouds 7 1022 81 10000 2.06 0 18:24 04.04.2021
696 Clouds 7 1022 81 10000 2.06 0 17:55 04.04.2021
697 Clouds 7 1022 81 10000 4.12 130 17:24 04.04.2021
698 Clouds 7 1022 81 10000 4.12 130 16:54 04.04.2021
699 Clouds 7 1021 81 8000 6.17 130 16:31 04.04.2021
700 Rain 8 1020 81 8000 5.66 360 15:37 04.04.2021
701 Rain 8 1020 81 8000 5.66 360 15:18 04.04.2021
702 Rain 10 1019 71 10000 7.2 350 14:37 04.04.2021
703 Rain 10 1019 71 10000 7.2 350 14:18 04.04.2021
704 Clouds 12 1018 54 10000 6.17 350 13:26 04.04.2021
705 Clouds 12 1018 54 10000 6.17 350 12:50 04.04.2021
706 Clouds 13 1018 47 10000 6.17 360 12:27 04.04.2021
707 Clouds 14 1019 38 10000 5.66 360 11:43 04.04.2021
708 Clouds 14 1019 38 10000 5.66 360 11:25 04.04.2021
709 Clouds 14 1020 41 10000 5.66 360 10:46 04.04.2021
710 Clouds 14 1020 41 10000 5.66 360 10:19 04.04.2021
711 Clouds 14 1021 41 10000 5.14 360 09:27 04.04.2021
712 Rain 14 1021 41 10000 5.14 360 08:59 04.04.2021
713 Clouds 15 1021 36 10000 3.09 0 08:41 04.04.2021
714 Clouds 15 1021 36 10000 3.09 0 08:23 04.04.2021
715 Clouds 13 1021 47 10000 4.63 70 06:39 04.04.2021
716 Clouds 13 1021 47 10000 4.63 70 06:39 04.04.2021
717 Clouds 13 1021 33 10000 2.06 160 05:43 04.04.2021
718 Rain 12 1018 37 10000 1.54 0 01:49 04.04.2021
719 Rain 12 1018 37 10000 1.54 0 00:44 04.04.2021
720 Clouds 12 1019 37 10000 1.54 0 23:59 03.04.2021
721 Clouds 13 1019 33 10000 2.06 340 23:39 03.04.2021
722 Clouds 13 1019 33 10000 2.06 340 22:54 03.04.2021
723 Clouds 12 1020 35 10000 1.54 330 22:24 03.04.2021
724 Clouds 12 1020 35 10000 1.54 330 21:59 03.04.2021
725 Rain 12 1015 27 10000 1.53 12 21:39 03.04.2021
726 Rain 13 1020 33 10000 1.54 280 21:19 03.04.2021
727 Clouds 12 1014 29 10000 1.55 41 20:38 03.04.2021
728 Clouds 14 1020 26 10000 1.54 0 20:18 03.04.2021
729 Clouds 13 1014 29 10000 2.22 66 19:43 03.04.2021
730 Clouds 15 1018 26 10000 4.12 120 19:18 03.04.2021
731 Rain 15 1018 26 10000 4.12 120 18:44 03.04.2021
732 Clouds 15 1018 26 10000 4.12 120 17:58 03.04.2021
733 Clouds 16 1017 23 10000 4.63 130 17:28 03.04.2021
734 Clouds 18 1017 17 10000 2.57 180 16:59 03.04.2021
735 Clouds 18 1017 17 10000 2.57 180 16:32 03.04.2021
736 Rain 18 1017 17 10000 2.57 180 15:57 03.04.2021
737 Clouds 19 1016 18 10000 5.14 20 15:39 03.04.2021
738 Clouds 19 1016 18 10000 5.14 20 15:18 03.04.2021
739 Clear 20 1015 19 10000 3.6 340 14:37 03.04.2021
740 Clear 20 1015 19 10000 3.6 340 14:19 03.04.2021
741 Clear 19 1016 19 10000 3.6 350 13:42 03.04.2021
742 Clear 19 1016 19 10000 3.6 350 13:20 03.04.2021
743 Clouds 20 1016 19 10000 3.6 40 12:41 03.04.2021
744 Clouds 20 1016 19 10000 3.6 40 12:19 03.04.2021
745 Clear 20 1018 21 10000 4.12 10 11:32 03.04.2021
746 Clear 19 1018 19 10000 2.57 0 10:49 03.04.2021
747 Clear 19 1018 19 10000 2.57 0 10:30 03.04.2021
748 Clear 19 1019 19 10000 2.57 0 09:50 03.04.2021
749 Clear 19 1019 19 10000 2.57 0 09:27 03.04.2021
750 Clear 18 1020 19 10000 3.09 0 08:40 03.04.2021
751 Clear 18 1020 19 10000 3.09 0 08:21 03.04.2021
752 Clear 16 1020 21 10000 1.54 340 07:27 03.04.2021
753 Clear 9 1019 31 10000 3.09 330 05:33 03.04.2021
754 Clear 4 1018 45 10000 1.54 320 03:18 03.04.2021
755 Clear 4 1018 45 10000 2.57 320 02:35 03.04.2021
756 Clear 6 1018 49 10000 1.54 0 01:45 03.04.2021
757 Clear 5 1018 45 10000 1.54 320 00:19 03.04.2021
758 Clear 5 1018 45 10000 1.54 320 23:46 02.04.2021
759 Clear 7 1018 39 10000 1.54 0 23:21 02.04.2021
760 Clear 7 1018 39 10000 1.54 0 22:50 02.04.2021
761 Clear 8 1019 31 10000 1.54 0 22:30 02.04.2021
762 Clear 9 1019 27 10000 2.06 330 21:42 02.04.2021
763 Clear 9 1019 27 10000 2.06 330 21:20 02.04.2021
764 Clear 9 1019 23 10000 1.54 0 20:48 02.04.2021
765 Clear 9 1019 23 10000 1.54 0 20:26 02.04.2021
766 Clear 10 1019 22 10000 2.06 0 19:43 02.04.2021
767 Clear 10 1019 22 10000 2.06 0 19:24 02.04.2021
768 Clear 11 1018 20 10000 3.09 330 18:56 02.04.2021
769 Clear 11 1018 20 10000 3.09 330 18:38 02.04.2021
770 Clear 11 1018 20 10000 3.09 330 18:19 02.04.2021
771 Clear 12 1018 17 10000 4.12 340 17:36 02.04.2021
772 Clear 14 1017 15 10000 6.17 360 16:48 02.04.2021
773 Clear 14 1017 15 10000 6.17 360 15:54 02.04.2021
774 Clear 15 1017 15 10000 6.69 360 15:32 02.04.2021
775 Clear 17 1016 14 10000 6.17 360 14:45 02.04.2021
776 Clear 17 1016 14 10000 6.17 360 14:21 02.04.2021
777 Clear 17 1016 13 10000 5.14 360 13:41 02.04.2021
778 Clear 17 1016 13 10000 5.14 360 13:19 02.04.2021
779 Clear 17 1017 13 10000 4.12 30 12:40 02.04.2021
780 Clear 17 1017 13 10000 4.12 30 12:19 02.04.2021
781 Clear 16 1017 13 10000 5.14 30 11:49 02.04.2021
782 Clear 16 1017 13 10000 5.14 30 11:19 02.04.2021
783 Clear 15 1018 14 10000 2.57 30 10:44 02.04.2021
784 Clear 15 1018 14 10000 2.57 30 10:25 02.04.2021
785 Clear 15 1018 14 10000 2.57 30 09:52 02.04.2021
786 Clear 14 1019 15 10000 3.6 10 09:26 02.04.2021
787 Clear 13 1020 15 10000 2.06 0 08:46 02.04.2021
788 Clear 13 1020 15 10000 2.06 0 08:27 02.04.2021
789 Clear 13 1020 14 10000 1.03 0 07:23 02.04.2021
790 Clear 9 1020 21 10000 1.03 0 06:40 02.04.2021
791 Clear 2 1019 44 10000 1.03 160 03:54 02.04.2021
792 Clear 3 1018 32 10000 1.54 300 02:19 02.04.2021
793 Clear 3 1019 35 10000 2.06 300 00:47 02.04.2021
794 Clear 3 1019 32 10000 3.09 310 23:58 01.04.2021
795 Clear 3 1020 38 10000 3.6 320 23:27 01.04.2021
796 Clear 3 1020 38 10000 3.6 320 22:51 01.04.2021
797 Clear 6 1020 22 10000 4.63 330 22:18 01.04.2021
798 Clear 6 1020 22 10000 4.63 330 21:45 01.04.2021
799 Clear 7 1021 21 10000 7.2 330 21:24 01.04.2021
800 Clear 8 1021 21 10000 5.14 360 20:42 01.04.2021
801 Clear 8 1021 25 10000 7.2 360 20:22 01.04.2021
802 Clear 8 1021 25 10000 7.2 360 19:46 01.04.2021
803 Clear 8 1021 25 10000 7.2 360 19:27 01.04.2021
804 Clear 9 1021 25 10000 5.14 360 18:45 01.04.2021
805 Clear 9 1021 25 10000 5.14 360 18:18 01.04.2021
806 Clouds 10 1020 22 10000 7.72 10 17:47 01.04.2021
807 Clouds 10 1020 22 10000 7.72 10 17:29 01.04.2021
808 Clouds 10 1020 22 10000 7.72 10 16:51 01.04.2021
809 Clouds 10 1019 22 10000 10.29 40 16:27 01.04.2021
810 Clouds 11 1019 19 10000 9.77 40 15:46 01.04.2021
811 Clouds 11 1019 19 10000 9.77 40 15:19 01.04.2021
812 Clouds 11 1019 19 10000 9.77 40 15:19 01.04.2021
813 Clouds 12 1018 17 9000 9.26 40 14:43 01.04.2021
814 Clouds 12 1018 17 9000 9.26 40 14:24 01.04.2021
815 Clouds 12 1018 17 9000 9.26 40 13:55 01.04.2021
816 Clear 14 1018 17 10000 8.75 40 13:30 01.04.2021
817 Clear 14 1018 17 10000 8.75 40 12:51 01.04.2021
818 Clear 13 1013 15 10000 8.31 2 12:31 01.04.2021
819 Clear 15 1019 13 10000 7.2 10 11:49 01.04.2021
820 Clear 15 1019 13 10000 7.2 10 11:24 01.04.2021
821 Clear 15 1019 14 10000 6.69 20 10:53 01.04.2021
822 Clear 15 1019 14 10000 6.69 20 10:53 01.04.2021
823 Clear 15 1019 14 10000 6.69 20 10:35 01.04.2021
824 Clear 14 1020 14 10000 6.69 10 09:54 01.04.2021
825 Clear 14 1020 14 10000 6.69 10 09:27 01.04.2021
826 Clear 12 1021 19 10000 5.14 10 08:33 01.04.2021
827 Clear 11 1021 16 10000 4.63 360 07:59 01.04.2021
828 Clear 11 1021 16 10000 4.63 360 07:20 01.04.2021
829 Clear 9 1021 17 10000 2.57 10 06:47 01.04.2021
830 Clear 6 1020 22 10000 2.57 0 03:30 01.04.2021
831 Clear 5 1019 28 10000 3.09 300 00:59 01.04.2021
832 Clear 6 1019 21 10000 6.17 320 23:44 31.03.2021
833 Clear 6 1019 21 10000 6.17 320 23:19 31.03.2021
834 Clear 7 1020 19 10000 6.17 310 22:41 31.03.2021
835 Clear 7 1020 19 10000 6.17 310 22:20 31.03.2021
836 Clear 7 1020 19 10000 5.14 320 21:46 31.03.2021
837 Clear 7 1020 19 10000 5.14 320 21:23 31.03.2021
838 Clear 7 1020 19 10000 5.14 320 20:56 31.03.2021
839 Clear 8 1020 17 10000 5.14 330 20:38 31.03.2021
840 Clear 8 1020 17 10000 5.14 330 20:18 31.03.2021
841 Clear 8 1020 18 10000 6.17 340 19:38 31.03.2021
842 Clear 8 1020 18 10000 6.17 340 19:18 31.03.2021
843 Clear 9 1020 18 10000 7.2 340 18:49 31.03.2021
844 Clear 9 1020 18 10000 7.2 340 17:58 31.03.2021
845 Clear 10 1019 14 10000 8.23 360 17:36 31.03.2021
846 Clear 10 1019 14 10000 8.23 360 17:18 31.03.2021
847 Clear 11 1019 13 10000 8.75 10 16:42 31.03.2021
848 Clear 11 1019 13 10000 8.75 10 16:22 31.03.2021
849 Clear 11 1019 13 10000 8.75 10 15:50 31.03.2021
850 Clear 12 1018 13 8000 7.72 30 15:19 31.03.2021
851 Clear 14 1018 11 7000 7.72 20 14:44 31.03.2021
852 Clear 14 1018 11 7000 7.72 20 14:22 31.03.2021
853 Clear 15 1018 11 7000 7.72 20 13:42 31.03.2021
854 Clear 16 1018 12 8000 7.72 30 12:42 31.03.2021
855 Clear 16 1018 12 8000 7.72 30 12:21 31.03.2021
856 Clear 16 1018 12 8000 7.72 30 12:21 31.03.2021
857 Clear 16 1018 12 8000 7.72 30 12:21 31.03.2021
858 Clear 16 1018 12 8000 7.72 30 11:59 31.03.2021
859 Clear 15 1018 12 10000 7.2 50 11:21 31.03.2021
860 Clear 15 1019 11 10000 7.2 70 10:47 31.03.2021
861 Clear 15 1019 11 10000 7.2 70 10:26 31.03.2021
862 Clear 13 1019 13 10000 3.09 170 09:43 31.03.2021
863 Clear 13 1019 13 10000 3.09 170 09:18 31.03.2021
864 Clear 13 1020 13 10000 3.09 70 08:39 31.03.2021
865 Clear 13 1020 13 10000 3.09 70 07:54 31.03.2021
866 Clear 10 1019 16 10000 5.14 30 06:49 31.03.2021
867 Clear 3 1018 35 10000 2.06 0 03:52 31.03.2021
868 Clear 6 1017 16 10000 2.06 250 01:43 31.03.2021
869 Clear 6 1017 16 10000 2.57 270 00:53 31.03.2021
870 Clear 6 1017 16 10000 2.57 270 00:21 31.03.2021
871 Clear 6 1018 16 10000 1.54 300 23:46 30.03.2021
872 Clear 6 1018 16 10000 1.54 300 23:19 30.03.2021
873 Clear 5 1018 20 10000 3.09 320 22:41 30.03.2021
874 Clear 5 1018 20 10000 3.09 320 22:23 30.03.2021
875 Clear 5 1018 20 10000 3.09 320 21:51 30.03.2021
876 Clear 7 1018 16 10000 6.17 340 21:23 30.03.2021
877 Clear 7 1018 16 10000 6.17 340 20:57 30.03.2021
878 Clear 7 1019 16 10000 6.17 330 20:29 30.03.2021
879 Clear 7 1019 16 10000 6.17 330 19:52 30.03.2021
880 Clear 7 1019 18 10000 5.14 330 19:28 30.03.2021
881 Clear 7 1019 18 10000 5.14 330 19:28 30.03.2021
882 Clear 8 1019 19 10000 4.12 310 18:47 30.03.2021
883 Clear 8 1019 19 10000 4.12 310 18:24 30.03.2021
884 Clear 10 1018 13 10000 7.72 20 17:42 30.03.2021
885 Clear 10 1018 13 10000 7.72 20 17:24 30.03.2021
886 Clear 11 1017 12 10000 9.26 20 16:46 30.03.2021
887 Clear 11 1017 12 10000 9.26 20 16:25 30.03.2021
888 Clear 13 1016 13 9000 9.26 30 15:21 30.03.2021
889 Clear 13 1016 13 9000 9.26 30 14:59 30.03.2021
890 Clear 14 1016 11 9000 9.26 20 14:39 30.03.2021
891 Clear 14 1016 11 9000 9.26 20 14:18 30.03.2021
892 Clear 15 1016 12 9000 6.17 20 13:38 30.03.2021
893 Clear 15 1016 12 9000 6.17 20 12:58 30.03.2021
894 Clear 16 1016 12 10000 7.72 10 12:39 30.03.2021
895 Clear 16 1016 12 10000 7.72 10 12:19 30.03.2021
896 Clear 17 1016 16 10000 7.72 360 11:24 30.03.2021
897 Clear 17 1016 16 10000 7.72 360 10:59 30.03.2021
898 Clear 16 1017 14 10000 7.72 20 10:37 30.03.2021
899 Clear 16 1017 14 10000 7.72 20 10:18 30.03.2021
900 Clear 15 1017 14 10000 7.72 10 09:38 30.03.2021
901 Clear 15 1017 14 10000 7.72 10 09:20 30.03.2021
902 Clear 15 1017 15 10000 4.63 170 08:39 30.03.2021
903 Clear 14 1017 21 10000 5.14 100 07:53 30.03.2021
904 Clear 14 1017 21 10000 5.14 100 07:22 30.03.2021
905 Clear 12 1016 24 10000 4.12 70 05:53 30.03.2021
906 Clear 9 1016 46 10000 1.54 160 05:19 30.03.2021
907 Clear 6 1014 56 10000 1.03 0 01:29 30.03.2021
908 Haze 6 1014 52 9000 1.03 0 23:51 29.03.2021
909 Clear 6 1014 49 10000 1.03 140 22:55 29.03.2021
910 Clear 8 1014 36 10000 1.03 0 22:33 29.03.2021
911 Clear 8 1014 36 10000 1.03 0 21:52 29.03.2021
912 Clear 8 1013 37 10000 0.98 1 21:31 29.03.2021
913 Clear 12 1015 16 10000 1.54 280 20:50 29.03.2021
914 Clear 12 1015 16 10000 1.54 280 20:28 29.03.2021
915 Clear 12 1015 16 10000 1.54 280 19:50 29.03.2021
916 Clear 11 1015 20 10000 3.09 320 19:27 29.03.2021
917 Clear 13 1015 15 10000 7.2 360 18:51 29.03.2021
918 Clear 13 1015 15 10000 7.2 360 18:27 29.03.2021
919 Clear 14 1014 13 10000 6.17 360 17:52 29.03.2021
920 Clear 14 1014 13 10000 6.17 360 17:32 29.03.2021
921 Clear 14 1014 13 10000 6.17 360 16:45 29.03.2021
922 Clear 15 1014 15 10000 5.14 350 16:24 29.03.2021
923 Clear 12 1011 24 10000 2.08 11 15:40 29.03.2021
924 Clear 18 1015 17 10000 6.17 330 15:22 29.03.2021
925 Clear 18 1015 17 10000 6.17 330 14:46 29.03.2021
926 Clear 18 1015 17 10000 6.17 330 13:56 29.03.2021
927 Clear 17 1016 29 10000 6.69 360 13:36 29.03.2021
928 Clear 17 1016 29 10000 6.69 360 12:57 29.03.2021
929 Clear 18 1015 27 10000 7.2 360 12:39 29.03.2021
930 Clear 17 1019 23 10000 5.66 360 11:43 29.03.2021
931 Clear 17 1019 23 10000 5.66 360 11:25 29.03.2021
932 Clear 16 1009 20 10000 3.36 24 10:45 29.03.2021
933 Clouds 16 1017 25 10000 6.17 10 10:19 29.03.2021
934 Clouds 16 1017 25 10000 6.17 10 09:31 29.03.2021
935 Clear 16 1017 25 10000 6.69 10 08:30 29.03.2021
936 Clear 16 1017 25 10000 6.69 10 07:54 29.03.2021
937 Clouds 15 1016 31 10000 8.23 10 06:57 29.03.2021
938 Clouds 14 1015 24 10000 7.72 330 06:22 29.03.2021
939 Clouds 9 1013 87 6000 1.03 0 02:32 29.03.2021
940 Clouds 10 1014 81 10000 1.03 10 00:27 29.03.2021
941 Clouds 13 1013 67 10000 1.54 240 23:57 28.03.2021
942 Clouds 13 1013 67 10000 1.54 240 23:25 28.03.2021
943 Clouds 13 1013 67 10000 1.54 240 23:25 28.03.2021
944 Clouds 13 1013 71 10000 1.54 0 22:43 28.03.2021
945 Clouds 13 1013 71 10000 1.54 0 22:25 28.03.2021
946 Clouds 12 1014 76 10000 2.06 320 21:47 28.03.2021
947 Clouds 12 1014 76 10000 2.06 320 21:24 28.03.2021
948 Clouds 12 1014 76 10000 2.06 320 20:53 28.03.2021
949 Clouds 14 1014 62 10000 1.03 0 20:35 28.03.2021
950 Clouds 14 1014 62 10000 1.03 0 19:59 28.03.2021
951 Clouds 14 1014 62 10000 1.03 0 19:41 28.03.2021
952 Clouds 14 1014 62 10000 1.03 0 19:20 28.03.2021
953 Clouds 15 1014 58 10000 3.09 100 18:41 28.03.2021
954 Clouds 15 1014 58 10000 3.09 100 18:19 28.03.2021
955 Clouds 15 1013 55 10000 4.12 70 17:37 28.03.2021
956 Clouds 15 1013 55 10000 4.12 70 16:57 28.03.2021
957 Clouds 16 1013 51 10000 6.17 100 16:29 28.03.2021
958 Clouds 16 1013 51 10000 6.17 100 15:58 28.03.2021
959 Clouds 17 1012 48 10000 6.17 120 15:24 28.03.2021
960 Clouds 18 1012 45 10000 5.66 130 14:47 28.03.2021
961 Clouds 18 1012 45 10000 5.66 130 14:18 28.03.2021
962 Clouds 18 1012 48 10000 3.09 10 13:35 28.03.2021
963 Clouds 18 1012 48 10000 3.09 10 12:57 28.03.2021
964 Clouds 18 1013 48 10000 4.63 350 12:34 28.03.2021
965 Clouds 18 1013 48 10000 4.63 350 11:55 28.03.2021
966 Clouds 19 1014 45 10000 2.57 80 11:37 28.03.2021
967 Clouds 19 1015 45 10000 2.06 0 10:49 28.03.2021
968 Clouds 19 1015 45 10000 2.06 0 10:31 28.03.2021
969 Clouds 19 1015 45 10000 2.06 0 09:51 28.03.2021
970 Clouds 18 1016 45 10000 2.57 0 09:28 28.03.2021
971 Clouds 18 1016 45 10000 2.57 0 08:51 28.03.2021
972 Clouds 17 1017 45 10000 2.06 0 08:33 28.03.2021
973 Clouds 16 1018 48 10000 2.57 0 07:41 28.03.2021
974 Clear 12 1017 76 10000 1.54 0 06:20 28.03.2021
975 Clear 9 1017 87 10000 1.54 0 03:28 28.03.2021
976 Clear 11 1017 76 10000 2.06 290 00:35 28.03.2021
977 Clear 11 1017 76 10000 2.06 290 23:51 27.03.2021
978 Clouds 11 1017 76 9000 1.54 0 23:33 27.03.2021
979 Clouds 11 1018 76 9000 1.54 120 22:40 27.03.2021
980 Clouds 11 1018 76 9000 1.54 120 22:21 27.03.2021
981 Clouds 11 1019 76 10000 2.06 120 21:42 27.03.2021
982 Clouds 11 1019 76 10000 2.06 120 21:21 27.03.2021
983 Clouds 11 1019 76 10000 2.06 120 20:56 27.03.2021
984 Clear 11 1019 76 10000 3.6 330 20:37 27.03.2021
985 Clear 13 1019 67 10000 1.54 0 19:47 27.03.2021
986 Clear 13 1019 67 10000 1.54 0 19:27 27.03.2021
987 Clear 13 1019 67 10000 1.54 0 18:58 27.03.2021
988 Clouds 13 1020 62 10000 2.06 330 18:39 27.03.2021
989 Clouds 13 1020 62 10000 2.06 330 18:20 27.03.2021
990 Clear 15 1020 55 10000 3.09 360 17:29 27.03.2021
991 Clear 15 1020 55 10000 3.09 360 16:57 27.03.2021
992 Clear 15 1020 58 10000 2.57 160 16:38 27.03.2021
993 Clear 15 1020 58 10000 2.57 160 16:19 27.03.2021
994 Clouds 15 1019 55 10000 6.17 80 15:38 27.03.2021
995 Clouds 15 1019 55 10000 6.17 80 14:55 27.03.2021
996 Clouds 18 1019 36 10000 7.72 360 14:23 27.03.2021
997 Clouds 18 1019 39 10000 7.2 350 13:37 27.03.2021
998 Clouds 18 1019 39 10000 7.2 350 13:19 27.03.2021
999 Clear 19 1018 39 10000 6.69 350 12:39 27.03.2021
1000 Clouds 20 1019 34 10000 7.2 10 11:48 27.03.2021
1001 Clouds 20 1019 34 10000 7.2 10 11:30 27.03.2021
1002 Clouds 20 1020 34 9000 5.14 10 10:48 27.03.2021
1003 Clouds 20 1020 34 9000 5.14 10 10:29 27.03.2021
1004 Clouds 20 1020 37 9000 4.12 350 09:42 27.03.2021
1005 Clouds 20 1022 40 9000 2.57 60 09:18 27.03.2021
1006 Clouds 20 1022 40 9000 2.57 60 09:18 27.03.2021
1007 Clouds 20 1022 40 9000 2.57 60 09:18 27.03.2021
1008 Clouds 20 1022 40 9000 2.57 60 08:36 27.03.2021
1009 Clouds 19 1023 39 9000 1.54 0 07:42 27.03.2021
1010 Clouds 14 1023 62 9000 2.06 330 06:59 27.03.2021
1011 Clouds 14 1023 62 9000 2.06 330 06:37 27.03.2021
1012 Clouds 11 1021 71 9000 2.06 130 04:41 27.03.2021
1013 Clouds 9 1020 81 6000 1.54 120 01:28 27.03.2021
1014 Clouds 13 1014 46 10000 0.19 175 00:32 27.03.2021
1015 Clouds 13 1014 45 10000 0.91 261 23:59 26.03.2021
1016 Clear 11 1021 66 10000 1.03 290 23:23 26.03.2021
1017 Clear 11 1021 66 10000 1.03 290 22:37 26.03.2021
1018 Clear 13 1021 58 10000 1.54 220 21:41 26.03.2021
1019 Clear 13 1021 58 10000 1.54 220 21:22 26.03.2021
1020 Clear 15 1022 47 10000 1.54 200 20:49 26.03.2021
1021 Clear 15 1022 47 10000 1.54 200 20:31 26.03.2021
1022 Clear 15 1022 47 10000 1.54 200 19:50 26.03.2021
1023 Clear 15 1022 44 10000 1.03 150 19:32 26.03.2021
1024 Clouds 17 1021 39 10000 6.17 10 18:47 26.03.2021
1025 Clouds 17 1021 39 10000 6.17 10 18:28 26.03.2021
1026 Clouds 17 1021 39 10000 5.14 300 17:50 26.03.2021
1027 Clouds 17 1021 39 10000 5.14 300 17:50 26.03.2021
1028 Clouds 17 1021 39 10000 5.14 300 17:22 26.03.2021
1029 Clear 18 1020 34 10000 5.14 350 16:34 26.03.2021
1030 Clouds 18 1019 39 10000 5.14 340 15:59 26.03.2021
1031 Clouds 18 1019 39 10000 5.14 340 15:26 26.03.2021
1032 Clouds 22 1018 26 10000 3.6 320 14:39 26.03.2021
1033 Clouds 22 1017 37 9000 5.14 350 13:46 26.03.2021
1034 Clouds 22 1017 37 9000 5.14 350 13:46 26.03.2021
1035 Clouds 22 1017 37 9000 5.14 350 13:22 26.03.2021
1036 Clouds 23 1017 38 9000 4.63 350 12:35 26.03.2021
1037 Clouds 23 1017 35 9000 3.09 50 11:47 26.03.2021
1038 Clouds 23 1017 35 9000 3.09 50 11:27 26.03.2021
1039 Clouds 23 1019 35 9000 1.03 360 10:42 26.03.2021
1040 Clouds 23 1019 35 9000 1.03 360 10:19 26.03.2021
1041 Clouds 22 1020 37 9000 1.03 0 09:41 26.03.2021
1042 Clouds 20 1021 40 7000 2.06 0 08:48 26.03.2021
1043 Clouds 20 1021 40 7000 2.06 0 08:26 26.03.2021
1044 Haze 18 1022 48 5000 1.54 0 07:43 26.03.2021
1045 Haze 18 1022 48 5000 1.54 0 07:21 26.03.2021
1046 Haze 15 1023 58 5000 1.54 330 06:55 26.03.2021
1047 Mist 12 1023 71 6000 2.06 280 05:32 26.03.2021
1048 Clear 8 1022 87 8000 2.06 290 03:28 26.03.2021
1049 Clouds 8 1022 87 9000 1.54 0 00:50 26.03.2021
1050 Clouds 10 1022 87 9000 1.54 0 23:49 25.03.2021
1051 Clouds 10 1022 87 9000 1.54 0 23:30 25.03.2021
1052 Clouds 10 1023 81 9000 1.54 300 22:40 25.03.2021
1053 Clouds 10 1023 81 9000 1.54 300 22:18 25.03.2021
1054 Clouds 10 1023 81 9000 1.54 300 21:45 25.03.2021
1055 Clouds 10 1023 81 9000 1.54 0 21:24 25.03.2021
1056 Clouds 10 1023 81 9000 1.54 0 20:38 25.03.2021
1057 Clouds 10 1023 81 9000 1.54 0 20:18 25.03.2021
1058 Clouds 11 1023 76 8000 1.54 0 19:40 25.03.2021
1059 Clouds 11 1023 76 8000 1.54 0 19:21 25.03.2021
1060 Clouds 12 1023 71 8000 2.06 70 18:43 25.03.2021
1061 Clouds 12 1023 71 8000 2.06 70 18:25 25.03.2021
1062 Haze 13 1022 67 7000 4.12 140 17:38 25.03.2021
1063 Clouds 14 1022 51 8000 1.03 300 16:59 25.03.2021
1064 Clouds 14 1022 51 8000 1.03 300 16:36 25.03.2021
1065 Clouds 16 1021 44 8000 1.03 360 15:52 25.03.2021
1066 Clouds 16 1021 44 8000 1.03 360 15:27 25.03.2021
1067 Clouds 16 1021 44 8000 1.03 360 14:59 25.03.2021
1068 Rain 17 1021 45 8000 2.06 330 14:40 25.03.2021
1069 Clouds 17 1021 48 8000 2.06 330 13:38 25.03.2021
1070 Clouds 17 1021 48 8000 2.06 330 13:19 25.03.2021
1071 Clouds 17 1021 45 8000 3.6 50 12:37 25.03.2021
1072 Clouds 17 1021 45 8000 3.6 50 12:18 25.03.2021
1073 Clouds 17 1021 45 8000 2.57 0 11:44 25.03.2021
1074 Clouds 17 1021 45 8000 2.57 0 11:26 25.03.2021
1075 Clouds 17 1022 36 8000 1.54 0 10:49 25.03.2021
1076 Rain 17 1022 36 8000 1.54 0 10:21 25.03.2021
1077 Clouds 17 1022 36 8000 1.54 0 09:53 25.03.2021
1078 Rain 16 1023 44 7000 1.54 0 09:35 25.03.2021
1079 Rain 16 1023 44 7000 1.54 0 09:35 25.03.2021
1080 Rain 15 1023 51 6000 1.54 0 08:37 25.03.2021
1081 Clouds 15 1023 51 6000 1.54 0 07:51 25.03.2021
1082 Rain 12 1024 66 5000 1.03 0 06:57 25.03.2021
1083 Haze 12 1024 66 5000 1.03 0 06:24 25.03.2021
1084 Mist 11 1023 76 3600 1.03 0 05:21 25.03.2021
1085 Mist 5 1022 100 5000 1.54 90 02:28 25.03.2021
1086 Clouds 7 1022 93 6000 1.03 0 00:20 25.03.2021
1087 Clouds 7 1022 93 7000 1.03 140 23:42 24.03.2021
1088 Clouds 7 1022 93 7000 1.03 140 23:23 24.03.2021
1089 Rain 7 1023 93 7000 1.03 0 22:40 24.03.2021
1090 Clouds 7 1023 93 7000 1.03 0 21:59 24.03.2021
1091 Clouds 8 1023 87 6000 1.03 180 21:39 24.03.2021
1092 Clouds 8 1023 87 6000 1.03 180 21:19 24.03.2021
1093 Clouds 8 1023 81 8000 1.03 130 20:41 24.03.2021
1094 Clouds 8 1023 81 8000 1.03 130 20:19 24.03.2021
1095 Clear 8 1024 81 10000 1.54 310 19:34 24.03.2021
1096 Clouds 9 1024 76 9000 1.03 30 18:56 24.03.2021
1097 Clouds 9 1024 76 9000 1.03 30 18:38 24.03.2021
1098 Clouds 9 1024 76 9000 1.03 30 18:19 24.03.2021
1099 Clouds 9 1024 76 9000 1.54 90 17:34 24.03.2021
1100 Clouds 10 1023 71 8000 3.6 150 16:59 24.03.2021
1101 Clouds 10 1023 71 8000 3.6 150 16:41 24.03.2021
1102 Clouds 10 1023 71 8000 3.6 150 16:20 24.03.2021
1103 Clouds 12 1022 66 8000 3.6 160 15:41 24.03.2021
1104 Clouds 12 1022 66 8000 3.6 160 15:21 24.03.2021
1105 Clouds 13 1021 62 9000 4.12 140 14:41 24.03.2021
1106 Clouds 13 1021 62 9000 4.12 140 14:21 24.03.2021
1107 Clouds 14 1021 51 9000 2.06 0 13:44 24.03.2021
1108 Clouds 14 1021 51 9000 2.06 0 13:24 24.03.2021
1109 Clouds 15 1021 51 8000 4.63 360 12:40 24.03.2021
1110 Clouds 15 1021 51 8000 4.63 360 12:20 24.03.2021
1111 Clouds 15 1021 51 8000 4.63 360 11:41 24.03.2021
1112 Clear 15 1022 47 7000 3.6 60 10:49 24.03.2021
1113 Clear 15 1022 47 7000 3.6 60 10:31 24.03.2021
1114 Clear 15 1022 47 7000 3.6 60 09:55 24.03.2021
1115 Clear 14 1023 51 7000 1.03 0 09:33 24.03.2021
1116 Clear 14 1023 51 7000 2.06 0 08:58 24.03.2021
1117 Clear 14 1023 51 7000 2.06 0 08:39 24.03.2021
1118 Clear 14 1023 51 7000 2.06 0 07:50 24.03.2021
1119 Haze 12 1024 62 5000 2.57 190 07:19 24.03.2021
1120 Haze 10 1024 66 5000 1.03 0 06:45 24.03.2021
1121 Clouds 2 1021 100 7000 1.54 0 02:29 24.03.2021
1122 Clouds 4 1021 93 7000 1.54 340 00:42 24.03.2021
1123 Clear 4 1021 93 7000 1.54 340 23:52 23.03.2021
1124 Clear 4 1021 100 7000 1.54 270 23:19 23.03.2021
1125 Clear 4 1021 100 7000 1.54 270 22:50 23.03.2021
1126 Clear 5 1022 93 8000 1.54 150 22:25 23.03.2021
1127 Clear 5 1022 93 9000 1.54 0 21:45 23.03.2021
1128 Clear 5 1022 93 9000 1.54 0 21:27 23.03.2021
1129 Clear 5 1022 93 8000 1.54 0 20:46 23.03.2021
1130 Clear 5 1022 93 8000 1.54 0 20:25 23.03.2021
1131 Clear 6 1022 87 10000 2.06 70 19:48 23.03.2021
1132 Clear 6 1022 87 10000 2.06 70 19:26 23.03.2021
1133 Clear 6 1022 87 10000 2.06 70 18:46 23.03.2021
1134 Clear 6 1021 87 10000 1.54 0 18:22 23.03.2021
1135 Clear 7 1020 81 10000 1.54 0 17:48 23.03.2021
1136 Clear 7 1020 81 10000 1.54 0 17:23 23.03.2021
1137 Clear 8 1020 76 10000 3.09 150 16:57 23.03.2021
1138 Clear 8 1020 76 10000 3.09 150 16:25 23.03.2021
1139 Clear 8 1020 76 10000 3.09 150 15:47 23.03.2021
1140 Clear 9 1019 76 10000 5.14 140 15:18 23.03.2021
1141 Clear 11 1018 66 10000 4.63 140 14:39 23.03.2021
1142 Clear 11 1018 66 10000 4.63 140 14:18 23.03.2021
1143 Clear 12 1017 54 10000 2.06 150 13:43 23.03.2021
1144 Clear 12 1017 54 10000 2.06 150 13:21 23.03.2021
1145 Clear 13 1016 54 10000 4.12 110 12:43 23.03.2021
1146 Clear 13 1016 54 10000 4.12 110 12:21 23.03.2021
1147 Clear 13 1016 54 10000 4.12 110 12:21 23.03.2021
1148 Clear 11 1016 62 10000 3.09 170 11:47 23.03.2021
1149 Clear 11 1016 62 10000 3.09 170 11:47 23.03.2021
1150 Clouds 8 1015 70 10000 1.99 62 10:47 23.03.2021
1151 Clouds 9 1017 66 8000 2.57 190 10:26 23.03.2021
1152 Clouds 9 1017 66 8000 2.57 190 09:59 23.03.2021
1153 Clouds 9 1017 66 8000 2.57 190 09:39 23.03.2021
1154 Rain 9 1017 66 8000 2.57 190 09:20 23.03.2021
1155 Clouds 9 1017 76 8000 2.06 150 08:40 23.03.2021
1156 Rain 9 1017 76 8000 2.06 150 08:22 23.03.2021
1157 Rain 7 1017 87 8000 2.06 130 07:40 23.03.2021
1158 Clouds 7 1017 87 8000 2.06 130 07:19 23.03.2021
1159 Clouds 6 1016 87 8000 2.06 360 06:33 23.03.2021
1160 Rain 5 1016 93 8000 1.54 90 03:23 23.03.2021
1161 Rain 5 1016 93 8000 1.03 320 02:20 23.03.2021
1162 Rain 5 1016 93 10000 1.54 110 23:44 22.03.2021
1163 Drizzle 5 1016 93 10000 1.54 110 22:56 22.03.2021
1164 Clouds 5 1017 87 10000 1.03 0 22:38 22.03.2021
1165 Clouds 5 1017 87 10000 1.03 0 22:20 22.03.2021
1166 Rain 6 1015 90 10000 1.59 2 21:41 22.03.2021
1167 Rain 5 1019 87 10000 1.54 0 21:22 22.03.2021
1168 Clouds 5 1019 87 10000 1.54 0 20:41 22.03.2021
1169 Clouds 5 1019 87 10000 1.54 0 20:22 22.03.2021
1170 Rain 4 1019 100 10000 4.12 310 19:54 22.03.2021
1171 Rain 4 1019 100 10000 4.12 310 19:31 22.03.2021
1172 Clouds 4 1019 93 10000 2.06 50 18:47 22.03.2021
1173 Rain 4 1019 93 10000 2.06 50 18:29 22.03.2021
1174 Rain 4 1019 93 10000 2.06 50 17:59 22.03.2021
1175 Clouds 4 1019 93 7000 1.54 0 17:41 22.03.2021
1176 Clouds 4 1019 93 7000 1.54 0 17:19 22.03.2021
1177 Clouds 4 1018 93 10000 2.57 340 16:44 22.03.2021
1178 Rain 4 1018 93 10000 2.57 340 16:18 22.03.2021
1179 Clouds 4 1017 93 10000 3.6 350 15:38 22.03.2021
1180 Rain 4 1017 93 10000 3.6 350 15:18 22.03.2021
1181 Rain 5 1017 87 8000 1.54 120 14:51 22.03.2021
1182 Rain 5 1017 87 8000 1.54 120 14:51 22.03.2021
1183 Rain 5 1017 87 8000 1.54 120 14:32 22.03.2021
1184 Clouds 6 1012 87 5472 2.05 351 13:47 22.03.2021
1185 Rain 4 1016 93 7000 2.06 60 13:26 22.03.2021
1186 Clouds 4 1016 93 7000 2.06 60 12:54 22.03.2021
1187 Clouds 4 1016 93 7000 2.06 60 12:24 22.03.2021
1188 Clouds 6 1016 93 7000 4.12 360 11:49 22.03.2021
1189 Clouds 6 1016 93 7000 4.12 360 11:26 22.03.2021
1190 Rain 7 1016 87 8000 2.57 50 10:44 22.03.2021
1191 Rain 7 1016 87 8000 2.57 50 10:24 22.03.2021
1192 Rain 8 1017 76 8000 2.06 50 09:46 22.03.2021
1193 Rain 8 1017 76 8000 2.06 50 09:26 22.03.2021
1194 Rain 8 1017 76 10000 5.14 120 08:45 22.03.2021
1195 Rain 8 1017 76 10000 5.14 120 08:26 22.03.2021
1196 Rain 8 1018 81 9000 7.2 110 07:47 22.03.2021
1197 Clouds 8 1018 81 9000 7.2 110 06:59 22.03.2021
1198 Clouds 8 1018 81 9000 7.2 100 06:36 22.03.2021
1199 Clouds 9 1017 71 10000 3.09 60 02:47 22.03.2021
1200 Clouds 9 1017 76 10000 3.09 20 00:43 22.03.2021
1201 Clear 7 1017 87 10000 3.09 90 23:55 21.03.2021
1202 Clear 7 1017 87 10000 3.09 90 23:20 21.03.2021
1203 Clear 7 1017 87 10000 3.09 90 22:58 21.03.2021
1204 Clouds 9 1017 71 10000 1.54 0 22:29 21.03.2021
1205 Clouds 8 1017 76 10000 1.54 0 21:41 21.03.2021
1206 Clouds 8 1017 76 10000 1.54 0 21:23 21.03.2021
1207 Clouds 9 1018 76 10000 1.54 40 20:46 21.03.2021
1208 Clouds 9 1018 76 10000 1.54 40 20:27 21.03.2021
1209 Clear 9 1017 76 10000 4.12 120 19:57 21.03.2021
1210 Clear 9 1017 76 10000 4.12 120 19:23 21.03.2021
1211 Clear 9 1017 76 10000 4.12 120 18:55 21.03.2021
1212 Clear 9 1017 81 10000 3.09 130 18:31 21.03.2021
1213 Clear 9 1016 71 10000 2.57 100 17:54 21.03.2021
1214 Clear 9 1016 71 10000 2.57 100 17:36 21.03.2021
1215 Clear 9 1016 71 10000 2.57 100 17:18 21.03.2021
1216 Clouds 11 1016 62 10000 2.06 40 16:41 21.03.2021
1217 Clouds 11 1016 62 10000 2.06 40 16:22 21.03.2021
1218 Clouds 12 1016 54 10000 2.57 0 15:42 21.03.2021
1219 Clouds 12 1016 54 10000 2.57 0 15:20 21.03.2021
1220 Clouds 12 1015 66 10000 3.6 330 14:46 21.03.2021
1221 Clouds 12 1015 66 10000 3.6 330 14:27 21.03.2021
1222 Clouds 12 1015 66 10000 3.6 330 13:57 21.03.2021
1223 Clouds 13 1015 54 10000 2.06 40 13:38 21.03.2021
1224 Clouds 14 1011 44 10000 3.02 31 12:42 21.03.2021
1225 Clouds 15 1015 51 10000 2.57 0 12:24 21.03.2021
1226 Clouds 15 1015 51 10000 2.57 0 11:41 21.03.2021
1227 Clouds 15 1015 51 10000 2.57 0 11:20 21.03.2021
1228 Clouds 15 1016 51 10000 2.06 0 10:44 21.03.2021
1229 Clouds 15 1016 51 10000 2.06 0 10:25 21.03.2021
1230 Clouds 13 1017 54 10000 2.57 0 09:47 21.03.2021
1231 Clouds 13 1017 54 10000 2.57 0 09:29 21.03.2021
1232 Rain 13 1017 58 10000 1.54 0 08:47 21.03.2021
1233 Rain 13 1017 58 10000 1.54 0 08:26 21.03.2021
1234 Rain 11 1017 62 10000 2.06 340 07:41 21.03.2021
1235 Rain 11 1017 62 10000 2.06 340 07:21 21.03.2021
1236 Rain 10 1018 62 10000 1.54 0 05:59 21.03.2021
1237 Rain 7 1017 93 10000 1.54 0 02:46 21.03.2021
1238 Rain 7 1017 93 10000 1.54 0 00:55 21.03.2021
1239 Rain 7 1016 93 10000 1.54 0 00:36 21.03.2021
1240 Rain 7 1016 93 10000 1.54 0 00:18 21.03.2021
1241 Rain 7 1016 87 10000 2.06 0 23:37 20.03.2021
1242 Clouds 7 1016 87 10000 2.06 0 22:57 20.03.2021
1243 Clouds 7 1016 100 6000 4.12 30 22:24 20.03.2021
1244 Mist 9 1016 93 5000 6.17 360 21:47 20.03.2021
1245 Mist 9 1016 93 5000 6.17 360 21:25 20.03.2021
1246 Clouds 9 1017 93 10000 2.06 0 20:48 20.03.2021
1247 Clouds 9 1017 93 10000 2.06 0 20:23 20.03.2021
1248 Clouds 9 1017 93 10000 2.06 0 19:51 20.03.2021
1249 Clouds 9 1017 93 10000 2.57 310 19:29 20.03.2021
1250 Clouds 9 1017 93 10000 2.57 310 18:51 20.03.2021
1251 Clouds 9 1018 93 10000 1.54 110 18:28 20.03.2021
1252 Rain 9 1018 93 10000 1.54 110 17:58 20.03.2021
1253 Rain 8 1018 100 8000 4.12 90 17:40 20.03.2021
1254 Clouds 8 1018 100 8000 4.12 90 17:19 20.03.2021
1255 Clouds 9 1018 93 8000 1.54 190 16:38 20.03.2021
1256 Clouds 9 1018 93 7000 7.72 250 16:18 20.03.2021
1257 Clouds 9 1018 93 7000 7.72 250 16:18 20.03.2021
1258 Clouds 12 1016 66 10000 6.17 10 15:40 20.03.2021
1259 Rain 12 1016 66 10000 6.17 10 15:22 20.03.2021
1260 Clouds 14 1015 58 10000 5.14 10 14:32 20.03.2021
1261 Clouds 14 1015 58 10000 5.14 10 13:59 20.03.2021
1262 Rain 14 1015 58 10000 5.66 360 13:30 20.03.2021
1263 Rain 15 1016 51 10000 3.09 20 12:37 20.03.2021
1264 Clouds 15 1016 51 10000 3.09 20 12:18 20.03.2021
1265 Clouds 15 1017 55 10000 2.57 70 11:41 20.03.2021
1266 Rain 15 1017 55 10000 2.57 70 11:21 20.03.2021
1267 Rain 17 1018 51 10000 3.09 70 10:39 20.03.2021
1268 Rain 17 1018 51 10000 3.09 70 10:21 20.03.2021
1269 Clouds 15 1020 55 10000 3.09 80 09:44 20.03.2021
1270 Clouds 15 1020 55 10000 3.09 80 09:21 20.03.2021
1271 Clouds 15 1021 55 9000 2.06 0 08:51 20.03.2021
1272 Clouds 15 1021 55 9000 2.06 0 08:18 20.03.2021
1273 Clouds 13 1022 71 9000 1.03 0 07:41 20.03.2021
1274 Clouds 13 1022 71 9000 1.03 0 07:20 20.03.2021
1275 Clouds 13 1022 71 9000 1.03 0 06:38 20.03.2021
1276 Clouds 11 1022 76 8000 0.9 252 05:27 20.03.2021
1277 Mist 7 1021 93 8000 1.03 0 03:43 20.03.2021
1278 Clouds 7 1021 93 10000 2.06 320 00:48 20.03.2021
1279 Clouds 8 1021 87 10000 2.06 350 23:46 19.03.2021
1280 Clouds 8 1021 87 10000 2.06 350 23:19 19.03.2021
1281 Clouds 8 1021 87 10000 1.03 0 22:42 19.03.2021
1282 Clouds 8 1021 87 10000 1.03 0 22:22 19.03.2021
1283 Clouds 8 1021 93 10000 5.66 130 21:39 19.03.2021
1284 Clouds 8 1021 93 10000 5.66 130 21:20 19.03.2021
1285 Rain 10 1022 76 10000 8.75 350 20:45 19.03.2021
1286 Rain 10 1021 71 10000 6.69 350 20:26 19.03.2021
1287 Clouds 11 1021 66 10000 5.66 360 19:48 19.03.2021
1288 Clouds 11 1021 66 10000 5.66 360 19:22 19.03.2021
1289 Clouds 12 1022 62 10000 7.2 330 18:49 19.03.2021
1290 Clouds 12 1022 62 10000 7.2 330 18:21 19.03.2021
1291 Clouds 12 1021 58 10000 6.17 350 17:56 19.03.2021
1292 Clouds 14 1021 54 10000 2.06 240 17:37 19.03.2021
1293 Clouds 14 1021 54 10000 2.06 240 16:59 19.03.2021
1294 Clouds 14 1020 47 10000 1.54 240 16:40 19.03.2021
1295 Clouds 14 1020 47 10000 1.54 240 16:21 19.03.2021
1296 Clouds 15 1020 44 10000 1.54 0 15:33 19.03.2021
1297 Clouds 15 1020 44 10000 1.54 0 14:51 19.03.2021
1298 Clouds 16 1020 41 10000 4.63 190 14:32 19.03.2021
1299 Clouds 17 1019 39 10000 4.12 340 13:48 19.03.2021
1300 Clouds 17 1019 39 10000 4.12 340 13:18 19.03.2021
1301 Clouds 17 1019 39 10000 2.06 70 12:40 19.03.2021
1302 Clouds 17 1020 39 10000 2.57 80 11:55 19.03.2021
1303 Clouds 17 1020 39 10000 2.57 80 11:22 19.03.2021
1304 Clouds 18 1021 34 10000 1.54 0 10:42 19.03.2021
1305 Clouds 18 1021 34 10000 1.54 0 10:21 19.03.2021
1306 Clouds 16 1022 41 10000 1.54 320 09:43 19.03.2021
1307 Clouds 16 1022 41 10000 1.54 320 09:22 19.03.2021
1308 Clouds 16 1023 41 9000 1.54 210 08:51 19.03.2021
1309 Clouds 16 1023 41 9000 1.54 210 08:26 19.03.2021
1310 Clouds 16 1024 41 9000 1.54 0 07:43 19.03.2021
1311 Clouds 16 1024 41 9000 1.54 0 07:24 19.03.2021
1312 Clouds 13 1024 54 9000 1.54 290 05:26 19.03.2021
1313 Clouds 7 1022 87 8000 2.06 100 00:59 19.03.2021
1314 Clouds 10 1022 66 10000 1.03 0 23:54 18.03.2021
1315 Clouds 10 1023 71 10000 1.54 310 23:28 18.03.2021
1316 Clouds 10 1023 71 10000 1.54 330 22:44 18.03.2021
1317 Clouds 10 1023 71 10000 1.54 330 22:25 18.03.2021
1318 Clouds 9 1023 76 10000 1.54 310 21:43 18.03.2021
1319 Clouds 9 1023 76 10000 1.54 310 21:25 18.03.2021
1320 Clouds 9 1024 71 10000 1.03 100 20:42 18.03.2021
1321 Clouds 9 1024 71 10000 1.03 100 20:22 18.03.2021
1322 Clouds 10 1024 71 10000 5.14 100 19:42 18.03.2021
1323 Clouds 10 1024 71 10000 5.14 100 19:23 18.03.2021
1324 Clouds 10 1024 62 10000 6.17 50 18:41 18.03.2021
1325 Haze 12 1023 58 6000 3.6 300 17:55 18.03.2021
1326 Clouds 13 1022 50 8000 1.54 40 17:27 18.03.2021
1327 Clouds 13 1022 50 8000 1.54 40 16:54 18.03.2021
1328 Clouds 13 1021 47 8000 3.6 150 16:35 18.03.2021
1329 Clouds 13 1021 47 8000 3.6 150 15:59 18.03.2021
1330 Clouds 14 1020 41 10000 4.12 350 15:41 18.03.2021
1331 Clouds 14 1020 41 10000 4.12 350 15:18 18.03.2021
1332 Clouds 14 1020 41 10000 7.2 350 14:45 18.03.2021
1333 Clouds 14 1020 41 10000 7.2 350 14:19 18.03.2021
1334 Clouds 17 1020 29 10000 2.57 130 13:37 18.03.2021
1335 Clouds 17 1020 29 10000 2.57 130 13:19 18.03.2021
1336 Clouds 17 1020 27 10000 3.09 350 12:37 18.03.2021
1337 Clouds 17 1020 27 10000 3.09 350 12:37 18.03.2021
1338 Clouds 17 1020 27 10000 3.09 350 12:37 18.03.2021
1339 Clouds 17 1020 27 10000 3.09 350 12:19 18.03.2021
1340 Clear 17 1020 27 10000 3.09 20 11:44 18.03.2021
1341 Rain 17 1020 27 10000 3.09 20 11:20 18.03.2021
1342 Clear 17 1021 27 10000 1.54 0 10:41 18.03.2021
1343 Clear 17 1021 27 10000 1.54 0 10:23 18.03.2021
1344 Clear 17 1021 27 10000 1.54 0 09:52 18.03.2021
1345 Clear 17 1022 25 10000 1.54 310 09:27 18.03.2021
1346 Clear 14 1023 33 10000 3.6 350 08:45 18.03.2021
1347 Clear 14 1023 33 10000 3.6 350 08:25 18.03.2021
1348 Clouds 15 1023 31 10000 3.09 330 07:47 18.03.2021
1349 Clouds 14 1023 30 9000 1.54 270 06:49 18.03.2021
1350 Clouds 14 1023 30 9000 1.54 270 06:25 18.03.2021
1351 Clouds 12 1023 47 6000 2.06 310 05:26 18.03.2021
1352 Clear 7 1021 57 10000 1.54 0 00:48 18.03.2021
1353 Clear 6 1021 65 8000 1.03 0 23:39 17.03.2021
1354 Clear 7 1021 57 10000 1.03 0 22:43 17.03.2021
1355 Clear 7 1021 57 10000 1.03 0 22:24 17.03.2021
1356 Clear 7 1021 57 10000 1.03 0 21:52 17.03.2021
1357 Clear 10 1022 40 10000 1.54 0 21:32 17.03.2021
1358 Clear 10 1022 40 10000 1.54 0 20:55 17.03.2021
1359 Clear 9 1022 43 10000 2.06 320 20:37 17.03.2021
1360 Clear 9 1022 43 10000 2.06 320 20:19 17.03.2021
1361 Clear 11 1022 37 10000 2.06 0 19:41 17.03.2021
1362 Clear 11 1022 37 10000 2.06 0 19:20 17.03.2021
1363 Clear 11 1022 37 10000 2.06 0 19:20 17.03.2021
1364 Clear 11 1022 37 10000 2.06 0 18:52 17.03.2021
1365 Clear 12 1021 32 10000 7.2 350 18:32 17.03.2021
1366 Clear 13 1021 30 10000 7.2 360 17:42 17.03.2021
1367 Clear 13 1021 30 10000 7.2 360 17:23 17.03.2021
1368 Clear 13 1020 33 10000 5.14 360 16:43 17.03.2021
1369 Clear 13 1020 33 10000 5.14 360 16:21 17.03.2021
1370 Clouds 13 1020 35 10000 7.2 360 15:49 17.03.2021
1371 Clouds 13 1020 35 10000 7.2 360 15:29 17.03.2021
1372 Clear 15 1019 31 10000 7.2 360 14:40 17.03.2021
1373 Clear 15 1019 31 10000 7.2 360 14:20 17.03.2021
1374 Clear 16 1019 31 10000 5.66 360 13:55 17.03.2021
1375 Clear 16 1019 31 10000 5.66 360 13:26 17.03.2021
1376 Clear 16 1019 33 10000 5.14 350 12:49 17.03.2021
1377 Clear 16 1019 33 10000 5.14 350 12:28 17.03.2021
1378 Clouds 17 1019 34 10000 6.17 350 11:42 17.03.2021
1379 Clouds 17 1019 34 10000 6.17 350 11:23 17.03.2021
1380 Clouds 17 1019 34 10000 6.17 350 11:23 17.03.2021
1381 Clouds 17 1019 34 10000 6.17 350 10:53 17.03.2021
1382 Clouds 16 1020 39 9000 4.12 40 10:24 17.03.2021
1383 Clouds 16 1021 36 9000 3.09 90 09:47 17.03.2021
1384 Clouds 16 1021 36 9000 3.09 90 09:21 17.03.2021
1385 Clear 16 1021 39 9000 3.09 180 08:55 17.03.2021
1386 Clear 16 1021 39 9000 3.09 180 08:35 17.03.2021
1387 Clear 15 1022 44 9000 4.12 190 07:48 17.03.2021
1388 Clouds 15 1022 44 9000 4.12 190 07:19 17.03.2021
1389 Haze 13 1022 47 8000 2.06 0 06:36 17.03.2021
1390 Clouds 7 1021 76 8000 1.03 280 04:19 17.03.2021
1391 Mist 5 1020 87 6000 1.03 280 02:44 17.03.2021
1392 Clear 5 1020 87 6000 0.49 310 00:39 17.03.2021
1393 Clear 6 1020 81 7000 1.03 0 23:27 16.03.2021
1394 Clear 7 1021 76 6000 1.54 120 22:47 16.03.2021
1395 Clear 7 1021 76 6000 1.54 120 22:28 16.03.2021
1396 Clouds 8 1021 71 8000 1.54 210 21:45 16.03.2021
1397 Clouds 8 1021 71 8000 1.54 210 21:27 16.03.2021
1398 Clouds 8 1021 71 8000 1.54 210 20:58 16.03.2021
1399 Clouds 9 1022 57 10000 1.54 360 20:20 16.03.2021
1400 Clear 10 1022 57 10000 1.54 0 19:57 16.03.2021
1401 Clear 10 1022 57 10000 1.54 0 19:39 16.03.2021
1402 Clear 10 1022 57 10000 1.54 0 19:19 16.03.2021
1403 Clear 10 1022 53 10000 3.09 360 18:40 16.03.2021
1404 Clear 10 1022 53 10000 3.09 360 18:21 16.03.2021
1405 Clouds 11 1022 50 10000 4.12 350 17:46 16.03.2021
1406 Clouds 11 1022 50 10000 4.12 350 17:26 16.03.2021
1407 Clouds 11 1021 50 10000 4.63 350 16:51 16.03.2021
1408 Clouds 11 1021 50 10000 4.63 350 16:28 16.03.2021
1409 Clouds 13 1021 41 9000 6.17 360 15:47 16.03.2021
1410 Clouds 13 1021 41 9000 6.17 360 15:21 16.03.2021
1411 Clouds 13 1021 41 9000 6.17 360 14:58 16.03.2021
1412 Rain 13 1020 44 9000 5.14 360 14:40 16.03.2021
1413 Clouds 13 1020 44 9000 5.14 360 14:20 16.03.2021
1414 Clouds 14 1020 38 9000 5.66 360 13:47 16.03.2021
1415 Clouds 14 1020 38 9000 5.66 360 13:25 16.03.2021
1416 Clouds 14 1020 38 9000 5.66 360 12:51 16.03.2021
1417 Rain 15 1019 41 9000 6.17 10 12:33 16.03.2021
1418 Clouds 15 1020 41 8000 3.09 70 11:43 16.03.2021
1419 Clouds 15 1020 41 8000 3.09 70 11:22 16.03.2021
1420 Clouds 15 1021 41 8000 5.14 10 10:28 16.03.2021
1421 Clouds 15 1021 41 8000 5.14 10 09:57 16.03.2021
1422 Clouds 15 1022 41 8000 3.09 330 09:36 16.03.2021
1423 Clouds 15 1022 41 8000 3.09 330 09:18 16.03.2021
1424 Clouds 14 1022 44 8000 3.6 10 08:40 16.03.2021
1425 Clouds 14 1022 44 8000 3.6 10 08:20 16.03.2021
1426 Clouds 13 1023 50 8000 2.57 50 07:36 16.03.2021
1427 Haze 13 1023 50 8000 1.03 290 06:40 16.03.2021
1428 Haze 11 1023 62 5000 1.03 350 05:52 16.03.2021
1429 Haze 9 1022 71 5000 1.03 270 05:34 16.03.2021
1430 Mist 6 1020 93 5000 1.54 0 02:45 16.03.2021
1431 Mist 6 1020 93 5000 1.54 0 02:24 16.03.2021
1432 Mist 6 1020 100 1600 0.9 328 23:58 15.03.2021
1433 Mist 5 1020 100 1600 1.54 0 23:29 15.03.2021
1434 Mist 5 1020 100 1600 1.54 0 23:29 15.03.2021
1435 Mist 5 1020 100 1600 1.54 0 22:51 15.03.2021
1436 Mist 7 1021 87 3200 1.54 0 22:33 15.03.2021
1437 Mist 7 1021 87 3200 1.54 0 21:55 15.03.2021
1438 Mist 7 1021 87 4000 1.54 0 21:35 15.03.2021
1439 Mist 7 1021 87 4000 1.54 0 20:59 15.03.2021
1440 Mist 7 1021 87 4000 1.54 0 20:40 15.03.2021
1441 Mist 7 1021 93 4000 1.54 0 20:22 15.03.2021
1442 Mist 7 1021 93 4000 1.54 0 19:51 15.03.2021
1443 Mist 7 1021 93 3200 1.54 0 19:32 15.03.2021
1444 Mist 8 1021 87 5000 1.54 160 18:57 15.03.2021
1445 Mist 8 1021 87 5000 1.54 0 18:32 15.03.2021
1446 Mist 8 1021 87 5000 1.54 0 17:56 15.03.2021
1447 Clouds 9 1021 81 7000 1.54 0 17:32 15.03.2021
1448 Clouds 9 1021 81 7000 1.54 0 16:55 15.03.2021
1449 Clouds 9 1020 76 8000 1.54 320 16:35 15.03.2021
1450 Clouds 9 1020 76 8000 1.54 320 15:47 15.03.2021
1451 Clouds 10 1020 71 9000 1.54 0 15:26 15.03.2021
1452 Clouds 11 1020 71 9000 3.6 360 14:45 15.03.2021
1453 Clouds 11 1020 71 9000 3.6 360 14:24 15.03.2021
1454 Clouds 12 1020 62 8000 4.12 360 13:53 15.03.2021
1455 Clouds 12 1020 62 8000 4.12 360 13:34 15.03.2021
1456 Clouds 12 1020 62 8000 4.12 360 12:51 15.03.2021
1457 Clouds 12 1020 71 9000 4.63 350 12:20 15.03.2021
1458 Clouds 12 1020 71 9000 4.63 350 11:56 15.03.2021
1459 Clouds 12 1020 71 8000 6.17 360 11:38 15.03.2021
1460 Clouds 12 1020 71 8000 6.17 360 10:59 15.03.2021
1461 Clouds 12 1020 66 8000 3.6 30 10:33 15.03.2021
1462 Clouds 12 1020 66 8000 3.6 30 09:59 15.03.2021
1463 Clouds 13 1021 50 8000 1.03 0 09:40 15.03.2021
1464 Clouds 13 1021 50 8000 1.03 0 08:59 15.03.2021
1465 Clouds 13 1022 58 8000 1.54 0 08:41 15.03.2021
1466 Clouds 13 1022 58 8000 1.54 0 08:19 15.03.2021
1467 Clouds 12 1022 62 8000 2.06 160 07:32 15.03.2021
1468 Mist 12 1022 66 8000 2.06 250 06:45 15.03.2021
1469 Clouds 9 1021 81 7000 1.03 250 05:35 15.03.2021
1470 Clouds 7 1020 93 8000 1.03 0 03:18 15.03.2021
1471 Clouds 8 1020 93 10000 1.54 140 00:21 15.03.2021
1472 Clouds 9 1021 81 10000 1.03 0 23:21 14.03.2021
1473 Clouds 9 1021 81 10000 1.03 0 22:48 14.03.2021
1474 Clouds 9 1021 81 10000 1.03 0 22:25 14.03.2021
1475 Clouds 9 1022 87 10000 2.06 0 21:51 14.03.2021
1476 Clouds 9 1022 87 10000 2.06 0 21:22 14.03.2021
1477 Clouds 9 1022 87 9000 1.54 270 20:50 14.03.2021
1478 Clouds 9 1022 87 9000 1.54 270 20:27 14.03.2021
1479 Clouds 9 1022 87 9000 1.54 270 19:56 14.03.2021
1480 Clouds 8 1022 87 9000 1.54 310 19:37 14.03.2021
1481 Clouds 8 1022 87 9000 1.54 310 19:18 14.03.2021
1482 Clouds 9 1022 81 8000 2.06 160 18:31 14.03.2021
1483 Clouds 9 1022 81 8000 2.06 160 17:42 14.03.2021
1484 Clouds 9 1021 81 8000 1.54 120 17:23 14.03.2021
1485 Clouds 9 1021 81 8000 1.54 120 16:52 14.03.2021
1486 Clouds 10 1020 76 8000 2.06 150 16:33 14.03.2021
1487 Clouds 10 1020 76 8000 2.06 150 15:57 14.03.2021
1488 Clouds 11 1020 71 10000 3.09 140 15:39 14.03.2021
1489 Clouds 11 1020 71 10000 3.09 140 14:45 14.03.2021
1490 Clouds 13 1020 54 10000 1.03 60 14:26 14.03.2021
1491 Clouds 13 1019 58 10000 2.57 80 13:50 14.03.2021
1492 Clouds 13 1019 58 10000 2.57 80 13:31 14.03.2021
1493 Clouds 13 1019 58 10000 2.57 360 12:48 14.03.2021
1494 Clouds 13 1019 58 10000 2.57 360 12:29 14.03.2021
1495 Clouds 13 1019 58 10000 2.57 360 11:58 14.03.2021
1496 Clouds 13 1019 62 10000 3.09 100 11:36 14.03.2021
1497 Clouds 13 1019 62 10000 3.09 100 10:59 14.03.2021
1498 Clouds 12 1020 62 9000 1.54 180 10:38 14.03.2021
1499 Clouds 12 1020 62 9000 1.54 180 10:19 14.03.2021
1500 Clouds 11 1020 71 9000 1.54 100 09:44 14.03.2021
1501 Clouds 11 1020 71 9000 1.54 100 09:23 14.03.2021
1502 Clouds 10 1020 76 9000 2.06 60 08:49 14.03.2021
1503 Clouds 10 1020 76 9000 2.06 60 08:31 14.03.2021
1504 Mist 8 1020 81 9000 1.08 83 07:48 14.03.2021
1505 Mist 8 1020 81 9000 1.08 83 07:48 14.03.2021
1506 Mist 8 1020 81 9000 1.03 106 07:19 14.03.2021
1507 Mist 7 1020 87 9000 2.06 310 05:33 14.03.2021
1508 Rain 5 1017 100 8000 6.69 100 00:53 14.03.2021
1509 Rain 5 1019 93 8000 7.2 330 00:20 14.03.2021
1510 Rain 5 1019 93 8000 7.2 330 00:20 14.03.2021
1511 Rain 5 1019 93 8000 7.2 330 23:54 13.03.2021
1512 Rain 6 1017 93 5000 3.6 310 23:35 13.03.2021
1513 Rain 6 1019 93 10000 2.06 0 22:55 13.03.2021
1514 Rain 6 1019 93 10000 2.06 0 22:36 13.03.2021
1515 Rain 6 1020 93 10000 1.54 150 21:49 13.03.2021
1516 Rain 6 1020 93 10000 1.54 150 21:27 13.03.2021
1517 Rain 6 1020 93 10000 1.54 150 20:54 13.03.2021
1518 Rain 7 1021 87 10000 2.57 0 20:32 13.03.2021
1519 Clouds 7 1021 87 10000 2.57 0 19:56 13.03.2021
1520 Rain 7 1022 87 10000 4.63 340 19:32 13.03.2021
1521 Clouds 7 1022 93 6000 3.09 340 18:58 13.03.2021
1522 Rain 7 1022 93 6000 3.09 340 18:40 13.03.2021
1523 Clouds 7 1022 93 6000 3.09 340 18:18 13.03.2021
1524 Mist 7 1022 93 5000 1.54 80 17:44 13.03.2021
1525 Mist 7 1022 93 5000 1.54 80 17:25 13.03.2021
1526 Mist 7 1022 93 5000 3.09 50 16:45 13.03.2021
1527 Mist 7 1022 93 5000 3.09 50 16:27 13.03.2021
1528 Mist 7 1022 93 5000 3.09 50 15:41 13.03.2021
1529 Mist 7 1022 93 5000 2.57 0 14:51 13.03.2021
1530 Rain 8 1022 87 7000 2.57 350 14:29 13.03.2021
1531 Rain 8 1022 87 7000 2.57 350 13:51 13.03.2021
1532 Rain 9 1021 76 10000 2.06 60 13:25 13.03.2021
1533 Rain 8 1022 93 8000 6.69 80 12:45 13.03.2021
1534 Rain 8 1022 93 8000 6.69 80 12:27 13.03.2021
1535 Rain 8 1022 93 4800 6.17 60 11:50 13.03.2021
1536 Rain 9 1023 87 8000 4.63 360 11:29 13.03.2021
1537 Rain 9 1023 87 8000 4.63 360 10:50 13.03.2021
1538 Rain 9 1023 87 8000 3.6 10 10:29 13.03.2021
1539 Rain 12 1024 66 10000 6.17 70 09:47 13.03.2021
1540 Rain 12 1024 66 10000 6.17 70 08:59 13.03.2021
1541 Clouds 12 1025 66 10000 9.26 110 08:41 13.03.2021
1542 Rain 12 1025 66 10000 9.26 110 08:19 13.03.2021
1543 Rain 12 1025 66 10000 9.26 110 08:19 13.03.2021
1544 Clouds 11 1026 66 10000 7.72 110 07:46 13.03.2021
1545 Clouds 11 1026 71 10000 6.17 100 06:18 13.03.2021
1546 Rain 9 1025 76 10000 1.03 0 02:54 13.03.2021
1547 Rain 9 1025 76 10000 3.09 10 00:56 13.03.2021
1548 Clouds 9 1025 76 10000 1.54 70 23:57 12.03.2021
1549 Clouds 9 1025 76 10000 1.03 0 23:32 12.03.2021
1550 Clouds 9 1026 76 10000 1.54 50 22:43 12.03.2021
1551 Clouds 9 1026 76 10000 1.54 50 22:23 12.03.2021
1552 Clouds 9 1026 76 10000 1.54 0 21:44 12.03.2021
1553 Clouds 9 1026 76 10000 1.54 0 21:25 12.03.2021
1554 Clouds 9 1026 76 10000 1.54 0 20:55 12.03.2021
1555 Clouds 9 1026 76 10000 2.57 40 20:32 12.03.2021
1556 Clouds 9 1026 76 10000 2.57 40 19:58 12.03.2021
1557 Clouds 9 1026 76 10000 5.14 110 19:39 12.03.2021
1558 Clouds 9 1026 76 10000 5.14 110 19:18 12.03.2021
1559 Clouds 9 1025 71 10000 5.14 110 18:35 12.03.2021
1560 Clouds 9 1025 71 10000 5.14 110 17:50 12.03.2021
1561 Clouds 10 1025 71 10000 3.6 90 17:30 12.03.2021
1562 Rain 10 1024 71 10000 3.6 70 16:59 12.03.2021
1563 Rain 10 1024 71 10000 3.6 70 16:36 12.03.2021
1564 Rain 10 1024 71 10000 3.6 70 15:52 12.03.2021
1565 Rain 10 1024 66 10000 4.12 90 15:28 12.03.2021
1566 Clouds 11 1023 66 10000 1.54 0 14:48 12.03.2021
1567 Rain 11 1023 66 10000 1.54 0 14:21 12.03.2021
1568 Rain 11 1023 66 10000 1.03 0 13:44 12.03.2021
1569 Clouds 11 1023 66 10000 1.03 0 13:21 12.03.2021
1570 Clouds 12 1023 62 10000 5.14 350 12:57 12.03.2021
1571 Clouds 12 1023 62 10000 5.14 350 12:38 12.03.2021
1572 Clouds 12 1023 62 10000 5.14 350 12:19 12.03.2021
1573 Clouds 12 1023 66 10000 5.14 350 11:49 12.03.2021
1574 Clouds 12 1023 66 10000 5.14 350 11:21 12.03.2021
1575 Clouds 12 1023 62 10000 5.14 350 10:48 12.03.2021
1576 Clouds 12 1023 62 10000 5.14 350 10:24 12.03.2021
1577 Clouds 12 1023 66 10000 2.06 20 09:52 12.03.2021
1578 Clouds 12 1023 66 10000 2.06 20 09:20 12.03.2021
1579 Clouds 11 1024 66 10000 2.06 20 08:44 12.03.2021
1580 Clouds 10 1024 76 10000 2.57 60 07:56 12.03.2021
1581 Clouds 10 1024 76 10000 2.57 60 07:31 12.03.2021
1582 Clouds 9 1024 76 7000 0.51 0 06:46 12.03.2021
1583 Clouds 9 1024 76 7000 0.51 0 06:26 12.03.2021
1584 Clouds 5 1021 93 7000 1.54 100 02:20 12.03.2021
1585 Clouds 6 1021 93 10000 1.54 0 00:18 12.03.2021
1586 Drizzle 6 1021 87 10000 1.54 0 23:25 11.03.2021
1587 Clouds 5 1021 93 10000 1.54 0 22:43 11.03.2021
1588 Clouds 5 1021 93 10000 1.54 0 22:24 11.03.2021
1589 Clouds 5 1021 93 10000 1.54 0 21:46 11.03.2021
1590 Clouds 6 1022 87 10000 1.54 0 21:27 11.03.2021
1591 Clouds 5 1022 93 10000 1.54 0 20:52 11.03.2021
1592 Rain 5 1022 93 10000 1.54 0 20:34 11.03.2021
1593 Clouds 5 1022 93 10000 1.54 0 19:58 11.03.2021
1594 Clouds 5 1022 93 10000 1.54 0 19:39 11.03.2021
1595 Clouds 6 1022 87 10000 1.54 60 18:56 11.03.2021
1596 Clouds 6 1022 87 10000 1.54 60 18:37 11.03.2021
1597 Clouds 6 1022 87 10000 1.54 60 18:18 11.03.2021
1598 Clouds 7 1021 76 10000 2.57 360 17:41 11.03.2021
1599 Clear 7 1020 81 10000 4.12 10 16:43 11.03.2021
1600 Clear 7 1020 81 10000 4.12 10 16:25 11.03.2021
1601 Clouds 7 1019 81 10000 5.14 350 15:44 11.03.2021
1602 Clouds 7 1019 81 10000 5.14 350 15:21 11.03.2021
1603 Clouds 7 1019 81 10000 5.14 350 15:21 11.03.2021
1604 Clouds 7 1019 81 10000 3.09 20 14:45 11.03.2021
1605 Clouds 7 1019 81 10000 3.09 20 14:45 11.03.2021
1606 Clouds 7 1019 81 10000 3.09 20 14:19 11.03.2021
1607 Clouds 6 1019 87 10000 6.17 90 13:46 11.03.2021
1608 Clouds 6 1019 87 10000 6.17 90 13:24 11.03.2021
1609 Rain 6 1019 87 10000 6.17 90 12:57 11.03.2021
1610 Clouds 6 1019 87 10000 2.57 0 12:36 11.03.2021
1611 Clouds 12 1018 58 8000 7.72 240 12:18 11.03.2021
1612 Clouds 13 1017 50 9000 4.63 80 11:42 11.03.2021
1613 Clouds 13 1019 54 10000 3.6 110 11:19 11.03.2021
1614 Clouds 12 1019 62 9000 4.12 130 10:28 11.03.2021
1615 Clouds 11 1020 66 9000 1.03 0 09:53 11.03.2021
1616 Clouds 11 1020 66 9000 1.03 0 09:34 11.03.2021
1617 Clouds 11 1020 66 9000 1.03 0 08:59 11.03.2021
1618 Clouds 10 1021 66 9000 1.54 0 08:40 11.03.2021
1619 Rain 10 1021 66 9000 1.54 0 07:59 11.03.2021
1620 Rain 9 1021 71 9000 1.54 0 07:21 11.03.2021
1621 Clouds 9 1021 76 9000 1.54 110 06:48 11.03.2021
1622 Rain 9 1021 76 9000 1.54 110 06:23 11.03.2021
1623 Clouds 7 1018 81 10000 1.54 160 02:48 11.03.2021
1624 Clouds 7 1018 81 10000 1.54 70 00:45 11.03.2021
1625 Clouds 7 1019 81 10000 1.38 339 23:23 10.03.2021
1626 Rain 8 1019 76 10000 3.6 320 22:43 10.03.2021
1627 Clouds 8 1019 76 10000 3.6 320 22:23 10.03.2021
1628 Clouds 8 1020 71 10000 2.57 360 21:44 10.03.2021
1629 Clouds 8 1020 71 10000 2.57 360 21:23 10.03.2021
1630 Clouds 7 1020 70 10000 3.09 350 20:46 10.03.2021
1631 Clouds 7 1020 70 10000 3.09 350 20:27 10.03.2021
1632 Clear 8 1020 76 10000 6.17 360 19:49 10.03.2021
1633 Clear 8 1020 76 10000 6.17 360 19:28 10.03.2021
1634 Clouds 19 1020 37 10000 3.09 340 18:46 10.03.2021
1635 Clouds 19 1020 37 10000 3.09 340 18:24 10.03.2021
1636 Clouds 19 1020 37 10000 3.09 340 18:24 10.03.2021
1637 Clouds 19 1020 37 10000 3.09 340 17:55 10.03.2021
1638 Clouds 9 1020 66 10000 1.54 0 17:37 10.03.2021
1639 Clouds 10 1021 66 10000 3.09 180 17:19 10.03.2021
1640 Rain 10 1020 57 10000 6.17 350 16:42 10.03.2021
1641 Rain 10 1020 57 10000 6.17 350 16:22 10.03.2021
1642 Clouds 10 1020 62 10000 6.17 360 15:45 10.03.2021
1643 Clouds 10 1020 62 10000 6.17 360 15:23 10.03.2021
1644 Clouds 12 1019 54 10000 6.17 350 14:56 10.03.2021
1645 Clouds 12 1019 54 10000 6.17 350 14:20 10.03.2021
1646 Clouds 12 1019 54 10000 6.17 350 14:20 10.03.2021
1647 Clouds 12 1019 54 10000 6.17 350 13:51 10.03.2021
1648 Clouds 13 1019 47 10000 3.6 130 13:30 10.03.2021
1649 Clouds 14 1019 47 10000 4.12 90 12:46 10.03.2021
1650 Clouds 14 1019 47 10000 4.12 90 12:19 10.03.2021
1651 Clouds 13 1020 47 9000 3.6 350 11:43 10.03.2021
1652 Clouds 13 1020 47 9000 3.6 350 11:19 10.03.2021
1653 Clouds 13 1021 47 10000 6.17 80 10:46 10.03.2021
1654 Clouds 13 1021 47 10000 6.17 80 10:28 10.03.2021
1655 Clouds 15 1021 44 9000 4.12 30 09:45 10.03.2021
1656 Clouds 15 1021 44 9000 4.12 30 09:24 10.03.2021
1657 Clouds 15 1021 44 9000 4.12 30 09:24 10.03.2021
1658 Clouds 15 1021 44 9000 4.12 30 09:24 10.03.2021
1659 Clouds 15 1021 44 9000 4.12 30 09:24 10.03.2021
1660 Clouds 15 1021 44 9000 4.12 30 08:57 10.03.2021
1661 Clouds 14 1022 44 9000 2.57 130 08:39 10.03.2021
1662 Clouds 14 1022 44 9000 2.57 130 08:20 10.03.2021
1663 Clouds 12 1022 50 9000 3.09 140 07:33 10.03.2021
1664 Clouds 12 1022 50 9000 3.09 140 06:57 10.03.2021
1665 Clouds 12 1022 58 8000 1.54 0 06:32 10.03.2021
1666 Clouds 6 1020 75 10000 1.54 0 02:42 10.03.2021
1667 Clouds 7 1018 71 10000 1.39 352 23:52 09.03.2021
1668 Clouds 8 1020 66 10000 2.57 120 23:25 09.03.2021
1669 Clouds 8 1020 66 10000 2.57 120 22:44 09.03.2021
1670 Clouds 8 1020 66 10000 2.57 120 22:26 09.03.2021
1671 Clouds 9 1019 66 10000 2.57 180 21:55 09.03.2021
1672 Clouds 9 1019 66 10000 2.57 180 21:36 09.03.2021
1673 Clouds 9 1019 66 10000 2.57 180 21:18 09.03.2021
1674 Clouds 10 1020 57 10000 1.54 150 20:41 09.03.2021
1675 Clouds 10 1020 57 10000 1.54 150 20:21 09.03.2021
1676 Clouds 11 1020 54 10000 3.09 170 19:51 09.03.2021
1677 Clouds 11 1020 54 10000 3.09 170 19:27 09.03.2021
1678 Clouds 11 1019 54 10000 5.66 100 18:51 09.03.2021
1679 Clouds 11 1019 54 10000 5.66 100 18:27 09.03.2021
1680 Clouds 11 1019 54 10000 5.66 100 17:53 09.03.2021
1681 Clouds 12 1019 47 10000 3.09 70 17:33 09.03.2021
1682 Clouds 12 1019 47 10000 5.14 100 16:55 09.03.2021
1683 Clouds 12 1019 47 10000 5.14 100 16:37 09.03.2021
1684 Clouds 12 1019 47 10000 5.14 100 16:18 09.03.2021
1685 Clouds 13 1018 50 10000 7.2 110 15:43 09.03.2021
1686 Clouds 13 1018 50 10000 7.2 110 15:21 09.03.2021
1687 Clear 14 1018 41 10000 6.17 100 14:31 09.03.2021
1688 Clear 14 1018 41 10000 6.17 100 13:59 09.03.2021
1689 Clouds 15 1018 38 9000 5.14 110 13:38 09.03.2021
1690 Clouds 15 1018 38 9000 5.14 110 13:19 09.03.2021
1691 Clouds 17 1019 36 9000 5.14 120 12:39 09.03.2021
1692 Clouds 17 1019 36 9000 5.14 120 12:19 09.03.2021
1693 Clouds 17 1019 27 10000 7.2 120 11:42 09.03.2021
1694 Clouds 17 1019 27 10000 7.2 120 11:21 09.03.2021
1695 Clouds 17 1019 27 10000 7.2 120 10:55 09.03.2021
1696 Clouds 17 1019 27 10000 7.2 120 10:55 09.03.2021
1697 Clouds 16 1021 31 10000 2.57 160 10:36 09.03.2021
1698 Clouds 16 1021 31 10000 2.57 160 10:18 09.03.2021
1699 Clear 16 1022 33 10000 1.54 240 09:41 09.03.2021
1700 Clear 16 1022 33 10000 1.54 240 09:22 09.03.2021
1701 Clouds 15 1023 38 9000 3.6 200 08:37 09.03.2021
1702 Clouds 15 1023 38 9000 3.6 200 08:18 09.03.2021
1703 Clear 14 1024 51 8000 2.57 160 07:37 09.03.2021
1704 Clear 14 1024 51 8000 2.57 160 07:19 09.03.2021
1705 Clear 13 1023 50 8000 1.54 150 05:55 09.03.2021
1706 Haze 11 1023 58 8000 1.54 120 05:35 09.03.2021
1707 Clouds 7 1021 65 8000 1.54 0 00:21 09.03.2021
1708 Clear 6 1021 65 10000 1.54 0 23:42 08.03.2021
1709 Clear 6 1021 65 10000 1.54 0 23:42 08.03.2021
1710 Clear 6 1021 65 10000 1.54 0 23:23 08.03.2021
1711 Clear 7 1022 61 10000 1.03 0 22:44 08.03.2021
1712 Clear 7 1022 61 10000 1.03 0 22:26 08.03.2021
1713 Clear 7 1022 61 10000 1.03 0 21:54 08.03.2021
1714 Clear 9 1022 53 10000 2.06 130 21:35 08.03.2021
1715 Clear 9 1022 53 10000 1.03 0 20:45 08.03.2021
1716 Clear 9 1022 53 10000 1.03 0 20:25 08.03.2021
1717 Clear 9 1022 53 10000 1.03 0 19:58 08.03.2021
1718 Clear 9 1022 57 10000 2.06 170 19:28 08.03.2021
1719 Clear 9 1022 57 10000 3.09 100 18:40 08.03.2021
1720 Clear 9 1022 57 10000 3.09 100 18:20 08.03.2021
1721 Clear 11 1021 46 10000 2.57 50 17:51 08.03.2021
1722 Clear 11 1021 46 10000 2.57 50 17:25 08.03.2021
1723 Clear 11 1021 46 10000 1.2 34 16:48 08.03.2021
1724 Clouds 12 1020 43 10000 4.12 30 16:28 08.03.2021
1725 Clouds 12 1020 43 10000 4.12 30 15:49 08.03.2021
1726 Clouds 12 1020 43 10000 4.12 30 15:28 08.03.2021
1727 Clear 14 1020 41 8000 4.63 110 14:43 08.03.2021
1728 Clear 14 1020 41 8000 4.63 110 14:20 08.03.2021
1729 Clear 15 1019 31 8000 4.12 80 13:38 08.03.2021
1730 Clouds 15 1019 31 8000 4.12 80 13:19 08.03.2021
1731 Clouds 15 1019 33 8000 3.6 70 12:42 08.03.2021
1732 Clouds 15 1019 33 8000 3.6 70 12:42 08.03.2021
1733 Clouds 15 1019 33 8000 3.6 70 12:23 08.03.2021
1734 Clouds 15 1020 33 8000 3.09 160 11:40 08.03.2021
1735 Clouds 15 1020 33 8000 3.09 160 11:18 08.03.2021
1736 Clouds 15 1021 38 8000 3.6 30 10:43 08.03.2021
1737 Clouds 15 1021 38 8000 3.6 30 10:22 08.03.2021
1738 Clouds 15 1021 36 8000 2.57 200 09:41 08.03.2021
1739 Clouds 15 1021 36 8000 2.57 200 09:22 08.03.2021
1740 Clear 14 1022 47 8000 2.06 200 08:28 08.03.2021
1741 Clear 12 1022 54 8000 2.06 160 07:23 08.03.2021
1742 Haze 11 1023 58 8000 1.54 310 06:43 08.03.2021
1743 Mist 4 1021 93 6000 1.03 110 03:38 08.03.2021
1744 Clear 6 1019 64 10000 0.71 310 00:44 08.03.2021
1745 Clear 5 1019 87 7000 1.03 330 23:57 07.03.2021
1746 Clear 5 1019 87 7000 1.03 330 23:37 07.03.2021
1747 Clear 5 1019 87 7000 1.03 330 23:18 07.03.2021
1748 Clouds 5 1019 87 7000 1.03 350 22:42 07.03.2021
1749 Clouds 5 1019 87 7000 1.03 350 22:23 07.03.2021
1750 Mist 6 1020 81 7000 1.03 0 21:44 07.03.2021
1751 Mist 6 1020 81 7000 1.03 0 21:25 07.03.2021
1752 Mist 7 1020 81 8000 1.03 0 20:48 07.03.2021
1753 Mist 7 1020 81 8000 1.03 0 20:30 07.03.2021
1754 Clear 8 1019 71 10000 1.54 0 19:57 07.03.2021
1755 Clear 8 1019 71 10000 1.54 0 19:38 07.03.2021
1756 Clear 8 1019 71 10000 1.54 0 19:20 07.03.2021
1757 Clouds 8 1019 76 9000 1.54 0 18:42 07.03.2021
1758 Clouds 8 1019 76 9000 1.54 0 18:19 07.03.2021
1759 Clouds 8 1019 76 9000 1.54 70 17:40 07.03.2021
1760 Clouds 8 1019 76 9000 1.54 70 17:20 07.03.2021
1761 Clouds 8 1019 76 9000 1.54 70 16:56 07.03.2021
1762 Clouds 9 1018 66 10000 2.57 340 16:37 07.03.2021
1763 Clouds 9 1018 66 10000 2.57 340 16:18 07.03.2021
1764 Clouds 10 1017 57 10000 2.57 360 15:42 07.03.2021
1765 Clouds 10 1017 57 10000 2.57 360 15:21 07.03.2021
1766 Clouds 11 1017 50 10000 4.12 360 14:30 07.03.2021
1767 Clouds 11 1017 50 10000 4.12 360 13:59 07.03.2021
1768 Clouds 12 1016 47 10000 5.66 10 13:39 07.03.2021
1769 Clouds 12 1016 47 10000 5.66 10 13:18 07.03.2021
1770 Clouds 12 1017 54 10000 5.14 360 12:43 07.03.2021
1771 Clouds 12 1017 54 10000 5.14 360 12:24 07.03.2021
1772 Clouds 11 1017 58 10000 2.57 0 11:25 07.03.2021
1773 Clouds 11 1017 58 10000 2.57 0 10:59 07.03.2021
1774 Clouds 10 1018 62 10000 2.57 0 10:38 07.03.2021
1775 Clouds 10 1018 62 10000 2.57 0 09:59 07.03.2021
1776 Clouds 10 1019 66 10000 1.54 0 09:39 07.03.2021
1777 Clouds 10 1019 66 10000 1.54 0 09:20 07.03.2021
1778 Clouds 10 1020 62 10000 1.03 0 08:45 07.03.2021
1779 Clouds 10 1020 62 10000 1.03 0 08:22 07.03.2021
1780 Clouds 7 1020 76 7000 1.03 0 07:23 07.03.2021
1781 Mist 4 1017 93 5000 1.54 130 02:40 07.03.2021
1782 Clouds 4 1017 87 8000 3.09 150 00:35 07.03.2021
1783 Clouds 4 1017 93 8000 2.57 160 23:41 06.03.2021
1784 Clouds 4 1017 93 8000 2.57 160 23:20 06.03.2021
1785 Clouds 5 1018 87 10000 1.54 0 22:46 06.03.2021
1786 Clouds 5 1018 87 10000 1.54 0 22:24 06.03.2021
1787 Clouds 4 1017 100 6000 5.66 10 21:49 06.03.2021
1788 Clouds 4 1017 100 6000 5.66 10 21:21 06.03.2021
1789 Clouds 5 1018 93 10000 6.17 360 20:44 06.03.2021
1790 Clouds 5 1018 93 10000 6.17 360 20:19 06.03.2021
1791 Clouds 6 1018 87 10000 7.72 350 19:40 06.03.2021
1792 Clouds 6 1018 81 10000 7.2 360 19:18 06.03.2021
1793 Clouds 6 1018 81 10000 5.14 340 18:43 06.03.2021
1794 Clouds 6 1018 81 10000 5.14 340 18:22 06.03.2021
1795 Clouds 6 1018 81 10000 5.14 340 17:55 06.03.2021
1796 Clouds 6 1018 87 10000 5.14 330 17:33 06.03.2021
1797 Clouds 6 1018 87 10000 5.14 330 16:59 06.03.2021
1798 Clouds 6 1018 87 9000 3.09 350 16:37 06.03.2021
1799 Clouds 6 1018 87 9000 3.09 350 16:18 06.03.2021
1800 Rain 5 1018 87 6000 4.12 50 15:39 06.03.2021
1801 Rain 6 1018 87 5000 5.14 330 15:21 06.03.2021
1802 Rain 8 1018 71 10000 2.57 70 14:33 06.03.2021
1803 Clouds 8 1018 71 10000 2.57 70 13:56 06.03.2021
1804 Clouds 9 1018 66 10000 3.6 70 13:37 06.03.2021
1805 Clouds 9 1018 66 10000 3.6 70 13:19 06.03.2021
1806 Clouds 8 1018 76 10000 3.09 90 12:42 06.03.2021
1807 Clouds 11 1018 43 10000 2.57 0 12:19 06.03.2021
1808 Clouds 13 1017 35 10000 3.09 0 11:44 06.03.2021
1809 Rain 13 1017 35 10000 3.09 0 11:20 06.03.2021
1810 Clouds 16 1017 25 10000 4.12 100 10:44 06.03.2021
1811 Clouds 16 1017 25 10000 4.12 100 09:58 06.03.2021
1812 Clouds 16 1018 27 10000 2.57 0 09:26 06.03.2021
1813 Clouds 16 1019 25 10000 1.54 0 08:58 06.03.2021
1814 Clouds 16 1019 25 10000 1.54 0 08:31 06.03.2021
1815 Clouds 16 1019 25 10000 1.54 0 07:56 06.03.2021
1816 Clouds 14 1020 26 10000 1.54 0 07:22 06.03.2021
1817 Clouds 14 1020 26 10000 1.54 0 06:42 06.03.2021
1818 Clouds 9 1019 40 7000 1.03 0 03:49 06.03.2021
1819 Clouds 10 1019 34 10000 1.03 250 01:43 06.03.2021
1820 Clouds 10 1018 34 10000 2.06 180 00:47 06.03.2021
1821 Clouds 10 1018 34 10000 2.06 180 23:51 05.03.2021
1822 Clouds 9 1019 34 10000 2.06 40 23:22 05.03.2021
1823 Clouds 10 1019 29 10000 1.54 330 22:45 05.03.2021
1824 Clouds 10 1019 29 10000 1.54 330 22:22 05.03.2021
1825 Clouds 10 1019 29 10000 1.54 330 21:52 05.03.2021
1826 Clouds 10 1019 32 10000 2.06 60 21:32 05.03.2021
1827 Clouds 10 1019 32 10000 2.06 60 20:53 05.03.2021
1828 Clear 12 1020 19 10000 3.6 320 20:26 05.03.2021
1829 Rain 12 1020 24 9000 2.06 310 19:55 05.03.2021
1830 Clouds 12 1020 24 9000 2.06 310 19:26 05.03.2021
1831 Haze 13 1020 24 7000 2.06 180 18:56 05.03.2021
1832 Haze 13 1020 24 7000 2.06 180 18:38 05.03.2021
1833 Haze 13 1020 24 7000 2.06 180 18:18 05.03.2021
1834 Haze 13 1020 24 7000 2.06 180 18:18 05.03.2021
1835 Rain 13 1020 19 10000 2.06 0 17:34 05.03.2021
1836 Clear 12 1020 20 10000 2.06 300 16:46 05.03.2021
1837 Clear 12 1020 20 10000 2.06 300 16:24 05.03.2021
1838 Rain 12 1020 20 10000 2.06 300 15:56 05.03.2021
1839 Rain 12 1020 20 10000 2.06 300 15:56 05.03.2021
1840 Clear 15 1020 14 10000 2.06 10 15:37 05.03.2021
1841 Clear 15 1020 14 10000 2.06 10 15:18 05.03.2021
1842 Clear 16 1019 14 10000 3.09 50 14:38 05.03.2021
1843 Clear 17 1019 14 10000 3.6 50 13:46 05.03.2021
1844 Clear 17 1019 14 10000 3.6 50 13:22 05.03.2021
1845 Clear 18 1020 14 10000 1.54 0 12:48 05.03.2021
1846 Clear 18 1021 14 10000 2.57 80 11:43 05.03.2021
1847 Clear 18 1021 14 10000 2.57 80 11:23 05.03.2021
1848 Clear 18 1021 14 10000 2.57 80 10:59 05.03.2021
1849 Clear 17 1022 15 10000 3.09 170 10:39 05.03.2021
1850 Clear 17 1022 15 10000 3.09 170 10:20 05.03.2021
1851 Clear 16 1024 18 10000 2.57 0 09:46 05.03.2021
1852 Clear 16 1024 18 10000 2.57 0 09:26 05.03.2021
1853 Clear 16 1024 18 10000 2.57 0 08:40 05.03.2021
1854 Clear 15 1024 21 10000 1.03 0 08:22 05.03.2021
1855 Clear 14 1025 21 10000 1.03 0 07:39 05.03.2021
1856 Clear 14 1025 26 9000 1.03 0 06:49 05.03.2021
1857 Clear 14 1025 26 9000 1.03 0 06:30 05.03.2021
1858 Clear 7 1023 39 10000 3.6 330 01:47 05.03.2021
1859 Clear 7 1023 39 10000 3.6 330 01:47 05.03.2021
1860 Clear 6 1023 45 10000 2.06 320 00:34 05.03.2021
1861 Clear 6 1023 45 10000 1.03 0 23:31 04.03.2021
1862 Clear 7 1023 42 10000 1.54 120 22:38 04.03.2021
1863 Clear 10 1023 32 10000 1.54 0 21:56 04.03.2021
1864 Clear 10 1023 32 10000 1.54 0 21:37 04.03.2021
1865 Clear 10 1023 32 10000 1.54 0 21:18 04.03.2021
1866 Clear 11 1023 28 10000 2.06 300 20:41 04.03.2021
1867 Clear 11 1023 28 10000 2.06 300 20:21 04.03.2021
1868 Clear 10 1023 29 10000 2.06 300 19:53 04.03.2021
1869 Clear 10 1023 29 10000 2.06 300 19:27 04.03.2021
1870 Clear 11 1022 28 10000 2.06 300 18:54 04.03.2021
1871 Clear 11 1022 28 10000 2.06 300 18:31 04.03.2021
1872 Clear 13 1021 24 10000 4.12 280 17:58 04.03.2021
1873 Clear 13 1021 24 10000 4.12 280 17:39 04.03.2021
1874 Clear 13 1021 24 10000 4.12 280 17:18 04.03.2021
1875 Clear 12 1021 24 10000 4.12 330 16:43 04.03.2021
1876 Clear 12 1021 24 10000 4.12 330 16:24 04.03.2021
1877 Clear 14 1020 19 10000 3.6 360 15:46 04.03.2021
1878 Clear 14 1020 19 10000 3.6 360 15:27 04.03.2021
1879 Clear 16 1019 17 10000 4.12 360 14:44 04.03.2021
1880 Clear 16 1019 17 10000 4.12 360 14:18 04.03.2021
1881 Clouds 19 1019 13 10000 1.54 340 13:42 04.03.2021
1882 Clouds 19 1019 13 10000 1.54 340 13:22 04.03.2021
1883 Clouds 19 1019 15 10000 4.63 100 12:42 04.03.2021
1884 Clouds 18 1020 16 10000 2.57 0 11:58 04.03.2021
1885 Clouds 18 1020 16 10000 2.57 0 11:40 04.03.2021
1886 Clouds 18 1020 16 10000 2.57 0 11:19 04.03.2021
1887 Clouds 17 1020 19 10000 1.03 0 10:37 04.03.2021
1888 Clouds 17 1020 19 10000 1.03 0 09:55 04.03.2021
1889 Clouds 17 1021 19 10000 4.12 190 09:28 04.03.2021
1890 Clouds 17 1021 19 10000 4.12 190 09:28 04.03.2021
1891 Clouds 16 1022 21 10000 4.12 150 08:53 04.03.2021
1892 Clouds 16 1022 21 10000 4.12 150 08:28 04.03.2021
1893 Clouds 14 1022 24 10000 1.54 0 07:45 04.03.2021
1894 Haze 14 1023 28 9000 1.03 0 06:48 04.03.2021
1895 Haze 14 1023 28 9000 1.03 0 06:21 04.03.2021
1896 Clouds 4 1020 56 8000 1.03 330 02:39 04.03.2021
1897 Clear 5 1019 52 10000 2.06 150 00:21 04.03.2021
1898 Clear 9 1019 40 10000 1.54 20 22:39 03.03.2021
1899 Clear 9 1019 40 10000 1.54 20 22:20 03.03.2021
1900 Clear 9 1019 37 10000 1.54 0 21:41 03.03.2021
1901 Clear 9 1019 37 10000 1.54 0 21:23 03.03.2021
1902 Clear 9 1019 37 10000 1.54 0 20:54 03.03.2021
1903 Clouds 8 1020 46 10000 3.09 80 20:35 03.03.2021
1904 Clouds 8 1020 46 10000 3.09 80 19:51 03.03.2021
1905 Clear 11 1019 35 10000 5.14 60 19:30 03.03.2021
1906 Clear 11 1019 35 10000 5.14 60 18:58 03.03.2021
1907 Clear 11 1019 32 10000 4.12 340 18:39 03.03.2021
1908 Clear 11 1019 32 10000 4.12 340 17:58 03.03.2021
1909 Clear 12 1019 30 10000 5.66 20 17:22 03.03.2021
1910 Clear 12 1019 30 10000 5.66 20 16:55 03.03.2021
1911 Clear 13 1018 24 10000 1.54 0 16:27 03.03.2021
1912 Clear 13 1018 24 10000 1.54 0 15:57 03.03.2021
1913 Clouds 15 1018 17 10000 7.2 280 15:33 03.03.2021
1914 Clear 17 1017 15 9000 7.72 270 14:50 03.03.2021
1915 Clear 17 1017 15 9000 7.72 270 14:27 03.03.2021
1916 Clouds 18 1017 13 9000 7.2 240 13:47 03.03.2021
1917 Clouds 18 1017 13 9000 7.2 240 13:28 03.03.2021
1918 Clouds 18 1017 17 10000 6.17 240 12:43 03.03.2021
1919 Clouds 18 1017 17 10000 6.17 240 12:23 03.03.2021
1920 Clouds 18 1017 20 10000 5.14 200 11:45 03.03.2021
1921 Clouds 18 1017 20 10000 5.14 200 11:27 03.03.2021
1922 Clear 17 1018 20 10000 3.6 150 10:46 03.03.2021
1923 Clear 17 1018 20 10000 3.6 150 10:22 03.03.2021
1924 Clear 17 1020 20 10000 2.57 170 09:44 03.03.2021
1925 Clear 17 1020 20 10000 2.57 170 08:55 03.03.2021
1926 Clear 15 1020 26 10000 3.6 150 08:37 03.03.2021
1927 Clear 15 1020 26 10000 3.6 150 08:18 03.03.2021
1928 Clear 13 1021 30 9000 2.57 200 07:34 03.03.2021
1929 Haze 12 1021 35 4500 1.54 210 06:45 03.03.2021
1930 Haze 10 1021 43 6000 1.03 200 05:44 03.03.2021
1931 Haze 6 1020 56 9000 1.54 300 04:49 03.03.2021
1932 Haze 6 1020 56 9000 1.54 300 04:24 03.03.2021
1933 Clear 4 1020 56 10000 1.54 0 00:37 03.03.2021
1934 Clouds 5 1020 52 9000 1.03 0 23:35 02.03.2021
1935 Clouds 6 1020 52 9000 1.03 0 22:53 02.03.2021
1936 Clouds 6 1020 52 9000 1.03 0 22:23 02.03.2021
1937 Clouds 6 1020 52 9000 1.03 0 21:55 02.03.2021
1938 Clouds 5 1021 52 9000 2.06 130 21:36 02.03.2021
1939 Clouds 5 1021 52 9000 2.06 130 20:58 02.03.2021
1940 Clouds 9 1021 37 10000 2.06 300 20:40 02.03.2021
1941 Clouds 9 1021 37 10000 2.06 300 20:21 02.03.2021
1942 Clouds 10 1021 32 10000 1.03 0 19:47 02.03.2021
1943 Clouds 10 1021 32 10000 1.03 0 19:28 02.03.2021
1944 Clouds 11 1021 30 10000 3.09 350 18:43 02.03.2021
1945 Clouds 11 1021 30 10000 3.09 350 18:24 02.03.2021
1946 Clouds 11 1021 30 10000 3.09 350 17:58 02.03.2021
1947 Clouds 12 1021 26 10000 5.14 350 17:39 02.03.2021
1948 Clouds 12 1021 26 10000 5.14 350 17:20 02.03.2021
1949 Clouds 11 1021 25 10000 2.57 340 16:47 02.03.2021
1950 Clouds 11 1021 25 10000 2.57 340 15:55 02.03.2021
1951 Clouds 13 1020 26 10000 3.6 350 15:27 02.03.2021
1952 Clouds 13 1020 26 10000 3.6 350 15:27 02.03.2021
1953 Clouds 13 1020 26 10000 3.6 350 14:50 02.03.2021
1954 Clouds 14 1019 23 10000 3.6 360 14:19 02.03.2021
1955 Clouds 15 1019 20 10000 3.09 10 13:47 02.03.2021
1956 Clouds 15 1019 20 10000 3.09 10 13:25 02.03.2021
1957 Clouds 17 1020 19 9000 6.17 360 12:47 02.03.2021
1958 Clouds 17 1020 19 9000 6.17 360 12:25 02.03.2021
1959 Clouds 15 1020 18 9000 5.14 350 11:45 02.03.2021
1960 Clouds 15 1020 18 9000 5.14 350 11:23 02.03.2021
1961 Clouds 16 1021 17 9000 3.09 240 10:49 02.03.2021
1962 Clouds 16 1021 17 9000 3.09 240 10:29 02.03.2021
1963 Clouds 15 1022 18 8000 4.12 10 09:43 02.03.2021
1964 Clouds 15 1022 18 8000 4.12 10 09:24 02.03.2021
1965 Haze 15 1024 17 9000 2.06 0 08:44 02.03.2021
1966 Haze 15 1024 17 9000 2.06 0 08:26 02.03.2021
1967 Haze 14 1024 19 9000 2.57 300 07:43 02.03.2021
1968 Haze 13 1024 22 8000 3.09 300 06:37 02.03.2021
1969 Haze 8 1024 31 7000 3.09 310 05:48 02.03.2021
1970 Haze 8 1024 31 7000 3.09 310 05:30 02.03.2021
1971 Clouds 3 1024 56 6000 0.51 0 03:29 02.03.2021
1972 Clouds 4 1023 52 6000 0.51 0 01:42 02.03.2021
1973 Clouds 4 1023 52 6000 0.51 0 01:19 02.03.2021
1974 Smoke 5 1024 48 4000 0.51 0 23:29 01.03.2021
1975 Smoke 5 1024 45 4000 1.03 0 22:43 01.03.2021
1976 Smoke 5 1024 45 4000 1.03 0 22:43 01.03.2021
1977 Smoke 5 1024 45 4000 1.03 0 22:25 01.03.2021
1978 Smoke 6 1024 45 4000 1.03 0 21:52 01.03.2021
1979 Smoke 6 1024 45 4000 1.03 0 21:24 01.03.2021
1980 Smoke 6 1024 45 4000 0.51 0 20:59 01.03.2021
1981 Smoke 6 1024 45 4000 0.51 0 20:39 01.03.2021
1982 Smoke 6 1024 45 4000 0.51 0 20:18 01.03.2021
1983 Smoke 6 1025 42 6000 1.54 0 19:42 01.03.2021
1984 Smoke 6 1025 42 6000 1.54 0 19:18 01.03.2021
1985 Clear 8 1025 27 10000 1.54 0 18:40 01.03.2021
1986 Clear 8 1025 27 10000 1.54 0 18:21 01.03.2021
1987 Clear 9 1024 27 10000 1.03 0 17:42 01.03.2021
1988 Clear 9 1024 27 10000 1.03 0 17:20 01.03.2021
1989 Clear 10 1023 25 10000 2.06 0 16:46 01.03.2021
1990 Clear 10 1023 25 10000 2.06 0 16:26 01.03.2021
1991 Clear 12 1022 17 10000 3.09 360 15:46 01.03.2021
1992 Clear 12 1022 17 10000 3.09 360 15:22 01.03.2021
1993 Clear 12 1022 17 10000 3.09 360 14:55 01.03.2021
1994 Clear 13 1022 16 10000 2.57 40 14:36 01.03.2021
1995 Clear 15 1021 14 10000 2.57 0 13:44 01.03.2021
1996 Clear 15 1021 14 10000 2.57 0 13:25 01.03.2021
1997 Clear 15 1021 14 10000 2.57 0 13:25 01.03.2021
1998 Clear 15 1021 14 10000 2.57 0 12:58 01.03.2021
1999 Clear 16 1021 14 10000 3.09 0 12:38 01.03.2021
2000 Clear 16 1021 14 10000 3.09 0 12:19 01.03.2021
2001 Clear 15 1022 15 10000 4.12 40 11:42 01.03.2021
2002 Clear 15 1022 15 10000 4.12 40 10:45 01.03.2021
2003 Clear 14 1022 14 10000 1.54 0 10:23 01.03.2021
2004 Clear 14 1022 14 10000 1.54 0 09:59 01.03.2021
2005 Clear 14 1023 18 10000 2.57 0 09:40 01.03.2021
2006 Clear 14 1023 18 10000 2.57 0 09:21 01.03.2021
2007 Clear 14 1023 18 10000 2.57 0 09:21 01.03.2021
2008 Clear 14 1023 18 10000 2.57 0 08:51 01.03.2021
2009 Clear 13 1024 18 10000 2.57 0 08:20 01.03.2021
2010 Clear 10 1023 23 7000 1.54 0 06:53 01.03.2021
2011 Clear 2 1022 51 10000 3.09 320 04:45 01.03.2021
2012 Smoke 1 1021 60 5000 0.44 323 00:56 01.03.2021
2013 Smoke 2 1020 55 4000 0.51 0 23:36 28.02.2021
2014 Smoke 2 1020 55 4000 0.51 0 22:51 28.02.2021
2015 Smoke 2 1020 51 4000 1.54 0 22:23 28.02.2021
2016 Smoke 2 1020 48 4000 1.54 0 21:51 28.02.2021
2017 Smoke 2 1020 48 4000 1.54 0 21:28 28.02.2021
2018 Smoke 2 1020 48 4000 1.54 0 21:28 28.02.2021
2019 Smoke 2 1020 48 4000 1.54 0 20:56 28.02.2021
2020 Smoke 3 1020 48 4000 1.03 190 20:36 28.02.2021
2021 Smoke 5 1020 36 4000 1.03 180 19:47 28.02.2021
2022 Smoke 5 1020 36 4000 1.03 180 19:28 28.02.2021
2023 Smoke 5 1020 36 4000 1.03 180 18:59 28.02.2021
2024 Smoke 6 1020 36 4500 1.54 210 18:38 28.02.2021
2025 Smoke 6 1020 36 4500 1.54 210 18:19 28.02.2021
2026 Clouds 7 1019 33 10000 1.03 220 17:46 28.02.2021
2027 Clouds 7 1019 33 10000 1.03 220 17:27 28.02.2021
2028 Clear 9 1019 20 10000 1.54 340 16:51 28.02.2021
2029 Clear 9 1019 20 10000 1.54 340 16:30 28.02.2021
2030 Clear 10 1018 20 9000 2.06 70 15:53 28.02.2021
2031 Clear 10 1018 20 9000 2.06 70 15:31 28.02.2021
2032 Clear 12 1017 15 10000 1.54 0 14:59 28.02.2021
2033 Clear 12 1017 15 10000 1.54 0 14:40 28.02.2021
2034 Clear 12 1017 15 10000 1.54 0 14:20 28.02.2021
2035 Clear 12 1017 15 10000 1.54 0 14:20 28.02.2021
2036 Clear 13 1018 13 10000 1.54 0 13:42 28.02.2021
2037 Clear 13 1018 13 10000 1.54 0 13:19 28.02.2021
2038 Clear 13 1018 13 10000 1.54 0 12:55 28.02.2021
2039 Clear 15 1017 13 10000 3.09 0 12:36 28.02.2021
2040 Clear 15 1017 13 10000 3.09 0 12:18 28.02.2021
2041 Clear 13 1018 15 10000 3.09 0 11:42 28.02.2021
2042 Clear 13 1018 15 10000 3.09 0 11:22 28.02.2021
2043 Clear 13 1019 15 10000 2.57 0 10:49 28.02.2021
2044 Clear 13 1019 15 10000 2.57 0 10:26 28.02.2021
2045 Clear 12 1020 20 9000 2.57 0 09:42 28.02.2021
2046 Clear 12 1020 20 9000 2.57 0 09:42 28.02.2021
2047 Clear 12 1020 20 9000 2.57 0 09:24 28.02.2021
2048 Clear 11 1021 22 9000 1.03 0 08:47 28.02.2021
2049 Clear 11 1021 22 9000 1.03 0 08:29 28.02.2021
2050 Clear 9 1021 25 9000 2.06 200 07:52 28.02.2021
2051 Clear 9 1021 25 9000 2.06 200 07:30 28.02.2021
2052 Clear 9 1021 23 9000 1.54 300 06:27 28.02.2021
2053 Smoke 4 1020 41 5000 1.54 340 05:24 28.02.2021
2054 Clear -2 1019 74 9000 1.54 130 03:26 28.02.2021
2055 Smoke 0 1018 59 7000 1.54 240 01:41 28.02.2021
2056 Smoke 0 1018 59 7000 1.54 240 00:49 28.02.2021
2057 Smoke -1 1018 64 7000 1.03 340 00:25 28.02.2021
2058 Smoke 0 1018 55 5000 1.54 320 23:44 27.02.2021
2059 Smoke 0 1018 55 5000 1.54 320 23:19 27.02.2021
2060 Smoke 1 1019 51 6000 1.03 320 22:44 27.02.2021
2061 Smoke 1 1019 51 6000 1.03 320 22:19 27.02.2021
2062 Smoke 2 1019 41 7000 1.03 0 21:42 27.02.2021
2063 Smoke 2 1019 41 7000 1.03 0 21:23 27.02.2021
2064 Smoke 3 1019 41 7000 1.54 0 20:48 27.02.2021
2065 Smoke 3 1019 41 7000 1.54 0 20:27 27.02.2021
2066 Clear 5 1019 26 8000 2.57 340 19:45 27.02.2021
2067 Clear 5 1019 26 8000 2.57 340 19:27 27.02.2021
2068 Clear 6 1019 19 10000 2.57 330 18:45 27.02.2021
2069 Clear 6 1019 19 10000 2.57 330 18:21 27.02.2021
2070 Clear 6 1019 19 10000 2.57 330 17:57 27.02.2021
2071 Clear 6 1018 17 10000 7.72 10 17:36 27.02.2021
2072 Clear 6 1018 17 10000 7.72 10 17:18 27.02.2021
2073 Clear 7 1017 16 10000 5.14 20 16:48 27.02.2021
2074 Clear 7 1017 16 10000 5.14 20 16:25 27.02.2021
2075 Clear 8 1017 15 10000 7.72 10 15:41 27.02.2021
2076 Clear 8 1017 15 10000 7.72 10 14:57 27.02.2021
2077 Clear 9 1016 15 10000 6.69 40 14:39 27.02.2021
2078 Clear 9 1016 15 10000 6.69 40 14:19 27.02.2021
2079 Clouds 11 1015 15 10000 5.66 50 13:37 27.02.2021
2080 Clouds 11 1015 15 10000 5.66 50 13:18 27.02.2021
2081 Clouds 12 1015 16 10000 6.17 20 12:40 27.02.2021
2082 Clouds 12 1015 16 10000 6.17 20 12:22 27.02.2021
2083 Clouds 12 1015 17 10000 7.72 10 11:43 27.02.2021
2084 Clouds 12 1015 17 10000 7.72 10 11:24 27.02.2021
2085 Clouds 12 1015 20 10000 6.17 360 10:47 27.02.2021
2086 Clouds 12 1015 20 10000 6.17 360 10:28 27.02.2021
2087 Clouds 11 1016 28 10000 3.09 10 09:51 27.02.2021
2088 Clouds 11 1016 28 10000 3.09 10 09:26 27.02.2021
2089 Clear 10 1016 32 10000 3.09 30 08:42 27.02.2021
2090 Clear 10 1016 32 10000 3.09 30 08:21 27.02.2021
2091 Clear 10 1016 29 10000 2.57 0 07:42 27.02.2021
2092 Clear 8 1015 49 10000 1.54 0 06:21 27.02.2021
2093 Clear 3 1012 70 8000 2.57 340 01:18 27.02.2021
2094 Clear 2 1012 75 7000 2.06 330 23:58 26.02.2021
2095 Mist 4 1013 65 6000 3.09 340 23:40 26.02.2021
2096 Mist 4 1013 65 6000 3.09 340 23:18 26.02.2021
2097 Mist 4 1013 70 6000 3.6 350 22:30 26.02.2021
2098 Mist 4 1013 70 5000 2.57 350 21:49 26.02.2021
2099 Mist 4 1013 70 5000 2.57 350 21:30 26.02.2021
2100 Mist 5 1013 70 3600 2.57 340 20:44 26.02.2021
2101 Mist 5 1013 70 3600 2.57 340 20:44 26.02.2021
2102 Mist 5 1013 70 3600 2.57 340 20:24 26.02.2021
2103 Mist 5 1013 70 3600 2.57 340 19:52 26.02.2021
2104 Haze 6 1013 65 3600 2.06 360 19:25 26.02.2021
2105 Clouds 6 1014 64 10000 0.64 291 18:46 26.02.2021
2106 Haze 8 1013 57 4000 2.06 350 18:23 26.02.2021
2107 Haze 8 1013 57 4000 2.06 350 17:44 26.02.2021
2108 Haze 8 1013 57 4000 2.06 350 17:26 26.02.2021
2109 Haze 8 1013 57 4000 2.06 350 16:53 26.02.2021
2110 Haze 8 1012 57 6000 5.14 220 16:32 26.02.2021
2111 Clouds 9 1012 53 9000 3.6 230 15:58 26.02.2021
2112 Clouds 9 1012 53 9000 3.6 230 15:39 26.02.2021
2113 Clouds 9 1012 53 9000 3.6 230 15:20 26.02.2021
2114 Clouds 9 1012 57 10000 3.6 70 14:47 26.02.2021
2115 Clouds 9 1012 57 10000 3.6 70 14:26 26.02.2021
2116 Clouds 10 1012 57 10000 4.12 50 13:46 26.02.2021
2117 Clouds 10 1012 57 10000 4.12 50 13:28 26.02.2021
2118 Clouds 10 1012 66 10000 1.03 0 12:43 26.02.2021
2119 Clouds 10 1012 66 10000 1.03 0 12:25 26.02.2021
2120 Clouds 10 1012 62 10000 4.12 350 11:38 26.02.2021
2121 Clouds 10 1012 62 10000 4.12 350 10:54 26.02.2021
2122 Clouds 11 1012 58 10000 2.06 0 10:20 26.02.2021
2123 Clouds 11 1013 62 10000 2.57 0 09:46 26.02.2021
2124 Clouds 11 1013 62 10000 2.57 0 09:26 26.02.2021
2125 Clouds 8 1013 81 10000 6.69 80 08:29 26.02.2021
2126 Clouds 8 1013 81 10000 6.69 80 07:52 26.02.2021
2127 Mist 8 1014 76 6000 1.54 0 06:48 26.02.2021
2128 Rain 8 1014 81 8000 1.03 0 05:39 26.02.2021
2129 Clouds 5 1013 93 8000 1.03 0 03:51 26.02.2021
2130 Clouds 5 1013 93 10000 1.03 80 02:36 26.02.2021
2131 Clouds 5 1014 93 8000 0.94 279 00:24 26.02.2021
2132 Clouds 5 1014 93 8000 2.57 250 23:29 25.02.2021
2133 Clouds 5 1014 93 8000 2.57 250 22:50 25.02.2021
2134 Clouds 5 1015 87 10000 4.63 350 22:31 25.02.2021
2135 Drizzle 6 1016 87 10000 2.57 350 21:47 25.02.2021
2136 Drizzle 6 1016 87 10000 2.57 350 21:28 25.02.2021
2137 Clouds 6 1017 87 7000 2.57 300 20:42 25.02.2021
2138 Clouds 6 1017 87 7000 2.57 300 20:23 25.02.2021
2139 Clouds 6 1017 87 7000 2.57 300 19:53 25.02.2021
2140 Clouds 6 1017 87 7000 3.09 320 19:22 25.02.2021
2141 Clouds 8 1017 71 8000 3.09 360 18:58 25.02.2021
2142 Clouds 8 1017 71 8000 3.09 360 18:31 25.02.2021
2143 Clouds 8 1017 71 8000 3.09 360 17:51 25.02.2021
2144 Clouds 10 1017 50 10000 3.09 130 17:29 25.02.2021
2145 Clouds 10 1017 50 10000 3.09 130 16:52 25.02.2021
2146 Clouds 11 1017 46 10000 1.03 270 16:26 25.02.2021
2147 Clouds 11 1016 43 10000 3.09 70 15:36 25.02.2021
2148 Clouds 11 1016 43 10000 3.09 70 15:18 25.02.2021
2149 Clouds 12 1017 35 10000 1.03 0 14:28 25.02.2021
2150 Clouds 12 1017 35 10000 1.03 0 13:56 25.02.2021
2151 Clouds 12 1017 37 10000 3.09 0 13:36 25.02.2021
2152 Clouds 12 1017 37 10000 3.09 0 13:18 25.02.2021
2153 Clouds 13 1018 33 10000 8.23 290 12:22 25.02.2021
2154 Clouds 14 1018 28 10000 6.17 220 11:47 25.02.2021
2155 Clouds 14 1018 28 10000 6.17 220 11:21 25.02.2021
2156 Rain 13 1019 38 9000 5.14 300 10:46 25.02.2021
2157 Clouds 13 1019 38 9000 5.14 300 10:26 25.02.2021
2158 Clouds 13 1019 44 8000 5.14 360 09:43 25.02.2021
2159 Clouds 13 1019 44 8000 5.14 360 08:56 25.02.2021
2160 Haze 12 1020 50 9000 4.63 70 08:25 25.02.2021
2161 Haze 11 1020 50 8000 2.06 0 07:56 25.02.2021
2162 Haze 11 1020 50 8000 2.06 0 07:34 25.02.2021
2163 Clouds 11 1021 54 6000 2.57 0 06:55 25.02.2021
2164 Clear 4 1018 81 10000 4.12 320 02:39 25.02.2021
2165 Clouds 5 1018 70 10000 1.54 80 01:38 25.02.2021
2166 Clouds 6 1018 65 10000 1.54 150 00:42 25.02.2021
2167 Clouds 6 1018 65 10000 1.54 150 23:53 24.02.2021
2168 Clouds 5 1018 70 10000 1.54 100 23:28 24.02.2021
2169 Clouds 6 1018 70 10000 1.54 110 22:45 24.02.2021
2170 Clouds 6 1018 70 10000 1.54 110 22:25 24.02.2021
2171 Clouds 7 1018 61 10000 3.09 320 21:46 24.02.2021
2172 Clouds 7 1018 61 10000 3.09 320 20:59 24.02.2021
2173 Clouds 9 1018 53 10000 3.09 40 20:40 24.02.2021
2174 Clouds 9 1018 53 10000 3.09 40 20:20 24.02.2021
2175 Clouds 9 1018 49 10000 3.6 350 19:29 24.02.2021
2176 Clouds 10 1018 46 10000 3.6 30 18:59 24.02.2021
2177 Clouds 10 1018 46 10000 3.6 30 18:34 24.02.2021
2178 Clouds 10 1018 46 10000 3.6 30 17:56 24.02.2021
2179 Clouds 10 1018 46 10000 4.63 70 17:30 24.02.2021
2180 Clouds 10 1018 46 10000 4.63 70 17:30 24.02.2021
2181 Clouds 10 1018 46 10000 4.63 70 17:30 24.02.2021
2182 Clouds 10 1018 46 10000 4.63 70 16:57 24.02.2021
2183 Clouds 12 1017 37 10000 7.2 50 16:39 24.02.2021
2184 Clouds 12 1017 37 10000 7.2 50 16:19 24.02.2021
2185 Clouds 12 1017 40 9000 7.72 80 15:38 24.02.2021
2186 Clouds 13 1017 38 10000 2.57 260 14:53 24.02.2021
2187 Clouds 13 1016 30 10000 3.6 40 14:34 24.02.2021
2188 Clouds 13 1016 30 10000 3.6 40 13:58 24.02.2021
2189 Clouds 14 1016 24 10000 5.14 10 13:38 24.02.2021
2190 Clouds 14 1016 24 10000 5.14 10 13:19 24.02.2021
2191 Clouds 14 1016 24 10000 5.14 10 12:43 24.02.2021
2192 Clouds 15 1016 23 10000 5.66 360 12:23 24.02.2021
2193 Clouds 15 1014 29 10000 3.17 196 11:46 24.02.2021
2194 Clouds 14 1015 30 10000 4.19 201 10:51 24.02.2021
2195 Clouds 16 1019 20 10000 3.09 0 10:29 24.02.2021
2196 Clouds 16 1019 20 10000 3.09 0 09:41 24.02.2021
2197 Clouds 16 1019 20 10000 3.09 0 09:19 24.02.2021
2198 Clouds 14 1020 24 10000 1.54 0 08:34 24.02.2021
2199 Clouds 14 1020 24 10000 1.54 0 07:57 24.02.2021
2200 Clouds 14 1020 26 10000 1.54 0 07:20 24.02.2021
2201 Clouds 12 1020 30 8000 1.03 0 06:20 24.02.2021
2202 Clear 2 1018 69 7000 1.07 220 03:25 24.02.2021
2203 Clouds 3 1018 70 8000 1.54 330 00:20 24.02.2021
2204 Clouds 4 1018 60 8000 2.06 330 23:20 23.02.2021
2205 Clouds 6 1018 56 6000 1.03 220 22:37 23.02.2021
2206 Clouds 6 1018 56 6000 1.03 220 22:19 23.02.2021
2207 Clouds 7 1019 53 8000 1.03 120 21:42 23.02.2021
2208 Clouds 7 1019 53 8000 1.03 120 21:22 23.02.2021
2209 Clouds 6 1019 52 7000 1.54 330 20:48 23.02.2021
2210 Clouds 6 1019 52 7000 1.54 330 20:29 23.02.2021
2211 Clouds 8 1019 46 9000 1.54 250 19:47 23.02.2021
2212 Clouds 8 1019 46 9000 1.54 250 19:27 23.02.2021
2213 Clouds 10 1019 37 9000 1.03 160 18:53 23.02.2021
2214 Clouds 10 1019 37 9000 1.03 160 18:31 23.02.2021
2215 Clouds 11 1019 30 10000 1.54 360 17:54 23.02.2021
2216 Clouds 11 1019 30 10000 1.54 360 17:30 23.02.2021
2217 Clear 9 1019 27 10000 4.12 300 16:48 23.02.2021
2218 Clear 9 1019 27 10000 4.12 300 16:25 23.02.2021
2219 Clear 9 1019 27 10000 4.12 300 15:52 23.02.2021
2220 Clouds 13 1018 15 10000 9.26 270 15:34 23.02.2021
2221 Clouds 14 1018 24 10000 6.17 270 14:59 23.02.2021
2222 Clouds 14 1018 24 10000 6.17 270 14:40 23.02.2021
2223 Clouds 14 1018 24 10000 6.17 270 14:20 23.02.2021
2224 Clouds 14 1018 24 10000 5.14 30 13:43 23.02.2021
2225 Clouds 14 1018 24 10000 5.14 30 13:21 23.02.2021
2226 Clouds 15 1018 20 10000 4.63 70 12:49 23.02.2021
2227 Clouds 15 1018 20 10000 4.63 70 12:20 23.02.2021
2228 Clouds 15 1019 21 10000 5.66 50 11:46 23.02.2021
2229 Clouds 15 1019 21 10000 5.66 50 11:20 23.02.2021
2230 Clouds 15 1019 20 10000 2.57 210 10:40 23.02.2021
2231 Clouds 15 1019 20 10000 2.57 210 10:20 23.02.2021
2232 Clouds 15 1020 23 10000 3.09 0 09:42 23.02.2021
2233 Clouds 15 1020 23 10000 3.09 0 09:21 23.02.2021
2234 Clouds 13 1021 54 8000 4.63 90 08:48 23.02.2021
2235 Clouds 13 1021 54 8000 4.63 90 08:21 23.02.2021
2236 Haze 11 1021 66 6000 2.06 0 07:48 23.02.2021
2237 Fog 4 1021 100 50 1.54 0 05:29 23.02.2021
2238 Fog 4 1019 100 100 1.54 0 02:54 23.02.2021
2239 Fog 4 1019 100 50 1.54 0 02:33 23.02.2021
2240 Fog 5 1019 100 400 1.54 150 00:20 23.02.2021
2241 Mist 5 1019 100 1000 2.06 140 23:46 22.02.2021
2242 Mist 5 1019 100 4000 1.54 0 23:18 22.02.2021
2243 Fog 4 1019 100 1600 1.54 0 22:39 22.02.2021
2244 Fog 5 1019 100 300 1.54 140 22:20 22.02.2021
2245 Mist 6 1019 93 1600 3.09 130 21:38 22.02.2021
2246 Mist 6 1019 93 1600 3.09 130 21:20 22.02.2021
2247 Mist 6 1020 93 5000 1.54 300 20:49 22.02.2021
2248 Mist 6 1020 93 5000 1.54 300 20:27 22.02.2021
2249 Mist 6 1020 93 5000 1.54 300 19:50 22.02.2021
2250 Clouds 6 1020 93 6000 1.54 0 19:30 22.02.2021
2251 Clouds 6 1020 93 6000 1.54 0 19:30 22.02.2021
2252 Clouds 7 1021 93 6000 1.54 0 18:49 22.02.2021
2253 Clouds 7 1021 93 6000 1.54 0 18:30 22.02.2021
2254 Clouds 7 1021 93 6000 1.54 0 18:30 22.02.2021
2255 Clouds 8 1021 87 6000 2.06 220 17:54 22.02.2021
2256 Clouds 8 1021 87 6000 2.06 220 17:22 22.02.2021
2257 Clouds 8 1021 87 6000 2.06 220 16:53 22.02.2021
2258 Clouds 7 1020 87 9000 1.54 0 16:31 22.02.2021
2259 Clouds 8 1019 87 9000 3.09 350 15:39 22.02.2021
2260 Clouds 8 1019 87 9000 3.09 350 15:21 22.02.2021
2261 Clouds 9 1019 81 10000 3.6 340 14:42 22.02.2021
2262 Clouds 9 1019 81 10000 3.6 340 14:21 22.02.2021
2263 Clouds 9 1019 81 9000 3.6 330 13:41 22.02.2021
2264 Rain 9 1019 81 9000 3.6 330 12:55 22.02.2021
2265 Rain 10 1019 76 9000 2.57 330 12:23 22.02.2021
2266 Rain 10 1019 76 9000 3.09 340 11:56 22.02.2021
2267 Rain 10 1019 71 7000 3.09 330 11:32 22.02.2021
2268 Clouds 11 1019 62 8000 5.14 10 10:59 22.02.2021
2269 Clouds 12 1019 62 9000 5.66 360 10:40 22.02.2021
2270 Clouds 12 1019 62 9000 5.66 360 10:20 22.02.2021
2271 Rain 15 1021 41 9000 2.57 110 09:38 22.02.2021
2272 Clouds 15 1021 41 9000 2.57 110 09:19 22.02.2021
2273 Clouds 15 1021 41 9000 2.57 110 08:49 22.02.2021
2274 Clouds 15 1022 44 9000 3.6 120 08:21 22.02.2021
2275 Haze 12 1022 62 7000 2.57 80 07:46 22.02.2021
2276 Haze 12 1022 62 7000 2.57 80 07:22 22.02.2021
2277 Mist 10 1023 71 6000 2.06 80 06:26 22.02.2021
2278 Mist 7 1022 81 8000 1.03 290 04:25 22.02.2021
2279 Clouds 7 1022 81 8000 1.03 0 03:22 22.02.2021
2280 Rain 7 1022 81 10000 1.03 110 00:54 22.02.2021
2281 Clouds 8 1022 81 10000 1.03 200 00:29 22.02.2021
2282 Rain 8 1022 81 10000 1.03 200 23:55 21.02.2021
2283 Clouds 8 1023 76 10000 1.54 0 23:23 21.02.2021
2284 Clouds 9 1023 71 10000 1.54 0 22:28 21.02.2021
2285 Clouds 9 1023 71 10000 1.54 0 21:52 21.02.2021
2286 Clouds 9 1024 76 10000 4.63 10 21:33 21.02.2021
2287 Clouds 9 1024 76 10000 4.63 10 20:57 21.02.2021
2288 Clouds 9 1023 76 9000 6.17 330 20:23 21.02.2021
2289 Clouds 9 1023 76 9000 6.17 330 19:59 21.02.2021
2290 Rain 11 1024 62 9000 4.12 330 19:41 21.02.2021
2291 Rain 11 1024 62 9000 4.12 330 19:21 21.02.2021
2292 Clouds 11 1024 62 9000 5.14 50 18:29 21.02.2021
2293 Clouds 11 1024 62 9000 5.14 50 17:57 21.02.2021
2294 Clouds 12 1023 54 8000 5.14 320 17:25 21.02.2021
2295 Clouds 12 1023 54 8000 5.14 320 16:53 21.02.2021
2296 Rain 13 1023 44 9000 6.17 290 16:31 21.02.2021
2297 Haze 13 1022 44 8000 7.2 120 15:43 21.02.2021
2298 Haze 13 1022 44 8000 7.2 120 15:19 21.02.2021
2299 Clouds 14 1022 44 8000 1.03 0 14:40 21.02.2021
2300 Clouds 14 1022 44 8000 1.03 0 14:19 21.02.2021
2301 Clouds 14 1022 41 8000 3.6 280 13:30 21.02.2021
2302 Clouds 14 1022 41 8000 3.6 280 12:59 21.02.2021
2303 Clouds 16 1023 33 8000 8.23 210 12:28 21.02.2021
2304 Clouds 17 1022 29 8000 3.09 340 11:43 21.02.2021
2305 Clouds 17 1022 29 8000 3.09 340 10:58 21.02.2021
2306 Clouds 19 1024 27 8000 3.09 0 10:22 21.02.2021
2307 Clouds 19 1024 27 8000 3.09 0 09:52 21.02.2021
2308 Haze 18 1025 29 9000 3.09 0 09:27 21.02.2021
2309 Clouds 16 1026 33 7000 1.54 0 08:43 21.02.2021
2310 Clear 16 1026 33 7000 1.54 0 08:19 21.02.2021
2311 Haze 15 1026 38 7000 1.54 0 07:31 21.02.2021
2312 Haze 14 1027 41 4000 2.06 0 06:47 21.02.2021
2313 Clouds 7 1025 70 6000 0.56 310 02:48 21.02.2021
2314 Clouds 7 1025 70 6000 0.67 303 02:29 21.02.2021
2315 Clouds 7 1025 70 8000 2.57 140 00:37 21.02.2021
2316 Clouds 7 1025 70 8000 2.57 140 00:18 21.02.2021
2317 Clouds 9 1025 61 10000 1.03 310 22:59 20.02.2021
2318 Clouds 9 1025 61 10000 4.12 350 22:40 20.02.2021
2319 Clouds 9 1025 61 10000 4.12 350 22:19 20.02.2021
2320 Clouds 8 1025 61 7000 1.54 60 21:41 20.02.2021
2321 Clouds 8 1025 61 7000 1.54 60 21:19 20.02.2021
2322 Clouds 9 1026 57 9000 1.54 0 20:42 20.02.2021
2323 Clouds 9 1026 57 9000 1.54 0 20:21 20.02.2021
2324 Clouds 9 1026 57 9000 1.54 0 19:49 20.02.2021
2325 Clouds 9 1026 61 10000 1.54 0 19:19 20.02.2021
2326 Clouds 10 1025 57 7000 1.54 200 18:37 20.02.2021
2327 Clouds 10 1025 57 7000 1.54 200 18:19 20.02.2021
2328 Clouds 12 1025 43 8000 1.54 360 17:36 20.02.2021
2329 Clouds 12 1025 43 8000 1.54 360 16:54 20.02.2021
2330 Clouds 12 1025 37 7000 1.54 0 16:27 20.02.2021
2331 Clouds 13 1024 33 10000 3.09 350 15:46 20.02.2021
2332 Clouds 13 1024 33 10000 3.09 350 15:21 20.02.2021
2333 Haze 14 1024 30 9000 3.6 350 14:44 20.02.2021
2334 Haze 14 1024 30 9000 3.6 350 14:23 20.02.2021
2335 Clouds 14 1024 33 9000 2.57 0 13:41 20.02.2021
2336 Clouds 14 1024 33 9000 2.57 0 13:22 20.02.2021
2337 Clouds 14 1024 30 9000 3.09 10 12:49 20.02.2021
2338 Clouds 14 1024 30 9000 3.09 10 12:22 20.02.2021
2339 Clouds 15 1024 31 8000 4.63 330 11:42 20.02.2021
2340 Clouds 15 1024 31 8000 4.63 330 11:23 20.02.2021
2341 Clouds 15 1025 31 8000 1.54 0 10:43 20.02.2021
2342 Clouds 15 1021 33 10000 0.48 284 09:50 20.02.2021
2343 Haze 15 1026 31 3200 3.09 0 09:20 20.02.2021
2344 Haze 15 1026 31 3200 3.09 0 08:34 20.02.2021
2345 Haze 15 1026 31 3200 3.09 0 07:54 20.02.2021
2346 Clouds 5 1025 48 6000 2.06 300 02:45 20.02.2021
2347 Clouds 5 1025 48 6000 2.06 300 02:21 20.02.2021
2348 Rain 5 1025 52 6000 1.54 340 01:22 20.02.2021
2349 Smoke 6 1025 49 5000 1.54 0 00:45 20.02.2021
2350 Smoke 7 1026 45 5000 1.54 0 23:43 19.02.2021
2351 Smoke 7 1026 45 5000 1.54 0 22:51 19.02.2021
2352 Smoke 7 1026 42 5000 1.54 0 22:26 19.02.2021
2353 Rain 8 1026 39 4000 1.54 30 21:48 19.02.2021
2354 Rain 8 1026 39 4000 1.54 30 21:28 19.02.2021
2355 Smoke 7 1026 42 5000 1.54 120 20:47 19.02.2021
2356 Smoke 7 1026 42 5000 1.54 120 20:27 19.02.2021
2357 Smoke 7 1026 42 5000 1.54 120 19:50 19.02.2021
2358 Smoke 9 1027 34 5000 1.03 0 19:20 19.02.2021
2359 Smoke 9 1027 34 5000 1.03 0 18:54 19.02.2021
2360 Smoke 9 1027 31 5000 1.03 330 18:31 19.02.2021
2361 Clouds 9 1026 31 7000 1.03 0 17:45 19.02.2021
2362 Clouds 9 1026 31 7000 1.03 0 16:50 19.02.2021
2363 Clouds 10 1026 29 9000 1.54 150 16:23 19.02.2021
2364 Clouds 10 1026 29 9000 1.54 150 15:57 19.02.2021
2365 Clouds 12 1025 20 10000 3.6 350 15:30 19.02.2021
2366 Clouds 12 1025 20 10000 3.6 350 14:55 19.02.2021
2367 Clouds 13 1024 21 8000 0.51 0 14:35 19.02.2021
2368 Clouds 14 1024 18 8000 2.57 350 13:57 19.02.2021
2369 Clouds 14 1024 18 8000 2.57 350 13:36 19.02.2021
2370 Clouds 14 1024 18 8000 2.57 350 12:58 19.02.2021
2371 Clouds 14 1024 18 8000 3.09 350 12:38 19.02.2021
2372 Clouds 14 1024 18 8000 3.09 350 12:20 19.02.2021
2373 Clouds 14 1024 18 8000 3.09 350 12:20 19.02.2021
2374 Clouds 14 1024 19 8000 3.6 10 11:41 19.02.2021
2375 Clouds 14 1024 19 8000 3.6 10 11:18 19.02.2021
2376 Haze 15 1025 15 7000 1.03 0 10:38 19.02.2021
2377 Haze 15 1025 15 7000 1.03 0 10:19 19.02.2021
2378 Haze 15 1026 15 6000 2.06 0 09:29 19.02.2021
2379 Haze 15 1026 15 6000 2.06 0 08:58 19.02.2021
2380 Haze 14 1026 17 6000 0.51 0 08:40 19.02.2021
2381 Haze 14 1026 17 6000 0.51 0 08:21 19.02.2021
2382 Haze 12 1026 19 6000 1.03 0 07:43 19.02.2021
2383 Haze 12 1026 19 6000 1.03 0 07:25 19.02.2021
2384 Haze 12 1026 19 6000 1.54 310 06:41 19.02.2021
2385 Clouds 6 1025 33 6000 2.06 320 04:42 19.02.2021
2386 Clouds 5 1025 42 6000 2.06 330 02:50 19.02.2021
2387 Smoke 4 1025 45 3000 1.03 0 01:33 19.02.2021
2388 Smoke 3 1025 52 2000 1.54 120 00:35 19.02.2021
2389 Smoke 3 1025 52 2000 1.54 120 23:47 18.02.2021
2390 Smoke 4 1025 48 2500 1.54 280 23:29 18.02.2021
2391 Smoke 4 1025 41 2500 1.54 310 22:37 18.02.2021
2392 Smoke 4 1025 41 2500 1.54 310 22:18 18.02.2021
2393 Smoke 6 1025 42 2000 1.54 220 21:40 18.02.2021
2394 Smoke 6 1025 42 2000 1.54 220 21:21 18.02.2021
2395 Smoke 6 1025 33 3500 0.79 330 20:39 18.02.2021
2396 Smoke 6 1025 33 3500 0.56 334 20:21 18.02.2021
2397 Smoke 7 1025 33 3000 1.03 0 19:44 18.02.2021
2398 Smoke 7 1025 33 3000 1.03 0 19:20 18.02.2021
2399 Smoke 7 1025 33 3000 1.03 0 18:50 18.02.2021
2400 Smoke 9 1025 25 4000 0.7 330 18:26 18.02.2021
2401 Smoke 9 1025 25 4000 0.7 330 17:52 18.02.2021
2402 Smoke 8 1025 31 4000 1.03 200 17:25 18.02.2021
2403 Clear 11 1024 19 7000 1.03 0 16:47 18.02.2021
2404 Clear 11 1024 19 7000 1.03 0 16:29 18.02.2021
2405 Clear 12 1023 16 7000 2.06 110 15:43 18.02.2021
2406 Clear 12 1023 16 7000 2.06 110 15:24 18.02.2021
2407 Clear 15 1022 13 9000 1.54 0 14:55 18.02.2021
2408 Clear 15 1022 13 9000 1.54 0 14:34 18.02.2021
2409 Clear 17 1022 10 9000 1.03 0 13:50 18.02.2021
2410 Clear 17 1022 10 9000 1.03 0 13:22 18.02.2021
2411 Clear 18 1023 11 8000 1.03 0 12:56 18.02.2021
2412 Clear 18 1023 11 8000 1.03 0 12:33 18.02.2021
2413 Clear 18 1023 12 8000 1.54 0 11:48 18.02.2021
2414 Clear 18 1023 12 8000 1.54 0 11:48 18.02.2021
2415 Clear 18 1023 12 8000 1.54 0 11:28 18.02.2021
2416 Clear 18 1023 12 8000 1.54 0 10:58 18.02.2021
2417 Clear 18 1024 12 8000 1.54 0 10:37 18.02.2021
2418 Clear 18 1024 12 8000 1.54 0 10:19 18.02.2021
2419 Haze 17 1025 14 8000 1.54 0 09:32 18.02.2021
2420 Haze 17 1025 14 8000 1.54 0 08:59 18.02.2021
2421 Haze 15 1026 15 7000 1.54 0 08:31 18.02.2021
2422 Haze 14 1026 15 7000 1.03 0 07:58 18.02.2021
2423 Haze 14 1026 15 7000 1.03 0 07:30 18.02.2021
2424 Haze 10 1025 22 6000 2.06 340 06:20 18.02.2021
2425 Smoke 2 1022 51 5000 1.54 140 00:53 18.02.2021
2426 Clear 3 1022 41 7000 1.03 0 23:47 17.02.2021
2427 Clear 3 1022 41 7000 1.03 0 23:19 17.02.2021
2428 Smoke 4 1022 38 5000 1.03 0 22:40 17.02.2021
2429 Smoke 4 1022 38 5000 1.03 0 22:22 17.02.2021
2430 Clear 6 1022 33 7000 1.54 280 21:46 17.02.2021
2431 Clear 6 1022 33 7000 1.54 280 21:21 17.02.2021
2432 Smoke 5 1021 33 5000 2.06 330 20:43 17.02.2021
2433 Smoke 5 1021 33 5000 2.06 330 20:24 17.02.2021
2434 Smoke 5 1021 30 4000 1.54 290 19:38 17.02.2021
2435 Smoke 5 1021 30 4000 1.54 290 19:19 17.02.2021
2436 Clear 7 1021 26 6000 1.03 0 18:41 17.02.2021
2437 Clear 7 1021 26 6000 1.03 0 18:18 17.02.2021
2438 Smoke 8 1020 23 5000 0.54 303 17:37 17.02.2021
2439 Smoke 8 1020 23 5000 0.51 301 17:18 17.02.2021
2440 Smoke 11 1019 17 5000 1.03 0 16:43 17.02.2021
2441 Smoke 11 1019 17 5000 1.03 0 16:22 17.02.2021
2442 Clear 14 1018 9 10000 2.06 70 15:44 17.02.2021
2443 Clear 14 1018 9 10000 2.06 70 15:23 17.02.2021
2444 Clear 17 1018 6 10000 2.06 0 14:45 17.02.2021
2445 Clear 17 1018 6 10000 2.06 0 14:26 17.02.2021
2446 Clear 19 1018 6 10000 1.54 0 13:45 17.02.2021
2447 Clear 19 1018 6 10000 1.54 0 13:27 17.02.2021
2448 Clear 19 1018 6 10000 3.09 0 12:44 17.02.2021
2449 Clear 19 1018 6 10000 3.09 0 12:22 17.02.2021
2450 Clear 20 1018 8 10000 2.57 0 11:38 17.02.2021
2451 Clear 20 1018 8 10000 2.57 0 11:18 17.02.2021
2452 Clear 18 1019 9 10000 3.09 0 10:44 17.02.2021
2453 Clear 18 1019 9 10000 3.09 0 10:24 17.02.2021
2454 Clear 16 1020 11 10000 5.66 190 09:44 17.02.2021
2455 Clear 16 1020 11 10000 5.66 190 09:25 17.02.2021
2456 Clear 15 1021 14 10000 2.57 0 08:43 17.02.2021
2457 Clear 15 1021 14 10000 2.57 0 08:22 17.02.2021
2458 Haze 13 1023 14 9000 1.54 300 07:33 17.02.2021
2459 Haze 11 1023 15 7000 3.09 0 06:19 17.02.2021
2460 Clear 2 1021 44 8000 1.03 260 02:34 17.02.2021
2461 Clear 2 1021 44 8000 1.03 260 01:55 17.02.2021
2462 Clear 2 1021 44 6000 1.03 230 00:33 17.02.2021
2463 Clear 2 1021 44 6000 1.03 230 23:55 16.02.2021
2464 Smoke 3 1021 41 5000 1.03 0 23:36 16.02.2021
2465 Smoke 3 1021 35 5000 1.54 350 22:43 16.02.2021
2466 Smoke 3 1021 35 5000 1.54 350 22:25 16.02.2021
2467 Smoke 4 1021 35 3500 1.03 0 21:54 16.02.2021
2468 Smoke 4 1021 35 3500 1.03 0 21:36 16.02.2021
2469 Smoke 4 1021 35 3500 1.03 0 21:18 16.02.2021
2470 Smoke 4 1021 33 3000 1.03 0 20:41 16.02.2021
2471 Smoke 4 1021 33 3000 1.03 0 20:20 16.02.2021
2472 Smoke 5 1021 33 2500 1.03 0 19:42 16.02.2021
2473 Smoke 5 1021 33 2500 1.03 0 19:23 16.02.2021
2474 Smoke 8 1021 21 4500 1.54 270 18:41 16.02.2021
2475 Smoke 8 1021 21 4500 1.54 270 18:22 16.02.2021
2476 Smoke 8 1021 21 4500 1.54 270 17:52 16.02.2021
2477 Smoke 7 1020 19 7000 1.03 190 17:27 16.02.2021
2478 Smoke 7 1020 19 7000 1.03 190 16:51 16.02.2021
2479 Clear 10 1020 13 8000 1.03 0 16:29 16.02.2021
2480 Clear 12 1019 11 10000 1.03 110 15:47 16.02.2021
2481 Clear 12 1019 11 10000 1.03 110 15:29 16.02.2021
2482 Clear 12 1019 11 10000 1.03 110 14:55 16.02.2021
2483 Clear 15 1019 9 10000 1.54 160 14:36 16.02.2021
2484 Clear 15 1019 9 10000 1.54 160 14:18 16.02.2021
2485 Clear 17 1018 8 10000 1.54 150 13:37 16.02.2021
2486 Clear 17 1019 7 10000 1.54 0 12:47 16.02.2021
2487 Clear 17 1019 7 10000 1.54 0 12:26 16.02.2021
2488 Clear 16 1019 8 10000 2.57 180 11:55 16.02.2021
2489 Clear 16 1019 8 10000 2.57 180 11:55 16.02.2021
2490 Clear 16 1019 8 10000 2.57 180 11:37 16.02.2021
2491 Clear 16 1019 8 10000 2.57 180 11:18 16.02.2021
2492 Clear 17 1020 11 10000 2.06 0 10:45 16.02.2021
2493 Clear 17 1020 11 10000 2.06 0 10:25 16.02.2021
2494 Clear 15 1021 11 10000 2.57 160 09:48 16.02.2021
2495 Clear 15 1021 11 10000 2.57 160 09:26 16.02.2021
2496 Clear 14 1022 11 10000 4.12 200 08:48 16.02.2021
2497 Clear 14 1022 11 10000 4.12 200 08:26 16.02.2021
2498 Clear 14 1022 14 9000 1.54 0 07:42 16.02.2021
2499 Haze 11 1022 16 9000 1.03 0 06:25 16.02.2021
2500 Clear 2 1020 35 10000 3.09 330 02:19 16.02.2021
2501 Smoke 2 1019 51 4000 1.54 170 23:47 15.02.2021
2502 Smoke 2 1019 51 4000 1.54 170 23:26 15.02.2021
2503 Smoke 3 1019 44 3200 1.54 300 22:47 15.02.2021
2504 Smoke 3 1019 44 3200 1.54 300 22:25 15.02.2021
2505 Smoke 5 1020 36 3200 1.03 0 21:42 15.02.2021
2506 Smoke 5 1020 36 3200 1.03 0 21:24 15.02.2021
2507 Smoke 5 1020 36 3200 1.03 0 20:53 15.02.2021
2508 Smoke 4 1019 41 2000 1.03 0 20:34 15.02.2021
2509 Smoke 5 1019 36 3200 1.03 0 19:50 15.02.2021
2510 Smoke 5 1019 36 3200 1.03 0 19:25 15.02.2021
2511 Smoke 5 1019 36 3200 1.03 0 18:51 15.02.2021
2512 Smoke 6 1019 28 4000 1.54 350 18:27 15.02.2021
2513 Smoke 8 1019 25 4000 1.54 190 17:51 15.02.2021
2514 Smoke 8 1019 25 4000 1.54 190 17:28 15.02.2021
2515 Smoke 8 1019 25 4000 1.54 190 16:59 15.02.2021
2516 Clear 10 1019 20 6000 2.06 140 16:37 15.02.2021
2517 Clear 12 1018 15 10000 1.54 0 16:18 15.02.2021
2518 Clear 12 1018 15 10000 1.54 0 15:41 15.02.2021
2519 Clear 12 1018 15 10000 1.54 0 15:18 15.02.2021
2520 Clear 15 1018 11 9000 1.54 150 14:43 15.02.2021
2521 Clear 15 1018 11 9000 1.54 150 14:20 15.02.2021
2522 Clear 16 1018 11 9000 2.57 0 13:48 15.02.2021
2523 Clear 16 1018 11 9000 2.57 0 13:20 15.02.2021
2524 Clear 17 1018 10 9000 2.57 0 12:45 15.02.2021
2525 Clear 17 1018 10 9000 2.57 0 12:22 15.02.2021
2526 Clear 17 1018 10 9000 2.06 0 11:49 15.02.2021
2527 Clear 17 1018 10 9000 2.06 0 11:23 15.02.2021
2528 Clear 16 1019 13 8000 1.54 0 10:50 15.02.2021
2529 Clear 16 1019 13 8000 1.54 0 10:25 15.02.2021
2530 Clear 16 1020 16 7000 1.03 0 09:56 15.02.2021
2531 Clear 16 1020 16 7000 1.03 0 09:33 15.02.2021
2532 Clear 16 1021 14 7000 1.54 0 08:55 15.02.2021
2533 Clear 13 1021 19 7000 1.54 320 07:49 15.02.2021
2534 Clear 10 1022 23 6000 2.06 320 06:59 15.02.2021
2535 Clear 10 1022 23 6000 2.06 320 06:40 15.02.2021
2536 Clear 1 1020 55 8000 1.54 340 02:32 15.02.2021
2537 Clear 2 1020 51 8000 1.54 0 00:55 15.02.2021
2538 Smoke 2 1021 51 7000 1.03 0 23:42 14.02.2021
2539 Smoke 2 1021 51 7000 1.03 0 23:22 14.02.2021
2540 Smoke 3 1021 48 5000 1.03 0 22:39 14.02.2021
2541 Smoke 3 1021 48 5000 1.03 0 22:19 14.02.2021
2542 Smoke 4 1021 41 5000 1.03 0 21:48 14.02.2021
2543 Smoke 4 1021 41 5000 1.03 0 21:29 14.02.2021
2544 Smoke 5 1021 42 5000 1.54 0 20:46 14.02.2021
2545 Smoke 5 1021 42 5000 1.54 0 20:26 14.02.2021
2546 Smoke 7 1021 42 1400 2.06 240 19:47 14.02.2021
2547 Smoke 7 1021 42 1400 2.06 240 18:52 14.02.2021
2548 Smoke 7 1021 33 2400 1.03 0 18:34 14.02.2021
2549 Smoke 7 1021 33 2400 1.03 0 17:56 14.02.2021
2550 Smoke 7 1021 33 2000 1.54 0 17:35 14.02.2021
2551 Clear 10 1020 20 10000 1.54 20 16:52 14.02.2021
2552 Clear 10 1020 20 10000 1.54 20 16:27 14.02.2021
2553 Clear 11 1019 17 10000 1.54 330 15:49 14.02.2021
2554 Clear 11 1019 17 10000 1.54 330 15:30 14.02.2021
2555 Clear 15 1019 12 10000 1.03 0 14:48 14.02.2021
2556 Clear 15 1019 12 10000 1.03 0 14:26 14.02.2021
2557 Clouds 17 1019 12 10000 3.09 0 13:48 14.02.2021
2558 Clouds 17 1019 12 10000 3.09 0 13:27 14.02.2021
2559 Clouds 18 1019 14 10000 3.09 0 12:38 14.02.2021
2560 Clouds 18 1019 14 10000 3.09 0 12:18 14.02.2021
2561 Clouds 16 1020 14 10000 1.54 0 11:47 14.02.2021
2562 Clouds 16 1020 14 10000 1.54 0 11:20 14.02.2021
2563 Clouds 18 1021 15 10000 3.09 0 10:34 14.02.2021
2564 Clouds 18 1021 15 10000 3.09 0 09:54 14.02.2021
2565 Clear 16 1022 18 10000 1.54 0 09:36 14.02.2021
2566 Clear 16 1022 18 10000 1.54 0 09:18 14.02.2021
2567 Haze 15 1023 20 7000 2.57 0 08:21 14.02.2021
2568 Haze 15 1023 20 6000 1.54 0 07:47 14.02.2021
2569 Smoke 11 1023 28 3200 3.09 0 06:26 14.02.2021
2570 Clear 1 1022 64 7000 1.03 0 04:34 14.02.2021
2571 Clear 1 1022 60 8000 1.03 0 02:50 14.02.2021
2572 Clear 2 1021 55 7000 0.73 289 01:29 14.02.2021
2573 Clear 2 1021 55 7000 1.54 0 00:42 14.02.2021
2574 Clear 5 1021 45 7000 1.54 290 23:57 13.02.2021
2575 Clear 5 1021 45 7000 1.54 290 23:25 13.02.2021
2576 Smoke 3 1021 48 2000 1.54 280 22:57 13.02.2021
2577 Smoke 3 1021 48 2000 1.54 280 22:22 13.02.2021
2578 Smoke 3 1021 48 3200 1.54 310 21:49 13.02.2021
2579 Smoke 3 1021 48 3200 1.54 310 21:27 13.02.2021
2580 Clear 4 1021 41 7000 2.06 310 20:45 13.02.2021
2581 Clear 4 1021 41 7000 2.06 310 20:26 13.02.2021
2582 Clear 6 1020 36 7000 1.54 340 19:48 13.02.2021
2583 Clear 6 1020 36 7000 1.54 340 19:24 13.02.2021
2584 Clear 6 1020 36 7000 1.54 340 18:50 13.02.2021
2585 Clear 8 1020 31 7000 2.06 40 18:27 13.02.2021
2586 Smoke 9 1020 27 5000 2.06 40 17:44 13.02.2021
2587 Smoke 9 1020 27 5000 2.06 40 17:25 13.02.2021
2588 Smoke 11 1019 24 5000 1.54 0 16:53 13.02.2021
2589 Smoke 11 1019 24 5000 1.54 0 16:35 13.02.2021
2590 Clear 12 1019 19 10000 2.57 340 15:43 13.02.2021
2591 Clear 12 1019 19 10000 2.57 340 15:25 13.02.2021
2592 Clouds 15 1018 15 10000 3.09 360 14:40 13.02.2021
2593 Clouds 15 1018 15 10000 3.09 360 13:49 13.02.2021
2594 Clouds 17 1018 14 10000 1.54 0 13:27 13.02.2021
2595 Clouds 17 1018 14 10000 3.09 0 12:52 13.02.2021
2596 Clouds 17 1018 14 10000 3.09 0 12:21 13.02.2021
2597 Clouds 17 1018 14 10000 3.09 0 12:21 13.02.2021
2598 Clouds 17 1018 14 10000 3.09 0 11:55 13.02.2021
2599 Clouds 19 1019 12 10000 2.06 0 11:22 13.02.2021
2600 Clouds 19 1019 12 10000 2.06 0 10:59 13.02.2021
2601 Clouds 16 1020 14 10000 3.09 0 10:41 13.02.2021
2602 Clouds 16 1020 14 10000 3.09 0 10:21 13.02.2021
2603 Clouds 15 1021 15 9000 3.09 0 09:45 13.02.2021
2604 Clouds 15 1021 15 9000 3.09 0 09:23 13.02.2021
2605 Haze 14 1022 18 7000 2.57 0 08:46 13.02.2021
2606 Haze 14 1022 18 7000 2.57 0 08:18 13.02.2021
2607 Haze 15 1022 18 5000 1.03 0 06:50 13.02.2021
2608 Smoke 11 1022 22 5000 3.09 0 06:22 13.02.2021
2609 Smoke 2 1021 51 6000 1.54 0 04:31 13.02.2021
2610 Clear 2 1021 51 6000 1.03 0 02:36 13.02.2021
2611 Smoke 1 1021 51 5000 2.06 340 00:54 13.02.2021
2612 Smoke 1 1021 51 5000 1.03 320 23:57 12.02.2021
2613 Smoke 3 1021 44 5000 0.6 278 23:39 12.02.2021
2614 Smoke 3 1021 44 5000 0.82 309 23:18 12.02.2021
2615 Smoke 3 1022 48 3600 1.03 160 22:31 12.02.2021
2616 Smoke 3 1022 48 3600 1.03 160 21:56 12.02.2021
2617 Smoke 4 1022 41 4000 1.03 0 21:37 12.02.2021
2618 Smoke 4 1022 41 4000 1.03 0 21:18 12.02.2021
2619 Smoke 4 1022 38 3600 1.03 300 20:39 12.02.2021
2620 Smoke 4 1022 38 3600 1.03 300 20:20 12.02.2021
2621 Smoke 6 1022 33 3600 1.54 110 19:49 12.02.2021
2622 Smoke 6 1022 33 3600 1.54 110 19:26 12.02.2021
2623 Smoke 7 1022 29 4000 1.54 130 18:31 12.02.2021
2624 Smoke 7 1022 29 4000 1.54 130 17:53 12.02.2021
2625 Smoke 8 1022 27 3600 1.03 150 17:35 12.02.2021
2626 Smoke 8 1022 27 3600 1.03 150 16:43 12.02.2021
2627 Clouds 8 1019 43 10000 1.02 337 15:48 12.02.2021
2628 Clouds 12 1021 14 10000 4.12 340 15:22 12.02.2021
2629 Clouds 12 1021 14 10000 4.12 340 14:59 12.02.2021
2630 Clouds 12 1021 14 10000 4.12 340 14:32 12.02.2021
2631 Clouds 14 1021 14 10000 4.12 360 13:43 12.02.2021
2632 Clouds 14 1021 14 10000 4.12 360 13:24 12.02.2021
2633 Clouds 14 1021 14 10000 4.12 360 12:51 12.02.2021
2634 Clear 15 1021 12 10000 4.63 340 12:33 12.02.2021
2635 Clear 16 1021 12 10000 3.09 0 11:46 12.02.2021
2636 Clear 16 1021 12 10000 3.09 0 11:20 12.02.2021
2637 Clear 16 1022 13 10000 2.57 0 10:47 12.02.2021
2638 Clear 16 1022 13 10000 2.57 0 09:56 12.02.2021
2639 Clear 16 1023 12 10000 1.03 0 09:38 12.02.2021
2640 Clear 16 1023 12 10000 1.03 0 09:19 12.02.2021
2641 Clear 15 1023 14 10000 1.54 0 08:40 12.02.2021
2642 Clear 15 1023 14 10000 1.54 0 08:18 12.02.2021
2643 Clear 15 1023 14 10000 1.54 0 07:51 12.02.2021
2644 Haze 11 1024 22 8000 2.06 0 06:57 12.02.2021
2645 Haze 6 1023 31 6000 1.03 0 05:49 12.02.2021
2646 Haze 6 1023 31 6000 1.03 0 05:26 12.02.2021
2647 Clouds 2 1022 51 8000 1.03 0 01:56 12.02.2021
2648 Smoke 4 1022 45 4000 1.03 190 23:46 11.02.2021
2649 Smoke 4 1022 45 4000 1.03 190 23:22 11.02.2021
2650 Smoke 4 1022 45 4000 1.03 190 22:58 11.02.2021
2651 Smoke 4 1022 45 3000 1.54 250 22:39 11.02.2021
2652 Smoke 4 1022 45 3000 1.54 250 22:21 11.02.2021
2653 Smoke 3 1022 48 2500 1.03 0 21:39 11.02.2021
2654 Smoke 3 1022 48 2500 1.03 0 21:20 11.02.2021
2655 Smoke 4 1022 41 2400 0.77 233 20:46 11.02.2021
2656 Smoke 4 1022 41 2400 0.85 257 20:22 11.02.2021
2657 Smoke 6 1021 33 2800 1.03 330 19:50 11.02.2021
2658 Smoke 6 1021 33 2800 1.03 330 19:32 11.02.2021
2659 Smoke 6 1021 36 2400 1.54 150 18:59 11.02.2021
2660 Smoke 6 1021 36 2400 1.54 150 18:30 11.02.2021
2661 Smoke 6 1021 36 2400 1.54 150 17:58 11.02.2021
2662 Smoke 8 1021 29 2400 1.03 300 17:36 11.02.2021
2663 Smoke 8 1021 29 2400 1.03 300 17:18 11.02.2021
2664 Smoke 10 1021 22 2000 1.54 230 16:41 11.02.2021
2665 Smoke 10 1021 22 2000 1.54 230 16:22 11.02.2021
2666 Clear 12 1020 16 10000 1.54 0 15:44 11.02.2021
2667 Clear 12 1020 16 10000 1.54 0 15:25 11.02.2021
2668 Clear 14 1020 14 10000 3.09 0 14:47 11.02.2021
2669 Clear 14 1020 14 10000 3.09 0 14:29 11.02.2021
2670 Clear 16 1020 11 10000 2.06 0 13:41 11.02.2021
2671 Clear 16 1020 11 10000 2.06 0 13:19 11.02.2021
2672 Clear 16 1020 11 10000 2.06 0 12:51 11.02.2021
2673 Clear 17 1020 11 10000 2.57 0 12:28 11.02.2021
2674 Clear 17 1021 11 10000 3.09 0 11:46 11.02.2021
2675 Clear 17 1021 11 10000 3.09 0 11:22 11.02.2021
2676 Clear 17 1022 13 10000 3.09 0 10:45 11.02.2021
2677 Clear 17 1022 13 10000 3.09 0 10:45 11.02.2021
2678 Clear 17 1022 13 10000 3.09 0 10:26 11.02.2021
2679 Clear 17 1022 13 10000 3.09 0 09:53 11.02.2021
2680 Clear 16 1022 14 10000 3.09 0 09:22 11.02.2021
2681 Clear 16 1022 14 10000 3.09 0 08:51 11.02.2021
2682 Clear 14 1023 17 10000 3.09 0 08:24 11.02.2021
2683 Clear 12 1024 20 8000 2.06 350 07:30 11.02.2021
2684 Clear 10 1024 23 8000 3.6 320 06:40 11.02.2021
2685 Clear 8 1024 27 8000 3.6 310 04:58 11.02.2021
2686 Clear 1 1022 44 10000 2.57 320 02:29 11.02.2021
2687 Clouds 3 1022 38 7000 2.06 330 00:50 11.02.2021
2688 Clouds 3 1022 38 7000 2.06 330 00:20 11.02.2021
2689 Smoke 3 1022 41 4000 2.06 340 23:40 10.02.2021
2690 Smoke 4 1022 38 4000 1.54 0 22:52 10.02.2021
2691 Smoke 4 1022 38 4000 1.54 0 22:29 10.02.2021
2692 Smoke 4 1022 38 4000 1.54 0 22:29 10.02.2021
2693 Smoke 4 1022 38 4000 1.54 0 22:29 10.02.2021
2694 Smoke 3 1022 44 4500 1.03 0 21:59 10.02.2021
2695 Smoke 3 1022 44 4500 1.03 0 21:38 10.02.2021
2696 Smoke 3 1022 44 4500 1.03 0 21:19 10.02.2021
2697 Clouds 8 1022 23 8000 2.57 0 20:40 10.02.2021
2698 Clouds 8 1022 23 8000 2.57 0 20:22 10.02.2021
2699 Clear 10 1021 17 10000 5.14 340 19:45 10.02.2021
2700 Clear 10 1021 17 10000 5.14 340 19:24 10.02.2021
2701 Clear 9 1021 21 10000 2.57 0 18:42 10.02.2021
2702 Clear 9 1021 21 10000 2.57 0 18:22 10.02.2021
2703 Clear 9 1021 21 10000 2.57 0 17:55 10.02.2021
2704 Smoke 9 1021 20 3200 1.54 340 17:24 10.02.2021
2705 Smoke 9 1021 20 3200 1.54 340 16:53 10.02.2021
2706 Smoke 11 1021 19 3200 1.03 200 16:30 10.02.2021
2707 Smoke 12 1021 14 5000 1.54 260 15:54 10.02.2021
2708 Clear 13 1020 12 10000 4.12 360 15:23 10.02.2021
2709 Clear 15 1019 12 10000 2.06 30 14:47 10.02.2021
2710 Clear 15 1019 12 10000 2.06 30 14:29 10.02.2021
2711 Clear 17 1019 12 10000 2.06 0 13:52 10.02.2021
2712 Clear 17 1019 12 10000 2.06 0 13:28 10.02.2021
2713 Clear 17 1019 11 10000 3.09 10 12:50 10.02.2021
2714 Clear 17 1019 11 10000 3.09 10 12:30 10.02.2021
2715 Clear 17 1019 11 10000 3.09 10 11:54 10.02.2021
2716 Clear 17 1019 11 10000 1.54 0 11:36 10.02.2021
2717 Clear 17 1020 12 10000 2.57 260 11:18 10.02.2021
2718 Clear 17 1020 12 10000 2.57 260 10:21 10.02.2021
2719 Clear 16 1022 12 10000 2.06 240 09:44 10.02.2021
2720 Clear 16 1022 12 10000 2.06 240 09:22 10.02.2021
2721 Clear 14 1022 13 10000 3.6 260 08:50 10.02.2021
2722 Clear 14 1022 13 10000 3.6 260 08:30 10.02.2021
2723 Clear 13 1023 15 10000 4.12 190 07:25 10.02.2021
2724 Haze 7 1023 31 9000 2.06 350 05:40 10.02.2021
2725 Clear 2 1022 44 10000 2.57 340 01:21 10.02.2021
2726 Clear 2 1022 60 6000 1.54 350 23:42 09.02.2021
2727 Clear 2 1022 60 6000 1.54 350 23:23 09.02.2021
2728 Smoke 4 1022 45 5000 1.54 310 22:41 09.02.2021
2729 Smoke 4 1022 45 5000 1.54 310 22:23 09.02.2021
2730 Smoke 3 1022 52 3200 1.54 300 21:42 09.02.2021
2731 Smoke 3 1022 52 3200 1.54 300 21:19 09.02.2021
2732 Smoke 4 1022 48 2400 1.54 0 20:42 09.02.2021
2733 Smoke 4 1022 48 2400 1.54 0 20:24 09.02.2021
2734 Smoke 4 1022 48 2400 1.54 0 19:42 09.02.2021
2735 Smoke 5 1022 45 2400 1.54 0 19:22 09.02.2021
2736 Smoke 7 1022 42 2000 1.54 0 18:43 09.02.2021
2737 Smoke 7 1022 42 2000 1.54 0 18:25 09.02.2021
2738 Smoke 8 1021 34 5000 1.54 320 17:47 09.02.2021
2739 Smoke 8 1021 34 5000 1.54 320 17:26 09.02.2021
2740 Smoke 8 1021 34 5000 1.54 320 16:52 09.02.2021
2741 Clear 10 1020 29 9000 2.06 250 16:19 09.02.2021
2742 Clear 10 1020 29 9000 2.06 250 15:51 09.02.2021
2743 Clear 11 1020 28 10000 3.6 340 15:29 09.02.2021
2744 Clear 11 1020 28 10000 3.6 340 14:59 09.02.2021
2745 Clear 14 1020 19 10000 3.09 0 14:30 09.02.2021
2746 Clear 14 1020 19 10000 3.09 0 13:59 09.02.2021
2747 Clear 16 1019 18 10000 1.54 0 13:40 09.02.2021
2748 Clear 16 1019 18 10000 1.54 0 13:19 09.02.2021
2749 Clouds 16 1020 20 10000 3.09 350 12:41 09.02.2021
2750 Clouds 16 1020 20 10000 3.09 350 12:22 09.02.2021
2751 Clouds 17 1020 19 10000 1.54 0 11:44 09.02.2021
2752 Clouds 17 1020 19 10000 1.54 0 11:21 09.02.2021
2753 Clouds 17 1020 19 10000 1.54 0 10:56 09.02.2021
2754 Clear 16 1020 18 10000 1.54 0 10:20 09.02.2021
2755 Clouds 16 1021 18 10000 1.54 0 09:46 09.02.2021
2756 Clouds 16 1021 18 10000 1.54 0 09:26 09.02.2021
2757 Clouds 16 1021 18 10000 1.54 0 08:53 09.02.2021
2758 Clouds 15 1022 23 10000 5.66 290 08:28 09.02.2021
2759 Haze 13 1022 28 5000 2.06 0 07:39 09.02.2021
2760 Haze 6 1022 52 5000 1.54 320 04:59 09.02.2021
2761 Smoke 1 1021 69 4800 2.06 300 03:45 09.02.2021
2762 Smoke 3 1020 65 2800 1.54 0 01:38 09.02.2021
2763 Smoke 2 1020 69 2800 1.54 0 23:58 08.02.2021
2764 Smoke 4 1020 60 2400 2.57 300 23:22 08.02.2021
2765 Smoke 4 1020 60 2400 2.57 300 22:56 08.02.2021
2766 Smoke 5 1020 52 2400 1.54 280 22:38 08.02.2021
2767 Smoke 5 1020 52 2400 1.54 280 22:20 08.02.2021
2768 Smoke 5 1021 52 2400 2.06 320 21:38 08.02.2021
2769 Smoke 5 1021 52 2400 2.06 320 21:19 08.02.2021
2770 Smoke 6 1021 52 1800 1.03 210 20:44 08.02.2021
2771 Smoke 6 1021 52 1800 1.03 210 20:44 08.02.2021
2772 Smoke 6 1021 52 1800 1.03 210 20:23 08.02.2021
2773 Smoke 7 1021 45 2400 1.03 0 19:49 08.02.2021
2774 Smoke 7 1021 45 2400 1.03 0 19:27 08.02.2021
2775 Smoke 9 1021 40 3600 1.03 300 18:50 08.02.2021
2776 Smoke 9 1021 40 3600 1.03 300 18:50 08.02.2021
2777 Smoke 9 1021 40 3600 1.03 300 18:25 08.02.2021
2778 Smoke 9 1021 40 3600 1.03 300 17:59 08.02.2021
2779 Smoke 9 1021 40 3200 1.03 150 17:41 08.02.2021
2780 Smoke 9 1021 40 3200 1.03 150 17:21 08.02.2021
2781 Smoke 10 1021 37 3600 1.54 0 16:40 08.02.2021
2782 Smoke 10 1021 37 3600 1.54 0 16:20 08.02.2021
2783 Clear 12 1021 28 9000 2.57 0 15:38 08.02.2021
2784 Clear 12 1021 28 9000 2.57 0 15:18 08.02.2021
2785 Clear 12 1021 28 9000 2.57 0 14:50 08.02.2021
2786 Clear 14 1020 26 9000 5.66 360 14:28 08.02.2021
2787 Clear 16 1021 23 8000 5.14 360 13:49 08.02.2021
2788 Clouds 16 1021 23 8000 5.14 360 13:28 08.02.2021
2789 Clouds 17 1021 22 8000 4.63 330 12:39 08.02.2021
2790 Clouds 17 1021 22 8000 4.63 330 12:19 08.02.2021
2791 Haze 17 1022 20 5000 3.09 0 11:39 08.02.2021
2792 Haze 18 1023 20 5000 1.54 0 10:47 08.02.2021
2793 Haze 18 1023 20 5000 1.54 0 10:26 08.02.2021
2794 Haze 18 1023 20 5000 1.54 0 09:59 08.02.2021
2795 Haze 16 1024 21 6000 1.03 0 09:36 08.02.2021
2796 Haze 16 1025 23 6000 1.54 0 08:57 08.02.2021
2797 Haze 16 1025 23 6000 1.54 0 08:27 08.02.2021
2798 Smoke 14 1025 26 6000 2.57 0 07:47 08.02.2021
2799 Smoke 10 1025 37 2400 1.03 0 06:39 08.02.2021
2800 Smoke 6 1025 56 1000 1.03 0 05:18 08.02.2021
2801 Clouds 5 1023 56 6000 1.03 310 02:27 08.02.2021
2802 Smoke 5 1023 56 5000 2.06 330 00:25 08.02.2021
2803 Smoke 5 1023 56 5000 2.06 330 23:55 07.02.2021
2804 Smoke 6 1023 52 3000 2.06 290 23:28 07.02.2021
2805 Smoke 5 1023 56 3500 1.54 320 22:58 07.02.2021
2806 Smoke 5 1023 56 3500 1.54 320 22:40 07.02.2021
2807 Smoke 5 1023 56 3500 1.54 320 22:21 07.02.2021
2808 Smoke 6 1023 49 4000 1.54 230 21:50 07.02.2021
2809 Smoke 6 1023 49 4000 1.54 230 21:50 07.02.2021
2810 Smoke 6 1023 49 4000 1.54 230 21:25 07.02.2021
2811 Smoke 6 1023 49 4000 1.54 230 21:25 07.02.2021
2812 Smoke 6 1023 49 4000 1.54 230 20:50 07.02.2021
2813 Smoke 10 1023 37 5000 2.06 160 20:29 07.02.2021
2814 Smoke 10 1023 37 5000 2.06 160 19:54 07.02.2021
2815 Smoke 8 1023 46 3500 1.03 0 19:29 07.02.2021
2816 Smoke 8 1022 46 3600 1.03 150 18:51 07.02.2021
2817 Smoke 8 1022 46 3600 1.03 150 18:31 07.02.2021
2818 Smoke 10 1022 40 3600 2.06 110 17:58 07.02.2021
2819 Smoke 10 1022 40 3600 2.06 110 17:40 07.02.2021
2820 Smoke 10 1022 40 3600 2.06 110 17:18 07.02.2021
2821 Smoke 11 1021 37 3600 1.03 180 16:43 07.02.2021
2822 Smoke 11 1021 37 3600 1.03 180 16:22 07.02.2021
2823 Smoke 13 1021 33 3600 1.54 190 15:46 07.02.2021
2824 Clear 15 1021 25 8000 1.54 20 15:27 07.02.2021
2825 Clear 16 1020 23 10000 3.6 340 14:47 07.02.2021
2826 Clear 16 1020 23 10000 3.6 340 14:29 07.02.2021
2827 Clear 16 1020 23 10000 3.6 340 13:52 07.02.2021
2828 Clear 19 1020 19 10000 2.06 30 13:33 07.02.2021
2829 Clear 19 1020 19 10000 2.06 340 12:44 07.02.2021
2830 Clear 20 1021 18 9000 1.54 240 12:22 07.02.2021
2831 Clear 20 1021 18 9000 1.54 240 11:49 07.02.2021
2832 Clear 20 1021 18 9000 1.54 240 11:27 07.02.2021
2833 Clear 19 1022 18 9000 1.03 0 10:48 07.02.2021
2834 Clear 19 1022 18 9000 1.03 0 10:24 07.02.2021
2835 Clear 16 1024 21 9000 3.09 0 09:46 07.02.2021
2836 Clear 16 1024 21 9000 3.09 0 09:21 07.02.2021
2837 Haze 15 1025 25 9000 6.17 230 08:23 07.02.2021
2838 Haze 12 1025 28 6000 2.06 270 06:34 07.02.2021
2839 Haze 12 1025 28 6000 2.06 270 05:57 07.02.2021
2840 Clear 3 1024 52 9000 1.03 270 03:50 07.02.2021
2841 Clear 3 1023 41 6000 3.09 330 01:27 07.02.2021
2842 Smoke 4 1023 41 5000 1.54 310 00:35 07.02.2021
2843 Smoke 3 1023 48 3500 2.06 320 23:44 06.02.2021
2844 Smoke 1 1023 55 2000 1.54 300 22:40 06.02.2021
2845 Smoke 3 1023 48 1800 1.54 0 21:40 06.02.2021
2846 Smoke 3 1023 48 1800 1.54 0 21:21 06.02.2021
2847 Smoke 3 1023 48 1800 1.54 0 20:51 06.02.2021
2848 Smoke 4 1024 41 2400 1.54 330 20:25 06.02.2021
2849 Smoke 4 1024 41 2400 1.54 330 19:57 06.02.2021
2850 Smoke 5 1024 38 3200 1.54 0 19:31 06.02.2021
2851 Smoke 7 1023 33 2000 1.54 150 18:49 06.02.2021
2852 Smoke 7 1023 33 2000 1.54 150 18:31 06.02.2021
2853 Smoke 7 1023 33 1600 1.54 0 17:48 06.02.2021
2854 Smoke 7 1023 33 1600 1.54 0 17:22 06.02.2021
2855 Smoke 7 1023 33 1600 1.54 0 16:59 06.02.2021
2856 Smoke 7 1023 36 1600 1.54 170 16:41 06.02.2021
2857 Clear 9 1022 23 7000 1.54 0 16:22 06.02.2021
2858 Clouds 11 1021 24 9000 1.54 160 15:48 06.02.2021
2859 Clouds 11 1021 24 9000 1.54 160 15:22 06.02.2021
2860 Clouds 13 1021 16 10000 1.54 130 14:45 06.02.2021
2861 Clouds 13 1021 16 10000 1.54 130 14:26 06.02.2021
2862 Clouds 15 1021 14 10000 1.03 190 13:49 06.02.2021
2863 Clouds 15 1021 14 10000 1.03 190 13:29 06.02.2021
2864 Clear 18 1021 13 10000 1.03 280 12:22 06.02.2021
2865 Clear 16 1021 13 10000 1.03 0 11:48 06.02.2021
2866 Clear 16 1021 13 10000 1.03 0 11:25 06.02.2021
2867 Clear 16 1021 13 10000 1.03 0 10:57 06.02.2021
2868 Clear 14 1021 15 10000 2.06 170 10:39 06.02.2021
2869 Clear 14 1021 15 10000 2.06 170 10:20 06.02.2021
2870 Clear 14 1023 14 10000 3.09 260 09:37 06.02.2021
2871 Clear 14 1023 14 10000 3.09 260 09:18 06.02.2021
2872 Clear 14 1023 14 10000 3.09 260 09:18 06.02.2021
2873 Clear 12 1023 16 9000 2.06 280 08:38 06.02.2021
2874 Clear 12 1023 16 9000 2.06 280 08:20 06.02.2021
2875 Haze 4 1024 35 9000 2.06 330 05:44 06.02.2021
2876 Clear -1 1023 51 10000 2.57 340 04:36 06.02.2021
2877 Clear -2 1022 59 9000 1.03 300 02:26 06.02.2021
2878 Smoke -1 1022 59 5000 1.03 0 00:48 06.02.2021
2879 Smoke -1 1022 59 5000 1.03 0 00:48 06.02.2021
2880 Smoke -1 1022 59 5000 1.03 0 00:20 06.02.2021
2881 Smoke -1 1022 59 4000 1.54 340 23:44 05.02.2021
2882 Smoke -1 1022 59 4000 1.54 340 23:26 05.02.2021
2883 Smoke 0 1022 55 3200 1.54 0 22:47 05.02.2021
2884 Smoke 0 1022 55 3200 1.54 0 22:47 05.02.2021
2885 Smoke 0 1022 55 3200 1.54 0 22:23 05.02.2021
2886 Smoke 2 1022 44 4000 1.54 0 21:49 05.02.2021
2887 Smoke 2 1022 44 4000 1.54 0 21:28 05.02.2021
2888 Smoke 2 1023 44 4000 1.54 350 20:47 05.02.2021
2889 Smoke 2 1023 44 4000 1.54 350 19:53 05.02.2021
2890 Smoke 3 1022 41 7000 1.03 140 19:21 05.02.2021
2891 Smoke 5 1022 36 7000 1.54 70 18:54 05.02.2021
2892 Smoke 5 1022 36 7000 1.54 70 18:28 05.02.2021
2893 Smoke 6 1022 31 7000 1.03 100 17:47 05.02.2021
2894 Smoke 6 1022 31 7000 1.03 100 17:27 05.02.2021
2895 Smoke 7 1021 26 3600 2.06 140 16:51 05.02.2021
2896 Smoke 7 1021 26 3600 2.06 140 16:28 05.02.2021
2897 Smoke 7 1021 26 3600 2.06 140 15:58 05.02.2021
2898 Smoke 7 1021 24 3600 1.54 160 15:27 05.02.2021
2899 Haze 7 1020 19 8000 2.06 150 14:55 05.02.2021
2900 Clear 12 1020 12 10000 2.06 100 14:36 05.02.2021
2901 Clear 12 1020 12 10000 2.06 100 14:18 05.02.2021
2902 Clear 12 1020 12 10000 2.06 100 14:18 05.02.2021
2903 Clear 14 1019 9 10000 1.03 0 13:39 05.02.2021
2904 Clear 14 1019 9 10000 1.03 0 13:18 05.02.2021
2905 Clear 15 1020 10 10000 1.54 0 12:40 05.02.2021
2906 Clear 15 1020 10 10000 1.54 0 11:58 05.02.2021
2907 Clear 13 1020 10 10000 3.09 0 11:37 05.02.2021
2908 Clear 13 1020 10 10000 3.09 0 11:18 05.02.2021
2909 Clear 13 1020 10 10000 3.09 0 10:41 05.02.2021
2910 Clear 12 1021 11 10000 6.69 210 10:21 05.02.2021
2911 Clear 11 1022 12 10000 6.17 220 09:41 05.02.2021
2912 Clear 11 1022 12 10000 6.17 220 09:21 05.02.2021
2913 Clear 9 1023 17 10000 6.17 190 08:36 05.02.2021
2914 Clear 8 1023 19 10000 7.72 210 07:39 05.02.2021
2915 Clear 8 1023 19 10000 7.72 210 06:58 05.02.2021
2916 Clear 4 1023 50 10000 2.36 201 05:40 05.02.2021
2917 Clear 0 1022 40 10000 3.6 340 04:50 05.02.2021
2918 Clear 0 1021 40 10000 3.09 350 02:25 05.02.2021
2919 Clear 0 1021 43 10000 3.6 340 00:41 05.02.2021
2920 Clear 0 1021 43 10000 3.6 340 00:21 05.02.2021
2921 Clear 0 1021 43 10000 3.6 340 23:59 04.02.2021
2922 Clear 0 1021 47 10000 3.6 320 23:40 04.02.2021
2923 Clear 0 1021 47 10000 3.6 320 23:40 04.02.2021
2924 Clear 0 1021 47 10000 3.6 320 23:21 04.02.2021
2925 Clear 0 1021 47 10000 3.6 320 22:52 04.02.2021
2926 Clear 1 1021 44 10000 3.6 330 22:28 04.02.2021
2927 Clear 2 1021 41 8000 4.12 330 21:42 04.02.2021
2928 Clear 2 1021 41 8000 4.12 330 21:22 04.02.2021
2929 Clear 2 1021 41 8000 4.12 330 20:53 04.02.2021
2930 Haze 0 1022 47 7000 4.12 330 20:34 04.02.2021
2931 Haze 0 1022 51 7000 4.63 320 19:48 04.02.2021
2932 Haze 0 1022 51 7000 4.63 320 19:19 04.02.2021
2933 Haze 2 1022 48 5000 2.06 310 18:37 04.02.2021
2934 Haze 2 1022 48 5000 2.06 310 18:18 04.02.2021
2935 Haze 6 1022 36 7000 2.57 350 17:42 04.02.2021
2936 Haze 6 1022 36 7000 2.57 350 17:20 04.02.2021
2937 Haze 5 1022 33 7000 1.03 330 16:46 04.02.2021
2938 Haze 5 1022 33 7000 1.03 330 16:19 04.02.2021
2939 Haze 8 1021 27 7000 2.06 190 15:40 04.02.2021
2940 Haze 8 1021 27 7000 2.06 190 15:21 04.02.2021
2941 Clear 10 1021 25 10000 4.12 200 14:49 04.02.2021
2942 Clear 10 1021 25 10000 4.12 200 14:21 04.02.2021
2943 Clear 11 1021 22 10000 3.09 190 13:49 04.02.2021
2944 Clear 11 1021 22 10000 3.09 190 13:28 04.02.2021
2945 Clear 11 1021 22 10000 3.09 190 12:54 04.02.2021
2946 Clear 12 1021 24 10000 3.09 180 11:58 04.02.2021
2947 Clear 12 1021 24 10000 4.12 230 11:37 04.02.2021
2948 Clear 12 1021 24 10000 4.12 230 11:18 04.02.2021
2949 Clear 10 1022 27 10000 4.12 230 10:36 04.02.2021
2950 Clear 9 1023 34 10000 3.09 220 09:46 04.02.2021
2951 Clear 9 1023 34 10000 3.09 220 09:23 04.02.2021
2952 Clear 7 1024 42 10000 3.6 180 08:59 04.02.2021
2953 Clear 7 1024 42 10000 3.6 180 08:28 04.02.2021
2954 Clear 7 1024 42 10000 3.6 180 07:59 04.02.2021
2955 Clear 6 1024 45 10000 1.03 0 07:35 04.02.2021
2956 Haze 4 1024 60 6000 1.03 0 06:54 04.02.2021
2957 Haze 4 1024 60 6000 1.03 0 06:34 04.02.2021
2958 Clear -3 1022 93 10000 2.57 330 02:43 04.02.2021
2959 Clear -3 1022 93 10000 2.57 330 02:24 04.02.2021
2960 Clear -1 1022 86 10000 3.6 330 00:31 04.02.2021
2961 Clear 1 1023 80 9000 1.54 320 23:39 03.02.2021
2962 Clear 1 1022 80 10000 2.57 340 22:41 03.02.2021
2963 Clear 1 1022 80 10000 2.57 340 22:21 03.02.2021
2964 Clear 1 1022 80 10000 2.57 340 21:55 03.02.2021
2965 Clear 1 1023 80 9000 2.57 350 21:25 03.02.2021
2966 Clear 1 1023 80 9000 2.57 350 20:58 03.02.2021
2967 Clear 1 1023 80 8000 2.57 340 20:37 03.02.2021
2968 Clear 1 1023 80 8000 2.57 340 19:57 03.02.2021
2969 Clear 1 1023 80 8000 3.6 340 19:36 03.02.2021
2970 Clouds 1 1023 80 8000 3.6 340 19:18 03.02.2021
2971 Clouds 2 1023 75 7000 3.09 330 18:39 03.02.2021
2972 Clouds 2 1023 75 7000 3.09 330 18:19 03.02.2021
2973 Smoke 3 1023 70 5000 3.09 330 17:48 03.02.2021
2974 Smoke 3 1023 70 5000 3.09 330 17:29 03.02.2021
2975 Smoke 4 1022 65 3600 1.54 270 16:51 03.02.2021
2976 Smoke 4 1022 65 3600 1.54 270 16:26 03.02.2021
2977 Smoke 6 1022 52 4000 2.06 220 15:41 03.02.2021
2978 Smoke 6 1022 52 4000 2.06 220 15:23 03.02.2021
2979 Smoke 6 1022 52 4000 2.06 220 14:53 03.02.2021
2980 Clouds 7 1021 45 10000 3.6 130 14:25 03.02.2021
2981 Clouds 7 1021 45 10000 3.6 130 13:53 03.02.2021
2982 Clouds 8 1021 42 10000 4.63 150 13:21 03.02.2021
2983 Clouds 9 1020 37 10000 3.6 80 12:47 03.02.2021
2984 Clouds 9 1020 37 10000 3.6 80 12:22 03.02.2021
2985 Clouds 9 1020 37 10000 2.57 50 11:47 03.02.2021
2986 Clouds 9 1020 37 9000 3.09 10 11:28 03.02.2021
2987 Clouds 10 1021 37 10000 4.12 340 10:52 03.02.2021
2988 Clouds 9 1021 40 10000 3.6 10 10:21 03.02.2021
2989 Clouds 9 1022 43 10000 5.66 30 09:46 03.02.2021
2990 Clouds 9 1022 43 10000 5.66 30 09:27 03.02.2021
2991 Clouds 8 1022 42 9000 3.09 360 08:49 03.02.2021
2992 Rain 8 1023 46 6000 1.03 0 07:59 03.02.2021
2993 Rain 8 1023 46 6000 1.03 0 07:32 03.02.2021
2994 Rain 4 1022 60 4000 1.54 150 06:38 03.02.2021
2995 Snow 1 1021 69 9000 3.09 0 04:51 03.02.2021
2996 Snow 1 1021 69 9000 3.09 0 04:29 03.02.2021
2997 Clouds 1 1020 69 8000 1.54 0 02:53 03.02.2021
2998 Clouds 1 1020 69 8000 1.54 0 02:23 03.02.2021
2999 Smoke 2 1020 69 8000 1.54 0 00:27 03.02.2021
3000 Smoke 2 1020 64 4000 1.03 270 23:47 02.02.2021
3001 Smoke 2 1020 64 4000 1.03 270 23:28 02.02.2021
3002 Smoke 2 1020 64 4000 1.03 270 22:54 02.02.2021
3003 Smoke 2 1020 69 2000 1.03 0 22:22 02.02.2021
3004 Smoke 2 1020 69 2000 1.03 0 21:55 02.02.2021
3005 Smoke 2 1021 64 2500 1.03 300 21:29 02.02.2021
3006 Smoke 2 1021 64 3000 1.54 140 20:59 02.02.2021
3007 Smoke 2 1021 64 3000 1.54 140 20:41 02.02.2021
3008 Smoke 2 1021 64 3000 1.54 140 20:18 02.02.2021
3009 Smoke 2 1021 64 3000 1.54 140 20:18 02.02.2021
3010 Smoke 2 1021 64 3000 1.54 140 19:42 02.02.2021
3011 Smoke 3 1021 60 4000 1.54 100 19:23 02.02.2021
3012 Smoke 4 1021 56 4000 1.54 320 18:44 02.02.2021
3013 Smoke 4 1021 56 4000 1.54 320 18:25 02.02.2021
3014 Smoke 5 1021 52 4000 3.09 340 17:49 02.02.2021
3015 Smoke 5 1021 52 4000 3.09 340 17:22 02.02.2021
3016 Smoke 5 1021 52 4000 3.09 340 16:56 02.02.2021
3017 Smoke 4 1021 48 4000 2.06 290 16:37 02.02.2021
3018 Smoke 6 1021 45 5000 2.06 310 15:58 02.02.2021
3019 Clouds 7 1020 42 10000 1.54 0 15:40 02.02.2021
3020 Clouds 7 1020 42 10000 1.54 0 15:20 02.02.2021
3021 Clouds 9 1020 34 10000 2.57 60 14:39 02.02.2021
3022 Clouds 9 1020 34 10000 2.57 60 14:18 02.02.2021
3023 Clouds 10 1020 27 10000 3.09 350 13:44 02.02.2021
3024 Clouds 10 1020 27 10000 3.09 350 13:25 02.02.2021
3025 Clouds 10 1020 27 10000 3.09 350 12:55 02.02.2021
3026 Clouds 12 1020 26 10000 4.12 340 12:24 02.02.2021
3027 Clear 13 1020 24 10000 1.03 180 11:40 02.02.2021
3028 Clear 13 1020 24 10000 1.03 180 11:19 02.02.2021
3029 Clear 12 1021 26 10000 3.6 100 10:47 02.02.2021
3030 Clear 12 1021 26 10000 3.6 100 10:47 02.02.2021
3031 Clear 12 1021 26 10000 3.6 100 10:26 02.02.2021
3032 Clear 11 1022 30 10000 2.57 340 09:46 02.02.2021
3033 Clear 11 1022 30 10000 2.57 340 09:23 02.02.2021
3034 Haze 10 1023 32 9000 3.6 330 08:43 02.02.2021
3035 Haze 10 1024 34 7000 0.51 0 07:51 02.02.2021
3036 Haze 6 1024 49 2600 1.54 340 07:26 02.02.2021
3037 Haze 6 1024 49 2600 1.54 340 06:40 02.02.2021
3038 Haze 6 1024 49 2600 1.54 340 05:51 02.02.2021
3039 Mist -1 1024 74 2800 1.03 130 04:21 02.02.2021
3040 Smoke 1 1023 69 3200 1.54 0 02:25 02.02.2021
3041 Snow 1 1023 69 2800 1.54 0 00:46 02.02.2021
3042 Snow 1 1023 69 2800 1.54 0 23:58 01.02.2021
3043 Smoke 1 1024 69 2400 1.54 150 23:18 01.02.2021
3044 Smoke 2 1024 60 2400 1.03 0 22:39 01.02.2021
3045 Smoke 2 1024 60 2400 1.03 0 22:20 01.02.2021
3046 Smoke 2 1024 64 2000 1.54 0 21:46 01.02.2021
3047 Smoke 2 1024 64 2000 1.54 0 21:22 01.02.2021
3048 Smoke 2 1025 64 2400 2.06 110 20:43 01.02.2021
3049 Smoke 2 1025 64 2400 2.06 110 20:24 01.02.2021
3050 Smoke 3 1025 56 3000 2.06 30 19:48 01.02.2021
3051 Rain 3 1025 56 3000 2.06 30 19:21 01.02.2021
3052 Smoke 3 1025 56 3000 2.06 30 18:58 01.02.2021
3053 Rain 3 1025 52 3000 1.54 0 18:39 01.02.2021
3054 Smoke 3 1025 52 3000 1.54 0 18:21 01.02.2021
3055 Smoke 2 1025 55 3000 1.54 120 17:42 01.02.2021
3056 Smoke 2 1025 55 3000 1.54 120 17:19 01.02.2021
3057 Smoke 5 1025 48 3000 2.06 160 16:40 01.02.2021
3058 Clear 4 1025 45 10000 3.09 330 16:21 01.02.2021
3059 Clear 7 1024 36 10000 3.09 340 15:40 01.02.2021
3060 Clear 7 1024 36 10000 3.09 340 15:19 01.02.2021
3061 Clear 7 1024 36 10000 3.09 340 15:19 01.02.2021
3062 Clear 8 1024 36 10000 4.12 350 14:48 01.02.2021
3063 Clear 8 1024 36 10000 4.12 350 14:18 01.02.2021
3064 Clear 10 1024 32 10000 4.63 350 13:42 01.02.2021
3065 Clear 10 1024 32 10000 4.63 350 13:22 01.02.2021
3066 Clear 10 1024 32 10000 4.63 350 12:44 01.02.2021
3067 Clear 10 1024 32 10000 4.63 350 12:44 01.02.2021
3068 Clouds 11 1024 32 9000 2.57 40 12:23 01.02.2021
3069 Clouds 11 1024 32 8000 2.57 70 11:43 01.02.2021
3070 Clouds 11 1024 32 8000 2.57 70 11:20 01.02.2021
3071 Clouds 10 1025 29 8000 3.6 90 10:46 01.02.2021
3072 Clouds 10 1025 29 8000 3.6 90 10:21 01.02.2021
3073 Clouds 9 1026 34 7000 1.54 0 09:47 01.02.2021
3074 Clouds 9 1026 34 7000 1.54 0 09:25 01.02.2021
3075 Clouds 9 1026 34 7000 1.54 0 08:56 01.02.2021
3076 Haze 9 1027 37 7000 1.54 0 08:21 01.02.2021
3077 Haze 4 1027 56 3200 2.06 330 06:43 01.02.2021
3078 Mist -2 1025 80 5000 1.54 320 04:32 01.02.2021
3079 Smoke -2 1024 80 5000 1.03 0 02:37 01.02.2021
3080 Smoke -1 1024 74 3600 1.03 0 23:47 31.01.2021
3081 Smoke -1 1024 74 3600 1.03 0 22:56 31.01.2021
3082 Smoke -1 1024 69 3600 1.54 110 22:36 31.01.2021
3083 Smoke -1 1024 69 3600 1.54 110 22:18 31.01.2021
3084 Smoke -1 1024 80 3000 1.03 0 21:41 31.01.2021
3085 Smoke -1 1024 80 3000 1.03 0 21:19 31.01.2021
3086 Smoke 1 1024 69 3600 1.54 140 20:41 31.01.2021
3087 Smoke 1 1024 69 3600 1.54 140 20:19 31.01.2021
3088 Smoke 1 1023 64 3600 1.54 100 19:37 31.01.2021
3089 Smoke 1 1023 64 3600 1.54 100 19:19 31.01.2021
3090 Smoke 3 1023 56 4000 1.54 70 18:44 31.01.2021
3091 Smoke 3 1023 56 4000 1.54 70 18:24 31.01.2021
3092 Clouds 5 1022 48 9000 3.6 350 17:50 31.01.2021
3093 Clouds 5 1022 48 9000 3.6 350 17:24 31.01.2021
3094 Clouds 5 1022 48 9000 3.6 350 16:59 31.01.2021
3095 Clouds 5 1022 52 9000 4.63 340 16:39 31.01.2021
3096 Clouds 5 1022 52 9000 4.63 340 16:19 31.01.2021
3097 Clouds 7 1021 42 9000 6.17 350 15:48 31.01.2021
3098 Clouds 7 1021 42 9000 6.17 350 14:55 31.01.2021
3099 Clouds 7 1020 39 8000 6.17 360 14:28 31.01.2021
3100 Clouds 7 1020 39 8000 6.17 360 13:59 31.01.2021
3101 Clouds 9 1019 29 8000 3.09 0 13:38 31.01.2021
3102 Clouds 9 1019 29 8000 3.09 0 12:57 31.01.2021
3103 Haze 9 1019 23 9000 4.63 360 12:38 31.01.2021
3104 Haze 9 1019 23 9000 4.63 360 12:20 31.01.2021
3105 Rain 8 1019 25 8000 4.63 360 11:38 31.01.2021
3106 Rain 8 1019 25 8000 4.63 360 11:19 31.01.2021
3107 Rain 10 1018 22 8000 4.63 360 10:44 31.01.2021
3108 Rain 10 1018 22 8000 4.63 360 10:25 31.01.2021
3109 Clouds 9 1019 23 7000 4.12 340 09:34 31.01.2021
3110 Haze 11 1020 22 7000 1.03 0 08:34 31.01.2021
3111 Haze 11 1020 22 7000 1.03 0 08:34 31.01.2021
3112 Haze 11 1020 22 7000 1.03 0 08:34 31.01.2021
3113 Haze 11 1020 22 7000 1.03 0 07:55 31.01.2021
3114 Smoke 8 1021 27 3600 1.03 0 06:36 31.01.2021
3115 Smoke -2 1019 64 3000 0.37 337 02:19 31.01.2021
3116 Smoke -1 1019 59 2000 1.03 250 00:28 31.01.2021
3117 Smoke -1 1019 59 2000 1.03 250 00:28 31.01.2021
3118 Smoke 0 1019 55 2800 2.06 300 23:43 30.01.2021
3119 Smoke 0 1019 55 2800 2.06 300 23:22 30.01.2021
3120 Smoke 0 1020 55 1400 2.06 300 22:38 30.01.2021
3121 Smoke 1 1019 47 2400 1.54 330 21:45 30.01.2021
3122 Smoke 1 1019 47 2400 1.54 330 21:24 30.01.2021
3123 Smoke 1 1019 47 2400 1.54 330 20:58 30.01.2021
3124 Smoke 0 1019 51 2800 1.54 310 20:38 30.01.2021
3125 Smoke 2 1019 44 2800 1.03 280 19:59 30.01.2021
3126 Smoke 2 1019 44 2800 1.03 280 19:40 30.01.2021
3127 Smoke 2 1019 44 2800 1.03 280 19:19 30.01.2021
3128 Smoke 2 1019 44 2800 1.03 280 19:19 30.01.2021
3129 Smoke 3 1019 38 3200 1.54 300 18:40 30.01.2021
3130 Smoke 3 1019 38 3200 1.54 300 18:20 30.01.2021
3131 Smoke 4 1018 35 3200 2.57 110 17:45 30.01.2021
3132 Smoke 4 1018 35 3200 2.57 110 17:18 30.01.2021
3133 Smoke 4 1018 35 3200 2.06 100 16:41 30.01.2021
3134 Smoke 4 1018 35 3200 2.06 100 16:22 30.01.2021
3135 Smoke 7 1017 31 2800 2.06 170 15:48 30.01.2021
3136 Smoke 7 1017 31 2800 2.06 170 15:24 30.01.2021
3137 Haze 7 1017 24 6000 1.54 30 14:52 30.01.2021
3138 Clear 10 1017 20 8000 4.12 340 14:28 30.01.2021
3139 Clear 10 1017 20 8000 4.12 340 13:53 30.01.2021
3140 Clear 13 1017 16 10000 3.09 350 13:20 30.01.2021
3141 Clear 14 1017 15 10000 1.54 0 12:43 30.01.2021
3142 Clear 14 1017 15 10000 1.54 0 12:23 30.01.2021
3143 Clear 13 1018 16 10000 2.06 140 11:43 30.01.2021
3144 Clear 14 1019 14 10000 2.57 0 10:56 30.01.2021
3145 Clear 14 1019 14 10000 2.57 0 10:26 30.01.2021
3146 Haze 12 1020 16 9000 1.54 0 09:41 30.01.2021
3147 Haze 12 1020 16 9000 1.54 0 09:22 30.01.2021
3148 Haze 10 1021 18 7000 1.03 0 08:43 30.01.2021
3149 Haze 9 1022 20 7000 1.54 0 07:40 30.01.2021
3150 Haze 4 1023 28 4000 1.03 0 06:21 30.01.2021
3151 Clear -2 1022 43 6000 3.6 330 03:43 30.01.2021
3152 Smoke -3 1021 50 5000 2.57 330 02:40 30.01.2021
3153 Smoke -3 1021 50 5000 2.57 330 02:21 30.01.2021
3154 Smoke -3 1022 59 3200 1.03 340 00:49 30.01.2021
3155 Smoke -3 1022 59 3200 1.03 340 00:21 30.01.2021
3156 Smoke -2 1022 54 3600 0.51 0 23:49 29.01.2021
3157 Smoke -2 1022 54 3600 0.51 0 23:27 29.01.2021
3158 Smoke -3 1023 59 3600 1.03 120 22:45 29.01.2021
3159 Smoke -3 1023 59 3600 1.03 120 22:23 29.01.2021
3160 Clear 0 1023 68 10000 0.79 214 21:44 29.01.2021
3161 Smoke -2 1024 46 2400 0.85 194 21:26 29.01.2021
3162 Smoke -2 1024 46 2400 0.85 194 20:42 29.01.2021
3163 Smoke -2 1024 46 2400 1.35 198 20:21 29.01.2021
3164 Smoke 0 1024 40 2800 0.51 0 19:39 29.01.2021
3165 Smoke 0 1024 40 2800 0.51 0 19:20 29.01.2021
3166 Smoke 0 1023 37 3600 1.03 350 18:45 29.01.2021
3167 Smoke 3 1022 30 3000 1.03 140 17:46 29.01.2021
3168 Smoke 3 1022 30 3000 1.03 140 17:22 29.01.2021
3169 Smoke 5 1022 24 3200 2.57 170 16:47 29.01.2021
3170 Smoke 5 1022 24 3200 2.57 170 16:24 29.01.2021
3171 Smoke 5 1022 24 3200 2.57 170 15:54 29.01.2021
3172 Clear 6 1022 19 10000 2.57 350 15:36 29.01.2021
3173 Clear 8 1021 17 10000 2.57 30 14:57 29.01.2021
3174 Clear 8 1021 17 10000 2.57 30 14:21 29.01.2021
3175 Clear 9 1021 15 10000 3.09 0 13:45 29.01.2021
3176 Clear 9 1021 15 10000 3.09 0 13:26 29.01.2021
3177 Clear 11 1021 13 10000 1.03 0 12:30 29.01.2021
3178 Clear 11 1021 13 10000 1.03 0 11:58 29.01.2021
3179 Clear 10 1021 16 10000 1.54 0 11:40 29.01.2021
3180 Clear 10 1021 16 10000 1.54 0 11:18 29.01.2021
3181 Clear 10 1022 13 10000 3.09 0 10:41 29.01.2021
3182 Clear 10 1023 16 10000 2.57 0 09:56 29.01.2021
3183 Clear 10 1023 16 10000 2.57 0 09:36 29.01.2021
3184 Haze 8 1024 21 6000 3.09 0 08:48 29.01.2021
3185 Haze 8 1024 21 6000 3.09 0 08:26 29.01.2021
3186 Haze 6 1024 22 5000 1.03 0 07:44 29.01.2021
3187 Haze 6 1024 22 5000 1.03 0 07:23 29.01.2021
3188 Smoke 4 1024 24 5000 1.03 0 06:34 29.01.2021
3189 Clear -2 1023 43 7000 1.03 310 03:53 29.01.2021
3190 Clear -3 1021 46 6000 3.09 340 00:51 29.01.2021
3191 Smoke -4 1021 63 2400 1.03 0 00:23 29.01.2021
3192 Smoke -4 1021 63 2400 1.03 0 23:47 28.01.2021
3193 Smoke -4 1021 63 1600 1.03 0 23:27 28.01.2021
3194 Smoke -4 1021 63 1600 1.03 0 22:59 28.01.2021
3195 Smoke -3 1022 59 1600 1.03 0 22:38 28.01.2021
3196 Smoke -3 1022 59 1600 1.03 0 22:20 28.01.2021
3197 Smoke -3 1022 54 2000 1.03 70 21:42 28.01.2021
3198 Smoke -3 1022 54 2000 1.03 70 21:21 28.01.2021
3199 Smoke -2 1022 50 2400 1.03 0 20:44 28.01.2021
3200 Smoke -2 1022 50 2400 1.03 0 20:19 28.01.2021
3201 Smoke -1 1022 43 2400 1.03 350 19:49 28.01.2021
3202 Smoke -1 1022 43 2400 1.03 350 19:27 28.01.2021
3203 Smoke 1 1021 37 1800 2.06 160 18:49 28.01.2021
3204 Smoke 1 1021 37 1800 2.06 160 18:30 28.01.2021
3205 Smoke 0 1021 37 2000 1.03 70 17:53 28.01.2021
3206 Smoke 0 1021 37 2000 1.03 70 17:32 28.01.2021
3207 Smoke 0 1021 37 2000 1.03 70 16:57 28.01.2021
3208 Smoke 1 1021 32 3000 1.54 20 16:37 28.01.2021
3209 Clear 3 1021 23 7000 2.06 300 16:18 28.01.2021
3210 Clouds 4 1020 20 10000 1.03 0 15:25 28.01.2021
3211 Clouds 8 1020 14 10000 1.03 0 14:47 28.01.2021
3212 Clouds 8 1020 14 10000 1.03 0 14:26 28.01.2021
3213 Clouds 10 1020 12 10000 1.54 0 13:58 28.01.2021
3214 Clouds 10 1020 12 10000 1.54 0 13:23 28.01.2021
3215 Clouds 10 1020 12 10000 1.54 0 12:50 28.01.2021
3216 Clouds 10 1020 12 10000 1.54 0 12:28 28.01.2021
3217 Clouds 10 1020 12 10000 1.54 0 11:55 28.01.2021
3218 Clear 10 1021 12 10000 1.54 0 11:36 28.01.2021
3219 Clear 10 1021 12 10000 1.54 0 11:18 28.01.2021
3220 Clear 10 1021 13 10000 2.57 0 10:40 28.01.2021
3221 Clear 10 1021 13 10000 2.57 0 10:22 28.01.2021
3222 Clear 8 1022 15 10000 2.06 0 09:38 28.01.2021
3223 Clear 8 1022 15 10000 2.06 0 09:19 28.01.2021
3224 Haze 8 1023 18 7000 1.54 0 08:44 28.01.2021
3225 Haze 8 1023 18 7000 1.54 0 07:50 28.01.2021
3226 Haze 7 1023 19 6000 1.54 0 07:18 28.01.2021
3227 Haze 2 1023 27 6000 2.06 320 06:46 28.01.2021
3228 Clear -5 1022 50 9000 3.09 320 04:30 28.01.2021
3229 Smoke -4 1021 58 4000 1.03 240 02:33 28.01.2021
3230 Smoke -3 1021 63 1600 1.03 250 00:29 28.01.2021
3231 Smoke -3 1022 50 2000 1.54 310 23:25 27.01.2021
3232 Smoke -4 1022 58 1600 1.54 260 22:44 27.01.2021
3233 Smoke -2 1022 54 1600 1.03 310 22:26 27.01.2021
3234 Smoke -2 1022 54 1600 1.03 310 22:26 27.01.2021
3235 Smoke -2 1022 54 1600 1.03 310 21:57 27.01.2021
3236 Smoke -2 1022 54 1600 1.03 310 21:39 27.01.2021
3237 Smoke -2 1022 54 1600 1.03 310 21:21 27.01.2021
3238 Smoke -2 1022 54 1600 1.03 200 20:40 27.01.2021
3239 Smoke -2 1022 54 1600 1.03 200 19:58 27.01.2021
3240 Smoke -2 1022 50 2000 1.03 0 19:39 27.01.2021
3241 Smoke -2 1022 50 2000 1.03 0 19:20 27.01.2021
3242 Smoke 0 1021 43 1400 1.54 160 18:42 27.01.2021
3243 Smoke 0 1021 43 1400 1.54 160 18:23 27.01.2021
3244 Smoke 1 1021 34 2400 1.03 210 17:46 27.01.2021
3245 Smoke 1 1021 34 2400 1.03 210 17:21 27.01.2021
3246 Smoke 2 1021 30 2400 1.03 0 16:48 27.01.2021
3247 Smoke 2 1021 30 2400 1.03 0 16:28 27.01.2021
3248 Smoke 2 1021 30 2400 1.03 0 15:50 27.01.2021
3249 Smoke 4 1020 24 6000 1.54 120 15:31 27.01.2021
3250 Clouds 1 1024 65 10000 1.1 228 14:43 27.01.2021
3251 Clouds 1 1022 63 10000 0.87 233 14:22 27.01.2021
3252 Clouds 1 1022 63 10000 0.87 233 13:45 27.01.2021
3253 Clouds 10 1020 13 8000 2.06 0 12:58 27.01.2021
3254 Clouds 10 1020 13 8000 2.06 0 12:38 27.01.2021
3255 Clouds 10 1020 13 8000 2.06 0 12:18 27.01.2021
3256 Clouds 9 1021 14 9000 2.06 0 11:41 27.01.2021
3257 Clouds 9 1021 14 9000 2.06 0 11:21 27.01.2021
3258 Clouds 8 1021 17 8000 1.03 0 10:38 27.01.2021
3259 Clouds 8 1021 17 8000 1.03 0 10:19 27.01.2021
3260 Haze 7 1023 19 5000 2.06 0 09:40 27.01.2021
3261 Haze 7 1023 19 5000 2.06 0 08:57 27.01.2021
3262 Haze 6 1024 21 5000 3.09 0 07:59 27.01.2021
3263 Haze 6 1023 21 5000 1.03 0 07:40 27.01.2021
3264 Haze 3 1024 25 5000 2.57 0 06:58 27.01.2021
3265 Haze 3 1024 25 5000 2.57 0 06:19 27.01.2021
3266 Haze -1 1024 37 5000 2.06 0 05:39 27.01.2021
3267 Clear -1 1023 37 10000 1.54 0 03:29 27.01.2021
3268 Smoke -2 1022 43 5000 1.54 0 02:23 27.01.2021
3269 Smoke -4 1022 63 3000 0.7 243 01:48 27.01.2021
3270 Smoke -3 1022 59 2400 1.03 80 00:33 27.01.2021
3271 Smoke -3 1022 54 2000 1.03 0 23:48 26.01.2021
3272 Smoke -3 1022 54 2000 1.03 0 23:28 26.01.2021
3273 Smoke -3 1022 54 1600 1.03 150 22:48 26.01.2021
3274 Smoke -3 1022 54 1600 1.03 150 22:23 26.01.2021
3275 Smoke -3 1022 54 1600 1.03 150 21:53 26.01.2021
3276 Smoke -3 1022 54 1600 1.03 150 21:53 26.01.2021
3277 Smoke -3 1022 54 2000 1.03 160 21:32 26.01.2021
3278 Smoke -3 1022 54 2000 1.03 160 20:58 26.01.2021
3279 Smoke -1 1022 43 2000 1.03 120 20:39 26.01.2021
3280 Smoke -1 1022 43 2000 1.03 120 20:20 26.01.2021
3281 Smoke 0 1022 40 2000 1.03 230 19:44 26.01.2021
3282 Smoke 0 1022 40 2000 1.03 230 19:20 26.01.2021
3283 Smoke 1 1022 34 2800 1.03 120 18:47 26.01.2021
3284 Smoke 1 1022 34 2800 1.03 120 18:27 26.01.2021
3285 Smoke 1 1022 34 2800 1.03 120 17:51 26.01.2021
3286 Smoke 3 1022 28 2800 1.03 0 17:30 26.01.2021
3287 Smoke 3 1022 28 2800 1.03 0 16:55 26.01.2021
3288 Smoke 3 1021 28 2000 3.09 0 16:37 26.01.2021
3289 Smoke 3 1021 28 2000 3.09 0 16:18 26.01.2021
3290 Clear 6 1021 17 8000 2.06 0 15:40 26.01.2021
3291 Clear 6 1021 17 8000 2.06 0 15:20 26.01.2021
3292 Clear 7 1020 18 10000 2.06 0 14:37 26.01.2021
3293 Clear 7 1020 18 10000 2.06 0 14:18 26.01.2021
3294 Clear 9 1020 13 10000 1.54 0 13:33 26.01.2021
3295 Clear 9 1020 13 10000 1.54 0 12:57 26.01.2021
3296 Clear 10 1020 11 10000 2.06 0 12:38 26.01.2021
3297 Clear 10 1020 11 10000 2.06 0 12:19 26.01.2021
3298 Clear 10 1020 11 10000 2.06 0 11:50 26.01.2021
3299 Clear 9 1020 13 10000 1.54 0 11:19 26.01.2021
3300 Clear 10 1021 13 10000 1.54 0 10:39 26.01.2021
3301 Clear 10 1021 13 10000 1.54 0 10:20 26.01.2021
3302 Clear 9 1022 15 9000 2.06 0 09:39 26.01.2021
3303 Clear 9 1022 15 9000 2.06 0 09:21 26.01.2021
3304 Haze 7 1023 19 6000 1.03 0 08:44 26.01.2021
3305 Haze 7 1023 19 6000 1.03 0 07:56 26.01.2021
3306 Haze 4 1023 26 6000 1.54 330 07:19 26.01.2021
3307 Haze 3 1023 30 4000 1.54 0 05:51 26.01.2021
3308 Haze 0 1022 40 2000 1.54 0 05:32 26.01.2021
3309 Clear -4 1021 50 6000 2.57 330 03:32 26.01.2021
3310 Smoke -4 1021 63 2000 2.06 330 00:59 26.01.2021
3311 Smoke -4 1021 63 2000 2.06 330 00:24 26.01.2021
3312 Smoke -5 1021 74 1400 1.03 0 23:31 25.01.2021
3313 Smoke -4 1021 63 2000 1.03 300 22:47 25.01.2021
3314 Smoke -4 1021 63 2000 1.03 300 22:29 25.01.2021
3315 Smoke -3 1022 54 2000 1.03 140 21:45 25.01.2021
3316 Smoke -3 1022 54 2000 1.03 140 21:18 25.01.2021
3317 Smoke -2 1022 50 1400 1.54 0 20:41 25.01.2021
3318 Smoke -2 1022 50 1400 1.54 0 20:23 25.01.2021
3319 Smoke -2 1022 50 2000 1.03 310 19:47 25.01.2021
3320 Smoke -2 1022 50 2000 1.03 310 19:47 25.01.2021
3321 Smoke -2 1022 50 2000 1.03 310 19:47 25.01.2021
3322 Smoke -2 1022 50 2000 1.03 310 19:23 25.01.2021
3323 Smoke 0 1022 37 2800 1.03 300 18:45 25.01.2021
3324 Smoke 0 1022 37 2800 1.03 300 18:24 25.01.2021
3325 Smoke 0 1022 40 2000 1.03 160 17:49 25.01.2021
3326 Smoke 0 1022 40 2000 1.03 160 17:25 25.01.2021
3327 Smoke 2 1021 35 1400 1.54 0 16:49 25.01.2021
3328 Smoke 2 1021 35 1400 1.54 0 16:26 25.01.2021
3329 Smoke 2 1021 35 1400 1.54 0 15:55 25.01.2021
3330 Haze 5 1021 26 6000 1.03 160 15:36 25.01.2021
3331 Clear 6 1020 21 10000 1.22 336 14:59 25.01.2021
3332 Clear 6 1020 21 10000 1.22 336 14:38 25.01.2021
3333 Clear 6 1020 21 10000 1.01 344 14:18 25.01.2021
3334 Clear 8 1020 18 10000 1.03 0 13:43 25.01.2021
3335 Clear 8 1020 18 10000 1.03 0 13:20 25.01.2021
3336 Clear 10 1020 14 8000 1.03 0 12:41 25.01.2021
3337 Clear 10 1020 14 8000 1.03 0 12:18 25.01.2021
3338 Clear 10 1020 16 8000 2.06 0 11:28 25.01.2021
3339 Clear 10 1021 16 7000 1.03 0 10:49 25.01.2021
3340 Clear 10 1021 16 7000 1.03 0 10:22 25.01.2021
3341 Clear 10 1021 16 7000 1.03 0 10:22 25.01.2021
3342 Clear 10 1021 16 7000 1.03 0 09:52 25.01.2021
3343 Clear 8 1022 19 6000 1.03 0 09:28 25.01.2021
3344 Haze 7 1023 21 6000 1.03 0 08:38 25.01.2021
3345 Haze 7 1023 21 6000 1.03 0 07:57 25.01.2021
3346 Haze 5 1024 22 5000 1.03 320 07:28 25.01.2021
3347 Haze 3 1023 28 4800 1.54 330 06:28 25.01.2021
3348 Smoke -5 1021 68 2400 1.03 270 02:32 25.01.2021
3349 Smoke -3 1021 68 1400 1.54 180 00:42 25.01.2021
3350 Smoke -4 1022 68 1200 1.54 330 23:38 24.01.2021
3351 Smoke -4 1022 68 1200 1.54 330 23:18 24.01.2021
3352 Smoke -4 1022 63 1000 1.54 130 22:40 24.01.2021
3353 Smoke -4 1022 63 1000 1.54 130 22:18 24.01.2021
3354 Smoke -2 1022 54 1200 1.54 0 21:31 24.01.2021
3355 Smoke -1 1022 55 800 1.03 110 20:49 24.01.2021
3356 Smoke -1 1022 55 800 1.03 110 20:24 24.01.2021
3357 Smoke -1 1022 47 1400 1.54 0 19:58 24.01.2021
3358 Smoke -1 1022 47 1400 1.54 0 19:39 24.01.2021
3359 Smoke -1 1022 47 1400 1.54 0 19:20 24.01.2021
3360 Smoke -1 1022 43 1400 1.03 300 18:55 24.01.2021
3361 Smoke -1 1022 43 1400 1.03 300 18:36 24.01.2021
3362 Smoke -1 1022 43 1400 1.03 300 18:36 24.01.2021
3363 Smoke -1 1022 43 1400 1.03 300 18:18 24.01.2021
3364 Smoke 2 1021 41 1200 1.03 160 17:43 24.01.2021
3365 Smoke 2 1021 41 1200 1.03 160 17:19 24.01.2021
3366 Smoke 3 1021 30 3200 1.54 0 16:42 24.01.2021
3367 Smoke 3 1021 30 3200 1.54 0 16:21 24.01.2021
3368 Haze 4 1020 22 8000 1.54 0 15:47 24.01.2021
3369 Haze 4 1020 22 8000 1.54 0 15:21 24.01.2021
3370 Haze 4 1020 22 8000 1.54 0 14:57 24.01.2021
3371 Clear 8 1020 15 10000 1.54 0 14:33 24.01.2021
3372 Clear 10 1020 11 10000 3.09 0 13:40 24.01.2021
3373 Clear 10 1020 11 10000 3.09 0 12:56 24.01.2021
3374 Clear 10 1020 10 10000 2.57 0 12:36 24.01.2021
3375 Clear 10 1020 10 10000 2.57 0 12:18 24.01.2021
3376 Clear 10 1020 11 10000 3.09 0 11:46 24.01.2021
3377 Clear 10 1020 11 10000 3.09 0 11:22 24.01.2021
3378 Clear 10 1020 12 10000 3.09 0 10:42 24.01.2021
3379 Clear 10 1020 12 10000 3.09 0 09:57 24.01.2021
3380 Clear 10 1021 14 10000 2.57 0 09:22 24.01.2021
3381 Clear 10 1021 14 10000 2.57 0 08:52 24.01.2021
3382 Haze 3 1023 22 6000 2.57 330 06:49 24.01.2021
3383 Clear -4 1021 39 10000 3.6 330 02:21 24.01.2021
3384 Clear -3 1021 33 10000 1.54 280 00:58 24.01.2021
3385 Clear -4 1022 39 10000 3.09 340 00:23 24.01.2021
3386 Clear -1 1022 27 9000 3.09 350 23:47 23.01.2021
3387 Clear -1 1022 27 9000 3.09 350 23:24 23.01.2021
3388 Smoke -2 1022 34 8000 2.57 350 22:41 23.01.2021
3389 Smoke -2 1022 34 8000 2.57 350 22:21 23.01.2021
3390 Smoke -3 1022 39 4000 3.6 330 21:47 23.01.2021
3391 Smoke -3 1022 39 4000 3.6 330 21:19 23.01.2021
3392 Smoke -3 1022 43 2400 2.06 320 20:40 23.01.2021
3393 Smoke -3 1022 43 2400 2.06 320 20:21 23.01.2021
3394 Smoke -4 1022 42 3000 1.54 310 19:45 23.01.2021
3395 Smoke -4 1022 42 3000 1.54 310 19:20 23.01.2021
3396 Smoke -4 1022 42 3000 1.54 310 19:20 23.01.2021
3397 Smoke -2 1022 40 3000 2.06 290 18:44 23.01.2021
3398 Smoke -2 1022 40 3000 2.06 290 18:24 23.01.2021
3399 Haze 0 1022 25 3200 2.06 290 17:45 23.01.2021
3400 Haze 0 1022 25 3200 2.06 290 17:26 23.01.2021
3401 Haze 2 1021 20 8000 3.09 0 16:47 23.01.2021
3402 Haze 2 1021 20 8000 3.09 0 16:24 23.01.2021
3403 Clear 1 1021 19 9000 5.14 330 15:31 23.01.2021
3404 Clear 1 1021 19 9000 5.14 330 14:58 23.01.2021
3405 Clear 4 1020 13 10000 5.66 30 14:30 23.01.2021
3406 Clear 4 1020 13 10000 5.66 30 13:50 23.01.2021
3407 Clear 4 1020 13 10000 5.66 30 13:50 23.01.2021
3408 Clear 5 1019 12 10000 8.23 350 13:32 23.01.2021
3409 Clear 6 1019 12 10000 9.77 20 12:49 23.01.2021
3410 Clear 6 1019 12 10000 9.77 20 12:49 23.01.2021
3411 Clear 6 1019 12 10000 9.77 20 12:26 23.01.2021
3412 Clear 6 1019 11 10000 8.75 20 11:45 23.01.2021
3413 Clear 6 1019 11 10000 8.75 20 11:24 23.01.2021
3414 Clear 5 1020 12 10000 9.26 10 10:46 23.01.2021
3415 Clear 5 1020 12 10000 9.26 10 10:18 23.01.2021
3416 Clear 5 1021 15 10000 8.23 10 09:44 23.01.2021
3417 Clear 5 1021 15 10000 8.23 10 08:53 23.01.2021
3418 Haze 4 1022 26 8000 5.14 340 07:57 23.01.2021
3419 Haze 3 1022 22 7000 3.6 0 07:18 23.01.2021
3420 Clear -8 1019 93 7000 4.63 310 03:36 23.01.2021
3421 Mist -3 1018 93 4000 2.06 260 00:38 23.01.2021
3422 Mist -3 1018 93 8000 2.06 300 23:38 22.01.2021
3423 Mist -3 1018 93 8000 2.06 300 23:38 22.01.2021
3424 Mist -3 1018 100 8000 2.06 330 22:46 22.01.2021
3425 Mist -3 1018 100 8000 2.06 330 22:22 22.01.2021
3426 Mist -4 1018 93 8000 2.57 320 21:46 22.01.2021
3427 Mist -4 1018 93 8000 2.57 320 21:26 22.01.2021
3428 Mist -4 1018 93 8000 2.57 320 20:55 22.01.2021
3429 Mist -2 1018 93 8000 1.54 280 20:33 22.01.2021
3430 Haze -2 1018 86 8000 1.54 330 19:54 22.01.2021
3431 Haze -2 1018 86 8000 1.54 330 19:21 22.01.2021
3432 Snow -1 1018 86 3600 2.57 290 18:55 22.01.2021
3433 Snow -1 1018 86 3600 2.57 290 18:28 22.01.2021
3434 Snow -1 1018 86 2400 5.14 310 17:58 22.01.2021
3435 Snow -1 1018 86 2400 5.14 310 17:39 22.01.2021
3436 Snow -1 1018 86 2400 5.14 310 16:59 22.01.2021
3437 Snow -1 1017 93 2400 6.17 340 16:36 22.01.2021
3438 Snow 0 1016 93 6000 5.14 350 15:59 22.01.2021
3439 Snow 0 1016 93 6000 5.14 350 15:26 22.01.2021
3440 Clouds 2 1015 80 7000 8.75 360 14:50 22.01.2021
3441 Clouds 2 1015 80 7000 8.75 360 14:28 22.01.2021
3442 Haze 5 1014 48 8000 6.17 360 13:46 22.01.2021
3443 Haze 5 1014 48 8000 6.17 360 13:27 22.01.2021
3444 Clouds 8 1013 39 8000 6.69 110 12:42 22.01.2021
3445 Clouds 8 1013 39 8000 6.69 110 12:19 22.01.2021
3446 Haze 8 1014 36 8000 3.6 20 11:42 22.01.2021
3447 Haze 8 1015 31 8000 4.63 90 10:48 22.01.2021
3448 Haze 8 1015 31 8000 4.63 90 10:29 22.01.2021
3449 Haze 7 1016 36 3000 7.2 300 09:46 22.01.2021
3450 Haze 7 1016 36 3000 7.2 300 08:59 22.01.2021
3451 Haze 7 1017 33 2000 1.54 0 08:32 22.01.2021
3452 Haze 7 1017 33 2000 1.54 0 07:59 22.01.2021
3453 Smoke 4 1017 45 1200 2.06 320 06:24 22.01.2021
3454 Smoke -3 1017 74 2000 1.03 310 02:29 22.01.2021
3455 Smoke -3 1016 74 2000 1.54 0 00:30 22.01.2021
3456 Smoke -2 1017 64 2000 1.03 330 23:50 21.01.2021
3457 Smoke -2 1017 64 2000 1.03 330 23:21 21.01.2021
3458 Smoke -2 1017 69 2000 1.03 180 22:48 21.01.2021
3459 Smoke -2 1017 69 2000 1.03 180 22:48 21.01.2021
3460 Smoke -2 1017 69 2000 1.03 180 22:18 21.01.2021
3461 Smoke -2 1017 59 2000 1.03 140 21:41 21.01.2021
3462 Smoke -2 1017 59 2000 1.03 140 21:19 21.01.2021
3463 Smoke -1 1017 55 2000 1.54 0 20:47 21.01.2021
3464 Smoke -1 1017 55 2000 1.54 0 20:22 21.01.2021
3465 Smoke -1 1017 55 2000 1.54 0 19:51 21.01.2021
3466 Smoke 0 1017 47 3000 1.03 320 19:27 21.01.2021
3467 Smoke 1 1017 44 3200 1.03 80 18:54 21.01.2021
3468 Smoke 1 1017 44 3200 1.03 80 18:54 21.01.2021
3469 Smoke 1 1017 44 3200 1.03 80 18:36 21.01.2021
3470 Smoke 1 1017 44 3200 1.03 80 18:18 21.01.2021
3471 Smoke 2 1017 44 3000 1.54 0 17:41 21.01.2021
3472 Smoke 2 1017 44 3000 1.54 0 17:18 21.01.2021
3473 Haze 4 1017 33 3600 1.54 120 16:41 21.01.2021
3474 Haze 4 1017 33 3600 1.54 120 16:23 21.01.2021
3475 Haze 5 1016 28 5000 1.03 40 15:55 21.01.2021
3476 Haze 5 1016 28 5000 1.03 40 15:28 21.01.2021
3477 Haze 5 1016 28 5000 1.03 40 14:50 21.01.2021
3478 Haze 7 1015 23 7000 1.54 0 14:31 21.01.2021
3479 Haze 7 1015 23 7000 1.54 0 13:47 21.01.2021
3480 Haze 10 1016 17 7000 3.09 0 13:26 21.01.2021
3481 Clouds 7 1013 43 10000 0.68 203 12:46 21.01.2021
3482 Haze 11 1017 16 5000 1.54 0 12:26 21.01.2021
3483 Haze 11 1017 16 5000 1.54 0 11:56 21.01.2021
3484 Haze 11 1017 16 5000 1.54 0 11:35 21.01.2021
3485 Haze 11 1017 16 5000 1.54 0 10:57 21.01.2021
3486 Haze 10 1017 17 3600 2.57 0 10:38 21.01.2021
3487 Haze 10 1017 17 3600 2.57 0 10:38 21.01.2021
3488 Haze 10 1017 17 3600 2.57 0 09:56 21.01.2021
3489 Haze 10 1019 18 3600 1.54 0 09:37 21.01.2021
3490 Haze 10 1019 18 3600 1.54 0 09:18 21.01.2021
3491 Haze 8 1020 21 3200 1.54 0 08:34 21.01.2021
3492 Haze 6 1021 24 4000 3.09 320 07:46 21.01.2021
3493 Haze 6 1021 24 4000 3.09 320 07:26 21.01.2021
3494 Haze 4 1021 28 4000 4.12 330 06:26 21.01.2021
3495 Haze 2 1021 35 5000 3.6 320 04:54 21.01.2021
3496 Clouds 1 1020 34 7000 1.54 300 02:19 21.01.2021
3497 Clouds 1 1021 37 7000 3.6 330 00:42 21.01.2021
3498 Smoke 0 1021 47 3200 1.54 350 23:44 20.01.2021
3499 Smoke 0 1021 47 3200 1.54 350 23:24 20.01.2021
3500 Smoke 0 1021 47 3200 1.54 350 22:52 20.01.2021
3501 Smoke 0 1022 47 2400 1.54 320 22:30 20.01.2021
3502 Smoke 0 1022 47 2400 1.54 320 21:54 20.01.2021
3503 Smoke 0 1022 47 2400 2.06 310 21:23 20.01.2021
3504 Smoke 2 1023 38 2800 2.57 330 20:52 20.01.2021
3505 Smoke 2 1023 38 2800 2.57 330 20:23 20.01.2021
3506 Smoke 0 1023 47 2400 2.06 340 19:48 20.01.2021
3507 Smoke 1 1023 47 1400 1.54 0 19:29 20.01.2021
3508 Smoke 2 1023 44 1400 1.03 120 18:49 20.01.2021
3509 Smoke 2 1023 44 1400 1.03 120 18:30 20.01.2021
3510 Smoke 2 1023 44 1400 1.03 120 17:52 20.01.2021
3511 Smoke 3 1023 41 1400 1.03 130 17:34 20.01.2021
3512 Smoke 5 1022 24 4000 1.54 0 16:51 20.01.2021
3513 Smoke 5 1022 24 4000 1.54 0 16:23 20.01.2021
3514 Clouds 6 1022 24 7000 1.03 220 15:45 20.01.2021
3515 Clouds 6 1022 24 7000 1.03 220 15:19 20.01.2021
3516 Clouds 9 1021 17 9000 2.57 0 14:41 20.01.2021
3517 Clouds 9 1021 17 9000 2.57 0 14:20 20.01.2021
3518 Clear 12 1021 14 10000 1.54 0 13:38 20.01.2021
3519 Clear 12 1021 14 10000 1.54 0 12:57 20.01.2021
3520 Clear 13 1021 12 10000 2.06 0 12:24 20.01.2021
3521 Clear 13 1022 13 10000 2.06 0 11:42 20.01.2021
3522 Clear 13 1022 13 10000 2.06 0 11:21 20.01.2021
3523 Clear 13 1022 13 10000 2.06 0 10:50 20.01.2021
3524 Clear 13 1022 13 10000 2.06 0 10:50 20.01.2021
3525 Clear 13 1022 13 10000 2.06 0 10:27 20.01.2021
3526 Clear 13 1022 13 10000 2.06 0 10:27 20.01.2021
3527 Clear 11 1023 15 10000 2.57 180 09:41 20.01.2021
3528 Clear 11 1023 15 10000 2.57 180 09:23 20.01.2021
3529 Clear 10 1025 17 10000 3.09 180 08:45 20.01.2021
3530 Clear 10 1025 17 10000 3.09 180 08:23 20.01.2021
3531 Clear 10 1025 17 10000 3.09 180 07:54 20.01.2021
3532 Haze 10 1025 20 10000 1.54 0 07:25 20.01.2021
3533 Clear -1 1023 47 10000 3.6 320 04:50 20.01.2021
3534 Clear 1 1026 75 10000 2.06 222 02:58 20.01.2021
3535 Smoke -3 1022 80 1400 1.03 230 00:58 20.01.2021
3536 Smoke -3 1022 80 1400 1.03 230 23:59 19.01.2021
3537 Smoke -2 1022 80 1400 1.54 0 23:41 19.01.2021
3538 Smoke -2 1022 80 1400 1.54 0 22:59 19.01.2021
3539 Smoke -1 1022 80 1400 1.03 140 22:40 19.01.2021
3540 Smoke -1 1022 80 1400 1.03 140 22:21 19.01.2021
3541 Smoke -1 1022 80 1400 1.03 140 21:55 19.01.2021
3542 Smoke 0 1022 69 1400 1.03 120 21:36 19.01.2021
3543 Smoke 1 1022 64 2000 1.54 280 20:50 19.01.2021
3544 Smoke 1 1022 64 2000 1.54 280 20:30 19.01.2021
3545 Smoke 1 1022 64 2000 1.54 280 19:56 19.01.2021
3546 Smoke 1 1022 64 2000 1.54 0 19:37 19.01.2021
3547 Smoke 1 1022 64 2000 1.54 0 19:19 19.01.2021
3548 Smoke 1 1022 64 2000 1.54 0 19:19 19.01.2021
3549 Smoke 2 1022 60 2000 1.54 110 18:39 19.01.2021
3550 Smoke 2 1022 60 2000 1.54 110 18:21 19.01.2021
3551 Smoke 3 1021 52 2000 1.54 150 17:44 19.01.2021
3552 Smoke 3 1021 52 2000 1.54 150 17:22 19.01.2021
3553 Smoke 6 1020 45 2000 2.57 30 16:41 19.01.2021
3554 Smoke 6 1020 45 2000 2.57 30 16:23 19.01.2021
3555 Smoke 5 1020 48 1400 1.03 160 15:52 19.01.2021
3556 Smoke 7 1020 42 2000 2.06 190 15:33 19.01.2021
3557 Smoke 8 1019 34 8000 2.57 340 14:49 19.01.2021
3558 Smoke 8 1019 34 8000 2.57 340 14:28 19.01.2021
3559 Smoke 8 1019 34 8000 2.57 340 13:52 19.01.2021
3560 Smoke 8 1019 34 8000 2.57 340 13:52 19.01.2021
3561 Clear 11 1019 30 7000 2.57 0 13:28 19.01.2021
3562 Clear 12 1019 26 8000 1.54 0 12:55 19.01.2021
3563 Clear 12 1019 26 8000 1.54 0 12:30 19.01.2021
3564 Clear 12 1019 26 8000 1.54 0 11:54 19.01.2021
3565 Clear 13 1020 24 8000 2.57 0 11:30 19.01.2021
3566 Clear 12 1020 28 6000 1.54 0 10:59 19.01.2021
3567 Clear 12 1020 28 6000 1.54 0 10:40 19.01.2021
3568 Clear 12 1020 28 6000 1.54 0 10:18 19.01.2021
3569 Haze 10 1022 32 5000 2.57 0 09:46 19.01.2021
3570 Haze 10 1022 32 5000 2.57 0 09:46 19.01.2021
3571 Haze 10 1022 32 5000 2.57 0 09:19 19.01.2021
3572 Haze 9 1022 37 3000 3.09 0 08:33 19.01.2021
3573 Smoke 8 1023 39 3200 1.03 0 07:51 19.01.2021
3574 Smoke 5 1023 48 3200 3.09 0 06:59 19.01.2021
3575 Smoke -1 1022 69 3600 3.09 320 04:18 19.01.2021
3576 Smoke -1 1020 74 3600 2.06 320 02:22 19.01.2021
3577 Smoke -1 1020 74 2800 1.54 160 00:37 19.01.2021
3578 Smoke -1 1021 80 2400 1.54 0 23:48 18.01.2021
3579 Smoke -1 1021 80 2400 1.54 0 23:25 18.01.2021
3580 Smoke 1 1021 69 2400 1.03 160 22:43 18.01.2021
3581 Smoke 1 1021 69 2400 1.03 160 22:21 18.01.2021
3582 Smoke 1 1021 69 2800 1.54 150 21:47 18.01.2021
3583 Smoke 1 1021 69 2800 1.54 150 21:23 18.01.2021
3584 Smoke 1 1021 69 2800 1.54 150 20:57 18.01.2021
3585 Smoke 1 1022 64 3200 1.54 340 20:34 18.01.2021
3586 Smoke 1 1022 64 3200 1.54 340 19:54 18.01.2021
3587 Smoke 2 1022 60 3200 1.54 0 19:35 18.01.2021
3588 Smoke 4 1022 52 3200 1.54 0 18:48 18.01.2021
3589 Smoke 4 1022 52 3200 1.54 0 18:27 18.01.2021
3590 Smoke 4 1021 48 3200 1.03 230 17:50 18.01.2021
3591 Smoke 4 1021 48 3200 1.03 230 17:31 18.01.2021
3592 Smoke 4 1021 48 3200 1.03 230 16:51 18.01.2021
3593 Clouds 5 1021 45 8000 1.54 130 16:32 18.01.2021
3594 Clouds 5 1021 45 8000 1.54 130 15:56 18.01.2021
3595 Clouds 6 1021 39 8000 2.57 100 15:37 18.01.2021
3596 Clouds 6 1021 39 8000 2.57 100 15:18 18.01.2021
3597 Clear 7 1020 36 10000 1.54 110 14:41 18.01.2021
3598 Clear 7 1020 36 10000 1.54 110 14:22 18.01.2021
3599 Clear 10 1021 29 10000 5.14 100 13:44 18.01.2021
3600 Clear 10 1021 29 10000 5.14 100 13:20 18.01.2021
3601 Clear 11 1021 30 10000 3.09 0 12:47 18.01.2021
3602 Clear 12 1021 28 10000 2.06 0 12:19 18.01.2021
3603 Clear 12 1021 28 10000 2.06 0 11:48 18.01.2021
3604 Clear 12 1021 28 10000 2.06 0 11:27 18.01.2021
3605 Haze 11 1022 32 10000 2.06 0 10:49 18.01.2021
3606 Haze 11 1022 32 10000 2.06 0 10:30 18.01.2021
3607 Haze 10 1022 34 9000 2.57 0 09:40 18.01.2021
3608 Haze 10 1022 34 9000 2.57 0 09:18 18.01.2021
3609 Haze 9 1023 37 8000 2.06 0 08:27 18.01.2021
3610 Haze 9 1023 37 8000 2.06 0 07:54 18.01.2021
3611 Haze 6 1024 45 4000 1.54 0 06:35 18.01.2021
3612 Haze 1 1022 60 8000 1.54 0 04:46 18.01.2021
3613 Haze 1 1022 60 8000 1.54 0 04:27 18.01.2021
3614 Haze 1 1022 60 8000 1.54 0 03:52 18.01.2021
3615 Smoke -1 1021 64 5000 1.54 0 03:28 18.01.2021
3616 Smoke 0 1020 59 5000 1.03 0 02:58 18.01.2021
3617 Smoke 0 1020 59 5000 1.03 0 02:19 18.01.2021
3618 Smoke -1 1019 64 4000 1.03 300 00:41 18.01.2021
3619 Smoke -1 1019 64 4000 1.03 300 00:41 18.01.2021
3620 Smoke -1 1019 64 4000 1.03 300 00:19 18.01.2021
3621 Smoke 0 1019 59 3200 1.54 0 23:41 17.01.2021
3622 Smoke 0 1019 59 3200 1.54 0 23:19 17.01.2021
3623 Smoke 1 1019 55 3200 1.03 270 22:24 17.01.2021
3624 Smoke 3 1019 52 2400 1.54 240 21:57 17.01.2021
3625 Smoke 3 1019 52 2400 1.54 240 21:37 17.01.2021
3626 Smoke 3 1019 52 2400 1.54 240 21:18 17.01.2021
3627 Smoke 3 1019 48 2400 1.54 90 20:40 17.01.2021
3628 Smoke 3 1019 48 1400 1.54 310 20:18 17.01.2021
3629 Smoke 5 1019 45 1400 1.03 280 19:40 17.01.2021
3630 Smoke 4 1019 45 2400 3.09 310 18:59 17.01.2021
3631 Smoke 4 1019 45 2400 1.03 300 18:31 17.01.2021
3632 Smoke 4 1019 45 2400 1.03 300 17:56 17.01.2021
3633 Smoke 4 1018 38 3600 1.54 340 17:37 17.01.2021
3634 Smoke 4 1018 38 3600 1.54 340 17:19 17.01.2021
3635 Clear 7 1018 33 6000 1.54 130 16:42 17.01.2021
3636 Clear 7 1018 33 6000 1.54 130 16:19 17.01.2021
3637 Clear 8 1017 29 8000 1.54 70 15:38 17.01.2021
3638 Clear 8 1017 29 8000 1.54 70 15:20 17.01.2021
3639 Clear 10 1016 25 8000 2.57 70 14:46 17.01.2021
3640 Clear 10 1016 25 8000 2.57 70 14:25 17.01.2021
3641 Clear 13 1016 21 8000 2.06 0 13:44 17.01.2021
3642 Clear 13 1016 21 8000 2.06 0 13:26 17.01.2021
3643 Clear 13 1016 21 8000 2.06 0 12:47 17.01.2021
3644 Clear 14 1016 19 7000 3.09 0 12:28 17.01.2021
3645 Haze 14 1016 18 5000 1.03 0 11:41 17.01.2021
3646 Haze 14 1016 18 5000 1.03 0 11:21 17.01.2021
3647 Haze 14 1017 18 4000 3.09 0 10:42 17.01.2021
3648 Haze 14 1017 18 4000 3.09 0 10:19 17.01.2021
3649 Haze 12 1018 20 4000 3.09 0 09:19 17.01.2021
3650 Haze 12 1019 24 4000 1.54 0 08:42 17.01.2021
3651 Haze 12 1019 24 4000 1.54 0 08:42 17.01.2021
3652 Haze 3 1019 44 7000 3.09 0 05:20 17.01.2021
3653 Fog -3 1018 63 6000 3.09 300 04:27 17.01.2021
3654 Clear 1 1017 47 10000 2.06 320 02:30 17.01.2021
3655 Smoke 0 1017 55 6000 1.54 340 00:38 17.01.2021
3656 Smoke 0 1017 55 6000 1.54 340 00:18 17.01.2021
3657 Smoke 2 1017 51 3400 1.03 300 23:48 16.01.2021
3658 Smoke 2 1017 51 3400 1.03 300 23:19 16.01.2021
3659 Smoke 0 1017 69 800 1.03 260 22:28 16.01.2021
3660 Smoke 0 1017 69 800 1.03 260 21:58 16.01.2021
3661 Smoke 0 1017 69 1400 1.54 310 21:24 16.01.2021
3662 Smoke 0 1017 69 1400 1.54 310 20:53 16.01.2021
3663 Smoke 2 1018 64 800 1.03 250 20:29 16.01.2021
3664 Smoke 2 1018 55 1200 1.54 0 19:50 16.01.2021
3665 Smoke 2 1018 55 1200 1.54 0 19:31 16.01.2021
3666 Smoke 2 1019 55 1400 1.54 0 18:49 16.01.2021
3667 Smoke 2 1019 55 1400 1.54 0 18:28 16.01.2021
3668 Smoke 2 1019 55 1400 1.54 0 17:59 16.01.2021
3669 Smoke 4 1019 45 2000 1.03 350 17:40 16.01.2021
3670 Smoke 4 1019 45 2000 1.03 350 17:21 16.01.2021
3671 Smoke 6 1018 39 2400 1.03 40 16:44 16.01.2021
3672 Smoke 6 1018 39 2400 1.03 40 16:20 16.01.2021
3673 Smoke 7 1018 42 2400 1.54 190 15:43 16.01.2021
3674 Smoke 8 1018 34 4000 1.03 130 14:53 16.01.2021
3675 Smoke 10 1018 27 7000 1.54 0 13:54 16.01.2021
3676 Clear 14 1018 18 9000 2.06 150 13:34 16.01.2021
3677 Clouds 14 1018 18 9000 2.06 150 12:58 16.01.2021
3678 Clear 15 1019 15 10000 1.54 0 12:37 16.01.2021
3679 Clear 15 1019 15 10000 1.54 0 12:19 16.01.2021
3680 Clear 15 1019 17 10000 2.06 0 11:45 16.01.2021
3681 Clear 15 1019 17 10000 2.06 0 11:20 16.01.2021
3682 Clear 14 1020 18 10000 2.06 0 10:42 16.01.2021
3683 Clear 14 1020 18 10000 2.06 0 09:57 16.01.2021
3684 Haze 13 1021 19 8000 1.54 0 09:22 16.01.2021
3685 Haze 10 1022 25 6000 1.54 0 08:21 16.01.2021
3686 Haze 11 1023 20 6000 2.57 300 07:18 16.01.2021
3687 Clear 2 1023 51 10000 3.09 310 05:45 16.01.2021
3688 Clear 1 1022 44 10000 3.6 330 04:38 16.01.2021
3689 Clear -1 1022 55 10000 3.09 330 02:54 16.01.2021
3690 Smoke -1 1021 69 2400 1.03 240 00:49 16.01.2021
3691 Smoke -1 1021 69 2400 1.03 240 00:25 16.01.2021
3692 Smoke 0 1021 59 4000 2.06 330 23:40 15.01.2021
3693 Smoke -1 1021 69 3000 3.09 340 22:47 15.01.2021
3694 Smoke -1 1021 74 1400 1.03 270 22:23 15.01.2021
3695 Smoke -1 1021 74 1400 1.03 0 21:46 15.01.2021
3696 Smoke 1 1021 69 1000 2.06 150 20:58 15.01.2021
3697 Smoke 1 1021 69 1000 2.06 150 20:40 15.01.2021
3698 Smoke 1 1021 69 1000 2.06 150 20:19 15.01.2021
3699 Smoke 0 1021 64 1200 2.06 330 19:40 15.01.2021
3700 Smoke 0 1021 64 1200 2.06 330 19:22 15.01.2021
3701 Smoke 2 1020 64 800 1.03 240 18:42 15.01.2021
3702 Smoke 2 1020 64 800 1.03 240 18:18 15.01.2021
3703 Smoke 2 1020 64 800 1.03 240 17:50 15.01.2021
3704 Smoke 4 1020 52 1400 1.03 180 17:22 15.01.2021
3705 Smoke 4 1020 45 3000 1.03 300 16:49 15.01.2021
3706 Smoke 4 1020 45 3000 1.03 300 16:24 15.01.2021
3707 Smoke 6 1019 33 3000 1.54 130 15:41 15.01.2021
3708 Smoke 6 1019 33 3000 1.54 130 15:21 15.01.2021
3709 Clear 10 1019 27 9000 1.54 130 14:48 15.01.2021
3710 Clear 10 1019 27 9000 1.54 130 14:27 15.01.2021
3711 Clear 13 1018 19 9000 1.54 150 13:43 15.01.2021
3712 Clear 13 1018 19 9000 1.54 150 13:23 15.01.2021
3713 Clear 13 1018 19 9000 1.54 150 12:58 15.01.2021
3714 Clear 14 1018 18 9000 2.57 0 12:33 15.01.2021
3715 Haze 14 1019 18 7000 2.06 0 11:56 15.01.2021
3716 Haze 14 1019 18 7000 2.06 0 11:36 15.01.2021
3717 Haze 14 1019 18 7000 2.06 0 10:57 15.01.2021
3718 Haze 13 1019 19 7000 1.54 0 10:39 15.01.2021
3719 Haze 13 1019 19 7000 1.54 0 10:39 15.01.2021
3720 Haze 13 1019 19 7000 1.54 0 10:19 15.01.2021
3721 Haze 12 1020 22 7000 1.54 0 09:41 15.01.2021
3722 Haze 12 1020 22 7000 1.54 0 09:20 15.01.2021
3723 Haze 10 1021 23 6000 1.03 0 08:25 15.01.2021
3724 Haze 7 1022 31 6000 2.06 0 07:41 15.01.2021
3725 Haze 7 1022 31 6000 2.06 0 07:19 15.01.2021
3726 Clouds 3 1021 41 7000 5.14 320 05:35 15.01.2021
3727 Clear 0 1020 47 7000 2.57 330 01:52 15.01.2021
3728 Smoke 0 1021 55 3600 2.57 340 23:55 14.01.2021
3729 Smoke 0 1021 55 3600 2.57 340 23:28 14.01.2021
3730 Smoke 0 1021 59 2000 2.06 320 22:48 14.01.2021
3731 Smoke 0 1021 59 2000 2.06 320 22:25 14.01.2021
3732 Smoke 0 1021 64 1400 2.57 320 21:49 14.01.2021
3733 Smoke 0 1021 64 1400 2.57 320 21:21 14.01.2021
3734 Smoke 0 1021 64 1400 2.57 320 20:52 14.01.2021
3735 Smoke 0 1021 69 1000 1.54 280 20:27 14.01.2021
3736 Smoke 1 1021 64 1000 1.54 0 19:48 14.01.2021
3737 Smoke 1 1021 64 1000 1.54 0 19:29 14.01.2021
3738 Smoke 2 1021 60 1200 1.03 140 18:55 14.01.2021
3739 Smoke 2 1021 60 1200 1.03 140 18:32 14.01.2021
3740 Smoke 2 1021 51 1200 1.54 100 17:54 14.01.2021
3741 Smoke 2 1021 51 1200 1.54 100 17:28 14.01.2021
3742 Smoke 4 1021 48 1400 1.54 170 16:50 14.01.2021
3743 Smoke 4 1021 48 1400 1.54 170 16:26 14.01.2021
3744 Smoke 6 1020 33 3600 1.54 120 15:49 14.01.2021
3745 Smoke 6 1020 33 3600 1.54 120 15:25 14.01.2021
3746 Smoke 9 1020 23 6000 1.54 0 14:41 14.01.2021
3747 Smoke 9 1020 23 6000 1.54 0 14:20 14.01.2021
3748 Smoke 9 1020 23 6000 1.54 0 13:54 14.01.2021
3749 Clouds 11 1020 20 7000 1.54 190 13:23 14.01.2021
3750 Clouds 11 1020 20 7000 1.54 190 12:56 14.01.2021
3751 Clouds 13 1020 19 7000 2.06 150 12:21 14.01.2021
3752 Clouds 13 1020 19 7000 2.06 150 11:53 14.01.2021
3753 Clear 13 1021 16 10000 1.54 0 11:25 14.01.2021
3754 Clear 13 1021 16 10000 1.54 0 10:57 14.01.2021
3755 Clear 13 1021 16 10000 1.54 0 10:38 14.01.2021
3756 Clear 13 1021 16 10000 1.54 0 10:18 14.01.2021
3757 Clouds 13 1022 16 7000 1.54 0 09:41 14.01.2021
3758 Clouds 13 1022 16 7000 1.54 0 09:19 14.01.2021
3759 Smoke 9 1024 23 7000 2.06 190 08:28 14.01.2021
3760 Smoke 9 1024 23 7000 2.06 190 07:51 14.01.2021
3761 Smoke 8 1024 21 7000 2.06 310 07:30 14.01.2021
3762 Smoke 6 1024 28 6000 1.54 310 06:30 14.01.2021
3763 Clear -1 1023 43 10000 2.57 300 04:24 14.01.2021
3764 Clear -1 1022 43 10000 1.03 250 23:57 13.01.2021
3765 Clear 2 1022 35 8000 4.12 330 23:24 13.01.2021
3766 Clear 0 1022 37 7000 2.57 330 22:43 13.01.2021
3767 Clear 0 1022 37 7000 2.57 330 22:20 13.01.2021
3768 Haze 4 1022 30 5000 4.63 330 21:42 13.01.2021
3769 Haze 4 1022 30 5000 4.63 330 21:19 13.01.2021
3770 Smoke 2 1022 38 3400 2.06 310 20:43 13.01.2021
3771 Smoke 2 1022 38 3400 2.06 310 20:21 13.01.2021
3772 Smoke 4 1023 30 3000 3.6 340 19:46 13.01.2021
3773 Smoke 4 1023 30 3000 3.6 340 19:23 13.01.2021
3774 Smoke 2 1023 38 2400 3.09 330 18:44 13.01.2021
3775 Smoke 2 1023 38 2400 3.09 330 18:22 13.01.2021
3776 Smoke 3 1022 44 1000 1.54 240 17:41 13.01.2021
3777 Smoke 3 1022 44 1000 1.54 240 17:18 13.01.2021
3778 Smoke 4 1022 33 3200 1.54 350 16:36 13.01.2021
3779 Smoke 4 1022 33 3200 1.54 350 16:18 13.01.2021
3780 Smoke 7 1021 29 3200 1.03 320 15:40 13.01.2021
3781 Clear 10 1021 25 10000 1.54 0 14:56 13.01.2021
3782 Clear 10 1021 25 10000 1.54 0 14:27 13.01.2021
3783 Clear 14 1021 10 10000 2.57 0 13:38 13.01.2021
3784 Clear 14 1021 10 10000 2.57 0 13:19 13.01.2021
3785 Clear 15 1021 10 10000 2.06 0 12:44 13.01.2021
3786 Clear 15 1021 10 10000 2.06 0 12:22 13.01.2021
3787 Clear 15 1022 12 10000 3.09 0 11:49 13.01.2021
3788 Clear 15 1022 12 10000 3.09 0 11:31 13.01.2021
3789 Clear 14 1023 12 10000 1.54 0 10:48 13.01.2021
3790 Clear 14 1023 12 10000 1.54 0 10:26 13.01.2021
3791 Haze 12 1024 16 10000 1.03 0 09:40 13.01.2021
3792 Haze 12 1024 16 10000 1.03 0 08:58 13.01.2021
3793 Clear 10 1025 16 7000 2.06 0 08:34 13.01.2021
3794 Clear 10 1025 16 7000 2.06 0 07:57 13.01.2021
3795 Haze 6 1026 22 5000 6.17 320 07:27 13.01.2021
3796 Clear 3 1026 28 7000 4.12 330 05:27 13.01.2021
3797 Clear -1 1025 34 10000 4.12 330 04:18 13.01.2021
3798 Clear -1 1025 34 10000 5.14 330 03:41 13.01.2021
3799 Clear -1 1025 34 10000 5.14 330 03:19 13.01.2021
3800 Clear 0 1024 34 10000 3.6 320 00:44 13.01.2021
3801 Clear 0 1025 61 10000 2.4 206 23:37 12.01.2021
3802 Clear -1 1024 37 8000 4.12 320 22:47 12.01.2021
3803 Clear -1 1024 37 8000 4.12 320 22:26 12.01.2021
3804 Clear -1 1024 37 8000 4.12 320 21:58 12.01.2021
3805 Smoke 1 1024 32 6000 3.09 330 21:40 12.01.2021
3806 Smoke 1 1024 32 6000 3.09 330 21:20 12.01.2021
3807 Smoke 0 1024 37 5000 3.09 330 20:44 12.01.2021
3808 Smoke 0 1024 37 5000 3.09 330 20:25 12.01.2021
3809 Smoke 3 1024 30 3200 3.09 330 19:39 12.01.2021
3810 Smoke 3 1024 30 3200 3.09 330 18:54 12.01.2021
3811 Smoke 4 1024 28 4000 2.57 310 18:25 12.01.2021
3812 Smoke 4 1024 28 3200 2.57 310 17:57 12.01.2021
3813 Smoke 4 1024 28 3200 2.57 310 17:33 12.01.2021
3814 Smoke 5 1023 26 3200 3.09 340 16:45 12.01.2021
3815 Smoke 6 1023 26 4000 1.54 360 16:27 12.01.2021
3816 Smoke 6 1023 26 4000 1.54 360 15:50 12.01.2021
3817 Smoke 6 1023 26 4000 1.54 360 15:27 12.01.2021
3818 Clear 10 1022 20 8000 2.57 0 14:50 12.01.2021
3819 Clear 10 1022 20 8000 2.57 0 14:30 12.01.2021
3820 Clear 10 1022 20 8000 2.57 0 13:56 12.01.2021
3821 Clear 13 1022 12 10000 1.54 0 13:37 12.01.2021
3822 Clear 16 1022 9 10000 1.54 0 12:38 12.01.2021
3823 Clear 14 1023 12 10000 3.09 0 11:45 12.01.2021
3824 Clear 14 1023 12 10000 3.09 0 11:45 12.01.2021
3825 Clear 14 1023 12 10000 3.09 0 11:27 12.01.2021
3826 Clear 16 1023 10 10000 1.54 0 10:44 12.01.2021
3827 Clear 16 1023 10 10000 1.54 0 10:20 12.01.2021
3828 Clear 11 1024 16 10000 1.54 0 09:52 12.01.2021
3829 Clear 11 1024 16 10000 1.54 0 09:23 12.01.2021
3830 Haze 10 1025 17 8000 1.54 0 08:27 12.01.2021
3831 Haze 6 1026 24 7000 2.06 170 07:52 12.01.2021
3832 Haze 6 1026 24 7000 2.06 170 07:33 12.01.2021
3833 Clear 1 1025 37 7000 1.54 0 05:46 12.01.2021
3834 Clear -3 1024 50 10000 2.57 0 03:46 12.01.2021
3835 Clear -3 1024 50 10000 2.57 0 03:22 12.01.2021
3836 Clear -2 1024 43 10000 4.12 340 02:18 12.01.2021
3837 Clear -3 1024 46 9000 2.57 300 00:35 12.01.2021
3838 Smoke -3 1024 63 5000 1.03 300 23:43 11.01.2021
3839 Smoke -3 1024 63 5000 1.03 300 23:20 11.01.2021
3840 Clear 0 1025 59 10000 2.21 211 22:46 11.01.2021
3841 Smoke -3 1024 63 3200 1.54 340 22:28 11.01.2021
3842 Smoke -3 1024 63 3200 1.54 340 21:46 11.01.2021
3843 Smoke -3 1024 63 3200 1.54 340 21:25 11.01.2021
3844 Smoke -3 1024 63 3200 1.54 340 20:59 11.01.2021
3845 Smoke -2 1024 64 3600 1.54 330 20:39 11.01.2021
3846 Smoke -2 1024 64 3600 1.54 330 20:39 11.01.2021
3847 Smoke -3 1024 74 800 1.54 310 20:20 11.01.2021
3848 Smoke -2 1024 69 800 1.54 160 19:49 11.01.2021
3849 Smoke -2 1024 69 800 1.54 160 19:22 11.01.2021
3850 Smoke -2 1024 59 1000 1.54 330 18:43 11.01.2021
3851 Smoke -2 1024 59 1000 1.54 330 18:23 11.01.2021
3852 Smoke -2 1024 59 1400 1.03 280 17:42 11.01.2021
3853 Smoke 0 1024 51 2800 1.54 300 17:24 11.01.2021
3854 Smoke 1 1023 40 2800 1.54 0 16:48 11.01.2021
3855 Smoke 1 1023 40 2800 1.54 0 16:29 11.01.2021
3856 Smoke 1 1023 40 2800 1.54 0 15:57 11.01.2021
3857 Clear 3 1023 32 3200 1.03 170 15:36 11.01.2021
3858 Clear 3 1023 32 3200 1.03 170 14:58 11.01.2021
3859 Clear 5 1022 28 7000 3.09 110 14:36 11.01.2021
3860 Clear 10 1022 18 6000 1.54 0 13:48 11.01.2021
3861 Clear 10 1022 18 6000 1.54 0 13:22 11.01.2021
3862 Haze 10 1022 18 7000 2.06 0 12:44 11.01.2021
3863 Haze 10 1022 18 7000 2.06 0 12:25 11.01.2021
3864 Haze 10 1022 18 7000 2.06 0 12:25 11.01.2021
3865 Haze 10 1022 17 9000 1.54 0 11:47 11.01.2021
3866 Haze 10 1022 17 9000 1.54 0 10:59 11.01.2021
3867 Haze 9 1023 17 9000 1.54 0 10:39 11.01.2021
3868 Haze 8 1024 18 9000 1.54 0 09:59 11.01.2021
3869 Haze 8 1024 18 9000 1.54 0 09:36 11.01.2021
3870 Haze 8 1024 18 9000 1.54 0 09:36 11.01.2021
3871 Haze 8 1024 18 9000 1.54 0 08:52 11.01.2021
3872 Haze 6 1025 24 5000 2.06 0 08:34 11.01.2021
3873 Haze 3 1025 32 5000 2.06 0 07:48 11.01.2021
3874 Haze 3 1025 32 5000 2.06 0 07:25 11.01.2021
3875 Haze 3 1025 32 5000 2.06 0 06:49 11.01.2021
3876 Clear -4 1022 46 10000 2.06 310 02:31 11.01.2021
3877 Clear -4 1022 46 7000 2.06 320 00:57 11.01.2021
3878 Haze -3 1022 46 6000 1.54 300 23:48 10.01.2021
3879 Haze -3 1022 46 6000 1.54 300 22:59 10.01.2021
3880 Haze -2 1022 43 4000 3.09 330 22:40 10.01.2021
3881 Haze -2 1022 43 4000 3.09 330 22:19 10.01.2021
3882 Smoke -2 1022 40 4000 3.09 320 21:40 10.01.2021
3883 Smoke -2 1022 40 4000 3.09 320 21:19 10.01.2021
3884 Smoke -4 1022 58 2800 3.09 310 20:49 10.01.2021
3885 Smoke -4 1022 58 2800 3.09 310 20:27 10.01.2021
3886 Smoke -1 1022 55 2400 1.54 310 19:40 10.01.2021
3887 Smoke -1 1022 55 2400 1.54 310 19:22 10.01.2021
3888 Smoke -1 1022 55 2400 1.54 310 19:22 10.01.2021
3889 Smoke -1 1022 51 2400 2.06 330 18:45 10.01.2021
3890 Smoke -1 1022 51 2400 2.06 330 18:20 10.01.2021
3891 Smoke 0 1022 51 1400 1.03 190 17:26 10.01.2021
3892 Smoke 0 1022 51 1400 1.03 190 16:51 10.01.2021
3893 Smoke 1 1022 40 2800 1.54 120 16:30 10.01.2021
3894 Smoke 2 1022 41 2800 1.54 160 15:41 10.01.2021
3895 Smoke 4 1022 26 4000 1.03 100 15:22 10.01.2021
3896 Smoke 6 1021 21 4000 1.54 0 14:41 10.01.2021
3897 Smoke 6 1021 21 4000 1.54 0 14:22 10.01.2021
3898 Smoke 6 1021 21 4000 1.54 0 13:46 10.01.2021
3899 Clear 7 1021 21 7000 3.09 0 13:27 10.01.2021
3900 Clear 11 1022 9 10000 1.54 0 12:59 10.01.2021
3901 Clear 11 1022 9 10000 1.54 0 12:40 10.01.2021
3902 Clear 11 1022 9 10000 1.54 0 11:56 10.01.2021
3903 Clear 11 1022 10 10000 1.54 0 11:21 10.01.2021
3904 Clear 11 1022 10 10000 1.54 0 10:52 10.01.2021
3905 Haze 10 1023 10 10000 2.06 320 10:24 10.01.2021
3906 Haze 10 1023 10 10000 2.06 320 09:46 10.01.2021
3907 Haze 9 1024 13 10000 2.06 310 08:49 10.01.2021
3908 Haze 7 1025 19 8000 3.09 330 08:18 10.01.2021
3909 Haze 3 1025 28 6000 4.12 320 06:52 10.01.2021
3910 Haze 2 1025 32 6000 3.6 320 06:18 10.01.2021
3911 Clear -2 1024 43 7000 3.6 330 05:28 10.01.2021
3912 Clear -4 1023 50 8000 4.12 340 02:38 10.01.2021
3913 Smoke -3 1023 46 6000 1.54 280 00:25 10.01.2021
3914 Smoke -3 1023 50 6000 4.12 330 23:42 09.01.2021
3915 Smoke -3 1023 50 6000 4.12 330 23:22 09.01.2021
3916 Smoke -4 1023 54 5000 3.09 330 22:25 09.01.2021
3917 Smoke -4 1023 54 5000 3.09 330 21:59 09.01.2021
3918 Smoke -3 1023 54 5000 3.09 330 21:39 09.01.2021
3919 Smoke -3 1023 54 5000 3.09 330 21:21 09.01.2021
3920 Smoke -3 1023 54 3600 3.09 340 20:56 09.01.2021
3921 Smoke -3 1023 54 3600 3.09 340 20:36 09.01.2021
3922 Smoke -2 1023 54 2600 2.57 330 19:40 09.01.2021
3923 Smoke -2 1023 54 2600 2.57 330 19:21 09.01.2021
3924 Smoke -2 1023 54 2800 2.57 330 18:38 09.01.2021
3925 Smoke -2 1023 54 2800 2.57 330 18:19 09.01.2021
3926 Smoke -1 1023 47 3000 2.57 330 17:42 09.01.2021
3927 Smoke -1 1023 47 3000 2.57 330 17:22 09.01.2021
3928 Smoke 1 1022 44 3200 1.54 310 16:29 09.01.2021
3929 Smoke 2 1022 44 3200 1.54 170 15:42 09.01.2021
3930 Smoke 2 1022 44 3200 1.54 170 15:24 09.01.2021
3931 Clear 4 1022 26 9000 2.06 0 14:37 09.01.2021
3932 Clear 4 1022 26 9000 2.06 0 14:19 09.01.2021
3933 Clear 7 1022 19 10000 2.57 0 13:46 09.01.2021
3934 Clear 7 1022 19 10000 2.57 0 13:27 09.01.2021
3935 Clear 8 1022 18 10000 3.09 0 12:46 09.01.2021
3936 Clear 8 1022 18 10000 3.09 0 12:21 09.01.2021
3937 Clear 7 1022 19 10000 2.57 180 11:41 09.01.2021
3938 Clear 7 1022 19 10000 2.57 180 11:23 09.01.2021
3939 Clear 7 1022 19 10000 2.57 180 10:50 09.01.2021
3940 Clear 7 1023 26 10000 2.06 0 10:26 09.01.2021
3941 Haze 6 1024 31 8000 1.03 0 09:45 09.01.2021
3942 Haze 6 1024 31 8000 1.03 0 09:21 09.01.2021
3943 Haze 5 1025 33 8000 1.54 0 08:25 09.01.2021
3944 Haze 4 1025 30 9000 1.54 0 06:55 09.01.2021
3945 Haze 1 1025 51 7000 4.12 320 06:36 09.01.2021
3946 Clear -5 1024 58 10000 2.06 310 04:40 09.01.2021
3947 Clear -4 1023 68 8000 1.03 0 02:47 09.01.2021
3948 Clear -4 1023 68 8000 1.03 0 02:28 09.01.2021
3949 Clear -3 1022 59 10000 1.54 300 01:34 09.01.2021
3950 Clear -4 1022 63 10000 2.57 330 00:34 09.01.2021
3951 Haze -3 1022 74 6000 1.54 300 23:49 08.01.2021
3952 Smoke -3 1022 74 5000 1.54 310 22:49 08.01.2021
3953 Smoke -3 1022 74 5000 1.54 310 21:57 08.01.2021
3954 Smoke -3 1022 68 4000 2.57 330 21:27 08.01.2021
3955 Smoke -2 1022 69 2800 1.54 310 20:41 08.01.2021
3956 Smoke -1 1021 74 2800 1.54 270 19:59 08.01.2021
3957 Smoke -1 1021 74 2800 1.54 270 19:25 08.01.2021
3958 Smoke -1 1021 74 2800 1.54 270 18:59 08.01.2021
3959 Smoke -1 1021 69 2800 1.54 0 18:33 08.01.2021
3960 Smoke -1 1021 69 2800 1.54 0 17:55 08.01.2021
3961 Smoke 0 1021 69 3200 1.54 0 17:25 08.01.2021
3962 Haze 1 1020 60 4000 1.03 100 16:49 08.01.2021
3963 Haze 1 1020 60 4000 1.03 100 15:55 08.01.2021
3964 Haze 2 1020 55 4000 1.54 100 15:33 08.01.2021
3965 Clear 3 1019 48 9000 1.54 0 14:40 08.01.2021
3966 Clear 3 1019 48 9000 1.54 0 14:18 08.01.2021
3967 Clear 6 1019 31 10000 1.54 0 13:22 08.01.2021
3968 Clear 6 1019 31 10000 1.54 0 12:52 08.01.2021
3969 Clear 7 1019 29 10000 1.54 0 12:22 08.01.2021
3970 Clear 7 1019 33 10000 1.54 0 11:50 08.01.2021
3971 Clear 7 1019 33 10000 1.54 0 11:30 08.01.2021
3972 Clear 7 1019 33 10000 1.54 0 10:57 08.01.2021
3973 Clear 6 1019 36 10000 2.57 160 10:38 08.01.2021
3974 Clear 6 1019 36 10000 2.57 160 09:53 08.01.2021
3975 Clear 6 1019 39 10000 2.57 0 09:35 08.01.2021
3976 Clouds 2 1024 66 10000 0.46 202 08:42 08.01.2021
3977 Clouds 3 1020 60 6000 1.54 0 07:29 08.01.2021
3978 Haze 3 1020 60 3000 1.54 0 06:43 08.01.2021
3979 Clouds -1 1017 86 10000 2.06 120 00:35 08.01.2021
3980 Clouds 0 1018 80 10000 2.57 190 23:42 07.01.2021
3981 Snow -1 1018 93 10000 3.09 150 22:55 07.01.2021
3982 Snow -1 1018 93 10000 3.09 150 22:36 07.01.2021
3983 Snow 0 1018 86 9000 4.12 200 21:50 07.01.2021
3984 Snow 0 1018 86 9000 4.12 200 21:30 07.01.2021
3985 Snow 0 1018 86 9000 4.12 200 20:52 07.01.2021
3986 Snow 0 1018 86 10000 4.12 150 20:34 07.01.2021
3987 Snow 1 1018 75 10000 5.14 50 19:47 07.01.2021
3988 Snow 1 1018 75 10000 5.14 50 19:24 07.01.2021
3989 Clouds 3 1018 56 10000 5.14 360 18:46 07.01.2021
3990 Clouds 3 1018 56 10000 5.14 360 18:20 07.01.2021
3991 Smoke 2 1017 75 2600 2.06 180 17:34 07.01.2021
3992 Haze 3 1017 65 4000 1.54 170 16:57 07.01.2021
3993 Haze 3 1017 65 4000 1.54 170 16:32 07.01.2021
3994 Haze 2 1017 69 7000 3.09 350 15:52 07.01.2021
3995 Haze 2 1017 69 7000 3.09 350 15:30 07.01.2021
3996 Clouds 4 1017 60 8000 5.66 20 14:32 07.01.2021
3997 Clouds 4 1017 60 8000 5.66 20 13:58 07.01.2021
3998 Clouds 5 1017 56 8000 4.12 10 13:30 07.01.2021
3999 Clouds 5 1017 56 8000 4.12 10 12:55 07.01.2021
4000 Clouds 7 1018 48 6000 5.1 360 12:23 07.01.2021
4001 Clouds 7 1018 48 6000 5.1 360 11:41 07.01.2021
4002 Clouds 7 1018 48 6000 5.1 360 11:23 07.01.2021
4003 Haze 7 1018 45 4000 8.7 360 10:37 07.01.2021
4004 Haze 7 1018 45 4000 8.7 360 10:18 07.01.2021
4005 Haze 6 1019 45 5000 3.1 0 09:41 07.01.2021
4006 Smoke 5 1020 44 6000 3.1 0 08:40 07.01.2021
4007 Smoke 5 1020 44 6000 3.1 0 08:21 07.01.2021
4008 Smoke 5 1021 44 6000 1.5 0 07:42 07.01.2021
4009 Smoke 2 1022 59 2400 2.6 320 06:46 07.01.2021
4010 Smoke -3 1020 86 2400 1 320 02:18 07.01.2021
4011 Smoke -2 1021 86 2000 1.5 0 00:22 07.01.2021
4012 Smoke -1 1022 86 1200 1 320 23:25 06.01.2021
4013 Smoke -1 1022 86 1200 1 320 22:23 06.01.2021
4014 Smoke -1 1022 80 1200 1 200 21:41 06.01.2021
4015 Smoke -1 1022 80 1200 1 200 21:22 06.01.2021
4016 Smoke -1 1022 80 1200 1 200 21:22 06.01.2021
4017 Smoke -1 1022 80 2000 1 190 20:42 06.01.2021
4018 Smoke -1 1022 80 2000 1 190 20:22 06.01.2021
4019 Smoke 0 1022 79 2000 1 310 19:47 06.01.2021
4020 Smoke 0 1022 79 2000 1 310 19:27 06.01.2021
4021 Smoke 1 1022 69 2400 1 0 18:45 06.01.2021
4022 Smoke 0 1022 79 2800 1 0 18:27 06.01.2021
4023 Smoke 0 1022 79 2800 1 0 17:45 06.01.2021
4024 Smoke 0 1022 79 2800 1 0 17:26 06.01.2021
4025 Smoke 2 1021 55 2800 1 170 16:57 06.01.2021
4026 Haze 2 1021 55 5000 1 0 16:21 06.01.2021
4027 Haze 2 1021 55 6000 2.1 0 15:58 06.01.2021
4028 Haze 2 1021 55 6000 2.1 0 15:33 06.01.2021
4029 Clear 5 1020 41 9000 1.5 60 14:57 06.01.2021
4030 Clear 5 1020 41 9000 1.5 60 14:30 06.01.2021
4031 Clear 7 1020 36 9000 2.1 0 13:51 06.01.2021
4032 Clear 7 1020 36 9000 2.1 0 13:25 06.01.2021
4033 Clear 8 1020 33 10000 3.6 70 12:54 06.01.2021
4034 Clear 8 1020 33 10000 3.6 70 12:30 06.01.2021
4035 Clear 9 1020 26 10000 2.1 0 11:44 06.01.2021
4036 Clear 9 1020 26 10000 2.1 0 11:21 06.01.2021
4037 Clear 9 1020 26 10000 2.1 0 10:31 06.01.2021
4038 Clear 8 1021 31 10000 2.1 0 09:52 06.01.2021
4039 Clear 8 1021 31 10000 2.1 0 09:22 06.01.2021
4040 Clear 7 1022 33 10000 4.1 220 08:41 06.01.2021
4041 Clear 7 1022 33 10000 4.1 220 08:18 06.01.2021
4042 Haze 5 1022 41 10000 6.7 210 07:27 06.01.2021
4043 Clear 1 1021 64 7000 1.5 0 05:52 06.01.2021
4044 Clear 1 1021 64 7000 1.5 0 04:41 06.01.2021
4045 Clear -2 1019 74 6000 2.6 340 02:47 06.01.2021
4046 Clear -2 1019 74 6000 2.6 340 02:26 06.01.2021
4047 Mist -4 1017 92 5000 1.5 190 01:34 06.01.2021
4048 Clear -1 1019 80 5000 2.1 350 23:39 05.01.2021
4049 Haze 1 1019 74 4000 2.6 340 22:51 05.01.2021
4050 Haze 1 1019 74 4000 2.6 340 22:32 05.01.2021
4051 Clear -1 1019 80 5000 2.1 350 21:58 05.01.2021
4052 Clear -1 1019 80 5000 2.1 350 21:18 05.01.2021
4053 Haze 0 1019 88 4000 2.1 320 20:29 05.01.2021
4054 Haze 1 1019 80 4000 1.5 340 19:45 05.01.2021
4055 Haze 1 1019 80 4000 1.5 340 19:24 05.01.2021
4056 Smoke 2 1019 80 3200 1 10 18:46 05.01.2021
4057 Smoke 2 1019 80 3200 1 10 18:28 05.01.2021
4058 Smoke 1 1019 86 2400 1.5 360 17:53 05.01.2021
4059 Mist 1 1018 86 6000 2.1 250 17:31 05.01.2021
4060 Smoke 3 1019 83 2800 1.5 200 16:54 05.01.2021
4061 Smoke 3 1019 83 2800 1.5 200 16:54 05.01.2021
4062 Haze 3 1019 81 3600 1.5 120 16:23 05.01.2021
4063 Haze 3 1019 81 3600 1.5 120 15:58 05.01.2021
4064 Haze 3 1019 81 3600 1.5 120 15:34 05.01.2021
4065 Haze 4 1019 81 3200 1.5 110 14:47 05.01.2021
4066 Haze 4 1019 80 4000 2.1 120 13:55 05.01.2021
4067 Clear 6 1019 80 6000 2.6 0 13:36 05.01.2021
4068 Haze 8 1019 72 4500 2.1 0 12:52 05.01.2021
4069 Haze 8 1019 60 4500 2.1 0 12:29 05.01.2021
4070 Haze 7 1020 65 4500 2.1 0 11:53 05.01.2021
4071 Haze 8 1020 61 7000 3.1 0 11:29 05.01.2021
4072 Haze 8 1020 61 7000 3.1 0 11:28 05.01.2021
4073 -273 0 0 0 0 0 11:27 05.01.2021
4074 Haze 8 1020 61 7000 3.1 0 11:26 05.01.2021
4075 Mist 7 1021 65 3000 2.6 0 10:44 05.01.2021
4076 Mist 7 1021 65 3000 2.6 0 10:18 05.01.2021
4077 Mist 7 1021 59 2400 3.1 0 09:41 05.01.2021
4078 Mist 3 1022 86 1600 3.6 90 08:45 05.01.2021
4079 Mist 3 1022 86 1600 3.6 90 08:19 05.01.2021
4080 Fog 1 1023 75 600 1 0 05:32 05.01.2021
4081 Mist 0 1021 86 5000 2.6 330 02:58 05.01.2021
4082 Mist 0 1022 86 2400 1 70 00:23 05.01.2021
4083 Mist 0 1022 86 2600 1 120 23:41 04.01.2021
4084 Mist 0 1022 85 2600 1 120 23:21 04.01.2021
4085 Mist 1 1023 85 2800 1.5 150 22:45 04.01.2021
4086 Mist 0 1023 83 2400 1 270 21:58 04.01.2021
4087 Mist 0 1023 83 2400 1 270 21:40 04.01.2021
4088 Mist 0 1023 83 2400 1 270 21:40 04.01.2021
4089 Snow 0 1024 81 1000 2.1 90 20:59 04.01.2021
4090 Snow 0 1024 81 1000 2.1 90 20:37 04.01.2021
4091 Snow 0 1024 80 1000 2.1 90 20:18 04.01.2021
4092 Fog 0 1024 80 800 1 0 19:41 04.01.2021
4093 Fog 0 1024 80 800 1 0 19:19 04.01.2021
4094 Snow 0 1025 76 800 1 270 18:43 04.01.2021
4095 Snow 1 1025 75 2400 1.5 170 17:49 04.01.2021
4096 Snow 1 1025 77 2400 1.5 170 17:28 04.01.2021
4097 Mist 2 1024 93 2800 3.1 150 16:58 04.01.2021
4098 Mist 2 1024 93 2800 3.1 150 16:39 04.01.2021
4099 Mist 2 1024 93 2800 3.1 150 16:21 04.01.2021
4100 Rain 1 1024 74 5000 1 320 15:47 04.01.2021
4101 Mist 3 1024 68 7000 1.5 0 14:55 04.01.2021
4102 Mist 3 1024 86 7000 2.6 230 13:57 04.01.2021
4103 Mist 3 1024 86 7000 2.6 230 13:57 04.01.2021
4104 Mist 3 1024 86 7000 2.6 230 13:35 04.01.2021
4105 Mist 3 1025 86 6000 6.2 170 12:55 04.01.2021
4106 Mist 3 1025 86 6000 6.2 170 12:27 04.01.2021
4107 Haze 7 1023 48 9000 7.2 130 11:40 04.01.2021
4108 Haze 7 1023 48 9000 7.2 130 11:18 04.01.2021
4109 Smoke 8 1023 45 7000 5.7 130 10:44 04.01.2021
4110 Smoke 8 1023 45 7000 5.7 130 10:22 04.01.2021
4111 Smoke 6 1024 38 1200 2.6 170 09:36 04.01.2021
4112 Smoke 6 1024 38 1200 2.6 170 09:18 04.01.2021
4113 Smoke 6 1024 38 1200 2.6 170 09:18 04.01.2021
4114 Smoke 5 1024 38 800 2.1 150 08:22 04.01.2021
4115 Smoke 5 1025 35 1000 3.1 0 07:47 04.01.2021
4116 Smoke 2 1024 43 4000 2.6 350 05:42 04.01.2021
4117 Smoke 2 1024 43 4000 2.6 350 05:20 04.01.2021
4118 Smoke -2 1022 74 1200 2.1 100 02:26 04.01.2021
4119 Smoke -2 1022 68 1200 1.5 350 00:24 04.01.2021
4120 Smoke -2 1022 63 2400 1 340 23:37 03.01.2021
4121 Smoke -2 1022 68 1200 1.5 110 22:58 03.01.2021
4122 Smoke -2 1022 68 1200 1.5 110 22:39 03.01.2021
4123 Smoke -2 1022 68 1200 1.5 110 22:21 03.01.2021
4124 Smoke -2 1022 68 1000 2.6 140 21:40 03.01.2021
4125 Smoke -2 1022 68 1000 2.6 140 21:22 03.01.2021
4126 Smoke -3 1022 68 2000 1.5 290 20:40 03.01.2021
4127 Smoke -3 1022 68 2000 1.5 290 20:18 03.01.2021
4128 Smoke -2 1022 58 2000 1 280 19:44 03.01.2021
4129 Smoke 0 1021 63 2000 1.5 170 19:24 03.01.2021
4130 Smoke 0 1021 63 2000 1.5 170 18:45 03.01.2021
4131 Smoke 0 1021 63 2000 1.5 170 18:23 03.01.2021
4132 Haze -2 1020 68 8000 0.71 244 17:51 03.01.2021
4133 Smoke 1 1021 43 2400 1.5 0 17:27 03.01.2021
4134 Smoke 1 1021 43 2400 1.5 0 16:54 03.01.2021
4135 Smoke 1 1021 43 2400 1.5 0 16:36 03.01.2021
4136 Smoke 1 1021 43 2400 1.5 0 16:18 03.01.2021
4137 Smoke 3 1021 37 3000 2.1 140 15:39 03.01.2021
4138 Clear 4 1020 32 7000 1 0 14:58 03.01.2021
4139 Clear 4 1020 32 7000 1 0 14:33 03.01.2021
4140 Haze 8 1020 20 8000 2.6 0 13:48 03.01.2021
4141 Haze 8 1020 20 8000 2.6 0 13:24 03.01.2021
4142 Haze 8 1020 20 8000 2.6 0 13:24 03.01.2021
4143 Haze 9 1020 16 9000 3.1 0 12:51 03.01.2021
4144 Haze 10 1021 15 9000 1 0 11:44 03.01.2021
4145 Clear 10 1021 18 7000 1.5 0 11:25 03.01.2021
4146 Clear 10 1021 18 7000 1.5 0 10:56 03.01.2021
4147 Clear 10 1021 18 7000 1.5 0 10:31 03.01.2021
4148 Haze 8 1022 19 7000 2.1 0 09:42 03.01.2021
4149 Haze 8 1022 19 7000 2.1 0 09:23 03.01.2021
4150 Haze 5 1023 27 4000 3.1 0 07:58 03.01.2021
4151 Haze -2 1023 54 7000 2.6 310 05:59 03.01.2021
4152 Clear -3 1022 45 8000 2.1 290 02:29 03.01.2021
4153 Smoke -5 1022 57 6000 3.1 310 01:48 03.01.2021
4154 Smoke -3 1022 58 5000 1 330 00:21 03.01.2021
4155 Smoke -3 1022 58 1400 1 310 23:30 02.01.2021
4156 Smoke -5 1022 79 800 1 340 22:58 02.01.2021
4157 Smoke -5 1022 79 800 1 340 22:32 02.01.2021
4158 Smoke -5 1022 79 800 1 340 21:52 02.01.2021
4159 Smoke -2 1023 58 1200 1.5 320 21:32 02.01.2021
4160 Smoke -4 1023 68 1000 2.1 340 20:56 02.01.2021
4161 Smoke -4 1023 68 1000 2.1 340 20:38 02.01.2021
4162 Smoke -4 1023 68 1000 2.1 340 20:19 02.01.2021
4163 Smoke -3 1024 68 800 1.5 200 19:21 02.01.2021
4164 Smoke -2 1024 58 1200 1.5 0 18:58 02.01.2021
4165 Smoke -2 1024 58 1200 1.5 0 18:40 02.01.2021
4166 Smoke -2 1024 58 1200 1.5 0 18:20 02.01.2021
4167 Smoke -2 1024 54 1400 1 260 17:45 02.01.2021
4168 Smoke -2 1024 54 1400 1 260 16:59 02.01.2021
4169 Smoke 2 1023 37 3000 2.1 110 16:23 02.01.2021
4170 Smoke 2 1023 37 3000 2.1 110 15:54 02.01.2021
4171 Smoke 2 1023 37 3000 2.1 110 15:33 02.01.2021
4172 Smoke 1 1023 40 3200 2.1 0 14:58 02.01.2021
4173 Smoke 4 1023 29 4000 1.5 0 14:36 02.01.2021
4174 Haze 6 1023 26 7000 1.5 0 13:54 02.01.2021
4175 Haze 7 1023 24 8000 0.8 224 13:26 02.01.2021
4176 Haze 9 1023 21 7000 1 0 12:52 02.01.2021
4177 Haze 9 1023 21 7000 1 0 12:31 02.01.2021
4178 Haze 9 1023 21 6000 1.5 0 11:45 02.01.2021
4179 Haze 9 1023 21 4000 2.6 0 11:22 02.01.2021
4180 Haze 8 1024 20 4000 1 0 10:46 02.01.2021
4181 Haze 8 1024 20 4000 1 0 10:28 02.01.2021
4182 Haze 9 1024 19 4000 2.1 0 09:45 02.01.2021
4183 Haze 9 1025 16 7000 1.5 0 09:23 02.01.2021
4184 Haze 7 1026 20 7000 3.1 0 08:49 02.01.2021
4185 Haze 7 1026 20 7000 3.1 0 08:24 02.01.2021
4186 Haze 4 1027 29 6000 3.1 0 07:43 02.01.2021
4187 Haze 4 1027 29 6000 3.1 0 07:20 02.01.2021
4188 Haze 1 1027 37 6000 4.1 320 06:28 02.01.2021
4189 Clear -6 1025 57 9000 3.6 320 04:44 02.01.2021
4190 Smoke -6 1024 73 5000 2.6 340 00:56 02.01.2021
4191 Smoke -6 1024 73 1400 2.1 340 00:35 02.01.2021
4192 Smoke -3 1024 63 1200 1 280 23:49 01.01.2021
4193 Smoke -3 1024 63 1200 1 280 23:20 01.01.2021
4194 Smoke -3 1024 63 800 1.5 340 22:47 01.01.2021
4195 Smoke -3 1024 63 800 1.5 340 22:22 01.01.2021
4196 Smoke -4 1024 73 600 1.5 240 21:44 01.01.2021
4197 Smoke -4 1024 73 600 1.5 240 21:22 01.01.2021
4198 Smoke -4 1024 73 800 1 0 20:52 01.01.2021
4199 Smoke -4 1024 73 800 1 0 20:20 01.01.2021
4200 Smoke -2 1024 58 800 1 0 19:43 01.01.2021
4201 Smoke -2 1024 58 800 1 0 19:24 01.01.2021
4202 Smoke -2 1024 58 1000 1.5 0 18:57 01.01.2021
4203 Smoke -2 1024 58 1000 1.5 0 18:39 01.01.2021
4204 Smoke -2 1024 58 1000 1.5 0 17:59 01.01.2021
4205 Smoke -1 1024 54 1000 1 200 17:41 01.01.2021
4206 Smoke -1 1024 54 1000 1 200 17:18 01.01.2021
4207 Smoke -1 1023 46 2800 2.1 0 16:37 01.01.2021
4208 Smoke 2 1023 31 2800 1.5 0 15:46 01.01.2021
4209 Clear 4 1023 25 7000 1.5 0 14:57 01.01.2021
4210 Clear 4 1023 25 7000 1.5 0 14:39 01.01.2021
4211 Clear 7 1023 16 8000 2.1 0 13:52 01.01.2021
4212 Clear 7 1023 16 8000 2.1 0 13:33 01.01.2021
4213 Clear 8 1023 16 8000 3.1 0 12:47 01.01.2021
4214 Clear 8 1023 16 8000 3.1 0 12:20 01.01.2021
4215 Haze 8 1023 16 7000 1.5 0 11:39 01.01.2021
4216 Haze 8 1023 16 7000 1.5 0 11:18 01.01.2021
4217 Haze 7 1024 22 7000 1 0 10:43 01.01.2021
4218 Haze 7 1024 22 7000 1 0 10:43 01.01.2021
4219 Haze 7 1025 22 7000 3.1 0 09:50 01.01.2021
4220 Haze 7 1025 22 7000 3.1 0 09:22 01.01.2021
4221 Smoke 4 1026 25 7000 2.6 0 08:30 01.01.2021
4222 Clear -6 1025 57 7000 3.6 330 04:54 01.01.2021
4223 Clear -6 1025 57 7000 3.6 330 04:30 01.01.2021
4224 Smoke -4 1024 53 4000 2.6 330 01:39 01.01.2021
4225 Smoke -6 1024 79 1000 1.5 310 00:31 01.01.2021
4226 Smoke -5 1024 79 1000 1 210 23:37 31.12.2020
4227 Smoke -5 1024 79 1000 1 210 23:19 31.12.2020
4228 Smoke -3 1024 58 1000 1.5 330 22:41 31.12.2020
4229 Smoke -3 1024 58 1000 1.5 330 22:21 31.12.2020
4230 Smoke -3 1024 58 1000 1.5 330 21:47 31.12.2020
4231 Smoke -6 1025 73 1000 2.1 350 21:29 31.12.2020
4232 Smoke -4 1025 68 1000 1 0 20:54 31.12.2020
4233 Smoke -4 1025 68 1000 1 0 20:21 31.12.2020
4234 Smoke -3 1025 63 1000 1.5 120 19:48 31.12.2020
4235 Smoke -3 1025 63 1000 1.5 120 19:30 31.12.2020
4236 Smoke -3 1025 53 1000 1.5 160 18:50 31.12.2020
4237 Smoke -3 1025 53 1000 1.5 160 18:24 31.12.2020
4238 Smoke -2 1025 50 1400 1.5 0 17:45 31.12.2020
4239 Smoke -2 1025 50 1400 1.5 0 17:24 31.12.2020
4240 Smoke 1 1024 37 1200 2.6 0 16:44 31.12.2020
4241 Smoke 1 1024 37 1200 2.6 0 16:25 31.12.2020
4242 Smoke 2 1024 34 4000 2.6 210 15:54 31.12.2020
4243 Smoke 2 1024 34 4000 2.6 210 15:36 31.12.2020
4244 Smoke 2 1024 34 4000 2.6 210 15:18 31.12.2020
4245 Haze 3 1024 23 8000 1.5 0 14:39 31.12.2020
4246 Haze 3 1024 23 8000 1.5 0 14:39 31.12.2020
4247 Haze 3 1024 23 8000 1.5 0 14:21 31.12.2020
4248 Haze 5 1024 18 9000 1 0 13:42 31.12.2020
4249 Haze 5 1024 18 9000 1 0 13:24 31.12.2020
4250 Haze 8 1024 15 9000 1.5 0 12:55 31.12.2020
4251 Haze 8 1024 15 9000 1.5 0 12:36 31.12.2020
4252 Haze 9 1024 14 8000 1 0 11:53 31.12.2020
4253 Haze 9 1024 14 8000 1 0 11:32 31.12.2020
4254 Haze 7 1025 19 7000 2.1 0 10:50 31.12.2020
4255 Haze 7 1025 19 7000 2.1 0 10:30 31.12.2020
4256 Haze 6 1026 22 7000 3.1 0 09:58 31.12.2020
4257 Haze 6 1026 22 7000 3.1 0 09:39 31.12.2020
4258 Haze 6 1026 22 7000 3.1 0 09:20 31.12.2020
4259 Haze 5 1027 23 8000 2.6 0 08:45 31.12.2020
4260 Haze 5 1027 23 8000 2.6 0 08:27 31.12.2020
4261 Haze 3 1027 27 7000 3.1 0 07:51 31.12.2020
4262 Smoke 1 1027 40 5000 3.6 320 06:46 31.12.2020
4263 Smoke -2 1027 50 7000 3.6 320 05:29 31.12.2020
4264 Clear -5 1025 57 6000 3.6 330 02:59 31.12.2020
4265 Clear -5 1025 57 6000 3.6 330 02:26 31.12.2020
4266 Smoke -4 1025 62 3000 1.5 300 01:49 31.12.2020
4267 Smoke -4 1025 62 3000 1.5 300 01:28 31.12.2020
4268 Smoke -5 1025 73 2500 2.1 320 00:51 31.12.2020
4269 Smoke -5 1025 79 1000 1.5 330 23:55 30.12.2020
4270 Smoke -5 1025 79 1000 1.5 330 23:20 30.12.2020
4271 Smoke -5 1025 79 800 1 270 22:52 30.12.2020
4272 Smoke -5 1025 79 800 1 270 22:32 30.12.2020
4273 Smoke -4 1025 73 900 1 0 21:48 30.12.2020
4274 Smoke -4 1025 73 900 1 0 21:25 30.12.2020
4275 Smoke -4 1025 73 900 1 0 20:52 30.12.2020
4276 Smoke -4 1025 73 800 0.94 288 20:24 30.12.2020
4277 Smoke -2 1025 68 800 1 180 19:42 30.12.2020
4278 Smoke -2 1025 68 800 1 180 19:23 30.12.2020
4279 Smoke -2 1025 63 800 1.5 150 18:56 30.12.2020
4280 Smoke -2 1025 63 800 1.5 150 18:37 30.12.2020
4281 Smoke -2 1025 63 800 1.5 150 18:18 30.12.2020
4282 Smoke -1 1025 54 800 0.5 0 17:41 30.12.2020
4283 Smoke -1 1025 54 800 0.5 0 17:20 30.12.2020
4284 Smoke -1 1025 54 800 0.5 0 17:20 30.12.2020
4285 Smoke 0 1024 65 1000 0.5 0 16:37 30.12.2020
4286 Smoke 2 1024 40 1000 1.5 190 15:49 30.12.2020
4287 Smoke 2 1024 40 1000 1.5 190 15:26 30.12.2020
4288 Smoke 5 1023 23 4800 1.5 0 14:45 30.12.2020
4289 Smoke 5 1023 23 4800 1.5 0 14:26 30.12.2020
4290 Smoke 5 1023 23 4800 1.5 120 13:53 30.12.2020
4291 Clear 9 1023 15 9000 2.6 0 12:49 30.12.2020
4292 Clear 9 1023 15 9000 2.6 0 12:24 30.12.2020
4293 Clear 9 1023 15 10000 3.1 0 11:39 30.12.2020
4294 Clear 9 1023 15 10000 3.1 0 11:20 30.12.2020
4295 Clear 8 1023 17 9000 3.1 180 10:55 30.12.2020
4296 Clear 8 1023 17 9000 3.1 180 10:36 30.12.2020
4297 Clear 7 1025 19 8000 2.1 230 09:53 30.12.2020
4298 Clear 7 1025 19 8000 2.1 230 09:35 30.12.2020
4299 Haze 6 1025 22 8000 2.6 0 08:35 30.12.2020
4300 Haze 4 1025 23 8000 2.6 290 07:32 30.12.2020
4301 Haze 1 1025 40 8000 3.1 320 06:54 30.12.2020
4302 Haze 1 1025 40 8000 3.1 320 06:35 30.12.2020
4303 Haze -2 1025 50 8000 2.6 320 05:46 30.12.2020
4304 Haze -2 1025 50 8000 2.6 320 05:27 30.12.2020
4305 Clear -6 1023 57 8000 1 280 03:28 30.12.2020
4306 Clear -6 1023 57 8000 1 280 02:46 30.12.2020
4307 Clear -6 1023 57 7000 2.6 320 02:27 30.12.2020
4308 Smoke -5 1023 53 7000 3.1 330 01:34 30.12.2020
4309 Smoke -5 1023 57 5000 3.1 330 00:51 30.12.2020
4310 Smoke -5 1023 57 5000 3.1 330 00:32 30.12.2020
4311 Smoke -5 1023 62 1800 2.6 320 23:57 29.12.2020
4312 Smoke -5 1023 62 1800 2.6 320 23:39 29.12.2020
4313 Smoke -5 1023 62 1800 2.6 320 23:18 29.12.2020
4314 Smoke -5 1023 79 500 1 0 22:41 29.12.2020
4315 Smoke -5 1023 79 500 1 0 22:23 29.12.2020
4316 Smoke -4 1023 73 500 0.5 0 21:47 29.12.2020
4317 Smoke -3 1023 68 800 1 0 21:29 29.12.2020
4318 Smoke -3 1023 68 500 0.5 0 20:48 29.12.2020
4319 Smoke -3 1023 68 500 0.5 0 20:26 29.12.2020
4320 Smoke -2 1023 63 500 1 0 19:56 29.12.2020
4321 Smoke -2 1023 63 500 1 0 19:37 29.12.2020
4322 Smoke -2 1023 63 500 1 0 19:18 29.12.2020
4323 Smoke -2 1023 50 800 0.5 0 18:39 29.12.2020
4324 Smoke -2 1023 50 800 0.5 0 18:19 29.12.2020
4325 Smoke 0 1022 68 1500 0.5 0 17:38 29.12.2020
4326 Smoke 0 1022 68 1500 0.5 0 17:19 29.12.2020
4327 Smoke 2 1022 31 2400 1.59 213 16:36 29.12.2020
4328 Smoke 1 1022 37 3600 1 0 15:59 29.12.2020
4329 Clear 2 1021 27 7000 1.5 0 15:36 29.12.2020
4330 Clear 3 1021 25 10000 2.6 80 14:58 29.12.2020
4331 Clear 3 1021 25 10000 2.6 80 14:36 29.12.2020
4332 Clear 3 1021 25 10000 2.6 80 14:18 29.12.2020
4333 Clear 7 1021 17 10000 2.1 0 13:39 29.12.2020
4334 Clear 7 1021 17 10000 2.1 0 13:18 29.12.2020
4335 Clear 7 1021 16 10000 3.6 180 12:37 29.12.2020
4336 Clear 7 1021 16 10000 3.6 180 12:19 29.12.2020
4337 Clear 7 1021 16 10000 4.1 210 11:52 29.12.2020
4338 Clear 7 1021 16 10000 4.1 210 11:31 29.12.2020
4339 Clear 7 1022 16 10000 3.1 210 10:23 29.12.2020
4340 Clear 5 1022 17 10000 4.6 250 09:48 29.12.2020
4341 Clear 5 1022 17 10000 4.6 250 09:20 29.12.2020
4342 Clear 4 1023 18 10000 4.1 270 08:52 29.12.2020
4343 Clear 4 1023 18 10000 4.1 270 08:19 29.12.2020
4344 Clear 3 1023 19 10000 4.1 300 07:26 29.12.2020
4345 Clear 0 1023 71 9000 4.6 320 06:26 29.12.2020
4346 Clear -4 1022 32 10000 2.6 340 03:32 29.12.2020
4347 Clear -5 1022 41 10000 2.6 340 00:44 29.12.2020
4348 Clear -4 1022 38 10000 2.6 340 23:55 28.12.2020
4349 Clear -4 1022 38 10000 2.6 340 23:33 28.12.2020
4350 Clear -4 1022 41 10000 3.6 350 22:24 28.12.2020
4351 Clear -5 1022 45 8000 2.6 330 21:44 28.12.2020
4352 Clear -5 1022 45 8000 2.6 330 21:24 28.12.2020
4353 Clear -3 1022 35 10000 3.1 340 20:40 28.12.2020
4354 Clear -3 1022 35 10000 3.1 340 20:22 28.12.2020
4355 Smoke -3 1022 45 3200 2.6 330 19:47 28.12.2020
4356 Smoke -3 1022 45 3200 2.6 330 19:23 28.12.2020
4357 Smoke -2 1022 42 3200 2.1 250 18:51 28.12.2020
4358 Smoke -2 1022 42 3200 2.1 250 18:28 28.12.2020
4359 Smoke -2 1022 36 4000 1.5 260 17:44 28.12.2020
4360 Smoke -2 1022 36 4000 1.5 260 17:25 28.12.2020
4361 Clear -1 1022 30 10000 3.1 270 16:43 28.12.2020
4362 Clear -1 1022 30 10000 3.1 270 16:23 28.12.2020
4363 Clear 1 1021 22 10000 7.2 20 15:46 28.12.2020
4364 Clear 2 1020 22 10000 6.7 40 14:57 28.12.2020
4365 Clouds 3 1019 23 10000 5.7 10 13:56 28.12.2020
4366 Clouds 3 1019 23 10000 5.7 10 13:35 28.12.2020
4367 Clouds 5 1019 23 10000 5.1 360 12:51 28.12.2020
4368 Clouds 5 1019 23 10000 5.1 360 12:23 28.12.2020
4369 Clouds 5 1018 21 10000 5.1 330 11:47 28.12.2020
4370 Clouds 5 1018 21 10000 5.1 330 11:24 28.12.2020
4371 Clear 7 1018 16 10000 1.5 0 10:49 28.12.2020
4372 Clear 7 1018 16 10000 1.5 0 10:27 28.12.2020
4373 Clear 5 1019 20 10000 3.1 0 09:46 28.12.2020
4374 Clear 5 1019 20 10000 3.1 0 09:20 28.12.2020
4375 Clear 3 1020 23 10000 7.2 210 07:40 28.12.2020
4376 Clear 2 1020 29 9000 6.7 200 06:50 28.12.2020
4377 Clear -4 1018 58 10000 4.1 340 04:37 28.12.2020
4378 Clear -4 1017 62 10000 3.1 330 02:44 28.12.2020
4379 Clear -3 1017 63 9000 3.6 350 00:53 28.12.2020
4380 Clear -3 1017 63 9000 3.6 350 00:53 28.12.2020
4381 Clear -3 1017 63 9000 2.6 340 23:49 27.12.2020
4382 Clear -4 1017 68 9000 3.1 330 23:19 27.12.2020
4383 Smoke -4 1017 68 5000 3.1 330 21:58 27.12.2020
4384 Smoke -4 1017 68 5000 3.1 330 21:26 27.12.2020
4385 Smoke -2 1017 58 4000 3.1 350 20:47 27.12.2020
4386 Smoke -2 1018 58 3600 3.1 340 19:46 27.12.2020
4387 Smoke -2 1018 58 3600 3.1 340 19:22 27.12.2020
4388 Smoke -3 1018 68 1600 2.1 330 18:42 27.12.2020
4389 Smoke -3 1018 68 1600 2.1 330 18:19 27.12.2020
4390 Smoke -1 1018 63 1600 2.6 340 17:47 27.12.2020
4391 Smoke -1 1018 63 1600 2.6 340 17:27 27.12.2020
4392 Smoke -1 1018 63 4000 2.6 330 16:37 27.12.2020
4393 Smoke -1 1018 63 4000 2.6 350 15:56 27.12.2020
4394 Clouds -1 1018 63 9000 3.1 300 14:59 27.12.2020
4395 Clouds -1 1018 63 9000 3.1 300 14:41 27.12.2020
4396 Clouds 2 1018 43 10000 3.1 0 14:19 27.12.2020
4397 Clouds 2 1018 43 10000 3.1 0 13:22 27.12.2020
4398 Clouds 3 1018 37 10000 4.1 350 12:43 27.12.2020
4399 Clouds 4 1018 41 10000 6.2 330 11:56 27.12.2020
4400 Clouds 4 1018 41 10000 6.2 330 11:36 27.12.2020
4401 Clouds 5 1018 41 10000 4.1 290 10:52 27.12.2020
4402 Haze 3 1019 47 9000 3.1 310 10:24 27.12.2020
4403 Haze 3 1019 47 9000 3.1 310 09:47 27.12.2020
4404 Mist 1 1019 50 8000 3.1 0 08:39 27.12.2020
4405 Mist 1 1019 50 8000 3.1 0 08:20 27.12.2020
4406 Mist 0 1019 87 7000 3.1 0 07:26 27.12.2020
4407 Snow -3 1018 86 7000 2.1 0 05:44 27.12.2020
4408 Clouds -3 1016 86 10000 3.6 240 03:59 27.12.2020
4409 Snow -3 1016 86 10000 3.6 240 03:19 27.12.2020
4410 Snow -3 1017 79 5000 6.7 60 01:34 27.12.2020
4411 Mist -3 1017 79 5000 6.7 60 01:34 27.12.2020
4412 Snow -3 1017 86 800 10.3 30 00:20 27.12.2020
4413 Snow 0 1017 79 7000 4.6 200 23:27 26.12.2020
4414 Snow 0 1016 79 8000 5.1 220 22:50 26.12.2020
4415 Clouds 0 1017 81 8000 5.1 230 22:21 26.12.2020
4416 Clouds 0 1017 81 8000 5.1 230 21:59 26.12.2020
4417 Clouds 0 1017 81 8000 5.1 230 21:40 26.12.2020
4418 Clouds 0 1017 83 8000 5.1 230 21:22 26.12.2020
4419 Clouds 1 1017 47 8000 5.1 230 20:41 26.12.2020
4420 Snow 1 1017 47 8000 5.1 230 20:19 26.12.2020
4421 Snow 1 1017 50 9000 7.7 210 19:27 26.12.2020
4422 Snow 0 1017 87 9000 6.2 200 18:52 26.12.2020
4423 Clouds 3 1016 69 8000 7.7 200 18:28 26.12.2020
4424 Clouds 3 1016 74 8000 6.2 140 17:41 26.12.2020
4425 Clouds 3 1016 74 8000 6.2 140 17:21 26.12.2020
4426 Clouds 2 1015 89 8000 7.7 120 16:36 26.12.2020
4427 Snow 1 1016 88 1000 2.6 0 15:27 26.12.2020
4428 Snow 1 1016 88 1000 2.6 0 14:54 26.12.2020
4429 Snow 1 1016 84 1000 2.6 0 14:28 26.12.2020
4430 Snow 1 1017 84 1200 1 0 13:51 26.12.2020
4431 Snow 1 1017 84 1200 1 0 13:31 26.12.2020
4432 Mist 1 1018 80 2000 3.6 260 12:48 26.12.2020
4433 Snow 1 1018 69 2000 3.6 260 12:30 26.12.2020
4434 Snow 1 1018 69 2000 3.6 260 12:30 26.12.2020
4435 Clouds 3 1018 74 3600 3.1 250 11:51 26.12.2020
4436 Clouds 4 1018 60 7000 4.1 240 11:22 26.12.2020
4437 Clouds 6 1018 48 7000 5.1 190 10:55 26.12.2020
4438 Clouds 6 1018 48 7000 5.1 190 10:27 26.12.2020
4439 Haze 7 1018 42 4000 2.1 300 09:51 26.12.2020
4440 Haze 7 1018 42 4000 2.1 300 09:29 26.12.2020
4441 Haze 6 1019 45 4000 3.1 330 08:35 26.12.2020
4442 Mist 5 1020 52 1800 2.1 310 07:53 26.12.2020
4443 Smoke 3 1020 64 1800 1 0 06:31 26.12.2020
4444 Smoke 0 1019 80 2000 1 220 03:46 26.12.2020
4445 Smoke 0 1019 82 2800 1 0 01:44 26.12.2020
4446 Smoke 0 1019 78 2800 1.5 100 00:27 26.12.2020
4447 Smoke 1 1020 74 2800 1.5 110 23:41 25.12.2020
4448 Smoke 1 1020 74 2800 1.5 110 23:23 25.12.2020
4449 Smoke 1 1020 74 4000 1.5 0 22:45 25.12.2020
4450 Smoke 2 1020 69 5000 1.5 220 21:58 25.12.2020
4451 Smoke 2 1020 69 5000 1.5 220 21:58 25.12.2020
4452 Haze 4 1019 73 3600 0.8 281 21:34 25.12.2020
4453 Smoke 2 1021 64 4000 1.5 290 20:56 25.12.2020
4454 Smoke 2 1021 64 4000 1.5 290 20:37 25.12.2020
4455 Clouds 1 1021 69 5000 1.5 180 19:48 25.12.2020
4456 Clouds 1 1021 69 5000 1.5 180 19:21 25.12.2020
4457 Clouds 3 1021 59 8000 2.6 140 18:39 25.12.2020
4458 Clouds 5 1021 48 9000 2.6 340 17:47 25.12.2020
4459 Clouds 5 1021 48 9000 2.6 340 17:28 25.12.2020
4460 Clouds 4 1021 51 8000 2.6 0 16:33 25.12.2020
4461 Clouds 5 1021 44 9000 1.5 0 15:59 25.12.2020
4462 Clouds 5 1021 44 9000 1.5 0 15:36 25.12.2020
4463 Clouds 5 1020 52 8000 2.6 0 14:54 25.12.2020
4464 Clouds 5 1020 52 8000 2.6 0 14:29 25.12.2020
4465 Clouds 6 1020 45 9000 6.2 360 13:45 25.12.2020
4466 Clouds 6 1020 45 9000 6.2 360 13:26 25.12.2020
4467 Clouds 7 1021 42 8000 3.1 0 12:45 25.12.2020
4468 Haze 7 1021 39 6000 4.1 350 11:58 25.12.2020
4469 Haze 7 1021 39 6000 4.1 350 11:40 25.12.2020
4470 Haze 7 1021 39 6000 4.1 350 11:19 25.12.2020
4471 Smoke 8 1022 39 3000 1 0 10:27 25.12.2020
4472 Haze 6 1022 45 1200 3.1 0 09:43 25.12.2020
4473 Smoke 5 1024 41 3200 1 0 08:48 25.12.2020
4474 Smoke 5 1024 41 3200 1 0 08:25 25.12.2020
4475 Haze 2 1024 55 3200 2.6 330 06:47 25.12.2020
4476 Smoke -1 1022 63 5000 2.1 320 04:29 25.12.2020
4477 Smoke -2 1022 79 1200 1.5 310 01:42 25.12.2020
4478 Smoke -2 1022 79 1200 1.5 0 00:18 25.12.2020
4479 Smoke -1 1022 80 1200 1.5 0 23:23 24.12.2020
4480 Smoke 0 1022 72 1200 1.5 220 22:51 24.12.2020
4481 Smoke -1 1022 80 2200 1.5 320 22:22 24.12.2020
4482 Smoke 0 1022 73 2200 2.6 150 21:36 24.12.2020
4483 Smoke 1 1022 64 2200 1.5 330 20:42 24.12.2020
4484 Smoke 2 1022 64 2400 1.5 130 18:52 24.12.2020
4485 Smoke 2 1022 64 2400 1.5 130 18:19 24.12.2020
4486 Smoke 3 1022 51 5000 1 90 17:37 24.12.2020
4487 Smoke 4 1021 44 5000 1 150 16:45 24.12.2020
4488 Smoke 4 1021 44 5000 1 150 16:22 24.12.2020
4489 Smoke 5 1021 41 6000 1.5 140 15:42 24.12.2020
4490 Smoke 5 1021 41 6000 1.5 140 15:19 24.12.2020
4491 Clear 6 1020 35 10000 1.5 0 14:49 24.12.2020
4492 Clear 6 1020 35 10000 1.5 0 14:24 24.12.2020
4493 Rain 7 1020 33 10000 3.1 0 13:43 24.12.2020
4494 Rain 7 1020 33 10000 3.1 0 13:25 24.12.2020
4495 Clear 9 1020 26 10000 1 0 12:44 24.12.2020
4496 Clear 9 1020 26 10000 1 0 12:21 24.12.2020
4497 Clear 9 1020 26 10000 2.6 0 11:47 24.12.2020
4498 Clear 9 1020 26 10000 2.6 0 11:21 24.12.2020
4499 Clear 9 1021 29 10000 3.1 0 10:53 24.12.2020
4500 Haze 9 1019 34 5000 0.34 345 10:34 24.12.2020
4501 Haze 8 1022 31 9000 1.5 0 09:52 24.12.2020
4502 Haze 8 1022 31 9000 1.5 0 09:52 24.12.2020
4503 Haze 8 1022 31 9000 1.5 0 09:25 24.12.2020
4504 Smoke 8 1023 33 8000 1 0 08:25 24.12.2020
4505 Smoke 4 1024 44 7000 2.1 0 07:41 24.12.2020
4506 Smoke 4 1024 44 7000 2.1 0 07:18 24.12.2020
4507 Clear 0 1023 58 8000 3.6 330 05:36 24.12.2020
4508 Smoke -1 1021 58 5000 2.6 330 01:57 24.12.2020
4509 Smoke -1 1021 58 5000 2.6 330 01:57 24.12.2020
4510 Smoke -1 1021 58 5000 2.6 330 01:57 24.12.2020
4511 Smoke -1 1021 58 5000 2.6 330 01:36 24.12.2020
4512 Smoke -1 1021 58 5000 2.6 330 01:18 24.12.2020
4513 Smoke -1 1021 58 5000 2.6 330 01:18 24.12.2020
4514 Smoke -1 1021 68 3000 1 300 00:21 24.12.2020
4515 Smoke -3 1021 79 2000 2.6 330 23:46 23.12.2020
4516 Smoke -3 1021 79 2000 2.6 330 23:26 23.12.2020
4517 Haze 0 1020 75 8000 0.77 270 22:55 23.12.2020
4518 Haze 0 1020 75 8000 0.77 270 22:30 23.12.2020
4519 Haze -1 1020 74 9000 1.5 240 21:52 23.12.2020
4520 Smoke 0 1021 75 2400 1 90 21:27 23.12.2020
4521 Smoke 0 1021 75 2400 1 90 20:54 23.12.2020
4522 Smoke 0 1021 75 2400 1 90 20:36 23.12.2020
4523 Smoke 0 1021 75 2400 1 90 20:18 23.12.2020
4524 Smoke 0 1022 75 2400 1.5 210 19:39 23.12.2020
4525 Smoke 0 1022 75 2400 1.5 210 19:20 23.12.2020
4526 Smoke 1 1021 64 3000 1 180 18:47 23.12.2020
4527 Smoke 1 1021 64 3000 1 180 18:22 23.12.2020
4528 Haze 1 1020 74 8000 1.5 210 17:39 23.12.2020
4529 Mist 0 1020 74 8000 1.5 200 17:39 23.12.2020
4530 Smoke 3 1021 51 3000 1 150 17:39 23.12.2020
4531 Smoke 3 1021 51 3000 1 150 17:20 23.12.2020
4532 Smoke 3 1021 51 3000 1 150 16:47 23.12.2020
4533 Smoke 3 1021 51 3000 1 150 16:29 23.12.2020
4534 Smoke 3 1021 51 1800 1 140 15:54 23.12.2020
4535 Smoke 3 1021 51 1800 1 140 15:29 23.12.2020
4536 Clouds 6 1020 35 9000 2.1 50 14:59 23.12.2020
4537 Clouds 6 1020 35 9000 2.1 50 14:39 23.12.2020
4538 Clouds 6 1020 35 9000 2.1 50 14:20 23.12.2020
4539 Clouds 7 1020 33 9000 2.6 70 13:43 23.12.2020
4540 Clouds 7 1020 33 9000 2.6 70 13:19 23.12.2020
4541 Clouds 9 1020 34 9000 1.5 0 12:52 23.12.2020
4542 Clouds 9 1020 34 9000 1.5 0 12:28 23.12.2020
4543 Clouds 10 1020 27 9000 1.5 0 11:49 23.12.2020
4544 Clouds 10 1020 27 9000 1.5 0 11:20 23.12.2020
4545 Clouds 9 1021 31 9000 2.1 0 10:50 23.12.2020
4546 Clouds 9 1021 31 9000 2.1 0 10:31 23.12.2020
4547 Haze 9 1022 31 9000 1.5 0 09:36 23.12.2020
4548 Haze 7 1023 33 8000 1.5 170 08:50 23.12.2020
4549 Haze 7 1023 33 8000 1.5 170 08:21 23.12.2020
4550 Haze 4 1022 60 4400 0.51 210 07:37 23.12.2020
4551 Haze 4 1024 44 7000 2.6 320 06:41 23.12.2020
4552 Clouds 1 1023 59 7000 2.6 330 05:41 23.12.2020
4553 Clear -3 1022 68 10000 3.1 310 04:59 23.12.2020
4554 Clear -2 1021 68 8000 3.1 330 01:31 23.12.2020
4555 Clear -2 1021 68 7000 2.6 330 00:25 23.12.2020
4556 Smoke -2 1021 68 5000 2.1 320 23:36 22.12.2020
4557 Smoke -2 1021 68 5000 2.1 320 23:18 22.12.2020
4558 Smoke 0 1021 79 5000 2.6 340 22:41 22.12.2020
4559 Smoke 0 1021 79 5000 2.6 340 22:20 22.12.2020
4560 Smoke -1 1021 86 1400 0.71 258 21:45 22.12.2020
4561 Smoke -1 1021 86 1400 0.7 261 21:20 22.12.2020
4562 Smoke 1 1022 69 3000 1 320 20:49 22.12.2020
4563 Smoke -1 1022 80 1200 1.5 330 20:25 22.12.2020
4564 Smoke -1 1022 80 1400 2.1 320 19:49 22.12.2020
4565 Smoke -1 1022 80 1400 2.1 320 19:26 22.12.2020
4566 Smoke -1 1022 80 2000 1.5 340 18:56 22.12.2020
4567 Smoke -1 1022 80 2500 0.84 251 18:36 22.12.2020
4568 Smoke -1 1022 80 2500 0.95 256 18:18 22.12.2020
4569 Smoke 1 1022 74 3000 0.95 256 17:36 22.12.2020
4570 Smoke 1 1022 74 3000 1.02 259 17:18 22.12.2020
4571 Smoke 2 1022 64 3200 1 90 16:46 22.12.2020
4572 Smoke 2 1022 64 3200 1 90 16:19 22.12.2020
4573 Smoke 3 1022 64 3000 1 210 15:45 22.12.2020
4574 Smoke 3 1022 64 3000 1 210 15:27 22.12.2020
4575 Clear 5 1022 52 8000 1.5 0 14:46 22.12.2020
4576 Clear 5 1022 52 8000 1.5 0 14:28 22.12.2020
4577 Clear 8 1022 39 8000 2.6 0 13:55 22.12.2020
4578 Clear 8 1022 39 8000 2.6 0 13:36 22.12.2020
4579 Clear 8 1022 39 8000 2.6 0 13:18 22.12.2020
4580 Clear 8 1022 39 7000 3.1 350 12:42 22.12.2020
4581 Clear 8 1022 39 7000 3.1 350 12:22 22.12.2020
4582 Clear 9 1022 34 7000 2.6 340 11:55 22.12.2020
4583 Clear 9 1022 34 7000 2.6 340 11:37 22.12.2020
4584 Clear 9 1022 34 7000 2.6 340 11:18 22.12.2020
4585 Clear 10 1023 31 7000 2.1 0 10:45 22.12.2020
4586 Clear 10 1023 31 7000 2.1 0 10:23 22.12.2020
4587 Clear 8 1024 33 7000 2.6 0 09:49 22.12.2020
4588 Clear 8 1024 33 7000 2.6 0 09:21 22.12.2020
4589 Clear 6 1026 38 7000 2.6 0 08:48 22.12.2020
4590 Clear 6 1026 38 7000 2.6 0 08:27 22.12.2020
4591 Smoke 7 1026 42 4000 2.1 0 07:47 22.12.2020
4592 Smoke 3 1026 64 4000 1.5 320 06:38 22.12.2020
4593 Smoke 1 1026 74 5000 2.1 310 05:39 22.12.2020
4594 Smoke -2 1024 92 2000 1 160 02:39 22.12.2020
4595 Smoke -1 1024 86 3000 1 0 00:44 22.12.2020
4596 Smoke -2 1024 79 4000 2.1 320 23:52 21.12.2020
4597 Smoke -2 1024 79 4000 2.1 320 23:24 21.12.2020
4598 Smoke -2 1023 86 1800 2.1 330 22:37 21.12.2020
4599 Smoke -2 1023 86 1800 2.1 330 22:19 21.12.2020
4600 Smoke -2 1023 92 800 1.5 300 21:48 21.12.2020
4601 Smoke -2 1023 92 800 1.5 300 21:30 21.12.2020
4602 Smoke 0 1024 81 800 1.5 290 20:46 21.12.2020
4603 Smoke 0 1024 80 800 1.5 290 20:25 21.12.2020
4604 Smoke 0 1024 80 800 1 0 19:55 21.12.2020
4605 Smoke 0 1024 80 800 1 0 19:37 21.12.2020
4606 Smoke 0 1024 78 800 1 0 19:18 21.12.2020
4607 Smoke 1 1024 86 1000 0.59 261 18:49 21.12.2020
4608 Smoke 2 1024 80 600 1 0 18:31 21.12.2020
4609 Smoke 2 1024 80 600 1 0 17:43 21.12.2020
4610 Smoke 3 1024 74 1000 1 130 17:24 21.12.2020
4611 Smoke 3 1024 74 1000 1 130 16:46 21.12.2020
4612 Smoke 3 1024 74 1000 1 130 16:25 21.12.2020
4613 Smoke 4 1023 73 3000 1 190 15:45 21.12.2020
4614 Clear 6 1023 56 8000 2.6 80 15:26 21.12.2020
4615 Clear 6 1023 56 8000 2.6 80 14:56 21.12.2020
4616 Clear 6 1023 56 8000 2.6 80 14:56 21.12.2020
4617 Clear 6 1023 56 8000 2.6 80 14:20 21.12.2020
4618 Clear 8 1022 52 8000 2.6 90 13:42 21.12.2020
4619 Clear 8 1022 52 8000 2.6 90 13:22 21.12.2020
4620 Clouds 9 1023 49 6000 2.6 70 12:43 21.12.2020
4621 Clouds 9 1023 49 6000 2.6 70 12:24 21.12.2020
4622 Smoke 9 1023 58 6000 2.6 70 11:43 21.12.2020
4623 Smoke 9 1023 57 6000 2.6 70 11:23 21.12.2020
4624 Haze 11 1022 50 8000 0.22 195 10:58 21.12.2020
4625 Haze 11 1022 50 8000 0.22 195 10:40 21.12.2020
4626 Smoke 7 1024 70 1800 2.6 80 10:18 21.12.2020
4627 Smoke 7 1024 70 1800 2.6 80 09:42 21.12.2020
4628 Smoke 7 1024 70 1800 2.6 80 09:24 21.12.2020
4629 Smoke 6 1025 75 1800 2.6 100 08:47 21.12.2020
4630 Smoke 7 1026 65 3000 1.5 280 07:37 21.12.2020
4631 Smoke 3 1025 93 1600 1.5 280 05:50 21.12.2020
4632 Smoke 1 1024 90 1000 1.5 270 04:31 21.12.2020
4633 Smoke 2 1024 84 4000 1.5 0 00:51 21.12.2020
4634 Smoke 1 1024 86 1200 2.1 0 00:30 21.12.2020
4635 Smoke 1 1024 86 1200 1.5 0 23:24 20.12.2020
4636 Smoke 1 1024 80 1600 1.5 290 22:56 20.12.2020
4637 Smoke 1 1024 80 1600 1.5 290 22:38 20.12.2020
4638 Smoke 1 1024 80 1600 1.5 290 22:19 20.12.2020
4639 Smoke 1 1025 80 1400 1 50 21:39 20.12.2020
4640 Smoke 1 1025 80 1400 1 50 21:20 20.12.2020
4641 Smoke 1 1025 80 1400 1 50 20:47 20.12.2020
4642 Smoke 1 1025 80 1000 1 110 20:22 20.12.2020
4643 Smoke 1 1025 80 1200 1.5 120 19:45 20.12.2020
4644 Smoke 3 1025 69 1600 1 0 19:24 20.12.2020
4645 Smoke 2 1025 74 1800 1 0 18:56 20.12.2020
4646 Smoke 2 1025 74 1800 1 0 18:37 20.12.2020
4647 Smoke 2 1025 69 2200 1.5 90 17:57 20.12.2020
4648 Smoke 2 1025 69 2200 1.5 90 17:39 20.12.2020
4649 Smoke 2 1025 69 2200 1.5 90 17:18 20.12.2020
4650 Smoke 3 1026 69 3600 1.5 140 16:44 20.12.2020
4651 Smoke 3 1026 69 3600 1.5 140 16:24 20.12.2020
4652 Clouds 3 1025 64 7000 1.5 0 15:41 20.12.2020
4653 Clouds 3 1025 64 7000 1.5 0 15:22 20.12.2020
4654 Clouds 4 1025 51 7000 2.6 320 14:48 20.12.2020
4655 Clouds 6 1025 48 9000 3.6 330 14:29 20.12.2020
4656 Clouds 6 1025 48 9000 3.6 330 13:44 20.12.2020
4657 Clouds 6 1025 48 9000 3.6 330 13:23 20.12.2020
4658 Clouds 7 1025 45 8000 4.1 360 12:51 20.12.2020
4659 Smoke 8 1025 49 6000 4.1 340 12:26 20.12.2020
4660 Smoke 8 1025 49 6000 4.1 340 11:52 20.12.2020
4661 Smoke 8 1025 49 6000 4.1 340 11:28 20.12.2020
4662 Smoke 8 1026 45 5000 3.6 340 10:50 20.12.2020
4663 Smoke 8 1026 45 5000 3.6 340 10:22 20.12.2020
4664 Smoke 7 1027 52 1400 2.1 160 09:57 20.12.2020
4665 Smoke 6 1027 56 1400 3.6 150 09:37 20.12.2020
4666 Smoke 6 1027 56 1400 3.6 150 09:19 20.12.2020
4667 Smoke 6 1027 56 1400 3.6 150 08:48 20.12.2020
4668 Smoke 6 1027 56 1400 3.6 150 08:29 20.12.2020
4669 Smoke 5 1028 56 2200 3.1 300 07:22 20.12.2020
4670 Smoke -2 1026 86 600 1.5 0 04:42 20.12.2020
4671 Smoke -1 1026 86 600 1 0 01:30 20.12.2020
4672 Smoke -1 1026 86 600 2.1 0 00:20 20.12.2020
4673 Smoke -2 1026 92 600 1.5 0 23:18 19.12.2020
4674 Smoke -1 1026 86 600 1.5 0 22:44 19.12.2020
4675 Smoke -1 1026 86 800 1.5 0 22:25 19.12.2020
4676 Smoke -1 1026 86 800 2.1 310 21:58 19.12.2020
4677 Smoke -1 1026 86 800 2.1 310 21:58 19.12.2020
4678 Smoke -1 1026 86 800 2.1 310 21:39 19.12.2020
4679 Smoke -1 1026 86 800 2.1 310 21:21 19.12.2020
4680 Smoke 0 1026 82 1000 1.5 0 20:39 19.12.2020
4681 Smoke 0 1026 82 1000 1.5 0 20:18 19.12.2020
4682 Smoke 0 1026 82 1000 1.5 0 19:49 19.12.2020
4683 Smoke 0 1026 81 1200 1.5 0 19:24 19.12.2020
4684 Smoke 1 1026 69 2000 1 350 18:34 19.12.2020
4685 Smoke 1 1026 69 2000 1 350 17:58 19.12.2020
4686 Mist 0 1024 79 5000 1.5 210 17:40 19.12.2020
4687 Smoke 2 1025 69 2400 1.5 110 17:20 19.12.2020
4688 Smoke 2 1025 69 2400 1.5 110 16:42 19.12.2020
4689 Smoke 2 1025 69 2400 1.5 110 16:24 19.12.2020
4690 Smoke 4 1025 60 2000 1.5 140 15:54 19.12.2020
4691 Smoke 4 1025 60 2000 1.5 140 15:30 19.12.2020
4692 Haze 5 1023 56 6000 0.38 283 14:40 19.12.2020
4693 Haze 7 1022 48 6000 0.22 318 13:59 19.12.2020
4694 Haze 7 1022 48 6000 0.22 318 13:41 19.12.2020
4695 Haze 10 1023 39 4800 2.6 60 13:19 19.12.2020
4696 Haze 10 1023 39 4800 2.6 60 12:42 19.12.2020
4697 Haze 10 1023 39 4800 2.6 60 12:24 19.12.2020
4698 Haze 9 1022 45 5000 1.5 40 11:56 19.12.2020
4699 Haze 9 1022 45 5000 1.5 40 11:35 19.12.2020
4700 Haze 9 1023 36 5000 0.07 129 10:43 19.12.2020
4701 Haze 8 1024 45 5000 1.5 180 10:21 19.12.2020
4702 Haze 8 1024 45 5000 1.5 180 09:45 19.12.2020
4703 Haze 6 1024 56 5000 0.25 140 09:27 19.12.2020
4704 Haze 3 1026 69 5000 0.72 182 08:25 19.12.2020
4705 Smoke 6 1027 52 1800 1.5 320 07:24 19.12.2020
4706 Smoke 6 1027 52 1800 1.5 320 06:51 19.12.2020
4707 Smoke 4 1027 55 1000 0.5 0 06:18 19.12.2020
4708 Smoke 0 1025 71 2400 0.5 0 05:18 19.12.2020
4709 Smoke -3 1024 86 1200 1.5 320 02:55 19.12.2020
4710 Haze -3 1023 92 5000 0.61 212 00:36 19.12.2020
4711 Smoke -2 1024 79 800 1 0 00:18 19.12.2020
4712 Haze -2 1023 86 5000 0.54 206 23:45 18.12.2020
4713 Smoke -2 1024 79 800 0.21 226 23:23 18.12.2020
4714 Smoke -2 1024 79 800 0.21 226 22:45 18.12.2020
4715 Smoke -2 1024 79 800 0.29 279 22:21 18.12.2020
4716 Smoke -2 1025 79 1000 1.5 290 21:50 18.12.2020
4717 Smoke -2 1025 79 1000 1.5 290 21:31 18.12.2020
4718 Smoke 0 1025 85 1000 1.5 160 20:40 18.12.2020
4719 Smoke 0 1025 85 1000 1.5 160 20:20 18.12.2020
4720 Haze 0 1024 85 6000 0.49 338 19:42 18.12.2020
4721 Clear 0 1024 84 10000 0.58 331 19:20 18.12.2020
4722 Haze 0 1023 84 8000 0.47 328 18:41 18.12.2020
4723 Smoke 1 1024 69 2400 1 0 18:23 18.12.2020
4724 Smoke 1 1024 69 2400 1 0 17:24 18.12.2020
4725 Smoke 2 1024 59 2400 1.5 0 16:53 18.12.2020
4726 Smoke 2 1024 59 2400 1.5 0 16:27 18.12.2020
4727 Smoke 3 1023 55 3200 1 0 15:59 18.12.2020
4728 Haze 4 1022 55 8000 0.4 314 15:41 18.12.2020
4729 Mist 5 1021 52 9000 1.5 20 15:22 18.12.2020
4730 Mist 5 1021 52 9000 1.5 20 14:54 18.12.2020
4731 Clear 8 1022 39 7000 1.5 0 14:21 18.12.2020
4732 Clear 8 1022 39 7000 1.5 0 13:50 18.12.2020
4733 Clouds 8 1022 39 7000 1.5 0 13:27 18.12.2020
4734 Haze 9 1022 36 7000 2.6 60 12:47 18.12.2020
4735 Haze 10 1022 31 4800 1 0 11:59 18.12.2020
4736 Haze 10 1022 31 4800 1 0 11:23 18.12.2020
4737 Haze 9 1023 34 5000 2.1 150 10:40 18.12.2020
4738 Haze 9 1023 34 5000 2.1 150 10:40 18.12.2020
4739 Haze 9 1023 34 5000 2.1 150 10:20 18.12.2020
4740 Smoke 8 1024 36 3200 1.5 0 09:39 18.12.2020
4741 Smoke 8 1024 36 3200 1.5 0 09:21 18.12.2020
4742 Smoke 7 1025 39 4000 1.5 190 08:54 18.12.2020
4743 Haze 7 1025 39 4000 1.5 190 08:30 18.12.2020
4744 Smoke 5 1025 44 4000 1 0 07:39 18.12.2020
4745 Haze 5 1025 44 4000 1 0 07:18 18.12.2020
4746 Smoke 2 1025 55 2800 1 340 06:51 18.12.2020
4747 Smoke 1 1025 55 4000 1.5 300 05:42 18.12.2020
4748 Smoke -4 1024 73 3000 1.5 330 04:51 18.12.2020
4749 Smoke -3 1023 63 2800 1.5 0 01:59 18.12.2020
4750 Smoke -5 1023 73 1600 2.6 330 01:40 18.12.2020
4751 Smoke -3 1023 73 800 1.5 0 23:59 17.12.2020
4752 Smoke -3 1023 73 800 1.5 0 23:37 17.12.2020
4753 Smoke -3 1023 73 800 1.5 0 23:18 17.12.2020
4754 Smoke -3 1023 79 800 1.5 0 22:45 17.12.2020
4755 Smoke -3 1023 79 800 1.5 0 22:26 17.12.2020
4756 Smoke -4 1024 79 800 1.5 0 21:43 17.12.2020
4757 Smoke -4 1024 79 800 1.5 0 21:43 17.12.2020
4758 Smoke -4 1024 79 800 1.5 0 21:19 17.12.2020
4759 Smoke -4 1024 73 800 1.5 0 20:42 17.12.2020
4760 Smoke -4 1024 73 800 1.5 0 20:19 17.12.2020
4761 Smoke -3 1024 68 1000 1.5 0 19:48 17.12.2020
4762 Smoke -3 1024 68 1000 1.5 0 19:24 17.12.2020
4763 Smoke -2 1024 63 1000 1.5 0 18:44 17.12.2020
4764 Smoke -2 1024 63 1000 1.5 0 18:26 17.12.2020
4765 Smoke -1 1024 58 1200 1.5 170 17:57 17.12.2020
4766 Smoke -1 1024 58 1200 1.5 170 17:33 17.12.2020
4767 Smoke -1 1024 50 2000 1.5 310 16:54 17.12.2020
4768 Smoke -1 1024 50 2000 1.5 310 16:36 17.12.2020
4769 Smoke -1 1024 50 2000 1.5 310 16:18 17.12.2020
4770 Smoke 0 1024 69 2000 1.5 0 15:40 17.12.2020
4771 Smoke 1 1023 43 1200 1 0 15:18 17.12.2020
4772 Smoke 1 1023 43 1200 1 0 14:47 17.12.2020
4773 Clouds 4 1023 27 8000 2.6 0 13:59 17.12.2020
4774 Clouds 4 1023 27 8000 2.6 0 13:41 17.12.2020
4775 Clouds 4 1023 27 8000 2.6 0 12:58 17.12.2020
4776 Clouds 6 1023 24 8000 3.1 0 12:36 17.12.2020
4777 Clear 6 1023 24 9000 5.1 70 11:58 17.12.2020
4778 Clear 6 1023 24 9000 5.1 70 11:58 17.12.2020
4779 Clear 6 1023 24 9000 5.1 70 11:38 17.12.2020
4780 Clear 6 1023 24 9000 5.1 70 11:20 17.12.2020
4781 Clear 8 1024 17 9000 2.1 0 10:33 17.12.2020
4782 Smoke 7 1025 20 8000 2.1 0 09:36 17.12.2020
4783 Smoke 5 1026 21 8000 1 0 08:40 17.12.2020
4784 Clear 3 1027 25 7000 1.5 0 07:41 17.12.2020
4785 Smoke 2 1027 34 4000 2.1 0 07:20 17.12.2020
4786 Smoke 2 1027 34 4000 2.1 0 06:45 17.12.2020
4787 Smoke 0 1027 54 3200 2.6 320 06:27 17.12.2020
4788 Smoke -7 1025 85 3200 1 0 01:57 17.12.2020
4789 Smoke -6 1026 79 3200 1 0 00:19 17.12.2020
4790 Mist -4 1025 79 8000 1.17 207 23:38 16.12.2020
4791 Smoke -5 1026 73 3600 1 0 23:18 16.12.2020
4792 Smoke -5 1026 73 3600 1 0 22:47 16.12.2020
4793 Smoke -5 1026 73 3600 1 0 22:27 16.12.2020
4794 Smoke -4 1026 62 4000 1 0 21:41 16.12.2020
4795 Smoke -3 1026 58 3200 1.5 0 21:21 16.12.2020
4796 Smoke -3 1026 58 3200 1.5 0 20:46 16.12.2020
4797 Smoke -3 1026 58 3200 1.5 0 20:20 16.12.2020
4798 Smoke -4 1026 62 2400 1 0 19:37 16.12.2020
4799 Smoke -4 1026 62 2400 1 0 19:18 16.12.2020
4800 Mist -3 1025 86 8000 0.72 205 18:42 16.12.2020
4801 Mist -3 1025 86 6000 1.06 203 18:22 16.12.2020
4802 Mist -3 1025 86 6000 1.06 203 17:35 16.12.2020
4803 Smoke -2 1026 46 2400 2.1 110 16:43 16.12.2020
4804 Smoke -2 1026 46 2400 2.1 110 16:24 16.12.2020
4805 Smoke -1 1025 39 2400 2.1 260 15:54 16.12.2020
4806 Smoke -1 1025 36 6000 3.1 310 15:36 16.12.2020
4807 Clear 1 1025 31 10000 3.6 340 14:56 16.12.2020
4808 Clear 1 1025 31 10000 3.6 340 14:37 16.12.2020
4809 Clear 1 1025 31 10000 3.6 340 14:19 16.12.2020
4810 Clear 2 1025 22 10000 2.6 40 13:39 16.12.2020
4811 Clear 2 1025 22 10000 2.6 40 13:19 16.12.2020
4812 Mist 3 1024 44 9000 2.1 90 12:42 16.12.2020
4813 Mist 4 1024 41 9000 2.1 90 11:49 16.12.2020
4814 Mist 4 1024 38 8000 1.5 90 11:23 16.12.2020
4815 Mist 4 1024 38 8000 1.5 90 10:53 16.12.2020
4816 Clear 4 1026 14 10000 3.1 210 10:27 16.12.2020
4817 Clear 4 1026 14 10000 3.1 210 10:27 16.12.2020
4818 Mist 3 1025 47 8000 1.5 120 09:54 16.12.2020
4819 Clear 3 1026 13 10000 3.1 220 09:24 16.12.2020
4820 Clear 3 1026 13 10000 3.1 220 08:22 16.12.2020
4821 Clear 1 1027 17 10000 2.6 0 07:44 16.12.2020
4822 Clear 1 1027 17 10000 2.6 0 07:20 16.12.2020
4823 Clear -4 1024 38 10000 2.1 340 03:35 16.12.2020
4824 Clear -5 1024 53 10000 2.1 330 01:57 16.12.2020
4825 Clear -3 1024 53 10000 2.6 350 23:46 15.12.2020
4826 Clear -3 1024 53 10000 2.6 350 23:18 15.12.2020
4827 Smoke -3 1023 73 4000 2.1 0 22:40 15.12.2020
4828 Smoke -3 1023 73 4000 2.1 0 22:20 15.12.2020
4829 Smoke -4 1023 85 4000 1 0 21:45 15.12.2020
4830 Smoke -4 1023 79 5000 2.1 340 21:22 15.12.2020
4831 Smoke -4 1024 79 5000 1.5 10 20:45 15.12.2020
4832 Smoke -4 1024 79 5000 1.5 10 20:26 15.12.2020
4833 Smoke -3 1024 73 6000 1 0 19:55 15.12.2020
4834 Mist -5 1023 100 1600 1.23 239 19:30 15.12.2020
4835 Smoke -3 1024 79 6000 1.5 120 18:40 15.12.2020
4836 Smoke -3 1024 79 6000 1.5 120 18:22 15.12.2020
4837 Smoke -2 1024 74 7000 1.5 0 17:56 15.12.2020
4838 Fog -3 1023 92 200 1.27 238 17:37 15.12.2020
4839 Smoke -3 1024 73 7000 3.6 110 17:18 15.12.2020
4840 Smoke -3 1024 73 7000 3.6 110 16:32 15.12.2020
4841 Smoke -1 1023 63 9000 2.1 140 15:50 15.12.2020
4842 Smoke -1 1023 63 9000 2.1 140 15:28 15.12.2020
4843 Clear 0 1023 77 10000 4.6 340 14:44 15.12.2020
4844 Clear 0 1023 78 10000 4.6 340 14:21 15.12.2020
4845 Clear 1 1023 55 10000 2.1 0 13:51 15.12.2020
4846 Clear 3 1023 47 10000 4.1 60 13:32 15.12.2020
4847 Clear 3 1023 47 10000 4.1 60 12:47 15.12.2020
4848 Clear 3 1023 47 10000 4.1 60 12:20 15.12.2020
4849 Clear 4 1023 35 10000 2.1 0 11:56 15.12.2020
4850 Clear 4 1023 35 10000 2.1 0 11:26 15.12.2020
4851 Clouds 4 1023 27 10000 1.5 0 10:53 15.12.2020
4852 Clouds 4 1023 27 10000 1.5 0 10:24 15.12.2020
4853 Clouds 3 1023 27 10000 2.1 0 09:50 15.12.2020
4854 Clouds 3 1023 27 10000 2.1 0 09:32 15.12.2020
4855 Clear 4 1023 29 10000 2.1 0 08:49 15.12.2020
4856 Clear 4 1023 29 10000 2.1 0 08:26 15.12.2020
4857 Mist 2 1024 34 10000 1.5 0 07:49 15.12.2020
4858 Mist 2 1024 34 10000 1.5 0 07:49 15.12.2020
4859 Mist 2 1024 34 10000 1.5 0 07:49 15.12.2020
4860 Mist 2 1024 34 10000 1.5 0 07:25 15.12.2020
4861 Mist 1 1023 37 10000 1.5 0 06:32 15.12.2020
4862 Clouds -5 1021 100 9000 1.5 110 03:25 15.12.2020
4863 Clouds -3 1020 73 10000 2.6 290 00:34 15.12.2020
4864 Clouds -1 1020 63 10000 2.1 200 23:26 14.12.2020
4865 Clouds -1 1020 74 10000 4.6 350 22:56 14.12.2020
4866 Clouds -1 1020 74 10000 4.6 350 22:32 14.12.2020
4867 Clouds 0 1019 90 10000 1.5 0 21:45 14.12.2020
4868 Clouds 0 1019 89 10000 1.5 0 21:22 14.12.2020
4869 Clouds 0 1019 89 10000 2.1 0 20:51 14.12.2020
4870 Clouds 0 1019 89 10000 2.1 0 20:30 14.12.2020
4871 Clouds 1 1019 43 10000 3.6 180 19:53 14.12.2020
4872 Clouds 1 1019 43 10000 3.6 180 19:29 14.12.2020
4873 Clouds 1 1019 43 10000 3.6 200 18:50 14.12.2020
4874 Clouds 1 1019 47 10000 4.1 210 18:30 14.12.2020
4875 Clouds 1 1019 47 10000 4.1 210 17:46 14.12.2020
4876 Clouds 1 1019 47 10000 4.1 210 17:24 14.12.2020
4877 Clouds 0 1018 83 10000 3.1 0 16:50 14.12.2020
4878 Clouds 0 1018 83 8000 4.1 70 16:29 14.12.2020
4879 Clouds 0 1018 83 8000 4.1 70 15:39 14.12.2020
4880 Clouds 0 1018 82 8000 4.1 70 15:20 14.12.2020
4881 Mist 1 1018 74 7000 3.6 80 14:42 14.12.2020
4882 Mist 1 1018 74 7000 3.6 80 14:23 14.12.2020
4883 Clouds 1 1018 74 8000 4.6 80 13:42 14.12.2020
4884 Snow 1 1018 74 8000 4.6 80 13:18 14.12.2020
4885 Clouds 3 1017 64 10000 4.6 80 12:52 14.12.2020
4886 Clouds 3 1017 64 10000 4.6 80 12:24 14.12.2020
4887 Clouds 3 1017 64 10000 5.1 130 11:32 14.12.2020
4888 Clouds 4 1017 44 10000 4.1 190 10:38 14.12.2020
4889 Clouds 4 1017 44 10000 4.1 190 10:19 14.12.2020
4890 Clouds 4 1018 44 10000 4.1 190 09:29 14.12.2020
4891 Clouds 3 1019 55 10000 4.6 200 08:46 14.12.2020
4892 Clouds 3 1019 55 10000 4.6 200 08:28 14.12.2020
4893 Clouds 3 1019 55 10000 5.1 190 07:44 14.12.2020
4894 Clouds 2 1019 64 10000 4.6 190 06:46 14.12.2020
4895 Mist 2 1018 80 6000 3.1 90 05:21 14.12.2020
4896 Clouds 0 1016 86 10000 2.1 70 02:26 14.12.2020
4897 Clouds 0 1016 87 10000 2.1 120 00:55 14.12.2020
4898 Clouds 1 1017 74 10000 1.5 0 00:33 14.12.2020
4899 Clouds 1 1017 74 10000 1.5 0 23:50 13.12.2020
4900 Clouds 1 1017 74 10000 1.5 0 23:27 13.12.2020
4901 Clouds 1 1017 74 10000 1 130 22:46 13.12.2020
4902 Clouds 1 1017 74 10000 1 130 22:20 13.12.2020
4903 Snow 1 1017 74 8000 5.1 180 21:42 13.12.2020
4904 Snow 1 1017 74 8000 5.1 180 21:24 13.12.2020
4905 Clouds 3 1017 64 8000 2.1 180 20:35 13.12.2020
4906 Clouds 1 1017 74 7000 2.6 120 19:53 13.12.2020
4907 Clouds 1 1017 74 7000 2.6 120 19:33 13.12.2020
4908 Clouds 1 1017 69 9000 2.6 120 18:59 13.12.2020
4909 Clouds 1 1017 69 9000 2.6 120 18:41 13.12.2020
4910 Clouds 1 1017 69 9000 2.6 120 18:20 13.12.2020
4911 Clouds 2 1017 55 8000 1 0 17:46 13.12.2020
4912 Clear 2 1017 55 8000 1 0 17:21 13.12.2020
4913 Smoke 3 1017 51 9000 1 0 16:55 13.12.2020
4914 Smoke 3 1017 51 9000 1 0 16:36 13.12.2020
4915 Clouds 3 1017 51 10000 3.6 350 15:58 13.12.2020
4916 Clouds 3 1017 51 10000 3.6 350 15:38 13.12.2020
4917 Clouds 3 1017 51 10000 3.6 350 15:20 13.12.2020
4918 Clouds 5 1016 35 9000 3.1 200 14:43 13.12.2020
4919 Clouds 5 1016 35 9000 3.1 200 14:20 13.12.2020
4920 Clear 6 1017 30 10000 3.6 200 13:42 13.12.2020
4921 Clear 6 1017 30 10000 3.6 200 13:22 13.12.2020
4922 Clear 6 1017 30 10000 3.6 200 13:22 13.12.2020
4923 Clear 6 1017 28 10000 4.6 190 12:39 13.12.2020
4924 Clear 6 1017 28 10000 4.6 190 12:20 13.12.2020
4925 Clear 7 1017 28 10000 4.6 200 11:36 13.12.2020
4926 Clear 7 1018 28 10000 4.1 190 10:52 13.12.2020
4927 Clouds 8 1016 39 10000 2.1 110 10:34 13.12.2020
4928 Clear 6 1019 33 10000 4.6 180 09:54 13.12.2020
4929 Clear 5 1020 38 10000 4.6 220 08:58 13.12.2020
4930 Clear 5 1020 38 10000 4.6 220 08:33 13.12.2020
4931 Clear 4 1021 38 10000 4.6 220 07:35 13.12.2020
4932 Clouds 0 1021 79 10000 3.1 330 04:23 13.12.2020
4933 Clouds 0 1020 80 10000 2.1 340 02:40 13.12.2020
4934 Clouds 0 1020 81 10000 1 350 01:37 13.12.2020
4935 Clouds 0 1020 81 10000 1 350 01:37 13.12.2020
4936 Clouds 0 1020 81 10000 1 350 01:37 13.12.2020
4937 Clouds 0 1020 81 10000 1 350 01:37 13.12.2020
4938 Clouds -1 1021 86 10000 1 0 00:48 13.12.2020
4939 Clouds 0 1021 80 10000 2.1 330 23:51 12.12.2020
4940 Clouds 0 1021 80 10000 2.1 330 23:31 12.12.2020
4941 Clouds 0 1021 81 8000 1 320 22:46 12.12.2020
4942 Clouds 0 1021 81 8000 1 0 21:56 12.12.2020
4943 Clouds 0 1021 79 8000 1 0 21:32 12.12.2020
4944 Clouds 0 1021 79 8000 1 0 20:55 12.12.2020
4945 Clouds 0 1021 78 8000 1 0 20:24 12.12.2020
4946 Clouds 2 1021 80 8000 1.5 120 19:57 12.12.2020
4947 Clouds 2 1021 80 8000 1.5 120 19:38 12.12.2020
4948 Clouds 2 1021 80 8000 1.5 120 19:20 12.12.2020
4949 Clouds 2 1020 34 8000 2.1 140 18:41 12.12.2020
4950 Clouds 2 1020 34 8000 2.1 140 18:23 12.12.2020
4951 Clouds 3 1020 69 8000 2.6 150 17:45 12.12.2020
4952 Clouds 4 1019 69 6000 3.1 150 16:54 12.12.2020
4953 Clouds 4 1019 69 6000 3.1 130 15:59 12.12.2020
4954 Clouds 4 1019 69 6000 3.1 130 15:41 12.12.2020
4955 Clouds 6 1018 45 9000 2.6 140 14:55 12.12.2020
4956 Clouds 6 1018 45 9000 2.6 140 14:35 12.12.2020
4957 Clouds 7 1018 30 10000 3.1 190 13:47 12.12.2020
4958 Clouds 7 1018 30 10000 3.1 190 13:27 12.12.2020
4959 Clouds 10 1016 31 10000 0.76 220 12:43 12.12.2020
4960 Clouds 9 1018 24 10000 3.1 0 11:41 12.12.2020
4961 Clear 8 1018 28 10000 4.6 190 10:52 12.12.2020
4962 Clear 8 1019 28 10000 6.2 190 09:31 12.12.2020
4963 Clear 7 1019 33 10000 6.2 200 08:42 12.12.2020
4964 Clear 1 1016 74 10000 0.5 0 02:28 12.12.2020
4965 Clouds 1 1016 86 8000 2.6 350 23:53 11.12.2020
4966 Clouds 1 1017 80 10000 1 0 22:21 11.12.2020
4967 Clouds 3 1019 74 10000 1 0 20:25 11.12.2020
4968 Haze 6 1018 72 8000 4.1 360 17:40 11.12.2020
4969 Clouds 6 1019 52 10000 3.1 0 14:40 11.12.2020
4970 Clouds 6 1019 52 10000 3.1 350 13:58 11.12.2020
4971 Clouds 7 1019 52 8000 4.1 360 12:49 11.12.2020
4972 Clouds 8 1020 49 8000 4.1 340 11:57 11.12.2020
4973 Clouds 8 1020 49 8000 4.1 340 11:38 11.12.2020
4974 Haze 8 1020 49 7000 3.1 0 10:41 11.12.2020
4975 Smoke 7 1022 64 2000 2.6 0 08:23 11.12.2020
4976 Smoke 3 1023 66 2400 1 0 05:40 11.12.2020
4977 Smoke -1 1023 92 1000 1 290 04:49 11.12.2020
4978 Smoke -1 1022 100 1500 1.01 355 01:32 11.12.2020
4979 Smoke -1 1022 100 1200 1.11 353 23:38 10.12.2020
4980 Smoke 0 1022 80 1200 0.5 0 22:24 10.12.2020
4981 Smoke 1 1023 80 1200 0.5 0 21:35 10.12.2020
4982 Smoke 1 1023 86 1500 1.5 0 20:39 10.12.2020
4983 Mist 2 1022 77 8000 1.5 230 19:37 10.12.2020
4984 Smoke 3 1023 75 2000 1.5 0 18:50 10.12.2020
4985 Smoke 3 1023 74 2000 1.5 0 17:50 10.12.2020
4986 Smoke 4 1023 71 2400 2.1 180 16:25 10.12.2020
4987 Clouds 6 1022 56 8000 2.6 360 15:25 10.12.2020
4988 Clouds 6 1022 56 8000 2.6 360 14:48 10.12.2020
4989 Clouds 6 1022 56 8000 2.6 360 14:24 10.12.2020
4990 Clouds 11 1021 37 10000 2.1 20 12:38 10.12.2020
4991 Clouds 8 1022 52 8000 3.1 10 11:32 10.12.2020
4992 Haze 8 1025 49 8000 2.1 0 08:47 10.12.2020
4993 Clouds 6 1025 48 8000 1.5 330 07:37 10.12.2020
4994 Haze 4 1025 64 5000 2.6 320 06:40 10.12.2020
4995 Smoke -1 1023 100 1200 1 0 02:53 10.12.2020
4996 Smoke -1 1022 100 1000 0.5 0 01:58 10.12.2020
4997 Smoke 0 1022 80 1400 2.1 310 23:50 09.12.2020
4998 Smoke 2 1022 93 1200 0.5 0 20:43 09.12.2020
4999 Smoke 2 1022 93 1600 1.05 316 20:24 09.12.2020
5000 Smoke 3 1022 86 2400 1.15 324 18:58 09.12.2020
5001 Mist 4 1020 86 8000 1.5 190 17:39 09.12.2020
5002 Mist 6 1020 75 8000 1.05 329 16:40 09.12.2020
5003 Clouds 5 1022 75 8000 1.5 0 16:20 09.12.2020
5004 Clouds 6 1021 65 8000 2.6 0 14:53 09.12.2020
5005 Clouds 6 1021 62 8000 2.6 0 14:27 09.12.2020
5006 Clouds 7 1021 62 8000 3.1 0 13:51 09.12.2020
5007 Haze 8 1022 52 7000 2.1 0 13:18 09.12.2020
5008 Haze 8 1022 52 7000 2.1 0 12:43 09.12.2020
5009 Haze 9 1022 53 7000 2.6 0 11:43 09.12.2020
5010 Mist 10 1022 61 9000 0.46 1 09:54 09.12.2020
5011 Mist 9 1023 70 8000 0.34 14 08:42 09.12.2020
5012 Mist 5 1025 80 2400 1.5 0 06:56 09.12.2020
5013 Mist 4 1024 86 1200 2.6 0 05:42 09.12.2020
5014 Mist 1 1022 100 3000 0.5 0 02:57 09.12.2020
5015 Clouds 2 1022 100 6000 1 0 00:52 09.12.2020
5016 Clouds 2 1022 93 8000 1 0 23:36 08.12.2020
5017 Mist 5 1021 100 6000 0.97 23 22:43 08.12.2020
5018 Mist 4 1023 93 7000 2.1 0 20:48 08.12.2020
5019 Mist 4 1023 100 5000 0.81 40 19:31 08.12.2020
5020 Mist 5 1023 93 6000 1 0 18:41 08.12.2020
5021 Clouds 5 1023 86 6000 1 0 17:20 08.12.2020
5022 Clouds 4 1023 93 7000 1 0 15:25 08.12.2020
5023 Mist 6 1023 81 7000 2.6 0 13:53 08.12.2020
5024 Mist 6 1022 81 7000 3.1 0 12:46 08.12.2020
5025 Mist 6 1022 81 3500 3.1 0 12:20 08.12.2020
5026 Mist 6 1022 81 3500 3.1 0 11:27 08.12.2020
5027 Mist 6 1023 75 3200 1.5 0 10:41 08.12.2020
5028 Mist 6 1024 75 2400 2.6 0 09:45 08.12.2020
5029 Mist 5 1025 80 2400 1 0 07:41 08.12.2020
5030 Mist 3 1024 93 2400 1.5 0 05:43 08.12.2020
5031 Clouds 2 1023 100 6000 1 130 02:49 08.12.2020
5032 Clouds 2 1023 93 8000 1 0 00:45 08.12.2020
5033 Clouds 2 1023 93 8000 1 0 23:46 07.12.2020
5034 Clouds 3 1023 93 8000 2.6 360 22:21 07.12.2020
5035 Mist 4 1024 93 5000 2.6 360 21:47 07.12.2020
5036 Rain 4 1025 93 4000 1 0 19:36 07.12.2020
5037 Rain 4 1025 93 4000 1 100 18:19 07.12.2020
5038 Mist 4 1026 86 4000 1 160 17:23 07.12.2020
5039 Mist 4 1025 93 4000 2.1 130 16:47 07.12.2020
5040 Mist 4 1025 93 3200 1.5 170 15:25 07.12.2020
5041 Mist 4 1025 93 3200 2.6 150 14:36 07.12.2020
5042 Mist 4 1024 93 4000 2.1 160 13:37 07.12.2020
5043 Mist 4 1024 93 4000 2.1 0 12:31 07.12.2020
5044 Mist 4 1024 93 4000 1.5 0 11:42 07.12.2020
5045 Mist 5 1024 86 4000 3.1 0 10:36 07.12.2020
5046 Mist 5 1025 86 4000 1.5 0 09:24 07.12.2020
5047 Mist 4 1026 93 3500 2.6 0 07:49 07.12.2020
5048 Rain 5 1025 80 7000 3.1 320 05:29 07.12.2020
5049 Mist 4 1025 86 8000 2.6 310 04:35 07.12.2020
5050 Smoke 5 1024 75 2800 2.1 0 01:23 07.12.2020
5051 Smoke 5 1024 75 3200 1.5 20 22:53 06.12.2020
5052 Smoke 5 1025 62 3200 1.5 0 21:53 06.12.2020
5053 Smoke 5 1026 75 2400 1.5 130 20:47 06.12.2020
5054 Smoke 5 1026 75 2400 1.5 130 20:26 06.12.2020
5055 Smoke 6 1026 63 3200 1.5 0 19:39 06.12.2020
5056 Smoke 6 1025 63 2400 1.5 0 17:45 06.12.2020
5057 Smoke 6 1026 62 3200 1.5 160 16:34 06.12.2020
5058 Clear 8 1024 49 10000 2.6 350 14:49 06.12.2020
5059 Clouds 9 1024 45 8000 1.5 360 13:23 06.12.2020
5060 Clouds 9 1023 49 6000 2.1 0 12:33 06.12.2020
5061 Smoke 10 1024 46 5000 1.5 0 11:53 06.12.2020
5062 Smoke 10 1024 46 5000 1.5 0 11:25 06.12.2020
5063 Smoke 10 1024 43 5000 1 0 10:36 06.12.2020
5064 Smoke 10 1025 43 5000 2.1 0 09:31 06.12.2020
5065 Smoke 11 1026 43 3200 1.5 0 07:41 06.12.2020
5066 Smoke 3 1025 74 1600 1 130 04:51 06.12.2020
5067 Smoke 4 1022 75 2400 1.5 0 00:46 06.12.2020
5068 Smoke 4 1022 71 2400 1.5 0 00:26 06.12.2020
5069 Smoke 4 1022 69 2400 1.5 0 23:56 05.12.2020
5070 Smoke 6 1021 60 2400 1.5 0 22:25 05.12.2020
5071 Smoke 6 1021 60 4000 1.5 250 21:55 05.12.2020
5072 Smoke 6 1021 60 4000 1.5 250 21:30 05.12.2020
5073 Smoke 6 1021 56 4000 1.5 300 19:54 05.12.2020
5074 Smoke 6 1021 56 4000 1.5 300 18:46 05.12.2020
5075 Smoke 6 1020 56 2000 1 0 17:51 05.12.2020
5076 Clouds 7 1020 52 3200 1 0 16:45 05.12.2020
5077 Clouds 7 1020 52 7000 1 0 16:25 05.12.2020
5078 Clouds 9 1019 34 10000 1 0 14:39 05.12.2020
5079 Clouds 12 1018 27 10000 4.1 360 12:36 05.12.2020
5080 Clouds 11 1019 29 10000 3.1 0 11:50 05.12.2020
5081 Clouds 13 1019 26 10000 2.6 0 10:35 05.12.2020
5082 Clear 11 1021 29 8000 3.1 0 08:40 05.12.2020
5083 Smoke 11 1022 29 8000 1 0 07:47 05.12.2020
5084 Smoke 6 1021 56 7000 1.5 0 05:33 05.12.2020
5085 Clouds 2 1020 80 6000 2.1 310 23:59 04.12.2020
5086 Clouds 1 1020 86 6000 1 0 23:20 04.12.2020
5087 Clouds 5 1020 69 4000 2.6 250 20:39 04.12.2020
5088 Clouds 6 1020 52 7000 1.5 0 18:54 04.12.2020
5089 Clouds 6 1020 52 7000 1.5 0 18:30 04.12.2020
5090 Clear 8 1020 42 10000 2.1 230 17:44 04.12.2020
5091 Clear 9 1019 39 10000 3.1 230 16:30 04.12.2020
5092 Clear 9 1019 45 10000 7.2 340 15:21 04.12.2020
5093 Clouds 12 1018 58 10000 6.7 360 13:36 04.12.2020
5094 Clouds 12 1018 58 10000 6.7 360 13:18 04.12.2020
5095 Clouds 13 1017 43 10000 6.2 190 12:20 04.12.2020
5096 Clouds 14 1019 44 10000 6.2 200 10:37 04.12.2020
5097 Smoke 12 1021 54 6000 2.1 0 08:29 04.12.2020
5098 Smoke 10 1021 61 7000 1 0 06:40 04.12.2020
5099 Smoke 7 1021 70 3200 2.6 0 04:52 04.12.2020
5100 Smoke 5 1020 80 6000 1 0 01:20 04.12.2020
5101 Smoke 7 1020 65 2000 1.5 0 22:47 03.12.2020
5102 Smoke 7 1020 70 2000 1.5 0 21:22 03.12.2020
5103 Smoke 7 1021 70 2000 1.5 0 20:41 03.12.2020
5104 Smoke 7 1021 70 2400 1.5 0 19:22 03.12.2020
5105 Smoke 8 1021 70 2000 1.5 0 18:40 03.12.2020
5106 Smoke 7 1020 65 2000 1.5 0 17:21 03.12.2020
5107 Smoke 10 1020 51 3000 1.5 0 15:59 03.12.2020
5108 Smoke 10 1020 51 3000 1.5 0 15:32 03.12.2020
5109 Clouds 12 1020 34 8000 1.5 0 14:48 03.12.2020
5110 Clouds 14 1020 33 9000 3.1 0 13:55 03.12.2020
5111 Clouds 17 1021 23 9000 1.5 0 12:44 03.12.2020
5112 Clouds 17 1021 23 9000 1.5 0 12:22 03.12.2020
5113 Haze 17 1022 29 9000 3.1 0 10:40 03.12.2020
5114 Haze 16 1024 31 9000 3.1 0 08:41 03.12.2020
5115 Smoke 1 1024 86 7000 2.1 280 03:45 03.12.2020
5116 Smoke 2 1023 63 1400 1.5 300 01:46 03.12.2020
5117 Smoke 2 1024 61 1400 1.5 0 23:56 02.12.2020
5118 Smoke 3 1024 86 1400 1.5 310 22:45 02.12.2020
5119 Smoke 5 1024 80 1000 1.5 0 21:43 02.12.2020
5120 Smoke 4 1024 86 1000 1 0 20:49 02.12.2020
5121 Smoke 4 1024 86 1000 1 0 20:31 02.12.2020
5122 Smoke 5 1024 80 1400 1.5 0 19:40 02.12.2020
5123 Smoke 6 1024 70 1600 1.5 0 17:50 02.12.2020
5124 Smoke 6 1024 70 1600 1.5 0 17:31 02.12.2020
5125 Smoke 10 1023 57 6000 1.5 0 15:46 02.12.2020
5126 Clear 14 1023 35 10000 1.5 0 13:41 02.12.2020
5127 Clear 16 1024 26 10000 2.1 0 11:33 02.12.2020
5128 Clear 16 1025 26 10000 1.5 0 10:25 02.12.2020
5129 Clear 12 1028 40 8000 1 0 07:46 02.12.2020
5130 Smoke 3 1027 86 4000 2.1 340 23:40 01.12.2020
5131 Smoke 5 1026 86 1400 1.5 230 22:20 01.12.2020
5132 Clear 7 1025 57 10000 0.81 237 19:43 01.12.2020
5133 Smoke 7 1027 81 2000 1.5 200 18:56 01.12.2020
5134 Smoke 7 1026 81 2400 1.5 230 16:48 01.12.2020
5135 Smoke 10 1025 57 4000 1 0 14:53 01.12.2020
5136 Haze 16 1025 38 5000 4.1 70 12:48 01.12.2020
5137 Clouds 17 1025 37 10000 2.6 0 11:40 01.12.2020
5138 Clouds 18 1025 31 10000 1.5 0 10:53 01.12.2020
5139 Clouds 18 1025 31 10000 1.5 0 10:26 01.12.2020
5140 Smoke 12 1028 54 1200 2.1 0 07:46 01.12.2020
5141 Smoke 10 1027 66 1000 1.5 0 06:25 01.12.2020
5142 Smoke 4 1025 86 1200 1.5 0 01:33 01.12.2020
5143 Smoke 4 1025 86 1600 2.1 330 00:38 01.12.2020
5144 Smoke 4 1025 86 800 1.5 0 23:20 30.11.2020
5145 Haze 5 1023 86 6000 1.07 211 22:42 30.11.2020
5146 Smoke 4 1026 86 800 1 0 22:22 30.11.2020
5147 Smoke 5 1026 86 1000 2.1 340 19:50 30.11.2020
5148 Smoke 5 1026 86 1000 2.1 340 19:31 30.11.2020
5149 Smoke 6 1026 81 1400 1.5 310 18:21 30.11.2020
5150 Smoke 6 1026 81 1400 1.5 310 18:21 30.11.2020
5151 Smoke 6 1026 81 1400 1.5 310 17:46 30.11.2020
5152 Smoke 7 1026 81 2500 1 0 16:53 30.11.2020
5153 Smoke 9 1025 61 2400 1.5 0 14:53 30.11.2020
5154 Smoke 10 1025 57 2400 1 0 13:55 30.11.2020
5155 Smoke 11 1025 57 4000 1.5 0 13:22 30.11.2020
5156 Haze 12 1025 50 7000 2.1 330 12:25 30.11.2020
5157 Rain 12 1025 50 5000 4.1 90 11:34 30.11.2020
5158 Smoke 12 1026 50 2400 1 0 10:24 30.11.2020
5159 Smoke 14 1027 41 7000 1.5 0 08:53 30.11.2020
5160 Clear 2 1025 74 10000 1.5 300 01:28 30.11.2020
5161 Clear 2 1026 80 6000 1.5 0 23:28 29.11.2020
5162 Smoke 3 1026 61 1200 1 0 21:44 29.11.2020
5163 Smoke 3 1026 61 1200 1 0 21:44 29.11.2020
5164 Smoke 3 1026 59 1200 1 0 21:25 29.11.2020
5165 Smoke 3 1027 57 800 1 290 19:19 29.11.2020
5166 Smoke 5 1027 56 1200 1.5 320 17:34 29.11.2020
5167 Clear 9 1025 49 10000 1 0 14:22 29.11.2020
5168 Haze 14 1025 33 8000 3.1 0 12:45 29.11.2020
5169 Haze 13 1025 40 5000 2.1 0 11:37 29.11.2020
5170 Haze 11 1028 43 6000 3.1 0 08:54 29.11.2020
5171 Haze 11 1028 43 6000 3.1 0 08:34 29.11.2020
5172 Clouds 0 1027 65 7000 1.5 270 02:31 29.11.2020
5173 Smoke 1 1028 86 1000 1 250 22:59 28.11.2020
5174 Smoke 1 1028 86 1000 1 250 22:26 28.11.2020
5175 Smoke 2 1029 80 1000 2.1 310 19:59 28.11.2020
5176 Smoke 2 1029 80 1000 2.1 310 19:28 28.11.2020
5177 Smoke 2 1029 80 1000 2.1 310 18:57 28.11.2020
5178 Smoke 2 1029 80 1000 1.5 320 18:20 28.11.2020
5179 Smoke 4 1029 55 1400 1.5 310 16:57 28.11.2020
5180 Smoke 6 1028 54 1000 1 0 14:59 28.11.2020
5181 Clear 11 1028 37 10000 1.5 230 13:54 28.11.2020
5182 Clear 13 1029 30 10000 2.1 0 11:27 28.11.2020
5183 Clouds 10 1031 39 9000 3.1 0 09:26 28.11.2020
5184 Clouds 0 1031 60 6000 1.5 0 03:44 28.11.2020
5185 Snow -1 1031 86 2000 1.5 280 01:53 28.11.2020
5186 Fog 0 1031 62 800 1 310 23:22 27.11.2020
5187 Fog 0 1031 62 800 1.5 290 22:33 27.11.2020
5188 Fog 1 1033 86 900 1.21 209 20:39 27.11.2020
5189 Smoke 1 1033 86 1200 1 0 19:34 27.11.2020
5190 Smoke 2 1033 80 1200 1 0 18:57 27.11.2020
5191 Smoke 4 1032 69 2400 1.5 0 16:55 27.11.2020
5192 Smoke 4 1032 69 2400 1.5 0 16:55 27.11.2020
5193 Smoke 4 1032 69 2400 1.5 0 16:55 27.11.2020
5194 Smoke 5 1031 65 2400 1.5 0 14:45 27.11.2020
5195 Haze 8 1030 49 4000 1.5 0 13:20 27.11.2020
5196 Haze 9 1030 45 4000 3.1 0 12:47 27.11.2020
5197 Haze 9 1030 42 4000 1.5 0 11:34 27.11.2020
5198 Haze 9 1031 39 4000 1 0 10:44 27.11.2020
5199 Haze 8 1031 49 3200 3.1 0 09:51 27.11.2020
5200 Fog 0 1031 71 800 1 0 23:50 26.11.2020
5201 Clear 1 1027 73 10000 1.21 208 22:25 26.11.2020
5202 Clear 1 1027 73 10000 1.21 208 21:46 26.11.2020
5203 Smoke 0 1031 73 1600 1.06 206 20:43 26.11.2020
5204 Smoke 1 1031 72 1600 1.5 150 18:37 26.11.2020
5205 Smoke 2 1030 80 2000 1.5 0 17:34 26.11.2020
5206 Haze 5 1028 52 8000 1.5 0 14:24 26.11.2020
5207 Clear 7 1027 45 7000 3.1 0 12:58 26.11.2020
5208 Clear 7 1027 45 7000 3.1 0 12:40 26.11.2020
5209 Clear 9 1027 29 7000 1.5 0 11:20 26.11.2020
5210 Clear 7 1028 33 8000 1.5 0 10:23 26.11.2020
5211 Clear 7 1028 33 8000 1.5 0 09:39 26.11.2020
5212 Clear 7 1028 33 8000 1.5 0 09:18 26.11.2020
5213 Clear 7 1029 45 8000 2.6 0 08:34 26.11.2020
5214 Fog -4 1026 100 100 1.5 120 02:19 26.11.2020
5215 Fog -2 1025 100 50 1.5 130 22:30 25.11.2020
5216 Mist 0 1025 83 1000 2.6 310 20:38 25.11.2020
5217 Mist 0 1025 82 1400 1.5 300 19:27 25.11.2020
5218 Mist 2 1024 93 3200 1 0 17:29 25.11.2020
5219 Clouds 2 1022 93 6000 2.1 110 15:55 25.11.2020
5220 Clouds 2 1022 93 6000 2.1 110 15:32 25.11.2020
5221 Mist 4 1022 86 8000 2.6 0 13:47 25.11.2020
5222 Mist 4 1021 86 7000 5.1 340 12:59 25.11.2020
5223 Drizzle 3 1021 93 3200 5.7 350 11:26 25.11.2020
5224 Mist 5 1021 86 3200 4.1 70 09:22 25.11.2020
5225 Mist 5 1021 86 3200 4.1 70 08:50 25.11.2020
5226 Mist 4 1022 86 3000 1.5 0 07:53 25.11.2020
5227 Mist 2 1021 93 3000 1 0 03:54 25.11.2020
5228 Mist 1 1021 100 2500 1.5 0 01:50 25.11.2020
5229 Mist 1 1021 100 2500 2.1 230 00:22 25.11.2020
5230 Mist 1 1021 100 2500 2.1 310 23:36 24.11.2020
5231 Mist 2 1021 93 2500 1 70 22:51 24.11.2020
5232 Drizzle 2 1022 93 2000 1.5 140 21:50 24.11.2020
5233 Drizzle 2 1022 93 2000 1.5 140 21:27 24.11.2020
5234 Mist 2 1022 93 2000 1.5 0 20:19 24.11.2020
5235 Drizzle 2 1022 93 1600 2.1 130 17:47 24.11.2020
5236 Drizzle 2 1022 93 1600 2.1 130 17:27 24.11.2020
5237 Mist 2 1022 93 1600 2.1 150 16:38 24.11.2020
5238 Mist 2 1022 93 1600 2.1 150 16:38 24.11.2020
5239 Drizzle 2 1022 93 1600 2.1 150 15:56 24.11.2020
5240 Mist 2 1022 93 1600 1.5 150 15:20 24.11.2020
5241 Mist 2 1022 93 1600 2.1 120 14:45 24.11.2020
5242 Mist 2 1021 93 1000 1 0 13:56 24.11.2020
5243 Fog 2 1021 93 500 2.1 0 12:40 24.11.2020
5244 Fog 2 1021 93 500 2.1 0 12:21 24.11.2020
5245 Fog 2 1021 93 700 1.5 0 11:34 24.11.2020
5246 Fog 2 1022 93 600 1.5 0 10:25 24.11.2020
5247 Fog 2 1022 93 600 3.1 0 09:42 24.11.2020
5248 Fog 2 1022 93 600 3.1 0 09:21 24.11.2020
5249 Fog 1 1024 100 600 1.46 15 06:50 24.11.2020
5250 Mist 1 1023 100 1000 1.41 346 03:59 24.11.2020
5251 Mist 2 1022 93 2000 1 200 22:25 23.11.2020
5252 Mist 1 1023 100 1500 1 130 21:33 23.11.2020
5253 Mist 2 1023 93 1600 1 0 20:49 23.11.2020
5254 Mist 2 1023 93 1600 1 0 20:19 23.11.2020
5255 Mist 2 1023 93 2000 1.5 0 17:59 23.11.2020
5256 Mist 2 1023 93 2000 1.5 100 17:21 23.11.2020
5257 Mist 2 1023 93 2000 1.5 100 16:19 23.11.2020
5258 Mist 2 1022 93 2400 1.5 0 14:46 23.11.2020
5259 Drizzle 2 1022 93 1200 1.5 0 12:55 23.11.2020
5260 Drizzle 2 1022 93 1200 1.5 0 12:34 23.11.2020
5261 Mist 2 1022 93 1200 2.1 0 11:44 23.11.2020
5262 Mist 2 1022 93 4000 2.1 0 10:47 23.11.2020
5263 Drizzle 2 1022 93 4000 3.1 0 09:31 23.11.2020
5264 Mist 1 1023 89 3500 1.5 0 08:39 23.11.2020
5265 Mist 1 1023 100 3000 1 0 06:57 23.11.2020
5266 Snow 0 1022 91 2500 1.5 120 00:23 23.11.2020
5267 Clouds 1 1022 100 6000 1.5 330 22:46 22.11.2020
5268 Clouds 1 1022 89 6000 1.5 0 21:37 22.11.2020
5269 Clouds 1 1023 100 6000 3.6 330 20:43 22.11.2020
5270 Clouds 1 1023 79 6000 1.5 0 19:52 22.11.2020
5271 Clouds 2 1023 93 6000 3.1 350 18:40 22.11.2020
5272 Clouds 2 1023 93 6000 4.1 360 16:50 22.11.2020
5273 Clouds 2 1023 67 7000 5.1 10 15:30 22.11.2020
5274 Clouds 2 1022 62 8000 5.1 350 14:28 22.11.2020
5275 Clouds 3 1022 58 8000 5.1 360 12:49 22.11.2020
5276 Clouds 4 1022 54 10000 6.2 360 11:56 22.11.2020
5277 Clouds 4 1022 52 10000 6.2 360 11:20 22.11.2020
5278 Clouds 4 1022 69 10000 6.2 350 10:38 22.11.2020
5279 Clouds 5 1023 60 10000 5.7 360 08:36 22.11.2020
5280 Smoke 1 1020 74 1200 1.5 340 01:47 22.11.2020
5281 Smoke 0 1021 72 1000 1 0 22:56 21.11.2020
5282 Smoke 0 1022 72 2000 1 0 21:47 21.11.2020
5283 Smoke 0 1022 70 2000 1 0 21:18 21.11.2020
5284 Smoke 0 1022 70 2000 1 280 20:33 21.11.2020
5285 Smoke 1 1022 69 2500 1.5 320 19:52 21.11.2020
5286 Smoke 1 1022 69 2500 1.5 320 19:26 21.11.2020
5287 Smoke 3 1022 59 3200 1.5 190 17:57 21.11.2020
5288 Smoke 2 1022 55 3200 1.5 100 16:48 21.11.2020
5289 Smoke 3 1022 51 4000 1.5 120 15:51 21.11.2020
5290 Clear 4 1021 44 9000 2.1 300 15:21 21.11.2020
5291 Clear 4 1021 44 9000 2.1 300 14:42 21.11.2020
5292 Clear 7 1021 36 10000 4.1 350 13:48 21.11.2020
5293 Clear 9 1021 34 10000 3.1 0 12:26 21.11.2020
5294 Clear 9 1021 34 10000 3.1 0 11:56 21.11.2020
5295 Clear 9 1022 36 9000 3.1 0 10:39 21.11.2020
5296 Clear 8 1023 36 9000 4.6 350 09:32 21.11.2020
5297 Clouds 9 1024 29 8000 3.1 0 08:51 21.11.2020
5298 Haze 3 1024 59 8000 1.5 0 05:43 21.11.2020
5299 Clear -2 1024 79 9000 1.77 210 04:24 21.11.2020
5300 Clear -2 1022 74 7000 1.5 320 00:27 21.11.2020
5301 Smoke -1 1022 68 5000 1 0 23:25 20.11.2020
5302 Smoke -1 1023 74 2500 1.5 330 21:48 20.11.2020
5303 Smoke -1 1023 74 2500 1.5 330 21:26 20.11.2020
5304 Smoke -1 1023 68 2500 2.1 310 20:55 20.11.2020
5305 Smoke 0 1023 75 2500 1.5 0 19:44 20.11.2020
5306 Smoke 0 1023 73 2500 1.5 110 18:32 20.11.2020
5307 Smoke 0 1023 72 2500 1.5 110 17:42 20.11.2020
5308 Smoke 0 1023 71 2500 1.5 110 17:23 20.11.2020
5309 Haze 2 1022 64 9000 0.5 282 16:37 20.11.2020
5310 Clear 3 1023 40 9000 2.1 290 15:51 20.11.2020
5311 Clear 4 1022 38 10000 3.6 340 14:30 20.11.2020
5312 Clear 6 1022 30 10000 4.1 360 13:43 20.11.2020
5313 Clear 6 1022 30 10000 4.1 360 13:18 20.11.2020
5314 Clear 7 1022 30 10000 5.1 30 12:31 20.11.2020
5315 Clear 8 1022 26 10000 3.1 0 11:39 20.11.2020
5316 Clear 8 1023 22 10000 3.1 0 10:37 20.11.2020
5317 Clear 7 1024 24 9000 3.1 0 08:52 20.11.2020
5318 Clear 7 1024 24 9000 3.1 0 08:23 20.11.2020
5319 Haze 2 1024 43 9000 2.1 0 05:20 20.11.2020
5320 Clear -3 1023 73 10000 1.5 0 03:43 20.11.2020
5321 Clear -2 1022 63 10000 1 0 22:33 19.11.2020
5322 Clear -1 1022 54 8000 1 0 21:55 19.11.2020
5323 Clear 1 1022 43 10000 1.5 0 20:59 19.11.2020
5324 Clear 1 1022 43 10000 1.5 0 20:30 19.11.2020
5325 Clear 0 1022 75 8000 2.1 310 19:44 19.11.2020
5326 Clear 0 1022 74 8000 2.1 310 19:22 19.11.2020
5327 Clear 3 1022 37 9000 1.5 0 17:38 19.11.2020
5328 Clear 4 1021 35 9000 1.5 0 16:47 19.11.2020
5329 Clouds 6 1020 24 10000 3.1 0 15:31 19.11.2020
5330 Clouds 7 1019 33 10000 3.1 0 13:59 19.11.2020
5331 Clouds 7 1019 33 10000 3.1 0 13:39 19.11.2020
5332 Clouds 8 1019 36 10000 5.1 40 12:57 19.11.2020
5333 Clouds 8 1019 36 10000 5.1 40 12:34 19.11.2020
5334 Clouds 8 1019 42 10000 4.6 80 11:41 19.11.2020
5335 Clouds 8 1019 42 10000 4.6 80 11:22 19.11.2020
5336 Clouds 8 1019 42 9000 3.1 0 10:51 19.11.2020
5337 Clouds 8 1020 36 9000 3.1 0 09:48 19.11.2020
5338 Clouds 8 1020 36 9000 3.1 0 09:28 19.11.2020
5339 Clouds 9 1021 36 9000 3.1 0 08:44 19.11.2020
5340 Haze 8 1021 52 8000 1.5 0 07:36 19.11.2020
5341 Clouds 1 1019 80 9000 3.1 330 01:48 19.11.2020
5342 Clouds 1 1019 80 9000 3.1 330 01:48 19.11.2020
5343 Clouds 2 1019 69 8000 3.1 340 00:33 19.11.2020
5344 Smoke 1 1019 80 2000 1 290 23:32 18.11.2020
5345 Smoke 1 1020 80 2000 1 0 22:59 18.11.2020
5346 Smoke 1 1020 80 2000 1 0 22:29 18.11.2020
5347 Smoke 1 1020 80 2500 2.1 300 21:44 18.11.2020
5348 Smoke 1 1020 80 2500 2.1 300 21:25 18.11.2020
5349 Smoke 0 1020 68 2500 1 0 20:37 18.11.2020
5350 Smoke 2 1020 74 2500 2.1 160 19:42 18.11.2020
5351 Smoke 2 1020 74 2500 2.1 160 19:22 18.11.2020
5352 Haze 1 1020 74 3200 1.5 0 18:40 18.11.2020
5353 Clouds 3 1021 67 10000 1.01 289 17:44 18.11.2020
5354 Clouds 4 1021 65 10000 0.92 298 16:35 18.11.2020
5355 Clouds 4 1021 64 10000 1.05 297 15:59 18.11.2020
5356 Clouds 4 1020 62 10000 1.14 330 14:41 18.11.2020
5357 Clear 5 1019 59 10000 1.79 350 13:55 18.11.2020
5358 Clouds 9 1017 34 10000 1.5 140 13:22 18.11.2020
5359 Clouds 9 1017 34 10000 1.5 140 12:43 18.11.2020
5360 Clouds 9 1018 34 10000 1.53 360 11:51 18.11.2020
5361 Clouds 9 1019 31 9000 1 0 10:54 18.11.2020
5362 Clouds 9 1019 31 9000 1 0 10:27 18.11.2020
5363 Haze 8 1021 36 8000 2.1 0 08:33 18.11.2020
5364 Haze 5 1021 52 5000 3.1 0 06:41 18.11.2020
5365 Clear -2 1020 79 10000 2.1 310 03:48 18.11.2020
5366 Clear 1 1020 59 8000 2.1 340 00:18 18.11.2020
5367 Clear 0 1020 74 7000 1.5 320 23:23 17.11.2020
5368 Smoke 0 1021 74 5000 1.5 320 22:41 17.11.2020
5369 Smoke 0 1021 73 5000 1.5 320 22:23 17.11.2020
5370 Smoke 1 1021 74 3500 1.5 230 21:46 17.11.2020
5371 Smoke 1 1022 69 2500 1 330 20:58 17.11.2020
5372 Smoke 1 1022 69 2500 1 330 20:40 17.11.2020
5373 Smoke 1 1022 69 2500 1 330 20:22 17.11.2020
5374 Smoke 1 1022 74 2000 1.5 290 18:36 17.11.2020
5375 Smoke 1 1022 74 2000 1.5 290 18:18 17.11.2020
5376 Smoke 4 1022 60 2500 1.5 0 16:59 17.11.2020
5377 Smoke 4 1022 60 2500 1.5 0 16:29 17.11.2020
5378 Smoke 4 1022 64 3000 1.5 220 15:45 17.11.2020
5379 Smoke 4 1022 64 3000 1.5 220 15:27 17.11.2020
5380 Clear 6 1022 41 10000 1 0 14:56 17.11.2020
5381 Clear 6 1022 41 10000 1 0 14:28 17.11.2020
5382 Clouds 9 1020 34 10000 0.97 284 13:38 17.11.2020
5383 Clear 9 1022 36 10000 3.1 0 13:18 17.11.2020
5384 Clear 9 1022 36 10000 3.1 0 12:40 17.11.2020
5385 Clear 9 1022 34 10000 3.1 0 11:44 17.11.2020
5386 Clear 9 1023 34 9000 3.1 0 10:49 17.11.2020
5387 Clear 9 1023 34 9000 3.1 0 10:23 17.11.2020
5388 Haze 9 1024 31 8000 2.1 0 09:50 17.11.2020
5389 Haze 9 1024 31 8000 2.1 0 09:27 17.11.2020
5390 Haze 7 1025 36 8000 2.6 0 08:22 17.11.2020
5391 Haze 7 1025 45 8000 2.1 0 07:44 17.11.2020
5392 Haze 4 1026 48 8000 2.1 0 06:33 17.11.2020
5393 Clear -2 1025 92 8000 1 310 03:31 17.11.2020
5394 Clear -1 1023 86 10000 1.17 235 02:35 17.11.2020
5395 Clear -1 1024 86 7000 1 330 01:23 17.11.2020
5396 Clear -1 1024 86 7000 1 330 01:23 17.11.2020
5397 Clear -2 1025 92 6000 1 310 00:50 17.11.2020
5398 Clear 0 1025 78 6000 1.5 0 23:45 16.11.2020
5399 Clear 0 1025 78 6000 1.5 0 23:23 16.11.2020
5400 Haze -1 1025 86 5000 1.5 300 22:42 16.11.2020
5401 Haze -1 1025 86 5000 1.5 300 22:20 16.11.2020
5402 Haze 0 1026 77 5000 1.5 330 21:44 16.11.2020
5403 Haze 0 1026 76 5000 1.5 330 21:24 16.11.2020
5404 Smoke 1 1026 74 3200 1.5 300 20:27 16.11.2020
5405 Smoke 1 1026 80 2500 1.5 300 19:56 16.11.2020
5406 Smoke 1 1026 80 2500 1.5 300 19:32 16.11.2020
5407 Smoke 1 1026 74 2500 1 0 18:56 16.11.2020
5408 Smoke 1 1026 74 2500 1 0 18:28 16.11.2020
5409 Smoke 2 1026 69 2500 1 0 17:41 16.11.2020
5410 Smoke 2 1026 69 2500 1 0 17:19 16.11.2020
5411 Smoke 4 1026 60 2500 2.1 270 16:51 16.11.2020
5412 Smoke 4 1026 60 2500 2.1 270 16:26 16.11.2020
5413 Haze 3 1025 55 5000 2.6 310 15:47 16.11.2020
5414 Clear 5 1025 44 10000 2.1 340 15:28 16.11.2020
5415 Clear 6 1024 45 10000 2.1 340 14:53 16.11.2020
5416 Clear 7 1024 42 10000 3.1 350 13:50 16.11.2020
5417 Clear 7 1024 42 10000 3.1 350 13:21 16.11.2020
5418 Clear 8 1024 39 10000 2.6 350 12:30 16.11.2020
5419 Clear 10 1024 37 10000 1.5 0 11:43 16.11.2020
5420 Clear 10 1024 37 10000 1.5 0 11:22 16.11.2020
5421 Clear 10 1024 31 10000 1 0 10:44 16.11.2020
5422 Clear 10 1024 31 10000 1 0 10:26 16.11.2020
5423 Clear 8 1024 36 10000 3.1 230 09:52 16.11.2020
5424 Clear 8 1024 36 10000 3.1 230 09:34 16.11.2020
5425 Clear 7 1025 39 10000 4.1 230 08:48 16.11.2020
5426 Clear 7 1025 39 10000 4.1 230 08:21 16.11.2020
5427 Clear 7 1025 42 10000 1.5 0 07:19 16.11.2020
5428 Clear 6 1025 45 10000 2.1 300 06:45 16.11.2020
5429 Clear 2 1024 64 10000 2.6 330 05:44 16.11.2020
5430 Clear -2 1022 74 10000 2.1 320 03:54 16.11.2020
5431 Clear -2 1022 74 10000 2.1 320 03:54 16.11.2020
5432 Clear -2 1022 86 10000 2.6 310 01:44 16.11.2020
5433 Clear 0 1022 83 10000 1.5 320 00:26 16.11.2020
5434 Clear 0 1022 84 10000 1.5 320 23:29 15.11.2020
5435 Clear -1 1022 92 8000 1.5 350 22:57 15.11.2020
5436 Clear -1 1022 92 8000 1.5 350 22:22 15.11.2020
5437 Mist -2 1022 100 2000 1.5 0 21:51 15.11.2020
5438 Mist -2 1022 100 2000 1.5 0 21:29 15.11.2020
5439 Mist 0 1022 87 2000 2.1 330 20:51 15.11.2020
5440 Mist 0 1022 87 2000 2.1 330 20:32 15.11.2020
5441 Mist 0 1022 88 2000 1.5 320 19:55 15.11.2020
5442 Mist 0 1022 88 2000 1.5 320 19:36 15.11.2020
5443 Mist 0 1022 89 2000 1.5 320 19:18 15.11.2020
5444 Mist 0 1021 89 2000 1.5 310 18:43 15.11.2020
5445 Mist 0 1021 89 2000 1.5 310 18:24 15.11.2020
5446 Mist 0 1021 89 2000 1.5 0 17:47 15.11.2020
5447 Mist 1 1021 100 3200 1.5 130 17:26 15.11.2020
5448 Mist 1 1021 90 3200 2.1 110 16:52 15.11.2020
5449 Mist 1 1021 90 3200 2.1 110 16:24 15.11.2020
5450 Mist 0 1021 90 2000 2.6 110 15:58 15.11.2020
5451 Mist 0 1021 90 2000 2.6 110 15:39 15.11.2020
5452 Mist 0 1021 89 2000 2.6 110 15:21 15.11.2020
5453 Fog 0 1021 89 600 3.1 90 14:45 15.11.2020
5454 Mist 2 1020 93 9000 2.1 0 14:22 15.11.2020
5455 Mist 2 1020 93 9000 2.1 140 13:41 15.11.2020
5456 Clouds 5 1020 80 10000 3.1 0 12:54 15.11.2020
5457 Clouds 5 1020 80 10000 3.1 0 12:29 15.11.2020
5458 Clouds 2 1020 93 9000 4.1 330 11:58 15.11.2020
5459 Clouds 2 1020 93 9000 4.1 330 11:40 15.11.2020
5460 Clouds 2 1020 93 9000 4.1 330 11:18 15.11.2020
5461 Clouds 3 1020 86 9000 3.1 340 10:49 15.11.2020
5462 Clouds 3 1020 86 9000 3.1 340 10:29 15.11.2020
5463 Clouds 2 1020 93 7000 5.1 350 09:45 15.11.2020
5464 Mist 2 1021 93 2400 2.6 320 09:22 15.11.2020
5465 Mist 2 1021 93 2400 2.6 300 08:54 15.11.2020
5466 Mist 2 1021 93 2400 2.6 300 08:31 15.11.2020
5467 Mist 2 1021 93 3200 1 0 07:43 15.11.2020
5468 Mist 1 1021 86 2800 3.1 350 05:30 15.11.2020
5469 Mist 1 1020 90 2400 2.6 330 04:50 15.11.2020
5470 Fog 0 1018 93 600 1.5 120 00:56 15.11.2020
5471 Mist 0 1018 93 1200 1.5 0 00:29 15.11.2020
5472 Mist 1 1018 100 1400 1 130 23:39 14.11.2020
5473 Mist 1 1019 92 1600 1 0 22:50 14.11.2020
5474 Mist 1 1019 91 1600 1 0 22:31 14.11.2020
5475 Mist 1 1019 91 1600 1.5 0 21:44 14.11.2020
5476 Mist 1 1019 91 1600 1.5 0 21:23 14.11.2020
5477 Mist 1 1019 100 4000 1.5 0 20:59 14.11.2020
5478 Mist 1 1019 100 4000 1.5 0 20:30 14.11.2020
5479 Mist 1 1019 100 4000 1.5 0 20:30 14.11.2020
5480 Mist 1 1020 91 3500 1.5 0 19:55 14.11.2020
5481 Mist 1 1020 91 3500 1.5 0 19:35 14.11.2020
5482 Mist 1 1020 92 2000 1.5 120 18:44 14.11.2020
5483 Mist 1 1020 92 2000 1.5 120 18:25 14.11.2020
5484 Mist 0 1020 92 2000 1.67 2 17:58 14.11.2020
5485 Mist 0 1020 92 2000 1.67 2 17:40 14.11.2020
5486 Mist 0 1020 92 2000 1.38 27 17:19 14.11.2020
5487 Mist 0 1019 92 1600 1.5 140 16:43 14.11.2020
5488 Mist 0 1019 92 1600 1.5 140 16:20 14.11.2020
5489 Mist 0 1019 92 1200 1.5 130 15:52 14.11.2020
5490 Fog 0 1019 92 600 1.5 150 15:27 14.11.2020
5491 Snow 0 1018 92 600 1 0 14:47 14.11.2020
5492 Fog 0 1018 92 600 1 0 14:24 14.11.2020
5493 Fog 0 1018 92 600 1 0 13:45 14.11.2020
5494 Fog 0 1018 92 800 1.5 310 13:24 14.11.2020
5495 Snow 0 1018 92 800 0.7 308 12:48 14.11.2020
5496 Fog 0 1018 92 800 0.79 333 12:29 14.11.2020
5497 Mist 0 1019 92 1000 0.79 333 11:46 14.11.2020
5498 Snow 0 1019 91 800 0.5 0 11:25 14.11.2020
5499 Mist 1 1019 91 1500 1 40 10:49 14.11.2020
5500 Mist 2 1019 93 3500 1 0 10:26 14.11.2020
5501 Rain 2 1019 93 3500 1 0 09:50 14.11.2020
5502 Rain 3 1020 93 6000 3.1 0 09:28 14.11.2020
5503 Rain 3 1020 93 6000 3.1 0 09:28 14.11.2020
5504 Rain 4 1021 93 7000 3.6 300 08:55 14.11.2020
5505 Clouds 4 1021 93 7000 3.6 300 08:37 14.11.2020
5506 Clouds 5 1021 93 7000 5.1 320 07:50 14.11.2020
5507 Clouds 5 1021 93 7000 5.1 320 07:28 14.11.2020
5508 Rain 5 1022 93 7000 4.1 340 06:32 14.11.2020
5509 Mist 5 1021 100 5000 3.1 0 05:33 14.11.2020
5510 Rain 5 1022 100 5000 2.1 0 04:18 14.11.2020
5511 Rain 5 1022 93 5000 1 0 01:20 14.11.2020
5512 Mist 5 1023 93 7000 1 0 23:47 13.11.2020
5513 Mist 5 1023 93 7000 1 0 23:47 13.11.2020
5514 Mist 5 1023 93 7000 1 0 23:25 13.11.2020
5515 Rain 5 1024 93 7000 1 0 22:55 13.11.2020
5516 Clouds 5 1024 93 7000 1 0 22:28 13.11.2020
5517 Clouds 5 1024 93 8000 1.5 310 21:59 13.11.2020
5518 Clouds 5 1024 93 8000 1.5 310 21:39 13.11.2020
5519 Rain 5 1024 93 8000 1.5 310 21:20 13.11.2020
5520 Mist 6 1024 93 6000 1.5 300 20:42 13.11.2020
5521 Rain 6 1024 93 6000 1.5 300 20:22 13.11.2020
5522 Rain 6 1024 93 6000 1.5 300 20:22 13.11.2020
5523 Clouds 6 1025 87 6000 1.5 0 19:46 13.11.2020
5524 Clouds 6 1025 87 6000 1.5 0 19:23 13.11.2020
5525 Clouds 6 1025 87 6000 1.5 0 19:23 13.11.2020
5526 Clouds 7 1024 81 9000 2.6 0 18:56 13.11.2020
5527 Rain 7 1024 81 9000 2.6 0 18:23 13.11.2020
5528 Rain 8 1024 75 9000 2.6 240 17:41 13.11.2020
5529 Rain 8 1024 75 9000 2.6 240 17:19 13.11.2020
5530 Rain 9 1024 61 9000 2.6 220 16:49 13.11.2020
5531 Clouds 9 1024 61 9000 2.6 220 16:24 13.11.2020
5532 Rain 9 1024 61 9000 4.6 130 15:49 13.11.2020
5533 Rain 11 1024 43 10000 6.7 140 15:27 13.11.2020
5534 Rain 12 1023 40 10000 3.1 0 14:48 13.11.2020
5535 Rain 12 1023 40 10000 3.1 0 14:24 13.11.2020
5536 Clouds 13 1023 37 10000 5.1 350 13:47 13.11.2020
5537 Rain 14 1023 35 10000 3.1 0 13:23 13.11.2020
5538 Clouds 14 1023 35 10000 3.1 0 12:46 13.11.2020
5539 Rain 14 1023 35 10000 3.1 0 12:24 13.11.2020
5540 Clouds 14 1024 35 9000 5.1 100 11:49 13.11.2020
5541 Clouds 14 1024 35 9000 5.1 100 11:27 13.11.2020
5542 Rain 14 1024 33 9000 4.1 80 10:56 13.11.2020
5543 Haze 14 1024 33 9000 4.1 80 10:35 13.11.2020
5544 Haze 14 1025 28 9000 3.1 0 09:56 13.11.2020
5545 Haze 14 1025 28 9000 3.1 0 09:38 13.11.2020
5546 Haze 14 1025 28 9000 3.1 0 09:19 13.11.2020
5547 Haze 14 1025 28 9000 3.1 0 09:19 13.11.2020
5548 Haze 14 1025 28 9000 3.1 0 09:19 13.11.2020
5549 Rain 14 1025 28 9000 5.1 340 08:36 13.11.2020
5550 Haze 13 1026 30 6000 3.1 0 07:58 13.11.2020
5551 Haze 13 1026 30 6000 3.1 0 07:39 13.11.2020
5552 Rain 13 1026 30 6000 3.1 0 07:21 13.11.2020
5553 Rain 13 1026 30 6000 1.5 0 06:45 13.11.2020
5554 Rain 10 1026 34 6000 1 0 05:43 13.11.2020
5555 Haze 9 1026 36 6000 1 0 04:59 13.11.2020
5556 Clouds 7 1025 52 6000 1.5 0 01:45 13.11.2020
5557 Clouds 7 1025 48 7000 1 0 00:38 13.11.2020
5558 Clouds 7 1025 48 7000 1 0 00:18 13.11.2020
5559 Clouds 8 1026 45 8000 1.5 0 23:37 12.11.2020
5560 Clouds 8 1026 45 8000 1.5 0 23:18 12.11.2020
5561 Clouds 8 1026 45 8000 1.5 0 22:48 12.11.2020
5562 Clouds 8 1026 45 8000 1.5 0 22:30 12.11.2020
5563 Clouds 9 1026 39 8000 1.5 0 21:43 12.11.2020
5564 Clouds 9 1026 39 8000 1.5 0 21:24 12.11.2020
5565 Clouds 10 1027 37 8000 1.5 0 20:58 12.11.2020
5566 Clouds 10 1027 37 8000 1.5 0 20:39 12.11.2020
5567 Clouds 10 1027 37 8000 1.5 0 20:19 12.11.2020
5568 Clouds 11 1027 34 8000 1.5 0 19:44 12.11.2020
5569 Clouds 11 1027 34 8000 1.5 0 19:26 12.11.2020
5570 Clouds 11 1027 37 8000 2.1 170 18:48 12.11.2020
5571 Clouds 11 1027 37 8000 2.1 170 18:23 12.11.2020
5572 Clouds 12 1027 30 9000 1.5 0 17:45 12.11.2020
5573 Clouds 12 1027 30 9000 1.5 0 17:26 12.11.2020
5574 Rain 12 1027 30 9000 1.5 0 16:46 12.11.2020
5575 Rain 12 1026 25 10000 1.5 0 16:25 12.11.2020
5576 Rain 12 1026 25 10000 1.5 0 15:57 12.11.2020
5577 Clear 12 1026 25 10000 1.5 0 15:32 12.11.2020
5578 Clouds 14 1026 22 9000 2.1 0 14:59 12.11.2020
5579 Clouds 14 1026 22 9000 2.1 0 14:41 12.11.2020
5580 Clouds 14 1026 22 9000 2.1 0 14:41 12.11.2020
5581 Clouds 14 1026 22 9000 2.1 0 14:21 12.11.2020
5582 Clouds 16 1025 18 9000 5.1 120 13:46 12.11.2020
5583 Clouds 16 1025 18 9000 5.1 120 13:21 12.11.2020
5584 Clouds 18 1026 17 9000 3.1 0 12:51 12.11.2020
5585 Clouds 18 1026 17 9000 3.1 0 12:29 12.11.2020
5586 Haze 17 1026 18 8000 3.1 0 11:59 12.11.2020
5587 Haze 17 1026 18 8000 3.1 0 11:40 12.11.2020
5588 Haze 17 1026 18 8000 3.1 0 11:22 12.11.2020
5589 Haze 17 1026 18 8000 3.1 0 10:41 12.11.2020
5590 Haze 17 1027 18 7000 3.1 0 10:22 12.11.2020
5591 Haze 16 1028 21 6000 3.1 0 09:40 12.11.2020
5592 Haze 16 1028 21 6000 3.1 0 09:20 12.11.2020
5593 Haze 15 1029 24 5000 1.5 0 08:41 12.11.2020
5594 Haze 15 1029 24 5000 1.5 0 08:21 12.11.2020
5595 Haze 15 1030 24 5000 1.5 0 07:59 12.11.2020
5596 Haze 15 1030 24 5000 1.5 0 07:39 12.11.2020
5597 Clouds 13 1030 26 6000 2.6 0 06:55 12.11.2020
5598 Clouds 13 1030 26 6000 2.6 0 06:27 12.11.2020
5599 Clouds 4 1028 51 8000 2.6 330 03:51 12.11.2020
5600 Clouds 4 1028 51 8000 2.6 330 03:20 12.11.2020
5601 Haze 3 1028 64 4000 0.29 202 00:49 12.11.2020
5602 Haze 4 1028 60 4000 1 0 23:46 11.11.2020
5603 Haze 4 1028 60 4000 1 0 23:25 11.11.2020
5604 Haze 5 1028 52 5000 1 290 22:56 11.11.2020
5605 Haze 5 1028 52 5000 1 290 22:38 11.11.2020
5606 Haze 5 1028 52 5000 1 290 22:18 11.11.2020
5607 Haze 6 1028 48 5000 1 0 21:41 11.11.2020
5608 Haze 6 1028 48 5000 1 0 21:21 11.11.2020
5609 Haze 6 1028 45 5000 0.64 23 20:55 11.11.2020
5610 Haze 6 1028 45 5000 0.64 23 20:36 11.11.2020
5611 Haze 6 1028 45 5000 0.64 23 20:36 11.11.2020
5612 Haze 6 1028 45 5000 0.82 2 20:18 11.11.2020
5613 Haze 6 1028 48 5000 0.82 2 19:43 11.11.2020
5614 Haze 6 1028 48 5000 1.05 16 19:24 11.11.2020
5615 Clouds 7 1028 45 6000 1 0 18:47 11.11.2020
5616 Clear 7 1028 45 6000 1 0 18:27 11.11.2020
5617 Clear 9 1028 36 8000 1 0 17:41 11.11.2020
5618 Clear 9 1028 36 8000 1 0 17:22 11.11.2020
5619 Clear 9 1027 34 9000 1 320 16:45 11.11.2020
5620 Clear 9 1027 34 9000 1 320 16:27 11.11.2020
5621 Clear 12 1026 25 9000 1.05 15 15:47 11.11.2020
5622 Clear 12 1026 25 9000 1.26 41 15:26 11.11.2020
5623 Clouds 13 1026 24 9000 2.1 0 14:52 11.11.2020
5624 Clouds 13 1026 24 9000 2.1 0 14:52 11.11.2020
5625 Clouds 13 1026 24 9000 2.1 0 14:31 11.11.2020
5626 Clouds 15 1025 22 9000 2.6 0 13:55 11.11.2020
5627 Clouds 15 1025 22 9000 2.6 0 13:33 11.11.2020
5628 Clouds 17 1025 20 9000 3.1 0 12:41 11.11.2020
5629 Clouds 17 1025 20 9000 3.1 0 12:20 11.11.2020
5630 Clouds 17 1025 20 9000 3.1 0 11:49 11.11.2020
5631 Haze 17 1025 20 9000 3.1 0 11:29 11.11.2020
5632 Haze 16 1023 21 9000 1.78 55 10:40 11.11.2020
5633 Clouds 16 1027 21 6000 2.6 0 10:21 11.11.2020
5634 Clouds 16 1027 21 6000 2.6 0 09:45 11.11.2020
5635 Clouds 16 1027 21 6000 2.6 0 09:26 11.11.2020
5636 Haze 15 1028 22 5000 2.6 0 08:46 11.11.2020
5637 Haze 15 1028 22 5000 2.6 0 08:27 11.11.2020
5638 Clouds 13 1028 26 6000 1.5 0 07:49 11.11.2020
5639 Clouds 13 1028 26 6000 1.5 0 07:18 11.11.2020
5640 Clouds 10 1028 31 6000 2.6 0 06:26 11.11.2020
5641 Clouds 4 1026 60 6000 1.5 170 03:57 11.11.2020
5642 Clouds 5 1025 52 6000 1 0 00:59 11.11.2020
5643 Clouds 5 1025 52 6000 1 0 00:28 11.11.2020
5644 Clouds 4 1026 51 6000 1 0 23:43 10.11.2020
5645 Clouds 4 1026 51 6000 1 0 23:24 10.11.2020
5646 Clouds 5 1026 48 7000 1 120 22:56 10.11.2020
5647 Clouds 5 1026 48 7000 1 120 22:27 10.11.2020
5648 Clouds 7 1025 42 8000 1 350 21:44 10.11.2020
5649 Clouds 7 1025 42 8000 1 350 21:25 10.11.2020
5650 Clouds 6 1026 38 7000 1.5 300 20:59 10.11.2020
5651 Clouds 6 1026 38 7000 1.5 300 20:41 10.11.2020
5652 Clear 6 1026 38 7000 1.5 300 20:22 10.11.2020
5653 Clear 8 1026 33 8000 0.5 0 19:47 10.11.2020
5654 Clear 8 1026 33 8000 0.5 0 19:28 10.11.2020
5655 Clear 9 1026 31 8000 1.5 0 18:58 10.11.2020
5656 Clear 9 1026 31 8000 1.5 0 18:39 10.11.2020
5657 Clear 9 1026 31 8000 1.5 0 18:18 10.11.2020
5658 Clear 11 1025 25 10000 1 0 17:43 10.11.2020
5659 Clear 11 1025 25 10000 1 0 17:25 10.11.2020
5660 Clear 12 1025 23 10000 3.6 60 16:44 10.11.2020
5661 Clear 12 1025 23 10000 3.6 60 16:24 10.11.2020
5662 Clear 13 1024 22 9000 3.6 80 15:56 10.11.2020
5663 Haze 17 1022 20 9000 2.6 130 15:37 10.11.2020
5664 Clear 14 1023 19 9000 5.1 90 15:19 10.11.2020
5665 Clear 14 1023 19 9000 5.1 90 14:41 10.11.2020
5666 Clear 14 1023 19 9000 5.1 90 14:21 10.11.2020
5667 Clear 17 1023 16 9000 6.7 100 13:41 10.11.2020
5668 Clear 17 1023 16 9000 6.7 100 13:23 10.11.2020
5669 Clear 18 1022 16 9000 6.7 90 12:58 10.11.2020
5670 Haze 19 1020 15 9000 1.5 340 12:38 10.11.2020
5671 Clear 18 1023 17 9000 3.1 0 12:20 10.11.2020
5672 Clear 18 1023 17 9000 3.1 0 11:38 10.11.2020
5673 Clear 18 1023 17 9000 3.1 0 11:19 10.11.2020
5674 Clear 18 1023 17 8000 2.6 0 10:42 10.11.2020
5675 Clear 18 1023 17 8000 2.6 0 10:24 10.11.2020
5676 Clear 19 1024 17 6000 1 0 09:49 10.11.2020
5677 Clear 19 1024 17 6000 1 0 09:26 10.11.2020
5678 Clear 18 1025 18 6000 2.1 0 08:57 10.11.2020
5679 Clear 18 1025 18 6000 2.1 0 08:30 10.11.2020
5680 Clear 15 1025 21 6000 1.5 0 07:47 10.11.2020
5681 Clear 15 1025 21 6000 1.5 0 07:26 10.11.2020
5682 Clear 13 1026 26 6000 1.5 0 06:47 10.11.2020
5683 Clear 13 1026 26 6000 1.5 0 06:23 10.11.2020
5684 Clear 11 1026 27 8000 1 0 05:27 10.11.2020
5685 Clear 2 1024 59 6000 0.4 341 02:48 10.11.2020
5686 Clear 4 1024 44 8000 0.5 0 01:37 10.11.2020
5687 Clouds 5 1024 48 8000 0.75 14 00:23 10.11.2020
5688 Clouds 4 1024 48 8000 1 0 23:41 09.11.2020
5689 Clouds 5 1024 48 8000 1.5 310 22:56 09.11.2020
5690 Clouds 5 1024 48 8000 1.5 310 22:37 09.11.2020
5691 Clouds 5 1024 48 8000 1.5 310 22:19 09.11.2020
5692 Clouds 7 1024 39 7000 1.5 300 21:39 09.11.2020
5693 Clouds 7 1024 39 7000 1.5 300 21:20 09.11.2020
5694 Clouds 7 1024 39 7000 1.5 300 20:40 09.11.2020
5695 Clouds 8 1024 39 7000 2.1 310 20:21 09.11.2020
5696 Clouds 8 1024 36 7000 1.5 300 19:42 09.11.2020
5697 Clouds 8 1024 36 7000 1.5 300 19:23 09.11.2020
5698 Clouds 8 1024 36 7000 1.5 300 18:56 09.11.2020
5699 Clouds 9 1024 26 6000 1.5 300 18:37 09.11.2020
5700 Clouds 9 1024 26 6000 1.5 300 18:18 09.11.2020
5701 Clouds 9 1024 26 6000 1.5 300 17:42 09.11.2020
5702 Clouds 12 1023 22 6000 1.5 0 17:24 09.11.2020
5703 Clouds 12 1023 22 6000 1.5 0 16:41 09.11.2020
5704 Clouds 12 1023 22 6000 1.5 0 16:20 09.11.2020
5705 Clouds 13 1022 19 7000 1 0 15:42 09.11.2020
5706 Clouds 13 1022 19 7000 1 0 15:24 09.11.2020
5707 Clouds 13 1022 19 7000 1 0 14:46 09.11.2020
5708 Clouds 14 1022 16 7000 3.6 130 14:27 09.11.2020
5709 Clear 19 1022 9 10000 1.5 340 13:52 09.11.2020
5710 Clear 19 1022 9 10000 1.5 340 13:21 09.11.2020
5711 Clear 20 1022 9 10000 3.1 340 12:50 09.11.2020
5712 Clear 20 1022 9 10000 3.1 340 12:26 09.11.2020
5713 Clear 21 1022 7 10000 1.5 0 11:57 09.11.2020
5714 Clear 21 1022 7 10000 1.5 0 11:39 09.11.2020
5715 Clear 21 1022 7 10000 1.5 0 11:20 09.11.2020
5716 Clear 22 1023 9 8000 1 0 10:42 09.11.2020
5717 Clear 22 1023 9 8000 1 0 10:23 09.11.2020
5718 Clear 19 1024 10 8000 1.5 0 09:45 09.11.2020
5719 Clear 19 1024 10 8000 1.5 0 09:24 09.11.2020
5720 Clear 19 1025 11 8000 1 0 08:41 09.11.2020
5721 Clear 19 1025 11 8000 1 0 08:20 09.11.2020
5722 Clear 18 1026 11 7000 0.5 0 07:41 09.11.2020
5723 Clouds 18 1026 11 7000 0.5 0 07:21 09.11.2020
5724 Clouds 14 1027 15 8000 2.1 310 06:37 09.11.2020
5725 Clouds 4 1026 44 9000 3.1 0 03:31 09.11.2020
5726 Clouds 4 1026 55 9000 1 0 01:44 09.11.2020
5727 Clouds 5 1026 56 6000 1 0 00:59 09.11.2020
5728 Clouds 5 1026 52 6000 1 0 23:53 08.11.2020
5729 Clouds 5 1026 52 6000 1 0 23:53 08.11.2020
5730 Clouds 5 1026 52 6000 1 0 23:30 08.11.2020
5731 Clouds 5 1026 44 6000 1 0 22:55 08.11.2020
5732 Clouds 5 1026 44 6000 1 0 22:36 08.11.2020
5733 Clouds 5 1026 44 6000 1 0 22:18 08.11.2020
5734 Smoke 6 1026 45 5000 1 0 21:38 08.11.2020
5735 Smoke 6 1026 45 5000 1 0 21:19 08.11.2020
5736 Haze 8 1027 36 5000 1.5 310 20:39 08.11.2020
5737 Haze 8 1027 36 5000 1.5 310 20:39 08.11.2020
5738 Haze 8 1027 36 5000 1.5 310 20:21 08.11.2020
5739 Haze 8 1027 33 5000 1.5 0 19:57 08.11.2020
5740 Haze 8 1027 33 5000 1.5 0 19:39 08.11.2020
5741 Haze 8 1027 33 5000 1.5 0 19:20 08.11.2020
5742 Haze 9 1027 31 5000 0.5 0 18:47 08.11.2020
5743 Haze 9 1027 31 5000 0.5 0 18:21 08.11.2020
5744 Haze 11 1027 25 5000 1 0 17:57 08.11.2020
5745 Haze 7 1024 36 8000 1.5 270 17:37 08.11.2020
5746 Clouds 12 1026 27 6000 2.1 0 17:19 08.11.2020
5747 Clouds 12 1026 27 6000 2.1 0 16:47 08.11.2020
5748 Clouds 12 1026 27 6000 2.1 0 16:21 08.11.2020
5749 Clouds 14 1026 22 6000 2.1 0 15:56 08.11.2020
5750 Clouds 14 1026 22 6000 2.1 0 15:38 08.11.2020
5751 Clouds 14 1026 22 6000 2.1 0 15:19 08.11.2020
5752 Haze 16 1022 17 8000 0.89 33 14:39 08.11.2020
5753 Clear 19 1024 11 10000 1.5 0 14:20 08.11.2020
5754 Clear 19 1024 11 10000 1.5 0 13:45 08.11.2020
5755 Clear 19 1024 11 10000 1.5 0 13:45 08.11.2020
5756 Clear 19 1024 11 10000 1.5 0 13:21 08.11.2020
5757 Clear 21 1024 8 10000 1.5 0 12:42 08.11.2020
5758 Clear 21 1024 8 10000 1.5 0 12:24 08.11.2020
5759 Clear 21 1024 8 10000 1.5 0 11:57 08.11.2020
5760 Clear 22 1025 9 10000 1 0 11:38 08.11.2020
5761 Clear 22 1025 9 10000 1 0 11:20 08.11.2020
5762 Clear 21 1025 9 10000 1.5 0 10:49 08.11.2020
5763 Clear 21 1025 9 10000 1.5 0 10:18 08.11.2020
5764 Clear 20 1027 11 10000 1 0 09:42 08.11.2020
5765 Clear 20 1027 11 10000 1 0 09:24 08.11.2020
5766 Haze 19 1028 10 10000 1.5 0 08:55 08.11.2020
5767 Haze 19 1028 10 10000 1.5 0 08:36 08.11.2020
5768 Haze 17 1029 13 10000 2.1 320 07:57 08.11.2020
5769 Haze 17 1029 13 10000 2.1 320 07:39 08.11.2020
5770 Haze 17 1029 13 10000 2.1 320 07:18 08.11.2020
5771 Clear 10 1029 21 10000 2.1 330 05:55 08.11.2020
5772 Clear 10 1029 21 10000 2.1 330 05:26 08.11.2020
5773 Clear 5 1028 41 10000 2.1 300 03:46 08.11.2020
5774 Clear 4 1027 41 9000 4.1 330 01:49 08.11.2020
5775 Clear 4 1027 41 9000 4.1 330 01:18 08.11.2020
5776 Clear 4 1027 48 8000 1.5 250 00:24 08.11.2020
5777 Clear 5 1027 44 8000 1.5 330 23:45 07.11.2020
5778 Clear 5 1027 44 8000 1.5 330 23:27 07.11.2020
5779 Smoke 5 1027 48 5000 1.5 0 22:41 07.11.2020
5780 Smoke 5 1027 48 5000 1.5 0 22:23 07.11.2020
5781 Smoke 6 1027 45 4000 2.1 0 21:45 07.11.2020
5782 Smoke 6 1027 45 4000 2.1 0 21:22 07.11.2020
5783 Smoke 5 1027 48 4000 1 0 20:50 07.11.2020
5784 Smoke 5 1027 48 4000 1 0 20:32 07.11.2020
5785 Smoke 7 1027 45 4000 1 0 19:57 07.11.2020
5786 Smoke 7 1027 45 4000 1 0 19:39 07.11.2020
5787 Smoke 7 1027 45 4000 1 0 19:19 07.11.2020
5788 Haze 8 1027 33 5000 1 0 18:38 07.11.2020
5789 Haze 8 1027 33 5000 1 0 18:20 07.11.2020
5790 Clear 9 1027 29 6000 1 0 17:43 07.11.2020
5791 Clear 9 1027 29 6000 1 0 17:43 07.11.2020
5792 Clear 9 1027 29 6000 1 0 17:23 07.11.2020
5793 Clear 11 1027 25 6000 1.5 0 16:42 07.11.2020
5794 Clear 11 1027 25 6000 1.5 0 16:23 07.11.2020
5795 Clear 13 1026 26 10000 1.5 0 15:45 07.11.2020
5796 Clear 13 1026 26 10000 1.5 0 15:23 07.11.2020
5797 Clear 15 1025 15 10000 1 0 14:55 07.11.2020
5798 Haze 16 1023 17 9000 0.81 5 14:37 07.11.2020
5799 Clear 19 1026 10 10000 1.5 0 14:18 07.11.2020
5800 Clear 19 1026 10 10000 1.5 0 13:39 07.11.2020
5801 Clear 19 1026 10 10000 1.5 0 13:20 07.11.2020
5802 Clear 21 1026 8 10000 1 0 12:32 07.11.2020
5803 Clear 21 1026 8 10000 2.1 0 11:45 07.11.2020
5804 Clear 21 1026 8 10000 2.1 0 11:24 07.11.2020
5805 Clear 21 1027 9 10000 2.1 0 10:56 07.11.2020
5806 Clear 21 1027 9 10000 2.1 0 10:37 07.11.2020
5807 Clear 21 1027 9 10000 2.1 0 10:18 07.11.2020
5808 Clear 19 1028 12 7000 1 0 09:42 07.11.2020
5809 Clear 19 1028 12 7000 1 0 09:19 07.11.2020
5810 Haze 18 1029 11 8000 1 0 08:42 07.11.2020
5811 Haze 18 1029 11 8000 1 0 08:22 07.11.2020
5812 Haze 16 1030 13 9000 1.5 0 07:37 07.11.2020
5813 Haze 16 1030 13 9000 1.5 0 07:37 07.11.2020
5814 Haze 13 1030 16 9000 1.5 270 06:48 07.11.2020
5815 Clear 10 1030 19 9000 2.6 320 05:38 07.11.2020
5816 Clear 4 1029 38 10000 1.5 0 03:25 07.11.2020
5817 Clear 3 1028 40 9000 2.6 320 01:45 07.11.2020
5818 Clear 3 1028 40 9000 2.6 320 01:25 07.11.2020
5819 Clear 6 1028 30 9000 2.6 340 00:28 07.11.2020
5820 Clear 3 1028 47 7000 1 0 23:30 06.11.2020
5821 Clear 5 1028 44 6000 1 0 22:45 06.11.2020
5822 Clear 5 1028 44 6000 1 0 22:20 06.11.2020
5823 Clear 5 1028 44 6000 1 0 22:20 06.11.2020
5824 Clear 5 1028 44 6000 1 0 21:56 06.11.2020
5825 Clear 5 1028 44 6000 1 0 21:37 06.11.2020
5826 Clear 5 1028 44 6000 1 0 21:18 06.11.2020
5827 Clear 5 1028 48 6000 1 0 20:43 06.11.2020
5828 Clear 5 1028 48 6000 1 0 20:19 06.11.2020
5829 Clear 7 1028 39 7000 1 0 19:45 06.11.2020
5830 Clear 7 1028 39 7000 1 0 19:26 06.11.2020
5831 Clear 7 1028 33 8000 1 0 18:47 06.11.2020
5832 Clear 7 1028 33 8000 1 0 18:28 06.11.2020
5833 Clear 8 1028 31 8000 1 0 17:52 06.11.2020
5834 Clear 8 1028 31 8000 1 0 17:52 06.11.2020
5835 Clear 8 1028 31 8000 1 0 17:34 06.11.2020
5836 Clear 10 1027 27 8000 1.5 0 16:59 06.11.2020
5837 Clear 10 1027 27 8000 1.5 0 16:37 06.11.2020
5838 Clear 10 1027 27 8000 1.5 0 16:19 06.11.2020
5839 Clear 12 1027 25 10000 1 0 15:33 06.11.2020
5840 Clear 12 1027 25 10000 1 0 15:33 06.11.2020
5841 Clear 15 1026 12 10000 0.5 0 14:55 06.11.2020
5842 Clear 15 1026 12 10000 0.5 0 14:30 06.11.2020
5843 Clear 17 1026 10 10000 1 0 13:56 06.11.2020
5844 Clear 17 1026 10 10000 1 0 13:26 06.11.2020
5845 Clear 19 1026 10 10000 1.5 0 12:59 06.11.2020
5846 Clear 19 1026 10 10000 1.5 0 12:40 06.11.2020
5847 Clear 19 1026 10 10000 1.5 0 12:21 06.11.2020
5848 Clear 19 1026 10 10000 1.5 0 11:37 06.11.2020
5849 Clear 18 1026 10 10000 2.1 0 10:58 06.11.2020
5850 Clear 18 1026 10 10000 2.1 0 10:35 06.11.2020
5851 Clear 18 1027 10 9000 1.5 0 09:57 06.11.2020
5852 Clear 18 1027 10 9000 1.5 0 09:38 06.11.2020
5853 Clear 18 1027 10 9000 1.5 0 09:20 06.11.2020
5854 Clear 17 1028 11 9000 1 0 08:47 06.11.2020
5855 Clear 17 1028 11 9000 1 0 08:27 06.11.2020
5856 Haze 16 1029 13 8000 1 0 07:42 06.11.2020
5857 Haze 16 1029 13 8000 1 0 07:19 06.11.2020
5858 Haze 13 1029 15 9000 1.5 280 06:40 06.11.2020
5859 Haze 9 1028 19 9000 2.6 330 05:38 06.11.2020
5860 Clear 4 1026 51 10000 1 0 02:00 06.11.2020
5861 Clear 3 1026 47 9000 1.5 300 00:29 06.11.2020
5862 Clear 4 1026 41 8000 1 280 23:51 05.11.2020
5863 Clear 4 1026 41 8000 1 280 23:24 05.11.2020
5864 Clear 5 1026 38 8000 1 0 22:48 05.11.2020
5865 Clear 5 1026 38 8000 1 0 22:26 05.11.2020
5866 Clear 7 1026 36 7000 1.5 340 21:57 05.11.2020
5867 Clear 7 1026 36 7000 1.5 340 21:38 05.11.2020
5868 Clear 7 1026 36 7000 1.5 340 21:19 05.11.2020
5869 Clear 7 1025 33 7000 1.5 0 20:43 05.11.2020
5870 Clear 7 1025 33 7000 1.5 0 20:24 05.11.2020
5871 Clear 7 1025 33 7000 1.5 0 20:24 05.11.2020
5872 Clear 8 1026 31 6000 1.5 270 19:45 05.11.2020
5873 Clear 8 1026 31 6000 1.5 270 19:27 05.11.2020
5874 Clear 9 1025 24 6000 1.5 0 18:58 05.11.2020
5875 Clear 9 1025 24 6000 1.5 0 18:39 05.11.2020
5876 Clear 9 1025 24 6000 1.5 0 18:21 05.11.2020
5877 Clear 10 1025 23 8000 1.5 0 17:45 05.11.2020
5878 Clear 10 1025 23 8000 1.5 0 17:25 05.11.2020
5879 Clear 14 1024 10 10000 3.1 0 16:48 05.11.2020
5880 Clear 14 1024 10 10000 3.1 0 16:28 05.11.2020
5881 Clear 14 1023 12 10000 2.6 130 15:53 05.11.2020
5882 Clear 14 1023 12 10000 2.6 130 15:27 05.11.2020
5883 Clear 15 1022 12 10000 1.5 0 14:57 05.11.2020
5884 Clear 15 1022 12 10000 1.5 0 14:39 05.11.2020
5885 Clear 15 1022 12 10000 1.5 0 14:20 05.11.2020
5886 Clear 18 1022 7 10000 1.5 0 13:40 05.11.2020
5887 Clear 19 1022 6 10000 2.6 0 12:56 05.11.2020
5888 Clear 19 1022 6 10000 2.6 0 12:56 05.11.2020
5889 Clear 19 1022 6 10000 2.6 0 12:38 05.11.2020
5890 Clear 19 1022 6 10000 2.6 0 12:19 05.11.2020
5891 Clear 19 1022 6 10000 2.6 0 11:41 05.11.2020
5892 Clear 19 1022 6 10000 2.6 0 11:22 05.11.2020
5893 Clear 20 1022 6 10000 2.1 0 10:48 05.11.2020
5894 Clear 20 1022 6 10000 2.1 0 10:26 05.11.2020
5895 Clear 20 1023 6 10000 2.1 0 09:49 05.11.2020
5896 Clear 20 1023 6 10000 2.1 0 09:24 05.11.2020
5897 Clear 18 1024 8 10000 1.5 0 08:49 05.11.2020
5898 Clear 18 1024 8 10000 1.5 0 08:31 05.11.2020
5899 Clear 16 1024 10 8000 2.6 0 07:55 05.11.2020
5900 Clear 16 1024 10 8000 2.6 0 07:27 05.11.2020
5901 Clear 13 1024 12 8000 2.1 310 06:43 05.11.2020
5902 Clear 11 1024 13 10000 3.1 300 05:59 05.11.2020
5903 Clear 4 1022 27 10000 2.1 330 02:42 05.11.2020
5904 Clear 5 1021 25 10000 3.1 0 00:35 05.11.2020
5905 Clear 5 1022 32 10000 1.5 0 23:51 04.11.2020
5906 Clear 5 1022 32 10000 1.5 0 23:27 04.11.2020
5907 Clear 6 1022 26 10000 1.5 0 22:57 04.11.2020
5908 Clear 6 1022 26 10000 1.5 0 22:37 04.11.2020
5909 Clear 6 1022 26 10000 1.5 0 22:19 04.11.2020
5910 Clear 7 1022 22 10000 1.5 0 21:43 04.11.2020
5911 Clear 7 1022 22 10000 1.5 0 21:25 04.11.2020
5912 Clear 7 1022 20 10000 3.1 330 20:46 04.11.2020
5913 Clear 7 1022 20 10000 3.1 330 20:28 04.11.2020
5914 Clear 9 1022 18 10000 1.5 0 19:55 04.11.2020
5915 Clear 9 1022 18 10000 1.5 0 19:37 04.11.2020
5916 Clear 9 1022 18 10000 1.5 0 19:19 04.11.2020
5917 Clear 10 1022 12 10000 4.6 320 18:39 04.11.2020
5918 Clear 10 1022 12 10000 4.6 320 18:21 04.11.2020
5919 Clear 10 1022 12 10000 4.6 320 17:46 04.11.2020
5920 Clear 13 1022 9 10000 4.6 330 17:25 04.11.2020
5921 Clear 16 1021 8 10000 8.2 20 16:45 04.11.2020
5922 Clear 17 1021 8 10000 9.3 20 16:25 04.11.2020
5923 Clear 17 1021 8 10000 9.3 20 15:55 04.11.2020
5924 Clear 17 1021 8 10000 9.3 20 15:37 04.11.2020
5925 Clear 17 1021 8 10000 9.3 20 15:18 04.11.2020
5926 Clear 17 1020 7 10000 6.2 360 14:42 04.11.2020
5927 Clear 17 1020 7 10000 6.2 360 14:24 04.11.2020
5928 Clear 19 1020 6 10000 8.7 350 13:50 04.11.2020
5929 Clear 19 1020 6 10000 8.7 350 13:21 04.11.2020
5930 Clear 20 1020 6 10000 6.2 360 12:56 04.11.2020
5931 Clear 20 1020 6 10000 6.2 360 12:38 04.11.2020
5932 Clear 20 1020 6 10000 6.2 360 12:20 04.11.2020
5933 Clear 21 1020 6 10000 4.6 20 11:44 04.11.2020
5934 Clear 21 1020 6 10000 4.6 20 11:21 04.11.2020
5935 Clear 21 1021 7 10000 3.1 0 10:48 04.11.2020
5936 Clear 21 1021 7 10000 3.1 0 10:23 04.11.2020
5937 Clear 21 1022 8 10000 2.1 0 09:55 04.11.2020
5938 Clear 21 1022 8 10000 2.1 0 09:27 04.11.2020
5939 Clear 19 1023 10 10000 2.1 0 08:47 04.11.2020
5940 Clear 19 1023 10 10000 2.1 0 08:22 04.11.2020
5941 Clear 18 1024 10 10000 3.1 0 07:57 04.11.2020
5942 Clear 18 1024 10 10000 3.1 0 07:31 04.11.2020
5943 Clear 14 1025 14 10000 4.1 320 06:57 04.11.2020
5944 Clear 14 1025 14 10000 4.1 320 06:37 04.11.2020
5945 Clear 14 1025 14 10000 4.1 320 06:37 04.11.2020
5946 Clear 8 1024 22 10000 5.1 340 04:18 04.11.2020
5947 Clear 4 1023 29 10000 2.6 310 02:31 04.11.2020
5948 Clear 5 1023 32 10000 1.5 0 01:22 04.11.2020
5949 Clear 6 1023 30 10000 1.5 0 23:50 03.11.2020
5950 Clear 6 1023 30 10000 1.5 0 23:24 03.11.2020
5951 Clear 9 1023 24 10000 3.1 260 22:42 03.11.2020
5952 Clear 9 1023 24 10000 3.1 260 22:22 03.11.2020
5953 Clear 9 1023 24 10000 3.1 260 21:59 03.11.2020
5954 Clear 9 1023 24 10000 3.1 260 21:41 03.11.2020
5955 Clear 11 1023 21 10000 4.1 260 21:21 03.11.2020
5956 Clear 11 1024 21 10000 2.1 0 20:45 03.11.2020
5957 Clear 11 1024 21 10000 2.1 0 20:26 03.11.2020
5958 Clear 13 1024 17 10000 4.1 280 19:45 03.11.2020
5959 Clear 11 1024 18 10000 4.1 300 19:25 03.11.2020
5960 Clear 11 1024 18 10000 4.1 300 19:25 03.11.2020
5961 Clear 11 1024 18 10000 4.1 300 18:56 03.11.2020
5962 Clear 11 1024 18 10000 4.1 300 18:38 03.11.2020
5963 Clear 11 1024 18 10000 4.1 300 18:18 03.11.2020
5964 Clear 15 1023 13 10000 5.7 10 17:42 03.11.2020
5965 Clear 15 1023 13 10000 5.7 10 17:23 03.11.2020
5966 Clear 18 1020 11 10000 8.2 350 16:45 03.11.2020
5967 Clear 16 1023 11 10000 6.7 340 16:24 03.11.2020
5968 Clear 16 1023 11 10000 6.7 340 15:48 03.11.2020
5969 Clear 16 1023 11 10000 6.7 340 15:29 03.11.2020
5970 Clear 18 1022 10 10000 7.7 10 14:53 03.11.2020
5971 Clear 18 1022 10 10000 7.7 10 14:33 03.11.2020
5972 Clear 20 1022 8 10000 3.1 0 13:47 03.11.2020
5973 Clear 20 1022 8 10000 3.1 0 13:24 03.11.2020
5974 Clear 22 1022 7 10000 3.1 0 12:59 03.11.2020
5975 Clear 22 1022 7 10000 3.1 0 12:39 03.11.2020
5976 Clear 22 1022 7 10000 3.1 0 12:20 03.11.2020
5977 Clear 22 1022 7 10000 2.6 0 11:44 03.11.2020
5978 Clear 22 1022 7 10000 2.6 0 11:20 03.11.2020
5979 Clear 21 1023 7 10000 3.1 0 10:40 03.11.2020
5980 Clear 21 1023 7 10000 3.1 0 10:21 03.11.2020
5981 Clear 21 1024 7 10000 3.1 0 09:52 03.11.2020
5982 Clear 21 1024 7 10000 3.1 0 09:33 03.11.2020
5983 Clear 19 1025 8 10000 3.1 0 08:56 03.11.2020
5984 Clear 19 1025 8 10000 3.1 0 08:36 03.11.2020
5985 Clear 18 1026 7 10000 2.6 0 07:58 03.11.2020
5986 Clear 18 1026 7 10000 2.6 0 07:35 03.11.2020
5987 Clear 14 1026 9 10000 4.6 300 06:52 03.11.2020
5988 Clear 11 1026 11 10000 4.1 320 05:50 03.11.2020
5989 Clear 6 1025 15 10000 3.6 330 03:26 03.11.2020
5990 Clear 2 1024 43 7000 1 290 00:42 03.11.2020
5991 Haze 3 1024 40 6000 1 0 23:59 02.11.2020
5992 Haze 3 1024 40 6000 1 0 23:38 02.11.2020
5993 Haze 3 1024 40 5000 1 0 22:56 02.11.2020
5994 Haze 3 1024 40 5000 1 0 22:37 02.11.2020
5995 Haze 4 1024 35 4000 1 0 21:59 02.11.2020
5996 Haze 4 1024 35 4000 1 0 21:38 02.11.2020
5997 Haze 4 1024 35 4000 1 0 21:19 02.11.2020
5998 Haze 5 1025 38 4000 1.5 120 20:41 02.11.2020
5999 Haze 5 1025 38 4000 1.5 120 20:20 02.11.2020
6000 Haze 6 1025 28 4000 1 300 19:57 02.11.2020
6001 Haze 6 1025 28 4000 1 300 19:38 02.11.2020
6002 Haze 6 1025 28 4000 1 300 19:20 02.11.2020
6003 Clear 5 1022 32 10000 1.5 270 18:39 02.11.2020
6004 Haze 9 1024 23 4000 1.5 0 18:20 02.11.2020
6005 Haze 9 1024 23 4000 1.5 0 17:45 02.11.2020
6006 Haze 10 1024 23 4000 1.5 0 17:25 02.11.2020
6007 Haze 10 1024 23 4000 1.5 0 16:56 02.11.2020
6008 Haze 10 1024 23 4000 1.5 0 16:38 02.11.2020
6009 Haze 10 1024 23 4000 1.5 0 16:18 02.11.2020
6010 Clear 13 1024 16 10000 1.5 0 15:39 02.11.2020
6011 Clear 13 1024 16 10000 1.5 0 15:20 02.11.2020
6012 Clear 13 1024 16 10000 1.5 0 15:20 02.11.2020
6013 Clear 15 1023 13 10000 1.5 0 14:51 02.11.2020
6014 Clear 15 1023 13 10000 1.5 0 14:20 02.11.2020
6015 Clear 20 1023 3 10000 1.5 0 13:51 02.11.2020
6016 Clear 20 1023 3 10000 1.5 0 13:23 02.11.2020
6017 Clear 21 1023 4 10000 2.1 0 12:54 02.11.2020
6018 Clear 21 1023 4 10000 2.1 0 12:29 02.11.2020
6019 Clear 21 1024 4 10000 2.1 0 11:56 02.11.2020
6020 Clear 21 1024 4 10000 2.1 0 11:37 02.11.2020
6021 Clear 21 1024 4 10000 2.1 0 11:18 02.11.2020
6022 Clear 21 1024 4 10000 2.1 0 10:39 02.11.2020
6023 Clear 21 1024 4 10000 2.1 0 10:18 02.11.2020
6024 Clear 20 1025 5 10000 2.1 0 09:43 02.11.2020
6025 Clear 20 1025 5 10000 2.1 0 09:23 02.11.2020
6026 Clear 18 1026 6 10000 1.5 0 08:40 02.11.2020
6027 Clear 18 1026 6 10000 1.5 0 08:20 02.11.2020
6028 Clear 17 1027 7 10000 1.5 0 07:49 02.11.2020
6029 Clear 14 1027 7 10000 1.5 0 06:48 02.11.2020
6030 Clear 14 1027 7 10000 1.5 0 06:24 02.11.2020
6031 Clear 3 1025 32 10000 1.09 209 01:40 02.11.2020
6032 Clear 4 1025 15 10000 3.6 330 00:44 02.11.2020
6033 Clear 4 1025 15 10000 3.6 330 00:25 02.11.2020
6034 Clear 4 1025 15 10000 3.6 330 23:41 01.11.2020
6035 Clear 3 1025 17 10000 3.1 320 23:23 01.11.2020
6036 Clear 4 1025 25 8000 3.1 320 22:45 01.11.2020
6037 Clear 4 1025 25 8000 3.1 320 22:25 01.11.2020
6038 Clear 3 1025 29 6000 2.1 320 21:46 01.11.2020
6039 Clear 3 1025 29 6000 2.1 320 21:28 01.11.2020
6040 Haze 5 1025 38 4000 1 0 20:59 01.11.2020
6041 Haze 5 1025 38 4000 1 0 20:40 01.11.2020
6042 Haze 5 1025 38 4000 1 0 20:20 01.11.2020
6043 Haze 5 1026 32 4000 1 0 19:41 01.11.2020
6044 Haze 5 1026 32 4000 1 0 19:22 01.11.2020
6045 Haze 5 1026 32 4000 1 0 18:42 01.11.2020
6046 Haze 7 1025 24 4000 0.5 0 18:20 01.11.2020
6047 Haze 7 1025 24 4000 0.5 0 18:20 01.11.2020
6048 Haze 7 1025 24 4000 0.5 0 18:20 01.11.2020
6049 Haze 8 1025 28 5000 0.4 261 17:57 01.11.2020
6050 Haze 8 1025 28 5000 0.4 261 17:37 01.11.2020
6051 Haze 8 1025 28 5000 0.14 318 17:19 01.11.2020
6052 Haze 9 1025 24 6000 0.14 318 16:40 01.11.2020
6053 Haze 9 1025 24 6000 0.41 358 16:19 01.11.2020
6054 Clear 13 1024 16 10000 1.5 230 15:41 01.11.2020
6055 Clear 15 1024 9 10000 2.1 130 15:21 01.11.2020
6056 Clear 15 1024 9 10000 2.1 130 14:57 01.11.2020
6057 Clear 15 1024 9 10000 2.1 130 14:39 01.11.2020
6058 Clear 15 1024 9 10000 2.1 130 14:18 01.11.2020
6059 Clear 18 1024 5 10000 1 0 13:46 01.11.2020
6060 Clear 18 1024 5 10000 1 0 13:28 01.11.2020
6061 Clear 19 1024 4 10000 1.5 0 12:43 01.11.2020
6062 Clear 19 1024 4 10000 1.5 0 12:22 01.11.2020
6063 Clear 20 1024 4 10000 1.5 0 11:51 01.11.2020
6064 Clear 20 1024 4 10000 1.5 0 11:19 01.11.2020
6065 Clear 19 1025 5 10000 2.6 0 10:43 01.11.2020
6066 Clear 19 1025 5 10000 2.6 0 10:43 01.11.2020
6067 Clear 19 1025 5 10000 2.6 0 10:24 01.11.2020
6068 Clear 17 1026 6 10000 5.1 170 09:55 01.11.2020
6069 Clear 17 1026 6 10000 5.1 170 09:35 01.11.2020
6070 Clear 17 1027 7 10000 2.1 0 08:46 01.11.2020
6071 Clear 17 1027 7 10000 2.1 0 08:20 01.11.2020
6072 Clear 15 1028 7 10000 1.5 0 07:39 01.11.2020
6073 Clear 2 1026 17 10000 3.1 330 03:54 01.11.2020
6074 Clear 2 1025 21 10000 3.1 330 01:49 01.11.2020
6075 Clear 3 1025 25 8000 2.6 320 00:26 01.11.2020
6076 Clear 2 1025 31 7000 3.1 330 23:25 31.10.2020
6077 Clear 3 1025 34 7000 2.1 320 22:57 31.10.2020
6078 Clear 3 1025 34 7000 2.1 320 22:37 31.10.2020
6079 Clear 3 1025 34 7000 2.1 320 22:19 31.10.2020
6080 Haze 3 1025 34 5000 1 0 21:43 31.10.2020
6081 Haze 3 1025 34 5000 1 0 21:19 31.10.2020
6082 Haze 3 1025 47 4000 1 180 20:38 31.10.2020
6083 Haze 3 1025 47 4000 1 180 20:18 31.10.2020
6084 Haze 6 1025 26 5000 1.5 0 19:41 31.10.2020
6085 Haze 6 1025 26 5000 1.5 0 19:22 31.10.2020
6086 Haze 7 1025 26 5000 1 0 18:47 31.10.2020
6087 Haze 7 1025 26 5000 1 0 18:24 31.10.2020
6088 Haze 7 1025 24 5000 0.5 0 17:40 31.10.2020
6089 Haze 7 1025 24 5000 0.5 0 17:22 31.10.2020
6090 Clear 9 1024 23 6000 0.5 0 16:44 31.10.2020
6091 Clear 9 1024 23 6000 0.5 0 16:25 31.10.2020
6092 Clear 9 1024 23 6000 0.5 0 16:25 31.10.2020
6093 Clear 11 1024 17 9000 2.1 0 15:45 31.10.2020
6094 Clear 11 1024 17 9000 2.1 0 15:24 31.10.2020
6095 Clear 15 1023 5 10000 2.1 0 14:50 31.10.2020
6096 Clear 15 1023 5 10000 2.1 0 14:31 31.10.2020
6097 Clear 17 1023 4 10000 1.5 0 13:50 31.10.2020
6098 Clear 17 1023 4 10000 1.5 0 13:26 31.10.2020
6099 Clear 19 1023 5 10000 1.5 0 12:43 31.10.2020
6100 Clear 19 1024 5 10000 1.5 0 11:51 31.10.2020
6101 Clear 19 1024 5 10000 1.5 0 11:30 31.10.2020
6102 Clear 18 1024 5 10000 1.5 0 10:59 31.10.2020
6103 Clear 18 1024 5 10000 1.5 0 10:36 31.10.2020
6104 Clear 18 1025 7 10000 2.1 0 09:47 31.10.2020
6105 Clear 18 1025 7 10000 2.1 0 09:28 31.10.2020
6106 Clear 17 1026 7 10000 2.1 0 08:52 31.10.2020
6107 Clear 17 1026 7 10000 2.1 0 08:18 31.10.2020
6108 Clear 11 1027 14 9000 1.5 0 07:28 31.10.2020
6109 Clear 11 1027 14 9000 1.5 0 06:42 31.10.2020
6110 Clear 11 1027 14 9000 1.5 0 06:20 31.10.2020
6111 Clear 2 1025 27 10000 2.1 310 03:46 31.10.2020
6112 Clear 1 1025 24 10000 3.1 320 01:44 31.10.2020
6113 Clear 4 1024 35 8000 1.5 270 00:49 31.10.2020
6114 Clear 2 1024 37 8000 1.5 330 23:53 30.10.2020
6115 Clear 2 1024 37 8000 1.5 330 23:28 30.10.2020
6116 Clear 3 1025 34 7000 0.74 209 22:56 30.10.2020
6117 Clear 3 1025 34 7000 0.74 209 22:37 30.10.2020
6118 Clear 3 1025 34 7000 0.71 233 22:18 30.10.2020
6119 Clear 5 1025 35 6000 1 260 21:41 30.10.2020
6120 Clear 5 1025 35 6000 1 260 21:22 30.10.2020
6121 Haze 5 1025 38 5000 1 0 20:43 30.10.2020
6122 Haze 5 1025 38 5000 1 0 20:24 30.10.2020
6123 Haze 5 1025 38 5000 1.5 0 19:53 30.10.2020
6124 Clear 6 1025 28 7000 1.5 290 19:21 30.10.2020
6125 Clear 6 1025 22 7000 1 0 18:52 30.10.2020
6126 Clear 6 1025 22 7000 1 0 18:34 30.10.2020
6127 Clear 8 1025 19 8000 1 0 17:57 30.10.2020
6128 Clear 8 1025 19 8000 1 0 17:39 30.10.2020
6129 Clear 8 1025 19 8000 1 0 17:20 30.10.2020
6130 Clear 11 1024 15 10000 1.5 0 16:49 30.10.2020
6131 Clear 11 1024 15 10000 1.5 0 16:24 30.10.2020
6132 Haze 10 1022 23 8000 0.73 349 15:41 30.10.2020
6133 Clear 15 1023 5 10000 1.5 0 15:20 30.10.2020
6134 Clear 15 1023 5 10000 1.5 0 14:46 30.10.2020
6135 Clear 17 1023 5 10000 2.1 0 14:28 30.10.2020
6136 Clear 17 1023 5 10000 2.1 0 13:57 30.10.2020
6137 Clear 17 1023 5 10000 2.1 0 13:39 30.10.2020
6138 Clear 17 1023 5 10000 2.1 0 13:19 30.10.2020
6139 Clear 19 1023 4 10000 1.5 0 12:40 30.10.2020
6140 Clear 19 1023 4 10000 1.5 0 12:21 30.10.2020
6141 Clear 19 1024 5 10000 1.5 0 11:43 30.10.2020
6142 Clear 19 1024 5 10000 1.5 0 11:20 30.10.2020
6143 Clear 18 1024 6 10000 1.5 0 10:47 30.10.2020
6144 Clear 18 1024 6 10000 1.5 0 10:23 30.10.2020
6145 Clear 18 1025 6 10000 1 0 09:46 30.10.2020
6146 Clear 18 1025 6 10000 1 0 09:24 30.10.2020
6147 Clear 17 1026 7 10000 1 0 08:46 30.10.2020
6148 Clear 17 1026 7 10000 1 0 08:26 30.10.2020
6149 Clear 16 1027 6 10000 1 0 07:50 30.10.2020
6150 Clear 16 1027 6 10000 1 0 07:31 30.10.2020
6151 Clear 11 1027 11 10000 1.5 320 06:47 30.10.2020
6152 Clear 9 1027 11 10000 1.5 330 05:22 30.10.2020
6153 Clear 3 1025 17 10000 2.6 320 02:28 30.10.2020
6154 Clear 3 1024 29 10000 2.1 320 00:43 30.10.2020
6155 Clear 4 1024 38 8000 1 310 23:50 29.10.2020
6156 Clear 4 1024 38 8000 1 310 23:31 29.10.2020
6157 Clear 5 1024 35 8000 1.5 260 22:59 29.10.2020
6158 Clear 5 1024 35 8000 1.5 260 22:40 29.10.2020
6159 Clear 5 1024 35 8000 1.5 260 22:22 29.10.2020
6160 Clear 4 1025 35 7000 1 0 21:39 29.10.2020
6161 Clear 4 1025 35 7000 1 0 21:20 29.10.2020
6162 Clear 3 1022 29 10000 1.5 220 20:42 29.10.2020
6163 Clear 8 1025 22 7000 1.5 260 20:19 29.10.2020
6164 Clear 8 1025 22 7000 1.5 260 19:43 29.10.2020
6165 Clear 8 1025 22 7000 1.5 260 19:22 29.10.2020
6166 Clear 9 1025 16 8000 1.5 260 18:55 29.10.2020
6167 Clear 9 1025 16 8000 1.5 260 18:36 29.10.2020
6168 Clear 9 1025 16 8000 1.5 260 18:18 29.10.2020
6169 Clear 10 1025 9 10000 2.1 0 17:40 29.10.2020
6170 Clear 10 1025 9 10000 2.1 0 17:20 29.10.2020
6171 Clear 13 1024 4 10000 2.1 0 16:46 29.10.2020
6172 Clear 13 1024 4 10000 2.1 0 16:20 29.10.2020
6173 Clear 14 1023 4 10000 5.1 30 15:56 29.10.2020
6174 Clear 14 1023 4 10000 5.1 30 15:37 29.10.2020
6175 Clear 14 1023 4 10000 5.1 30 15:19 29.10.2020
6176 Clear 15 1023 4 10000 3.1 340 14:45 29.10.2020
6177 Clear 15 1023 4 10000 3.1 340 14:23 29.10.2020
6178 Clear 18 1023 3 10000 3.6 20 13:47 29.10.2020
6179 Clear 18 1023 3 10000 3.6 20 13:28 29.10.2020
6180 Clear 19 1023 4 10000 5.1 60 12:44 29.10.2020
6181 Clear 19 1023 4 10000 5.1 60 12:20 29.10.2020
6182 Clear 20 1023 3 10000 6.7 10 11:58 29.10.2020
6183 Clear 20 1023 3 10000 6.7 10 11:39 29.10.2020
6184 Clear 20 1023 3 10000 6.7 10 11:20 29.10.2020
6185 Clouds 21 1024 4 10000 3.1 0 10:37 29.10.2020
6186 Clouds 21 1024 4 10000 3.1 0 10:37 29.10.2020
6187 Clouds 21 1024 4 10000 3.1 0 10:19 29.10.2020
6188 Clouds 18 1025 7 10000 7.2 340 09:50 29.10.2020
6189 Clouds 18 1025 7 10000 7.2 340 09:26 29.10.2020
6190 Clear 18 1026 7 10000 3.1 0 08:46 29.10.2020
6191 Clear 18 1026 7 10000 3.1 0 08:24 29.10.2020
6192 Clear 16 1026 13 10000 1.5 0 07:51 29.10.2020
6193 Clear 16 1026 13 10000 1.5 0 07:23 29.10.2020
6194 Clear 14 1026 19 8000 1.5 0 06:53 29.10.2020
6195 Clear 8 1025 33 10000 2.1 0 04:50 29.10.2020
6196 Clear 6 1024 35 10000 1 320 02:32 29.10.2020
6197 Clear 5 1023 56 10000 0.43 318 00:45 29.10.2020
6198 Clear 6 1022 54 10000 0.49 316 00:23 29.10.2020
6199 Clear 6 1022 54 10000 0.49 316 23:43 28.10.2020
6200 Clear 12 1023 18 10000 5.1 20 23:20 28.10.2020
6201 Clear 12 1023 18 10000 5.1 20 22:44 28.10.2020
6202 Clear 12 1023 18 10000 5.1 20 22:25 28.10.2020
6203 Clear 11 1023 21 10000 1 0 21:46 28.10.2020
6204 Clear 11 1023 21 10000 1 0 21:26 28.10.2020
6205 Clouds 12 1023 20 10000 4.6 350 20:59 28.10.2020
6206 Clouds 12 1023 20 10000 4.6 350 20:40 28.10.2020
6207 Clouds 12 1023 20 10000 4.6 350 20:18 28.10.2020
6208 Clouds 14 1023 16 10000 7.2 360 19:45 28.10.2020
6209 Clouds 14 1023 16 10000 7.2 360 19:26 28.10.2020
6210 Clouds 14 1023 16 10000 4.1 340 18:43 28.10.2020
6211 Clouds 14 1023 16 10000 4.1 340 18:20 28.10.2020
6212 Clear 15 1022 15 10000 5.7 10 17:44 28.10.2020
6213 Clear 15 1022 15 10000 5.7 10 17:22 28.10.2020
6214 Clear 14 1022 16 10000 3.6 350 16:49 28.10.2020
6215 Clear 14 1022 16 10000 3.6 350 16:30 28.10.2020
6216 Haze 16 1018 14 9000 5.7 360 15:45 28.10.2020
6217 Clouds 12 1021 36 10000 2.18 17 15:20 28.10.2020
6218 Clouds 12 1021 36 10000 2.18 17 14:57 28.10.2020
6219 Clouds 12 1021 36 10000 2.18 17 14:38 28.10.2020
6220 Clouds 18 1020 15 10000 3.1 0 14:18 28.10.2020
6221 Clear 16 1018 27 10000 5.58 8 12:39 28.10.2020
6222 Clear 18 1017 23 10000 4.34 22 12:20 28.10.2020
6223 Clear 18 1017 23 10000 4.34 22 11:44 28.10.2020
6224 Clouds 20 1020 13 10000 5.1 10 11:23 28.10.2020
6225 Clear 18 1017 23 10000 3.23 31 10:58 28.10.2020
6226 Clear 18 1017 23 10000 3.23 31 10:58 28.10.2020
6227 Clear 18 1017 23 10000 3.23 31 10:40 28.10.2020
6228 Clear 18 1017 23 10000 3.23 31 10:40 28.10.2020
6229 Clouds 19 1021 14 10000 3.1 0 10:22 28.10.2020
6230 Clouds 19 1021 14 10000 3.1 0 09:39 28.10.2020
6231 Clouds 19 1021 14 10000 3.1 0 09:20 28.10.2020
6232 Haze 19 1022 15 10000 2.6 0 08:47 28.10.2020
6233 Haze 19 1022 15 10000 2.6 0 08:25 28.10.2020
6234 Haze 18 1023 16 9000 2.1 0 07:48 28.10.2020
6235 Haze 18 1023 16 9000 2.1 0 07:30 28.10.2020
6236 Clear 15 1023 21 7000 2.1 0 06:41 28.10.2020
6237 Haze 12 1023 25 6000 1 0 05:51 28.10.2020
6238 Clear 6 1023 48 8000 1 0 04:54 28.10.2020
6239 Clear 6 1023 48 8000 1 0 04:25 28.10.2020
6240 Clear 6 1022 45 10000 1 0 02:26 28.10.2020
6241 Clear 6 1021 45 10000 1 0 01:49 28.10.2020
6242 Clear 8 1021 42 10000 0.5 0 23:57 27.10.2020
6243 Clear 8 1021 42 10000 0.5 0 23:38 27.10.2020
6244 Clear 8 1021 42 10000 0.5 0 23:20 27.10.2020
6245 Clear 8 1021 36 10000 1 0 22:42 27.10.2020
6246 Clear 8 1021 36 10000 1 0 22:19 27.10.2020
6247 Clear 10 1022 34 9000 1.5 300 21:55 27.10.2020
6248 Clear 10 1022 34 9000 1.5 300 21:37 27.10.2020
6249 Clear 10 1022 34 9000 1.5 300 21:37 27.10.2020
6250 Clear 10 1022 34 9000 1.5 300 21:37 27.10.2020
6251 Clear 10 1022 34 9000 1.5 300 21:37 27.10.2020
6252 Clear 10 1022 34 9000 1.5 300 21:18 27.10.2020
6253 Clear 9 1022 36 8000 2.6 310 20:41 27.10.2020
6254 Clear 9 1022 36 8000 2.6 310 20:22 27.10.2020
6255 Haze 8 1019 42 8000 0.9 25 19:39 27.10.2020
6256 Clear 11 1021 25 8000 1 0 19:21 27.10.2020
6257 Clear 11 1021 25 8000 1 0 18:58 27.10.2020
6258 Clear 11 1021 25 8000 1 0 18:40 27.10.2020
6259 Clear 11 1021 25 8000 1 0 18:19 27.10.2020
6260 Clear 13 1021 22 8000 0.5 0 17:43 27.10.2020
6261 Clear 13 1020 19 8000 1 0 17:21 27.10.2020
6262 Clear 13 1020 19 8000 1 0 16:49 27.10.2020
6263 Clear 16 1020 14 8000 1 0 16:30 27.10.2020
6264 Clear 16 1020 14 8000 1 0 15:55 27.10.2020
6265 Clear 16 1020 14 8000 1 0 15:37 27.10.2020
6266 Clear 16 1020 14 8000 1 0 15:18 27.10.2020
6267 Clear 18 1019 11 10000 3.1 0 14:42 27.10.2020
6268 Clear 18 1019 11 10000 3.1 0 14:23 27.10.2020
6269 Clear 22 1019 7 10000 1 0 13:46 27.10.2020
6270 Clear 22 1019 7 10000 1 0 13:22 27.10.2020
6271 Clear 23 1019 8 10000 1.5 0 12:40 27.10.2020
6272 Clear 23 1019 8 10000 1.5 0 12:22 27.10.2020
6273 Clear 22 1019 9 10000 2.6 0 11:42 27.10.2020
6274 Clear 22 1019 9 10000 2.6 0 11:24 27.10.2020
6275 Clear 22 1019 9 10000 2.6 0 10:47 27.10.2020
6276 Clear 22 1020 9 10000 2.6 0 10:29 27.10.2020
6277 Clear 21 1021 9 10000 3.1 0 09:47 27.10.2020
6278 Clear 21 1021 9 10000 3.1 0 09:26 27.10.2020
6279 Clear 20 1022 10 10000 3.1 0 08:41 27.10.2020
6280 Clear 20 1022 10 10000 3.1 0 08:22 27.10.2020
6281 Haze 19 1023 11 9000 1.5 0 07:46 27.10.2020
6282 Haze 19 1023 11 9000 1.5 0 07:28 27.10.2020
6283 Haze 16 1023 13 10000 3.1 0 06:38 27.10.2020
6284 Haze 16 1023 13 10000 3.1 0 06:19 27.10.2020
6285 Clear 13 1024 17 10000 2.1 0 05:41 27.10.2020
6286 Clear 8 1024 26 10000 1.5 0 04:50 27.10.2020
6287 Clear 5 1023 27 10000 2.6 320 02:34 27.10.2020
6288 Clear 5 1023 41 8000 1.5 310 00:58 27.10.2020
6289 Clear 6 1023 41 7000 1 310 23:47 26.10.2020
6290 Clear 6 1023 41 7000 1 310 23:26 26.10.2020
6291 Haze 6 1023 45 6000 1 0 22:49 26.10.2020
6292 Haze 6 1023 45 6000 1 0 22:27 26.10.2020
6293 Haze 7 1024 39 6000 1 0 21:50 26.10.2020
6294 Haze 7 1024 39 6000 1 0 21:50 26.10.2020
6295 Haze 7 1024 39 6000 1 0 21:21 26.10.2020
6296 Haze 7 1024 33 7000 1 0 20:58 26.10.2020
6297 Haze 7 1024 33 7000 1 0 20:39 26.10.2020
6298 Haze 7 1024 33 7000 1 0 20:19 26.10.2020
6299 Haze 9 1024 26 7000 1.5 290 19:47 26.10.2020
6300 Haze 9 1024 26 7000 1.5 290 19:24 26.10.2020
6301 Haze 9 1024 26 7000 1.5 290 18:46 26.10.2020
6302 Clear 9 1024 23 8000 1.5 310 18:25 26.10.2020
6303 Haze 11 1024 25 8000 1 0 17:59 26.10.2020
6304 Haze 11 1024 25 8000 1 0 17:39 26.10.2020
6305 Haze 11 1024 25 8000 1 0 17:21 26.10.2020
6306 Haze 12 1024 17 9000 1 0 16:43 26.10.2020
6307 Haze 12 1024 17 9000 1 0 16:21 26.10.2020
6308 Clear 14 1023 11 10000 3.1 0 15:43 26.10.2020
6309 Clear 14 1023 11 10000 3.1 0 15:25 26.10.2020
6310 Clear 15 1023 9 10000 3.6 350 14:53 26.10.2020
6311 Clear 15 1023 9 10000 3.6 350 14:34 26.10.2020
6312 Clear 18 1022 7 10000 3.6 340 13:45 26.10.2020
6313 Clear 18 1022 7 10000 3.6 340 13:25 26.10.2020
6314 Clear 19 1023 7 10000 3.6 340 12:55 26.10.2020
6315 Clear 19 1023 7 10000 3.6 340 12:32 26.10.2020
6316 Clear 21 1023 6 10000 3.1 0 11:57 26.10.2020
6317 Clear 21 1023 6 10000 3.1 0 11:39 26.10.2020
6318 Clear 21 1023 6 10000 3.1 0 11:21 26.10.2020
6319 Haze 20 1024 7 10000 3.1 0 10:48 26.10.2020
6320 Haze 20 1024 7 10000 3.1 0 10:26 26.10.2020
6321 Clear 18 1025 10 9000 1.5 0 09:55 26.10.2020
6322 Clear 18 1025 10 9000 1.5 0 09:31 26.10.2020
6323 Clear 17 1026 10 9000 1.5 0 08:54 26.10.2020
6324 Clear 17 1026 10 9000 1.5 0 08:24 26.10.2020
6325 Clear 17 1027 14 9000 2.6 0 07:40 26.10.2020
6326 Clear 17 1027 14 9000 2.6 0 07:21 26.10.2020
6327 Clear 10 1026 18 10000 2.1 0 05:31 26.10.2020
6328 Clear 7 1026 26 10000 2.1 0 04:19 26.10.2020
6329 Clear 4 1025 38 10000 1 290 03:21 26.10.2020
6330 Clear 5 1024 27 10000 2.6 330 01:34 26.10.2020
6331 Clear 5 1024 30 10000 2.6 330 00:35 26.10.2020
6332 Clear 5 1024 38 10000 1 260 23:47 25.10.2020
6333 Clear 5 1024 38 10000 1 260 23:28 25.10.2020
6334 Clear 6 1024 38 10000 1 320 22:47 25.10.2020
6335 Clear 6 1024 38 10000 1 320 22:28 25.10.2020
6336 Clear 6 1024 33 8000 1 0 21:51 25.10.2020
6337 Clear 6 1024 33 8000 1 0 21:31 25.10.2020
6338 Clear 7 1024 30 10000 1 0 20:59 25.10.2020
6339 Clear 7 1024 30 10000 1 0 20:41 25.10.2020
6340 Clear 7 1024 30 10000 1 0 20:23 25.10.2020
6341 Clear 7 1024 30 10000 1 0 19:55 25.10.2020
6342 Clear 9 1024 21 10000 1 0 19:37 25.10.2020
6343 Clear 9 1024 21 10000 1 0 19:18 25.10.2020
6344 Clear 11 1024 15 10000 3.1 0 18:41 25.10.2020
6345 Clear 11 1024 15 10000 3.1 0 18:41 25.10.2020
6346 Clear 11 1024 15 10000 3.1 0 18:22 25.10.2020
6347 Clear 11 1024 15 10000 3.1 0 17:55 25.10.2020
6348 Clear 15 1021 10 10000 7.2 350 17:37 25.10.2020
6349 Clear 14 1023 10 10000 5.1 10 17:18 25.10.2020
6350 Clear 14 1023 10 10000 5.1 10 17:18 25.10.2020
6351 Clear 14 1023 10 10000 5.1 10 16:43 25.10.2020
6352 Clear 14 1023 10 10000 5.1 10 16:23 25.10.2020
6353 Clear 14 1023 10 10000 5.1 10 15:47 25.10.2020
6354 Clear 14 1023 10 10000 5.1 10 15:47 25.10.2020
6355 Clear 14 1023 11 10000 6.2 10 15:26 25.10.2020
6356 Clear 15 1022 11 10000 6.2 10 14:52 25.10.2020
6357 Clear 17 1021 12 10000 3.28 359 14:29 25.10.2020
6358 Clear 17 1021 12 10000 3.28 359 13:44 25.10.2020
6359 Clear 17 1021 12 10000 2.13 24 13:24 25.10.2020
6360 Clear 18 1021 11 10000 1.5 0 12:49 25.10.2020
6361 Clear 18 1021 11 10000 1.5 0 12:27 25.10.2020
6362 Clear 18 1021 11 10000 3.1 0 11:58 25.10.2020
6363 Clear 18 1021 11 10000 3.1 0 11:40 25.10.2020
6364 Clear 18 1021 11 10000 3.1 0 11:19 25.10.2020
6365 Clear 19 1022 12 10000 2.1 0 10:45 25.10.2020
6366 Clear 19 1022 12 10000 2.1 0 10:25 25.10.2020
6367 Clear 17 1022 13 10000 3.1 0 09:50 25.10.2020
6368 Clear 17 1022 13 10000 3.1 0 09:21 25.10.2020
6369 Clear 18 1023 12 10000 5.1 280 08:56 25.10.2020
6370 Clear 18 1023 12 10000 5.1 280 08:37 25.10.2020
6371 Clear 18 1023 12 10000 5.1 280 08:19 25.10.2020
6372 Clear 16 1023 19 10000 1.5 0 07:42 25.10.2020
6373 Clear 14 1024 22 10000 2.6 0 06:52 25.10.2020
6374 Clear 14 1024 22 10000 2.6 0 06:26 25.10.2020
6375 Clear 13 1023 24 10000 2.1 0 05:19 25.10.2020
6376 Clear 9 1023 36 10000 1 0 04:23 25.10.2020
6377 Clouds 8 1021 31 10000 2.6 330 02:21 25.10.2020
6378 Clouds 9 1021 34 10000 3.1 310 00:52 25.10.2020
6379 Clouds 9 1021 34 10000 3.1 310 00:28 25.10.2020
6380 Clouds 10 1021 46 10000 1 0 23:54 24.10.2020
6381 Clouds 10 1021 46 10000 1 0 23:31 24.10.2020
6382 Clouds 11 1021 55 10000 3.1 60 22:58 24.10.2020
6383 Clouds 11 1021 55 10000 3.1 60 22:39 24.10.2020
6384 Clouds 11 1021 53 10000 3.1 60 22:21 24.10.2020
6385 Clouds 11 1021 43 10000 7.2 20 21:43 24.10.2020
6386 Clouds 11 1021 43 10000 7.2 20 21:21 24.10.2020
6387 Clouds 11 1021 43 10000 7.2 20 20:50 24.10.2020
6388 Clouds 13 1021 37 10000 4.6 360 20:27 24.10.2020
6389 Drizzle 14 1020 35 10000 6.2 360 19:58 24.10.2020
6390 Drizzle 14 1020 35 10000 6.2 360 19:40 24.10.2020
6391 Drizzle 14 1020 35 10000 6.2 360 19:22 24.10.2020
6392 Clouds 13 1019 43 9000 7.2 20 18:47 24.10.2020
6393 Clouds 15 1019 28 10000 7.2 360 18:27 24.10.2020
6394 Clear 16 1018 26 10000 5.7 360 17:42 24.10.2020
6395 Clear 16 1018 26 10000 5.7 360 17:22 24.10.2020
6396 Clear 16 1018 26 10000 3.6 20 16:48 24.10.2020
6397 Clear 16 1018 26 10000 3.6 20 16:30 24.10.2020
6398 Clear 16 1017 29 10000 3.6 20 15:42 24.10.2020
6399 Clear 16 1017 29 10000 3.6 20 15:20 24.10.2020
6400 Clear 18 1016 23 9000 5.1 10 14:57 24.10.2020
6401 Clear 18 1016 23 9000 5.1 10 14:29 24.10.2020
6402 Clear 19 1016 22 9000 3.1 0 13:50 24.10.2020
6403 Clear 19 1016 22 9000 3.1 0 13:31 24.10.2020
6404 Haze 19 1017 24 10000 3.1 0 12:59 24.10.2020
6405 Haze 19 1017 24 10000 3.1 0 12:37 24.10.2020
6406 Haze 19 1017 24 10000 3.1 0 12:19 24.10.2020
6407 Haze 20 1017 24 10000 1.5 0 11:45 24.10.2020
6408 Haze 20 1017 24 10000 1.5 0 11:19 24.10.2020
6409 Haze 19 1018 20 10000 5.1 340 10:42 24.10.2020
6410 Haze 19 1018 20 10000 5.1 340 10:24 24.10.2020
6411 Clear 17 1019 21 8000 3.6 340 09:44 24.10.2020
6412 Clear 17 1019 21 8000 3.6 340 09:25 24.10.2020
6413 Clear 16 1020 23 8000 1.5 0 08:54 24.10.2020
6414 Clear 16 1020 23 8000 1.5 0 08:18 24.10.2020
6415 Clear 16 1020 23 8000 1.5 0 08:18 24.10.2020
6416 Clear 15 1020 26 6000 2.6 0 07:49 24.10.2020
6417 Clear 15 1020 26 6000 2.6 0 07:20 24.10.2020
6418 Haze 12 1020 32 5000 1.5 0 06:49 24.10.2020
6419 Clear 7 1020 45 6000 0.5 0 05:27 24.10.2020
6420 Clear 6 1018 45 7000 1 0 02:20 24.10.2020
6421 Clear 8 1018 45 10000 1 160 00:54 24.10.2020
6422 Clear 8 1018 45 10000 1 160 00:36 24.10.2020
6423 Clear 8 1018 45 10000 1 160 00:18 24.10.2020
6424 Clear 9 1019 42 10000 1 0 23:39 23.10.2020
6425 Clear 9 1019 42 10000 1 0 23:20 23.10.2020
6426 Clear 11 1019 34 10000 1.5 130 22:42 23.10.2020
6427 Clear 11 1019 34 10000 1.5 130 22:21 23.10.2020
6428 Clear 10 1019 39 10000 2.1 80 21:53 23.10.2020
6429 Clear 10 1019 39 10000 2.1 80 21:30 23.10.2020
6430 Clear 13 1018 24 10000 4.1 360 20:59 23.10.2020
6431 Clear 13 1018 24 10000 4.1 360 20:38 23.10.2020
6432 Clear 13 1018 24 10000 4.1 360 20:19 23.10.2020
6433 Clear 14 1018 26 10000 4.6 350 19:44 23.10.2020
6434 Clear 14 1018 26 10000 4.6 350 19:26 23.10.2020
6435 Clear 14 1018 28 10000 5.1 350 18:47 23.10.2020
6436 Clear 14 1018 28 10000 5.1 350 18:29 23.10.2020
6437 Clear 15 1018 33 9000 2.1 0 17:45 23.10.2020
6438 Clear 15 1018 33 9000 2.1 0 17:21 23.10.2020
6439 Clear 15 1017 33 9000 2.6 70 16:50 23.10.2020
6440 Clear 15 1017 33 9000 2.6 70 16:31 23.10.2020
6441 Clear 16 1016 31 8000 3.1 90 15:56 23.10.2020
6442 Haze 17 1014 21 8000 6.2 350 15:38 23.10.2020
6443 Clear 19 1016 25 8000 4.1 110 15:19 23.10.2020
6444 Clear 19 1016 25 8000 4.1 110 14:45 23.10.2020
6445 Clear 19 1016 25 8000 4.1 110 14:45 23.10.2020
6446 Clear 19 1016 25 8000 4.1 110 14:27 23.10.2020
6447 Clear 20 1016 19 8000 3.6 360 13:41 23.10.2020
6448 Clear 20 1016 19 8000 3.6 360 13:23 23.10.2020
6449 Clear 22 1016 17 8000 1.5 0 12:50 23.10.2020
6450 Clear 22 1016 17 8000 1.5 0 12:30 23.10.2020
6451 Clear 21 1017 16 8000 1.5 0 11:50 23.10.2020
6452 Clear 21 1017 16 8000 1.5 0 11:26 23.10.2020
6453 Clear 20 1018 19 8000 1.5 0 10:52 23.10.2020
6454 Clear 20 1018 19 8000 1.5 0 10:26 23.10.2020
6455 Clear 18 1019 20 8000 2.1 0 09:57 23.10.2020
6456 Clear 18 1019 20 8000 2.1 0 09:38 23.10.2020
6457 Clear 18 1019 20 8000 2.1 0 09:19 23.10.2020
6458 Clear 17 1019 14 8000 1.5 0 08:49 23.10.2020
6459 Clear 17 1019 14 8000 1.5 0 08:23 23.10.2020
6460 Haze 17 1020 16 6000 1 0 07:26 23.10.2020
6461 Haze 13 1019 24 8000 1.11 29 06:46 23.10.2020
6462 Haze 13 1019 24 8000 0.54 19 06:19 23.10.2020
6463 Clear 5 1018 52 8000 0.14 280 03:29 23.10.2020
6464 Clear 5 1017 48 8000 1 140 02:26 23.10.2020
6465 Haze 8 1017 42 8000 1 0 00:49 23.10.2020
6466 Haze 8 1017 39 7000 1.5 320 23:59 22.10.2020
6467 Haze 8 1017 39 7000 1.5 320 23:31 22.10.2020
6468 Haze 8 1017 39 7000 1.5 320 22:56 22.10.2020
6469 Haze 9 1017 34 7000 1 270 22:38 22.10.2020
6470 Haze 9 1017 34 7000 1 270 22:19 22.10.2020
6471 Clear 9 1018 29 8000 1.5 0 21:43 22.10.2020
6472 Clear 9 1018 29 8000 1.5 0 21:24 22.10.2020
6473 Clear 10 1018 23 8000 1 0 20:58 22.10.2020
6474 Clear 10 1018 23 8000 1 0 20:39 22.10.2020
6475 Clear 10 1018 23 8000 1 0 20:18 22.10.2020
6476 Clear 13 1018 22 9000 1 0 19:41 22.10.2020
6477 Clear 13 1018 22 9000 1 0 19:19 22.10.2020
6478 Clear 15 1017 12 10000 2.1 0 18:43 22.10.2020
6479 Clear 15 1017 12 10000 2.1 0 18:21 22.10.2020
6480 Clear 15 1017 12 10000 2.1 0 17:47 22.10.2020
6481 Clear 16 1017 14 10000 2.1 0 17:26 22.10.2020
6482 Clear 17 1017 14 10000 1 0 16:57 22.10.2020
6483 Clear 17 1017 14 10000 1 0 16:39 22.10.2020
6484 Clear 17 1017 14 10000 1 0 16:20 22.10.2020
6485 Clear 20 1016 6 10000 1.5 0 15:44 22.10.2020
6486 Clear 20 1016 6 10000 1.5 0 15:25 22.10.2020
6487 Clear 22 1016 4 10000 2.1 0 14:47 22.10.2020
6488 Clear 22 1016 4 10000 2.1 0 14:25 22.10.2020
6489 Clear 23 1016 4 10000 3.1 0 13:49 22.10.2020
6490 Clear 23 1016 4 10000 3.1 0 13:24 22.10.2020
6491 Clear 23 1016 4 10000 3.1 0 12:53 22.10.2020
6492 Clear 23 1017 4 10000 2.6 0 12:24 22.10.2020
6493 Clear 22 1018 5 10000 3.1 0 11:50 22.10.2020
6494 Clear 22 1018 5 10000 3.1 0 11:20 22.10.2020
6495 Clear 21 1019 6 10000 3.1 0 10:51 22.10.2020
6496 Clear 21 1019 6 10000 3.1 0 10:29 22.10.2020
6497 Clear 22 1021 7 10000 2.6 0 09:54 22.10.2020
6498 Clear 22 1021 7 10000 2.6 0 09:35 22.10.2020
6499 Clear 21 1021 9 10000 1.5 0 08:53 22.10.2020
6500 Clear 21 1021 9 10000 1.5 0 08:32 22.10.2020
6501 Clear 17 1022 11 10000 4.1 310 07:58 22.10.2020
6502 Clear 17 1022 11 10000 4.1 310 07:40 22.10.2020
6503 Clear 14 1022 15 10000 3.6 310 06:58 22.10.2020
6504 Clear 14 1022 15 10000 3.6 310 06:35 22.10.2020
6505 Clear 10 1021 21 10000 3.6 330 05:42 22.10.2020
6506 Clear 10 1021 21 10000 3.6 330 05:19 22.10.2020
6507 Clear 9 1021 26 10000 1.5 260 01:50 22.10.2020
6508 Clear 8 1021 28 10000 2.6 330 00:27 22.10.2020
6509 Clear 9 1021 23 10000 1.5 300 23:57 21.10.2020
6510 Clear 9 1021 23 10000 1.5 300 23:33 21.10.2020
6511 Clear 11 1021 18 10000 2.1 300 22:44 21.10.2020
6512 Clear 11 1021 18 10000 2.1 300 22:20 21.10.2020
6513 Clear 11 1021 18 10000 2.1 300 22:20 21.10.2020
6514 Clear 11 1021 18 10000 2.1 300 22:20 21.10.2020
6515 Clear 14 1021 11 10000 2.6 340 21:57 21.10.2020
6516 Clear 14 1021 11 10000 2.6 340 21:38 21.10.2020
6517 Clear 14 1021 11 10000 2.6 340 21:18 21.10.2020
6518 Clear 13 1021 11 10000 2.6 310 20:48 21.10.2020
6519 Clear 13 1021 11 10000 2.6 310 20:19 21.10.2020
6520 Clear 16 1021 9 10000 6.2 360 19:56 21.10.2020
6521 Clear 16 1021 9 10000 6.2 360 19:36 21.10.2020
6522 Clear 16 1021 9 10000 6.2 360 19:18 21.10.2020
6523 Clear 16 1021 9 10000 7.7 350 18:45 21.10.2020
6524 Clear 16 1021 9 10000 7.7 350 18:21 21.10.2020
6525 Clear 17 1020 9 10000 5.7 360 17:42 21.10.2020
6526 Clear 17 1020 9 10000 5.7 360 17:19 21.10.2020
6527 Clear 19 1019 7 10000 8.7 10 16:41 21.10.2020
6528 Clear 19 1019 7 10000 8.7 10 16:21 21.10.2020
6529 Clear 20 1019 6 8000 7.7 20 15:57 21.10.2020
6530 Clear 20 1019 6 8000 7.7 20 15:38 21.10.2020
6531 Clear 20 1019 6 8000 7.7 20 15:19 21.10.2020
6532 Dust 20 1019 6 5000 6.7 20 14:44 21.10.2020
6533 Clear 22 1019 6 8000 4.1 30 14:26 21.10.2020
6534 Clear 23 1019 7 10000 4.1 10 13:45 21.10.2020
6535 Clear 23 1019 7 10000 4.1 10 13:26 21.10.2020
6536 Clear 23 1019 8 10000 3.1 0 12:48 21.10.2020
6537 Clear 23 1019 8 10000 3.1 0 12:24 21.10.2020
6538 Clear 23 1020 10 10000 1.5 0 11:59 21.10.2020
6539 Clear 23 1020 10 10000 1.5 0 11:40 21.10.2020
6540 Clear 23 1020 10 10000 1.5 0 11:40 21.10.2020
6541 Clear 23 1020 10 10000 1.5 0 11:19 21.10.2020
6542 Clear 23 1020 11 10000 3.1 0 10:43 21.10.2020
6543 Clear 23 1020 11 10000 3.1 0 10:23 21.10.2020
6544 Clear 22 1022 11 10000 3.1 0 09:52 21.10.2020
6545 Clear 22 1022 11 10000 3.1 0 09:30 21.10.2020
6546 Clear 20 1022 13 9000 3.1 0 08:42 21.10.2020
6547 Clear 20 1022 13 9000 3.1 0 08:24 21.10.2020
6548 Clear 18 1023 18 10000 2.1 0 07:58 21.10.2020
6549 Clear 18 1023 18 10000 2.1 0 07:31 21.10.2020
6550 Clear 18 1023 18 10000 2.1 0 06:50 21.10.2020
6551 Clear 15 1022 22 10000 3.6 340 06:26 21.10.2020
6552 Clear 7 1021 52 10000 1 0 04:46 21.10.2020
6553 Clear 9 1020 49 10000 0.47 318 00:50 21.10.2020
6554 Clear 9 1020 49 10000 0.49 307 23:49 20.10.2020
6555 Clear 12 1020 37 10000 1 0 22:52 20.10.2020
6556 Clear 12 1020 37 10000 1 0 22:27 20.10.2020
6557 Clear 12 1020 37 10000 1 0 21:49 20.10.2020
6558 Clear 12 1020 37 10000 2.6 0 21:20 20.10.2020
6559 Clear 12 1020 34 10000 2.1 0 20:45 20.10.2020
6560 Clear 12 1020 34 10000 2.1 0 20:25 20.10.2020
6561 Clear 12 1020 34 10000 2.1 0 20:25 20.10.2020
6562 Clear 14 1016 33 10000 0.82 20 19:58 20.10.2020
6563 Clear 14 1016 33 10000 0.82 20 19:40 20.10.2020
6564 Clear 14 1019 28 10000 1 0 19:21 20.10.2020
6565 Clear 14 1019 28 10000 1 0 18:47 20.10.2020
6566 Clear 14 1019 28 10000 1 0 18:27 20.10.2020
6567 Clear 15 1019 26 10000 1.5 110 17:43 20.10.2020
6568 Clear 15 1019 26 10000 1.5 110 17:24 20.10.2020
6569 Clear 18 1018 20 10000 3.1 150 16:48 20.10.2020
6570 Clear 18 1018 20 10000 3.1 150 16:27 20.10.2020
6571 Clear 20 1017 15 10000 4.1 130 15:51 20.10.2020
6572 Clear 20 1017 15 10000 4.1 130 15:33 20.10.2020
6573 Clear 23 1016 10 10000 4.6 130 14:59 20.10.2020
6574 Clear 23 1016 10 10000 4.6 130 14:39 20.10.2020
6575 Clear 23 1016 10 10000 4.6 130 14:21 20.10.2020
6576 Clear 24 1016 8 10000 3.1 0 13:44 20.10.2020
6577 Clear 24 1016 8 10000 3.1 0 13:23 20.10.2020
6578 Clear 25 1017 9 10000 1.5 0 12:56 20.10.2020
6579 Clear 25 1017 9 10000 1.5 0 12:38 20.10.2020
6580 Clear 25 1017 9 10000 1.5 0 12:19 20.10.2020
6581 Clear 24 1017 8 10000 3.1 0 11:37 20.10.2020
6582 Clear 24 1017 8 10000 3.1 0 11:18 20.10.2020
6583 Clear 22 1018 10 10000 3.1 0 10:29 20.10.2020
6584 Clear 22 1018 10 10000 3.1 0 09:51 20.10.2020
6585 Clear 22 1018 10 10000 3.1 0 09:21 20.10.2020
6586 Clear 20 1019 13 9000 3.1 0 08:58 20.10.2020
6587 Clear 20 1019 13 9000 3.1 0 08:31 20.10.2020
6588 Clear 17 1019 16 10000 2.6 0 07:51 20.10.2020
6589 Clear 17 1019 16 10000 2.6 0 07:25 20.10.2020
6590 Clear 15 1019 18 10000 3.1 0 06:29 20.10.2020
6591 Clear 12 1018 22 10000 3.6 320 05:43 20.10.2020
6592 Clear 9 1017 26 10000 3.1 320 03:55 20.10.2020
6593 Clear 7 1017 30 10000 3.6 330 02:18 20.10.2020
6594 Clear 11 1017 25 10000 3.1 330 00:58 20.10.2020
6595 Clear 11 1017 25 10000 3.1 330 00:39 20.10.2020
6596 Clear 11 1017 25 10000 3.1 330 00:19 20.10.2020
6597 Clear 9 1018 36 8000 3.1 330 23:40 19.10.2020
6598 Clear 9 1018 36 8000 3.1 330 23:19 19.10.2020
6599 Haze 10 1018 39 7000 1 330 22:43 19.10.2020
6600 Haze 10 1018 39 7000 1 330 22:21 19.10.2020
6601 Haze 11 1019 37 7000 1 0 21:43 19.10.2020
6602 Haze 11 1019 37 7000 1 0 21:21 19.10.2020
6603 Haze 11 1019 37 7000 1 0 20:46 19.10.2020
6604 Clear 12 1019 37 7000 1 0 20:27 19.10.2020
6605 Clear 13 1019 28 8000 1 0 19:48 19.10.2020
6606 Clear 13 1019 28 8000 1 0 19:22 19.10.2020
6607 Clear 14 1019 26 8000 1 0 18:54 19.10.2020
6608 Clear 14 1019 26 8000 1 0 18:35 19.10.2020
6609 Clear 18 1019 16 10000 2.1 0 17:58 19.10.2020
6610 Clear 18 1019 16 10000 2.1 0 17:40 19.10.2020
6611 Clear 18 1019 16 10000 2.1 0 17:21 19.10.2020
6612 Clear 21 1020 11 10000 3.6 330 16:43 19.10.2020
6613 Clear 21 1020 11 10000 3.6 330 16:22 19.10.2020
6614 Clear 15 1015 28 10000 1.25 335 15:41 19.10.2020
6615 Clear 16 1014 27 10000 1.02 355 15:23 19.10.2020
6616 Clear 16 1014 27 10000 1.02 355 14:51 19.10.2020
6617 Clear 20 1014 21 10000 1.27 45 14:24 19.10.2020
6618 Clear 20 1014 21 10000 1.27 45 13:52 19.10.2020
6619 Clear 21 1013 18 10000 1.32 44 13:31 19.10.2020
6620 Clear 21 1013 18 10000 1.32 44 12:50 19.10.2020
6621 Clear 21 1013 18 10000 1.32 44 12:32 19.10.2020
6622 Clear 21 1013 18 10000 1.1 48 11:51 19.10.2020
6623 Clear 22 1021 10 10000 3.1 0 11:25 19.10.2020
6624 Clear 22 1021 10 10000 3.1 0 10:56 19.10.2020
6625 Clear 22 1021 10 10000 3.1 0 10:37 19.10.2020
6626 Clear 22 1021 10 10000 3.1 0 10:18 19.10.2020
6627 Clear 21 1021 13 10000 3.1 0 09:42 19.10.2020
6628 Clear 21 1021 13 10000 3.1 0 09:19 19.10.2020
6629 Clear 19 1022 13 10000 5.1 180 08:47 19.10.2020
6630 Clear 19 1022 13 10000 5.1 180 08:22 19.10.2020
6631 Clear 18 1022 15 10000 1.5 0 07:37 19.10.2020
6632 Clear 18 1022 15 10000 1.5 0 07:18 19.10.2020
6633 Clear 16 1022 17 10000 2.1 0 06:18 19.10.2020
6634 Clear 8 1020 31 10000 3.1 330 03:48 19.10.2020
6635 Clear 7 1020 42 10000 1.5 310 02:23 19.10.2020
6636 Clear 8 1020 39 10000 1 0 00:49 19.10.2020
6637 Clear 8 1020 39 10000 1 0 00:20 19.10.2020
6638 Clear 10 1020 31 10000 2.1 310 23:45 18.10.2020
6639 Clear 10 1020 31 10000 2.1 310 23:24 18.10.2020
6640 Clear 10 1021 31 10000 0.29 233 22:48 18.10.2020
6641 Clear 10 1021 31 10000 0.4 247 22:22 18.10.2020
6642 Clear 11 1021 29 10000 1 0 21:53 18.10.2020
6643 Clear 11 1021 29 10000 1 0 21:30 18.10.2020
6644 Clear 13 1021 26 10000 1 0 20:58 18.10.2020
6645 Clear 13 1021 26 10000 1 0 20:39 18.10.2020
6646 Clear 13 1021 26 10000 1 0 20:19 18.10.2020
6647 Clear 14 1021 24 10000 2.6 0 19:42 18.10.2020
6648 Clear 14 1021 24 10000 2.6 0 19:20 18.10.2020
6649 Clear 15 1021 19 10000 2.6 0 18:48 18.10.2020
6650 Clear 17 1020 17 10000 6.2 350 18:25 18.10.2020
6651 Clear 17 1020 17 10000 6.2 350 17:43 18.10.2020
6652 Clear 17 1020 17 10000 6.2 350 17:24 18.10.2020
6653 Clear 18 1020 17 10000 5.1 350 16:45 18.10.2020
6654 Clear 18 1020 17 10000 5.1 350 16:26 18.10.2020
6655 Clear 20 1020 11 10000 4.6 10 15:57 18.10.2020
6656 Clear 20 1020 11 10000 4.6 10 15:39 18.10.2020
6657 Clear 20 1020 11 10000 4.6 10 15:18 18.10.2020
6658 Clear 21 1020 10 10000 4.6 360 14:50 18.10.2020
6659 Clear 22 1020 10 10000 3.1 350 14:27 18.10.2020
6660 Clear 22 1020 10 10000 3.1 350 13:55 18.10.2020
6661 Clear 22 1020 10 10000 3.1 350 13:36 18.10.2020
6662 Clear 22 1020 10 10000 3.1 350 13:18 18.10.2020
6663 Clear 23 1020 8 10000 1.5 0 12:41 18.10.2020
6664 Clear 23 1020 8 10000 1.5 0 12:20 18.10.2020
6665 Clear 22 1020 10 10000 3.1 0 11:41 18.10.2020
6666 Clear 22 1020 10 10000 3.1 0 11:22 18.10.2020
6667 Clear 21 1021 11 10000 5.1 340 10:40 18.10.2020
6668 Clear 21 1021 11 10000 5.1 340 10:40 18.10.2020
6669 Clear 21 1021 11 10000 5.1 340 10:20 18.10.2020
6670 Clear 21 1022 13 10000 3.1 0 09:50 18.10.2020
6671 Clear 21 1022 13 10000 3.1 0 09:23 18.10.2020
6672 Clear 20 1023 14 10000 3.1 0 08:57 18.10.2020
6673 Clear 20 1023 14 10000 3.1 0 08:37 18.10.2020
6674 Clear 20 1023 14 10000 3.1 0 08:19 18.10.2020
6675 Clear 15 1023 15 10000 3.1 0 06:57 18.10.2020
6676 Clear 8 1021 42 10000 2.6 330 04:44 18.10.2020
6677 Clear 8 1020 45 8000 0.26 235 02:56 18.10.2020
6678 Clear 8 1020 45 8000 1.5 0 01:39 18.10.2020
6679 Clear 8 1020 45 8000 1 0 00:50 18.10.2020
6680 Clear 8 1020 45 8000 1 0 00:32 18.10.2020
6681 Clear 12 1021 27 10000 1.5 320 23:45 17.10.2020
6682 Clear 12 1021 27 10000 1.5 320 23:22 17.10.2020
6683 Clear 11 1020 34 10000 2.1 310 22:59 17.10.2020
6684 Clear 11 1020 34 10000 2.1 310 22:40 17.10.2020
6685 Clear 11 1020 34 10000 2.1 310 22:19 17.10.2020
6686 Clear 12 1021 37 10000 2.1 0 21:44 17.10.2020
6687 Clear 12 1021 37 10000 2.1 0 21:23 17.10.2020
6688 Clear 12 1021 37 10000 2.1 0 20:49 17.10.2020
6689 Clear 13 1021 35 10000 1 0 20:21 17.10.2020
6690 Clear 13 1021 35 10000 1 0 19:59 17.10.2020
6691 Clear 13 1021 35 10000 1 0 19:40 17.10.2020
6692 Clear 13 1020 32 10000 1.5 0 19:18 17.10.2020
6693 Clear 15 1020 26 10000 1 0 18:41 17.10.2020
6694 Clear 15 1020 26 10000 1 0 18:19 17.10.2020
6695 Clear 17 1020 23 10000 1 0 17:42 17.10.2020
6696 Clear 17 1020 23 10000 1 0 17:21 17.10.2020
6697 Clear 17 1019 21 10000 4.1 100 16:48 17.10.2020
6698 Clear 19 1019 19 10000 5.1 120 16:23 17.10.2020
6699 Clear 19 1019 19 10000 5.1 120 16:23 17.10.2020
6700 Clear 19 1019 19 10000 5.1 120 15:55 17.10.2020
6701 Clear 19 1019 19 10000 5.1 120 15:36 17.10.2020
6702 Clear 19 1019 19 10000 5.1 120 15:18 17.10.2020
6703 Clear 22 1018 10 10000 4.6 130 14:39 17.10.2020
6704 Clear 22 1018 10 10000 4.6 130 14:20 17.10.2020
6705 Clear 22 1019 9 10000 3.6 130 13:48 17.10.2020
6706 Clear 22 1019 9 10000 3.6 130 13:30 17.10.2020
6707 Clear 24 1019 8 10000 3.6 110 12:59 17.10.2020
6708 Clear 24 1019 8 10000 3.6 110 12:59 17.10.2020
6709 Clear 24 1019 8 10000 3.6 110 12:38 17.10.2020
6710 Clear 24 1019 8 10000 3.6 110 12:19 17.10.2020
6711 Clear 24 1020 8 10000 3.1 0 11:48 17.10.2020
6712 Clear 24 1020 8 10000 3.1 0 11:26 17.10.2020
6713 Clear 22 1021 10 10000 3.1 0 10:33 17.10.2020
6714 Clear 22 1021 10 10000 2.1 0 09:53 17.10.2020
6715 Clear 22 1021 10 10000 2.1 0 09:34 17.10.2020
6716 Clear 20 1022 12 10000 3.1 0 08:59 17.10.2020
6717 Clear 20 1022 12 10000 3.1 0 08:28 17.10.2020
6718 Clear 18 1022 15 10000 3.1 0 07:47 17.10.2020
6719 Clear 18 1022 15 10000 3.1 0 07:27 17.10.2020
6720 Clear 15 1022 18 10000 3.1 0 06:18 17.10.2020
6721 Clear 9 1020 34 10000 1.5 310 03:29 17.10.2020
6722 Clear 10 1019 29 10000 1.5 330 02:26 17.10.2020
6723 Clear 11 1019 34 10000 1.5 310 00:53 17.10.2020
6724 Clear 10 1019 34 10000 2.1 310 23:58 16.10.2020
6725 Clear 10 1019 34 10000 2.1 310 23:24 16.10.2020
6726 Clear 9 1019 39 8000 2.1 310 22:46 16.10.2020
6727 Clear 9 1019 39 8000 2.1 310 22:25 16.10.2020
6728 Clear 11 1020 43 10000 1 0 21:57 16.10.2020
6729 Clear 11 1020 43 10000 1 0 21:38 16.10.2020
6730 Clear 11 1020 43 10000 1 0 21:20 16.10.2020
6731 Clear 11 1020 43 10000 1 0 20:43 16.10.2020
6732 Clear 11 1019 32 10000 1 0 20:24 16.10.2020
6733 Clear 13 1019 22 10000 1.5 0 19:45 16.10.2020
6734 Clear 13 1019 22 10000 1.5 0 19:26 16.10.2020
6735 Clear 15 1020 19 10000 1 0 18:54 16.10.2020
6736 Clear 15 1020 19 10000 1 0 18:33 16.10.2020
6737 Clear 16 1019 15 10000 2.6 0 17:48 16.10.2020